GEFSNGP_prec_meanprecacc_006.txt.gz
Total_Precipitation_Accumulation
0.00 0.00 0.00 0.00 0.00 0.00 0.00 0.00 0.00 0.00 0.00 0.00 0.00 0.00 0.00 0.00 0.00 0.00 0.00 0.00 0.00 0.00 0.00 0.00 0.00 0.00 0.00 0.00 0.00 0.00 0.00 0.00 0.00 0.00 0.00 0.00 0.00 0.00 0.00 0.00 0.00 0.00 0.00 0.00
0.00 0.00 0.00 0.00 0.00 0.00 0.00 0.00 0.00 0.00 0.00 0.00 0.00 0.00 0.00 0.00 0.00 0.00 0.00 0.00 0.00 0.00 0.00 0.00 0.00 0.00 0.00 0.00 0.00 0.00 0.00 0.00 0.00 0.00 0.00 0.00 0.00 0.00 0.00 0.00 0.00 0.00 0.00 0.00
0.00 0.00 0.00 0.00 0.00 0.00 0.00 0.00 0.00 0.00 0.00 0.00 0.00 0.00 0.00 0.00 0.00 0.00 0.00 0.00 0.00 0.00 0.00 0.00 0.00 0.00 0.00 0.00 0.00 0.00 0.00 0.00 0.00 0.00 0.00 0.00 0.00 0.00 0.00 0.00 0.00 0.00 0.00 0.00
0.00 0.00 0.00 0.00 0.00 0.00 0.00 0.00 0.00 0.00 0.00 0.00 0.00 0.00 0.00 0.00 0.00 0.00 0.00 0.00 0.00 0.00 0.00 0.00 0.00 0.00 0.00 0.00 0.00 0.00 0.00 0.00 0.00 0.00 0.00 0.00 0.00 0.00 0.00 0.00 0.00 0.00 0.00 0.00
0.00 0.00 0.00 0.00 0.00 0.00 0.00 0.00 0.00 0.00 0.00 0.00 0.00 0.00 0.00 0.00 0.00 0.00 0.00 0.00 0.00 0.00 0.00 0.00 0.00 0.00 0.00 0.00 0.00 0.00 0.00 0.00 0.00 0.00 0.00 0.00 0.00 0.00 0.00 0.00 0.00 0.00 0.00 0.00
0.00 0.00 0.00 0.00 0.00 0.00 0.00 0.00 0.00 0.00 0.00 0.00 0.00 0.00 0.00 0.00 0.00 0.00 0.00 0.00 0.00 0.00 0.00 0.00 0.00 0.00 0.00 0.00 0.00 0.00 0.00 0.00 0.00 0.00 0.00 0.00 0.00 0.00 0.00 0.00 0.00 0.00 0.00 0.00
0.00 0.00 0.00 0.00 0.00 0.00 0.00 0.00 0.00 0.00 0.00 0.00 0.00 0.00 0.00 0.00 0.00 0.00 0.00 0.00 0.00 0.00 0.00 0.00 0.00 0.00 0.00 0.00 0.00 0.00 0.00 0.00 0.00 0.00 0.00 0.00 0.00 0.00 0.00 0.00 0.00 0.00 0.00 0.00
0.00 0.00 0.00 0.00 0.00 0.00 0.00 0.00 0.00 0.00 0.00 0.00 0.00 0.00 0.00 0.00 0.00 0.00 0.00 0.00 0.00 0.00 0.00 0.00 0.00 0.00 0.00 0.00 0.00 0.00 0.00 0.00 0.00 0.00 0.00 0.00 0.00 0.00 0.00 0.00 0.00 0.00 0.01 0.00
0.00 0.00 0.00 0.00 0.00 0.00 0.00 0.00 0.00 0.00 0.00 0.00 0.00 0.00 0.00 0.00 0.00 0.00 0.00 0.00 0.00 0.00 0.00 0.00 0.00 0.00 0.00 0.00 0.00 0.00 0.00 0.00 0.00 0.00 0.00 0.00 0.00 0.00 0.01 0.01 0.01 0.02 0.01 0.01
0.00 0.00 0.00 0.00 0.00 0.00 0.00 0.00 0.00 0.00 0.00 0.00 0.00 0.00 0.00 0.00 0.00 0.00 0.00 0.00 0.00 0.00 0.00 0.00 0.00 0.00 0.00 0.00 0.00 0.00 0.00 0.00 0.00 0.00 0.00 0.00 0.00 0.01 0.01 0.02 0.05 0.03 0.01 0.01
0.00 0.00 0.00 0.00 0.00 0.00 0.00 0.00 0.00 0.00 0.00 0.00 0.00 0.00 0.00 0.00 0.00 0.00 0.00 0.00 0.00 0.00 0.00 0.00 0.00 0.00 0.00 0.00 0.00 0.00 0.00 0.00 0.00 0.00 0.00 0.00 0.00 0.00 0.01 0.03 0.07 0.04 0.02 0.01
0.00 0.00 0.00 0.00 0.00 0.00 0.00 0.00 0.00 0.00 0.00 0.00 0.00 0.00 0.00 0.00 0.00 0.00 0.00 0.00 0.00 0.00 0.00 0.00 0.00 0.00 0.00 0.00 0.00 0.00 0.00 0.00 0.00 0.00 0.00 0.00 0.00 0.00 0.01 0.02 0.04 0.03 0.03 0.02
0.00 0.00 0.00 0.00 0.00 0.00 0.00 0.00 0.00 0.00 0.00 0.00 0.00 0.00 0.00 0.00 0.00 0.00 0.00 0.00 0.00 0.00 0.00 0.00 0.00 0.00 0.00 0.00 0.00 0.00 0.00 0.00 0.00 0.00 0.00 0.00 0.00 0.00 0.00 0.01 0.01 0.01 0.02 0.01
0.00 0.00 0.00 0.00 0.00 0.00 0.00 0.00 0.00 0.00 0.00 0.00 0.00 0.00 0.00 0.00 0.00 0.00 0.00 0.00 0.00 0.00 0.00 0.00 0.00 0.00 0.00 0.00 0.00 0.00 0.00 0.00 0.00 0.00 0.00 0.00 0.00 0.00 0.01 0.01 0.01 0.00 0.00 0.01
0.00 0.00 0.00 0.00 0.00 0.00 0.00 0.00 0.00 0.00 0.00 0.00 0.00 0.00 0.00 0.00 0.00 0.00 0.00 0.00 0.00 0.00 0.00 0.00 0.00 0.00 0.00 0.00 0.00 0.00 0.00 0.00 0.00 0.00 0.00 0.00 0.00 0.00 0.00 0.01 0.01 0.00 0.00 0.00
0.00 0.00 0.00 0.00 0.00 0.00 0.00 0.00 0.00 0.00 0.00 0.00 0.00 0.00 0.00 0.00 0.00 0.00 0.00 0.00 0.00 0.00 0.00 0.00 0.00 0.00 0.00 0.00 0.00 0.00 0.00 0.00 0.00 0.00 0.00 0.00 0.00 0.00 0.00 0.00 0.00 0.00 0.00 0.01
0.00 0.00 0.00 0.00 0.00 0.00 0.00 0.00 0.00 0.00 0.00 0.00 0.00 0.00 0.00 0.00 0.00 0.00 0.00 0.00 0.00 0.00 0.00 0.00 0.00 0.00 0.00 0.00 0.00 0.00 0.00 0.00 0.00 0.00 0.00 0.00 0.00 0.00 0.00 0.00 0.00 0.00 0.00 0.01
0.00 0.00 0.00 0.00 0.00 0.00 0.00 0.00 0.00 0.00 0.00 0.00 0.00 0.00 0.00 0.00 0.00 0.00 0.00 0.00 0.00 0.00 0.00 0.00 0.00 0.00 0.00 0.00 0.00 0.00 0.00 0.00 0.00 0.00 0.00 0.00 0.00 0.00 0.00 0.00 0.00 0.00 0.00 0.00
0.00 0.00 0.00 0.00 0.00 0.00 0.00 0.00 0.00 0.00 0.00 0.00 0.00 0.00 0.00 0.00 0.00 0.00 0.00 0.00 0.00 0.00 0.00 0.00 0.00 0.00 0.00 0.00 0.00 0.00 0.00 0.00 0.00 0.00 0.00 0.00 0.00 0.00 0.00 0.00 0.00 0.00 0.00 0.00
0.00 0.00 0.00 0.00 0.00 0.00 0.00 0.00 0.00 0.00 0.00 0.00 0.00 0.00 0.00 0.00 0.00 0.00 0.00 0.00 0.00 0.00 0.00 0.00 0.00 0.00 0.00 0.00 0.00 0.00 0.00 0.00 0.00 0.00 0.00 0.00 0.00 0.00 0.00 0.00 0.00 0.00 0.00 0.00
0.00 0.00 0.00 0.00 0.00 0.00 0.00 0.00 0.00 0.00 0.00 0.00 0.00 0.00 0.00 0.00 0.00 0.00 0.00 0.00 0.00 0.00 0.00 0.00 0.00 0.00 0.00 0.00 0.00 0.00 0.00 0.00 0.00 0.00 0.00 0.00 0.00 0.00 0.00 0.00 0.01 0.01 0.01 0.01
0.00 0.00 0.00 0.00 0.00 0.00 0.00 0.00 0.00 0.00 0.00 0.00 0.00 0.00 0.00 0.00 0.00 0.00 0.00 0.00 0.00 0.00 0.00 0.00 0.00 0.00 0.00 0.00 0.00 0.00 0.00 0.00 0.00 0.00 0.00 0.00 0.01 0.01 0.00 0.01 0.02 0.02 0.02 0.02
0.00 0.00 0.00 0.00 0.00 0.00 0.00 0.00 0.00 0.00 0.00 0.00 0.00 0.00 0.00 0.00 0.00 0.00 0.00 0.00 0.00 0.00 0.00 0.00 0.00 0.00 0.00 0.00 0.00 0.00 0.00 0.00 0.00 0.00 0.00 0.00 0.00 0.01 0.01 0.02 0.02 0.02 0.03 0.04
0.00 0.00 0.00 0.00 0.00 0.00 0.00 0.00 0.00 0.00 0.00 0.00 0.00 0.00 0.00 0.00 0.00 0.00 0.00 0.00 0.00 0.00 0.00 0.00 0.00 0.00 0.00 0.00 0.00 0.00 0.00 0.00 0.00 0.00 0.00 0.00 0.00 0.00 0.01 0.01 0.01 0.02 0.03 0.04
0.00 0.00 0.00 0.00 0.00 0.00 0.00 0.00 0.00 0.00 0.00 0.00 0.00 0.00 0.00 0.00 0.00 0.00 0.00 0.00 0.00 0.00 0.00 0.00 0.00 0.00 0.00 0.00 0.00 0.00 0.00 0.00 0.00 0.00 0.00 0.00 0.00 0.00 0.01 0.01 0.01 0.01 0.02 0.03
0.00 0.00 0.00 0.00 0.00 0.00 0.00 0.00 0.00 0.00 0.00 0.00 0.00 0.00 0.00 0.00 0.00 0.00 0.00 0.00 0.00 0.00 0.00 0.00 0.00 0.00 0.00 0.00 0.00 0.00 0.00 0.00 0.00 0.00 0.00 0.00 0.00 0.00 0.00 0.01 0.01 0.01 0.02 0.02
0.00 0.00 0.00 0.00 0.00 0.00 0.00 0.00 0.00 0.00 0.00 0.00 0.00 0.00 0.00 0.00 0.00 0.00 0.00 0.00 0.00 0.00 0.00 0.00 0.00 0.00 0.00 0.00 0.00 0.00 0.00 0.00 0.00 0.00 0.00 0.00 0.00 0.00 0.00 0.01 0.01 0.01 0.01 0.01

GEFSNGP_prec_meanprecacc_012.txt.gz
Total_Precipitation_Accumulation
0.00 0.00 0.00 0.00 0.00 0.00 0.00 0.00 0.00 0.00 0.00 0.00 0.00 0.00 0.00 0.00 0.00 0.00 0.00 0.00 0.00 0.00 0.00 0.00 0.00 0.00 0.00 0.00 0.00 0.00 0.00 0.00 0.00 0.00 0.00 0.00 0.00 0.00 0.00 0.00 0.00 0.00 0.00 0.00
0.00 0.00 0.00 0.00 0.00 0.00 0.00 0.00 0.00 0.00 0.00 0.00 0.00 0.00 0.00 0.00 0.00 0.00 0.00 0.00 0.00 0.00 0.00 0.00 0.00 0.00 0.00 0.00 0.00 0.00 0.00 0.00 0.00 0.00 0.00 0.00 0.00 0.00 0.00 0.00 0.00 0.00 0.00 0.00
0.00 0.00 0.00 0.00 0.00 0.00 0.00 0.00 0.00 0.00 0.00 0.00 0.00 0.00 0.00 0.00 0.00 0.00 0.00 0.00 0.00 0.00 0.00 0.00 0.00 0.00 0.00 0.00 0.00 0.00 0.00 0.00 0.00 0.00 0.00 0.00 0.00 0.00 0.00 0.00 0.00 0.00 0.00 0.00
0.00 0.00 0.00 0.00 0.00 0.00 0.00 0.00 0.00 0.00 0.00 0.00 0.00 0.00 0.00 0.00 0.00 0.00 0.00 0.00 0.00 0.00 0.00 0.00 0.00 0.00 0.00 0.00 0.00 0.00 0.00 0.00 0.00 0.00 0.00 0.00 0.00 0.00 0.00 0.00 0.00 0.00 0.00 0.00
0.00 0.00 0.00 0.00 0.00 0.00 0.00 0.00 0.00 0.00 0.00 0.00 0.00 0.00 0.00 0.00 0.00 0.00 0.00 0.00 0.00 0.00 0.00 0.00 0.00 0.00 0.00 0.00 0.00 0.00 0.00 0.00 0.00 0.00 0.00 0.00 0.00 0.00 0.00 0.00 0.00 0.00 0.00 0.00
0.00 0.00 0.00 0.00 0.00 0.00 0.00 0.00 0.00 0.00 0.00 0.00 0.00 0.00 0.00 0.00 0.00 0.00 0.00 0.00 0.00 0.00 0.00 0.00 0.00 0.00 0.00 0.00 0.00 0.00 0.00 0.00 0.00 0.00 0.00 0.00 0.00 0.00 0.00 0.00 0.00 0.00 0.00 0.00
0.00 0.00 0.00 0.00 0.00 0.00 0.00 0.00 0.00 0.00 0.00 0.00 0.00 0.00 0.00 0.00 0.00 0.00 0.00 0.00 0.00 0.00 0.00 0.00 0.00 0.00 0.00 0.00 0.00 0.00 0.00 0.00 0.00 0.00 0.00 0.00 0.00 0.00 0.00 0.00 0.00 0.00 0.00 0.00
0.00 0.00 0.00 0.00 0.00 0.00 0.00 0.00 0.00 0.00 0.00 0.00 0.00 0.00 0.00 0.00 0.00 0.00 0.00 0.00 0.00 0.00 0.00 0.00 0.00 0.00 0.00 0.00 0.00 0.00 0.00 0.00 0.00 0.00 0.00 0.00 0.00 0.00 0.00 0.01 0.01 0.01 0.01 0.00
0.00 0.00 0.00 0.00 0.00 0.00 0.00 0.00 0.00 0.00 0.00 0.00 0.00 0.00 0.00 0.00 0.00 0.00 0.00 0.00 0.00 0.00 0.00 0.00 0.00 0.00 0.00 0.00 0.00 0.00 0.00 0.00 0.00 0.00 0.00 0.00 0.00 0.00 0.01 0.02 0.03 0.02 0.01 0.01
0.00 0.00 0.00 0.00 0.00 0.00 0.00 0.00 0.00 0.00 0.00 0.00 0.00 0.00 0.00 0.00 0.00 0.00 0.00 0.00 0.00 0.00 0.00 0.00 0.00 0.00 0.00 0.00 0.00 0.00 0.00 0.00 0.00 0.00 0.00 0.00 0.00 0.01 0.02 0.04 0.10 0.04 0.01 0.01
0.00 0.00 0.00 0.00 0.00 0.00 0.00 0.00 0.00 0.00 0.00 0.00 0.00 0.00 0.00 0.00 0.00 0.00 0.00 0.00 0.00 0.00 0.00 0.00 0.00 0.00 0.00 0.00 0.00 0.00 0.00 0.00 0.00 0.00 0.00 0.00 0.00 0.00 0.02 0.04 0.10 0.07 0.04 0.03
0.00 0.00 0.00 0.00 0.00 0.00 0.00 0.00 0.00 0.00 0.00 0.00 0.00 0.00 0.00 0.00 0.00 0.00 0.00 0.00 0.00 0.00 0.00 0.00 0.00 0.00 0.00 0.00 0.00 0.00 0.00 0.00 0.00 0.00 0.00 0.00 0.00 0.00 0.01 0.02 0.04 0.04 0.05 0.04
0.00 0.00 0.00 0.00 0.00 0.00 0.00 0.00 0.00 0.00 0.00 0.00 0.00 0.00 0.00 0.00 0.00 0.00 0.00 0.00 0.00 0.00 0.00 0.00 0.00 0.00 0.00 0.00 0.00 0.00 0.00 0.00 0.00 0.00 0.00 0.00 0.00 0.00 0.00 0.01 0.01 0.01 0.02 0.03
0.00 0.00 0.00 0.00 0.00 0.00 0.00 0.00 0.00 0.00 0.00 0.00 0.00 0.00 0.00 0.00 0.00 0.00 0.00 0.00 0.00 0.00 0.00 0.00 0.00 0.00 0.00 0.00 0.00 0.00 0.00 0.00 0.00 0.00 0.00 0.00 0.00 0.00 0.01 0.01 0.01 0.00 0.00 0.01
0.00 0.00 0.00 0.00 0.00 0.00 0.00 0.00 0.00 0.00 0.00 0.00 0.00 0.00 0.00 0.00 0.00 0.00 0.00 0.00 0.00 0.00 0.00 0.00 0.00 0.00 0.00 0.00 0.00 0.00 0.00 0.00 0.00 0.00 0.00 0.00 0.00 0.00 0.00 0.01 0.01 0.00 0.00 0.00
0.00 0.00 0.00 0.00 0.00 0.00 0.00 0.00 0.00 0.00 0.00 0.00 0.00 0.00 0.00 0.00 0.00 0.00 0.00 0.00 0.00 0.00 0.00 0.00 0.00 0.00 0.00 0.00 0.00 0.00 0.00 0.00 0.00 0.00 0.00 0.00 0.00 0.00 0.00 0.01 0.00 0.00 0.01 0.01
0.00 0.00 0.00 0.00 0.00 0.00 0.00 0.00 0.00 0.00 0.00 0.00 0.00 0.00 0.00 0.00 0.00 0.00 0.00 0.00 0.00 0.00 0.00 0.00 0.00 0.00 0.00 0.00 0.00 0.00 0.00 0.00 0.00 0.00 0.00 0.00 0.00 0.00 0.00 0.00 0.01 0.01 0.01 0.02
0.00 0.00 0.00 0.00 0.00 0.00 0.00 0.00 0.00 0.00 0.00 0.00 0.00 0.00 0.00 0.00 0.00 0.00 0.00 0.00 0.00 0.00 0.00 0.00 0.00 0.00 0.00 0.00 0.00 0.00 0.00 0.00 0.00 0.00 0.00 0.00 0.00 0.00 0.00 0.00 0.00 0.01 0.01 0.00
0.00 0.00 0.00 0.00 0.00 0.00 0.00 0.00 0.00 0.00 0.00 0.00 0.00 0.00 0.00 0.00 0.00 0.00 0.00 0.00 0.00 0.00 0.00 0.00 0.00 0.00 0.00 0.00 0.00 0.00 0.00 0.00 0.00 0.00 0.00 0.00 0.00 0.00 0.00 0.00 0.00 0.01 0.01 0.01
0.00 0.00 0.00 0.00 0.00 0.00 0.00 0.00 0.00 0.00 0.00 0.00 0.00 0.00 0.00 0.00 0.00 0.00 0.00 0.00 0.00 0.00 0.00 0.00 0.00 0.00 0.00 0.00 0.00 0.00 0.00 0.00 0.00 0.00 0.00 0.00 0.00 0.00 0.00 0.00 0.01 0.01 0.01 0.01
0.00 0.00 0.00 0.00 0.00 0.00 0.00 0.00 0.00 0.00 0.00 0.00 0.00 0.00 0.00 0.00 0.00 0.00 0.00 0.00 0.00 0.00 0.00 0.00 0.00 0.00 0.00 0.00 0.00 0.00 0.00 0.00 0.00 0.00 0.00 0.00 0.00 0.00 0.00 0.00 0.01 0.02 0.02 0.02
0.00 0.00 0.00 0.00 0.00 0.00 0.00 0.00 0.00 0.00 0.00 0.00 0.00 0.00 0.00 0.00 0.00 0.00 0.00 0.00 0.00 0.00 0.00 0.00 0.00 0.00 0.00 0.00 0.00 0.00 0.00 0.00 0.00 0.00 0.00 0.01 0.01 0.01 0.01 0.01 0.02 0.03 0.03 0.03
0.00 0.00 0.00 0.00 0.00 0.00 0.00 0.00 0.00 0.00 0.00 0.00 0.00 0.00 0.00 0.00 0.00 0.00 0.00 0.00 0.00 0.00 0.00 0.00 0.00 0.00 0.00 0.00 0.00 0.00 0.00 0.00 0.00 0.00 0.00 0.00 0.01 0.01 0.01 0.02 0.03 0.03 0.04 0.05
0.00 0.00 0.00 0.00 0.00 0.00 0.00 0.00 0.00 0.00 0.00 0.00 0.00 0.00 0.00 0.00 0.00 0.00 0.00 0.00 0.00 0.00 0.00 0.00 0.00 0.00 0.00 0.00 0.00 0.00 0.00 0.00 0.00 0.00 0.00 0.00 0.00 0.00 0.01 0.02 0.02 0.02 0.03 0.05
0.00 0.00 0.00 0.00 0.00 0.00 0.00 0.00 0.00 0.00 0.00 0.00 0.00 0.00 0.00 0.00 0.00 0.00 0.00 0.00 0.00 0.00 0.00 0.00 0.00 0.00 0.00 0.00 0.00 0.00 0.00 0.00 0.00 0.00 0.00 0.00 0.00 0.00 0.01 0.01 0.01 0.02 0.03 0.04
0.00 0.00 0.00 0.00 0.00 0.00 0.00 0.00 0.00 0.00 0.00 0.00 0.00 0.00 0.00 0.00 0.00 0.00 0.00 0.00 0.00 0.00 0.00 0.00 0.00 0.00 0.00 0.00 0.00 0.00 0.00 0.00 0.00 0.00 0.00 0.00 0.00 0.00 0.00 0.01 0.01 0.02 0.03 0.03
0.00 0.00 0.00 0.00 0.00 0.00 0.00 0.00 0.00 0.00 0.00 0.00 0.00 0.00 0.00 0.00 0.00 0.00 0.00 0.00 0.00 0.00 0.00 0.00 0.00 0.00 0.00 0.00 0.00 0.00 0.00 0.00 0.00 0.00 0.00 0.00 0.00 0.00 0.00 0.01 0.01 0.02 0.02 0.02

GEFSNGP_prec_meanprecacc_018.txt.gz
Total_Precipitation_Accumulation
0.00 0.00 0.00 0.00 0.00 0.00 0.00 0.00 0.00 0.00 0.00 0.00 0.00 0.00 0.00 0.00 0.00 0.00 0.00 0.00 0.00 0.00 0.00 0.00 0.00 0.00 0.00 0.00 0.00 0.00 0.00 0.00 0.00 0.00 0.00 0.00 0.00 0.00 0.00 0.00 0.00 0.00 0.00 0.01
0.00 0.00 0.00 0.00 0.00 0.00 0.00 0.00 0.00 0.00 0.00 0.00 0.00 0.00 0.00 0.00 0.00 0.00 0.00 0.00 0.00 0.00 0.00 0.00 0.00 0.00 0.00 0.00 0.00 0.00 0.00 0.00 0.00 0.00 0.00 0.00 0.00 0.00 0.00 0.00 0.00 0.00 0.00 0.00
0.00 0.00 0.00 0.00 0.00 0.00 0.00 0.00 0.00 0.00 0.00 0.00 0.00 0.00 0.00 0.00 0.00 0.00 0.00 0.00 0.00 0.00 0.00 0.00 0.00 0.00 0.00 0.00 0.00 0.00 0.00 0.00 0.00 0.00 0.00 0.00 0.00 0.00 0.00 0.00 0.00 0.00 0.00 0.00
0.00 0.00 0.00 0.00 0.00 0.00 0.00 0.00 0.00 0.00 0.00 0.00 0.00 0.00 0.00 0.00 0.00 0.00 0.00 0.00 0.00 0.00 0.00 0.00 0.00 0.00 0.00 0.00 0.00 0.00 0.00 0.00 0.00 0.00 0.00 0.00 0.00 0.00 0.00 0.00 0.00 0.00 0.00 0.00
0.00 0.00 0.00 0.00 0.00 0.00 0.00 0.00 0.00 0.00 0.00 0.00 0.00 0.00 0.00 0.00 0.00 0.00 0.00 0.00 0.00 0.00 0.00 0.00 0.00 0.00 0.00 0.00 0.00 0.00 0.00 0.00 0.00 0.00 0.00 0.00 0.00 0.00 0.00 0.00 0.00 0.00 0.00 0.00
0.00 0.00 0.00 0.00 0.00 0.00 0.00 0.00 0.00 0.00 0.00 0.00 0.00 0.00 0.00 0.00 0.00 0.00 0.00 0.00 0.00 0.00 0.00 0.00 0.00 0.00 0.00 0.00 0.00 0.00 0.00 0.00 0.00 0.00 0.00 0.00 0.00 0.00 0.00 0.00 0.00 0.00 0.00 0.00
0.00 0.00 0.00 0.00 0.00 0.00 0.00 0.00 0.00 0.00 0.00 0.00 0.00 0.00 0.00 0.00 0.00 0.00 0.00 0.00 0.00 0.00 0.00 0.00 0.00 0.00 0.00 0.00 0.00 0.00 0.00 0.00 0.00 0.00 0.00 0.00 0.00 0.00 0.00 0.00 0.00 0.00 0.00 0.00
0.00 0.00 0.00 0.00 0.00 0.00 0.00 0.00 0.00 0.00 0.00 0.00 0.00 0.00 0.00 0.00 0.00 0.00 0.00 0.00 0.00 0.00 0.00 0.00 0.00 0.00 0.00 0.00 0.00 0.00 0.00 0.00 0.00 0.00 0.00 0.00 0.00 0.00 0.00 0.01 0.01 0.01 0.01 0.00
0.00 0.00 0.00 0.00 0.00 0.00 0.00 0.00 0.00 0.00 0.00 0.00 0.00 0.00 0.00 0.00 0.00 0.00 0.00 0.00 0.00 0.00 0.00 0.00 0.00 0.00 0.00 0.00 0.00 0.00 0.00 0.00 0.00 0.00 0.00 0.00 0.00 0.00 0.01 0.02 0.04 0.02 0.01 0.01
0.00 0.00 0.00 0.00 0.00 0.00 0.00 0.00 0.00 0.00 0.00 0.00 0.00 0.00 0.00 0.00 0.00 0.00 0.00 0.00 0.00 0.00 0.00 0.00 0.00 0.00 0.00 0.00 0.00 0.00 0.00 0.00 0.00 0.00 0.00 0.00 0.00 0.01 0.02 0.05 0.11 0.06 0.02 0.01
0.00 0.00 0.00 0.00 0.00 0.00 0.00 0.00 0.00 0.00 0.00 0.00 0.00 0.00 0.00 0.00 0.00 0.00 0.00 0.00 0.00 0.00 0.00 0.00 0.00 0.00 0.00 0.00 0.00 0.00 0.00 0.00 0.00 0.00 0.00 0.00 0.00 0.00 0.02 0.04 0.12 0.10 0.06 0.04
0.00 0.00 0.00 0.00 0.00 0.00 0.00 0.00 0.00 0.00 0.00 0.00 0.00 0.00 0.00 0.00 0.00 0.00 0.00 0.00 0.00 0.00 0.00 0.00 0.00 0.00 0.00 0.00 0.00 0.00 0.00 0.00 0.00 0.00 0.00 0.00 0.00 0.00 0.01 0.02 0.05 0.04 0.05 0.05
0.00 0.00 0.00 0.00 0.00 0.00 0.00 0.00 0.00 0.00 0.00 0.00 0.00 0.00 0.00 0.00 0.00 0.00 0.00 0.00 0.00 0.00 0.00 0.00 0.00 0.00 0.00 0.00 0.00 0.00 0.00 0.00 0.00 0.00 0.00 0.00 0.00 0.01 0.01 0.01 0.01 0.01 0.02 0.03
0.00 0.00 0.00 0.00 0.00 0.00 0.00 0.00 0.00 0.00 0.00 0.00 0.00 0.00 0.00 0.00 0.00 0.00 0.00 0.00 0.00 0.00 0.00 0.00 0.00 0.00 0.00 0.00 0.00 0.00 0.00 0.00 0.00 0.00 0.00 0.00 0.00 0.00 0.01 0.01 0.01 0.00 0.00 0.01
0.00 0.00 0.00 0.00 0.00 0.00 0.00 0.00 0.00 0.00 0.00 0.00 0.00 0.00 0.00 0.00 0.00 0.00 0.00 0.00 0.00 0.00 0.00 0.00 0.00 0.00 0.00 0.00 0.00 0.00 0.00 0.00 0.00 0.00 0.00 0.00 0.00 0.00 0.01 0.01 0.01 0.01 0.00 0.00
0.00 0.00 0.00 0.00 0.00 0.00 0.00 0.00 0.00 0.00 0.00 0.00 0.00 0.00 0.00 0.00 0.00 0.00 0.00 0.00 0.00 0.00 0.00 0.00 0.00 0.00 0.00 0.00 0.00 0.00 0.00 0.00 0.00 0.00 0.00 0.00 0.00 0.00 0.01 0.01 0.01 0.01 0.01 0.03
0.00 0.00 0.00 0.00 0.00 0.00 0.00 0.00 0.00 0.00 0.00 0.00 0.00 0.00 0.00 0.00 0.00 0.00 0.00 0.00 0.00 0.00 0.00 0.00 0.00 0.00 0.00 0.00 0.00 0.00 0.00 0.00 0.00 0.00 0.00 0.00 0.00 0.00 0.01 0.01 0.01 0.01 0.01 0.03
0.00 0.00 0.00 0.00 0.00 0.00 0.00 0.00 0.00 0.00 0.00 0.00 0.00 0.00 0.00 0.00 0.00 0.00 0.00 0.00 0.00 0.00 0.00 0.00 0.00 0.00 0.00 0.00 0.00 0.00 0.00 0.00 0.00 0.00 0.00 0.00 0.00 0.00 0.00 0.00 0.01 0.01 0.01 0.01
0.00 0.00 0.00 0.00 0.00 0.00 0.00 0.00 0.00 0.00 0.00 0.00 0.00 0.00 0.00 0.00 0.00 0.00 0.00 0.00 0.00 0.00 0.00 0.00 0.00 0.00 0.00 0.00 0.00 0.00 0.00 0.00 0.00 0.00 0.00 0.00 0.00 0.00 0.00 0.00 0.01 0.01 0.01 0.01
0.00 0.00 0.00 0.00 0.00 0.00 0.00 0.00 0.00 0.00 0.00 0.00 0.00 0.00 0.00 0.00 0.00 0.00 0.00 0.00 0.00 0.00 0.00 0.00 0.00 0.00 0.00 0.00 0.00 0.00 0.00 0.00 0.00 0.00 0.00 0.00 0.00 0.00 0.00 0.00 0.01 0.01 0.01 0.01
0.00 0.00 0.00 0.00 0.00 0.00 0.00 0.00 0.00 0.00 0.00 0.00 0.00 0.00 0.00 0.00 0.00 0.00 0.00 0.00 0.00 0.00 0.00 0.00 0.00 0.00 0.00 0.00 0.00 0.00 0.00 0.00 0.00 0.00 0.00 0.00 0.00 0.00 0.00 0.00 0.01 0.02 0.02 0.03
0.00 0.00 0.00 0.00 0.00 0.00 0.00 0.00 0.00 0.00 0.00 0.00 0.00 0.00 0.00 0.00 0.00 0.00 0.00 0.00 0.00 0.00 0.00 0.00 0.00 0.00 0.00 0.00 0.00 0.00 0.00 0.00 0.00 0.00 0.00 0.01 0.01 0.01 0.01 0.01 0.03 0.03 0.03 0.04
0.00 0.00 0.00 0.00 0.00 0.00 0.00 0.00 0.00 0.00 0.00 0.00 0.00 0.00 0.00 0.00 0.00 0.00 0.00 0.00 0.00 0.00 0.00 0.00 0.00 0.00 0.00 0.00 0.00 0.00 0.00 0.00 0.00 0.00 0.00 0.00 0.01 0.01 0.01 0.02 0.03 0.03 0.04 0.05
0.00 0.00 0.00 0.00 0.00 0.00 0.00 0.00 0.00 0.00 0.00 0.00 0.00 0.00 0.00 0.00 0.00 0.00 0.00 0.00 0.00 0.00 0.00 0.00 0.00 0.00 0.00 0.00 0.00 0.00 0.00 0.00 0.00 0.00 0.00 0.00 0.00 0.00 0.01 0.02 0.02 0.02 0.03 0.05
0.00 0.00 0.00 0.00 0.00 0.00 0.00 0.00 0.00 0.00 0.00 0.00 0.00 0.00 0.00 0.00 0.00 0.00 0.00 0.00 0.00 0.00 0.00 0.00 0.00 0.00 0.00 0.00 0.00 0.00 0.00 0.00 0.00 0.00 0.00 0.00 0.00 0.00 0.01 0.01 0.01 0.02 0.03 0.04
0.00 0.00 0.00 0.00 0.00 0.00 0.00 0.00 0.00 0.00 0.00 0.00 0.00 0.00 0.00 0.00 0.00 0.00 0.00 0.00 0.00 0.00 0.00 0.00 0.00 0.00 0.00 0.00 0.00 0.00 0.00 0.00 0.00 0.00 0.00 0.00 0.00 0.00 0.00 0.01 0.01 0.02 0.03 0.03
0.00 0.00 0.00 0.00 0.00 0.00 0.00 0.00 0.00 0.00 0.00 0.00 0.00 0.00 0.00 0.00 0.00 0.00 0.00 0.00 0.00 0.00 0.00 0.00 0.00 0.00 0.00 0.00 0.00 0.00 0.00 0.00 0.00 0.00 0.00 0.00 0.00 0.00 0.00 0.01 0.01 0.02 0.02 0.02

GEFSNGP_prec_meanprecacc_024.txt.gz
Total_Precipitation_Accumulation
0.00 0.00 0.00 0.00 0.00 0.00 0.00 0.00 0.00 0.00 0.00 0.00 0.00 0.00 0.00 0.00 0.00 0.00 0.00 0.00 0.00 0.00 0.00 0.00 0.00 0.00 0.00 0.00 0.00 0.00 0.00 0.00 0.00 0.00 0.00 0.00 0.00 0.00 0.00 0.00 0.00 0.00 0.00 0.01
0.00 0.00 0.00 0.00 0.00 0.00 0.00 0.00 0.00 0.00 0.00 0.00 0.00 0.00 0.00 0.00 0.00 0.00 0.00 0.00 0.00 0.00 0.00 0.00 0.00 0.00 0.00 0.00 0.00 0.00 0.00 0.00 0.00 0.00 0.00 0.00 0.00 0.00 0.00 0.00 0.00 0.00 0.00 0.00
0.00 0.00 0.00 0.00 0.00 0.00 0.00 0.00 0.00 0.00 0.00 0.00 0.00 0.00 0.00 0.00 0.00 0.00 0.00 0.00 0.00 0.00 0.00 0.00 0.00 0.00 0.00 0.00 0.00 0.00 0.00 0.00 0.00 0.00 0.00 0.00 0.00 0.00 0.00 0.00 0.00 0.00 0.00 0.00
0.00 0.00 0.00 0.00 0.00 0.00 0.00 0.00 0.00 0.00 0.00 0.00 0.00 0.00 0.00 0.00 0.00 0.00 0.00 0.00 0.00 0.00 0.00 0.00 0.00 0.00 0.00 0.00 0.00 0.00 0.00 0.00 0.00 0.00 0.00 0.00 0.00 0.00 0.00 0.00 0.00 0.00 0.00 0.00
0.00 0.00 0.00 0.00 0.00 0.00 0.00 0.00 0.00 0.00 0.00 0.00 0.00 0.00 0.00 0.00 0.00 0.00 0.00 0.00 0.00 0.00 0.00 0.00 0.00 0.00 0.00 0.00 0.00 0.00 0.00 0.00 0.00 0.00 0.00 0.00 0.00 0.00 0.00 0.00 0.00 0.00 0.00 0.00
0.00 0.00 0.00 0.00 0.00 0.00 0.00 0.00 0.00 0.00 0.00 0.00 0.00 0.00 0.00 0.00 0.00 0.00 0.00 0.00 0.00 0.00 0.00 0.00 0.00 0.00 0.00 0.00 0.00 0.00 0.00 0.00 0.00 0.00 0.00 0.00 0.00 0.00 0.00 0.00 0.00 0.00 0.00 0.00
0.00 0.00 0.00 0.00 0.00 0.00 0.00 0.00 0.00 0.00 0.00 0.00 0.00 0.00 0.00 0.00 0.00 0.00 0.00 0.00 0.00 0.00 0.00 0.00 0.00 0.00 0.00 0.00 0.00 0.00 0.00 0.00 0.00 0.00 0.00 0.00 0.00 0.00 0.00 0.00 0.00 0.00 0.00 0.00
0.00 0.00 0.00 0.00 0.00 0.00 0.00 0.00 0.00 0.00 0.00 0.00 0.00 0.00 0.00 0.00 0.00 0.00 0.00 0.00 0.00 0.00 0.00 0.00 0.00 0.00 0.00 0.00 0.00 0.00 0.00 0.00 0.00 0.00 0.00 0.00 0.00 0.00 0.00 0.01 0.01 0.01 0.01 0.00
0.00 0.00 0.00 0.00 0.00 0.00 0.00 0.00 0.00 0.00 0.00 0.00 0.00 0.00 0.00 0.00 0.00 0.00 0.00 0.00 0.00 0.00 0.00 0.00 0.00 0.00 0.00 0.00 0.00 0.00 0.00 0.00 0.00 0.00 0.00 0.00 0.00 0.00 0.01 0.02 0.04 0.02 0.02 0.01
0.00 0.00 0.00 0.00 0.00 0.00 0.00 0.00 0.00 0.00 0.00 0.00 0.00 0.00 0.00 0.00 0.00 0.00 0.00 0.00 0.00 0.00 0.00 0.00 0.00 0.00 0.00 0.00 0.00 0.00 0.00 0.00 0.00 0.00 0.00 0.00 0.00 0.01 0.02 0.05 0.12 0.08 0.04 0.02
0.00 0.00 0.00 0.00 0.00 0.00 0.00 0.00 0.00 0.00 0.00 0.00 0.00 0.00 0.00 0.00 0.00 0.00 0.00 0.00 0.00 0.00 0.00 0.00 0.00 0.00 0.00 0.00 0.00 0.00 0.00 0.00 0.00 0.00 0.00 0.00 0.00 0.00 0.02 0.04 0.14 0.14 0.09 0.07
0.00 0.00 0.00 0.00 0.00 0.00 0.00 0.00 0.00 0.00 0.00 0.00 0.00 0.00 0.00 0.00 0.00 0.00 0.00 0.00 0.00 0.00 0.00 0.00 0.00 0.00 0.00 0.00 0.00 0.00 0.00 0.00 0.00 0.00 0.00 0.00 0.00 0.00 0.01 0.02 0.05 0.05 0.06 0.08
0.00 0.00 0.00 0.00 0.00 0.00 0.00 0.00 0.00 0.00 0.00 0.00 0.00 0.00 0.00 0.00 0.00 0.00 0.00 0.00 0.00 0.00 0.00 0.00 0.00 0.00 0.00 0.00 0.00 0.00 0.00 0.00 0.00 0.00 0.00 0.00 0.00 0.01 0.01 0.01 0.01 0.01 0.02 0.04
0.00 0.00 0.00 0.00 0.00 0.00 0.00 0.00 0.00 0.00 0.00 0.00 0.00 0.00 0.00 0.00 0.00 0.00 0.00 0.00 0.00 0.00 0.00 0.00 0.00 0.00 0.00 0.00 0.00 0.00 0.00 0.00 0.00 0.00 0.00 0.00 0.00 0.01 0.01 0.02 0.01 0.00 0.00 0.01
0.00 0.00 0.00 0.00 0.00 0.00 0.00 0.00 0.00 0.00 0.00 0.00 0.00 0.00 0.00 0.00 0.00 0.00 0.00 0.00 0.00 0.00 0.00 0.00 0.00 0.00 0.00 0.00 0.00 0.00 0.00 0.00 0.00 0.00 0.00 0.00 0.00 0.00 0.01 0.01 0.01 0.01 0.00 0.00
0.00 0.00 0.00 0.00 0.00 0.00 0.00 0.00 0.00 0.00 0.00 0.00 0.00 0.00 0.00 0.00 0.00 0.00 0.00 0.00 0.00 0.00 0.00 0.00 0.00 0.00 0.00 0.00 0.00 0.00 0.00 0.00 0.00 0.00 0.00 0.00 0.00 0.00 0.01 0.01 0.01 0.01 0.01 0.03
0.00 0.00 0.00 0.00 0.00 0.00 0.00 0.00 0.00 0.00 0.00 0.00 0.00 0.00 0.00 0.00 0.00 0.00 0.00 0.00 0.00 0.00 0.00 0.00 0.00 0.00 0.00 0.00 0.00 0.00 0.00 0.00 0.00 0.00 0.00 0.00 0.00 0.00 0.01 0.01 0.01 0.01 0.01 0.03
0.00 0.00 0.00 0.00 0.00 0.00 0.00 0.00 0.00 0.00 0.00 0.00 0.00 0.00 0.00 0.00 0.00 0.00 0.00 0.00 0.00 0.00 0.00 0.00 0.00 0.00 0.00 0.00 0.00 0.00 0.00 0.00 0.00 0.00 0.00 0.00 0.00 0.00 0.00 0.01 0.01 0.01 0.01 0.01
0.00 0.00 0.00 0.00 0.00 0.00 0.00 0.00 0.00 0.00 0.00 0.00 0.00 0.00 0.00 0.00 0.00 0.00 0.00 0.00 0.00 0.00 0.00 0.00 0.00 0.00 0.00 0.00 0.00 0.00 0.00 0.00 0.00 0.00 0.00 0.00 0.00 0.00 0.00 0.00 0.01 0.01 0.01 0.01
0.00 0.00 0.00 0.00 0.00 0.00 0.00 0.00 0.00 0.00 0.00 0.00 0.00 0.00 0.00 0.00 0.00 0.00 0.00 0.00 0.00 0.00 0.00 0.00 0.00 0.00 0.00 0.00 0.00 0.00 0.00 0.00 0.00 0.00 0.00 0.00 0.00 0.00 0.00 0.00 0.01 0.01 0.01 0.01
0.00 0.00 0.00 0.00 0.00 0.00 0.00 0.00 0.00 0.00 0.00 0.00 0.00 0.00 0.00 0.00 0.00 0.00 0.00 0.00 0.00 0.00 0.00 0.00 0.00 0.00 0.00 0.00 0.00 0.00 0.00 0.00 0.00 0.00 0.00 0.00 0.00 0.00 0.00 0.00 0.01 0.02 0.02 0.03
0.00 0.00 0.00 0.00 0.00 0.00 0.00 0.00 0.00 0.00 0.00 0.00 0.00 0.00 0.00 0.00 0.00 0.00 0.00 0.00 0.00 0.00 0.00 0.00 0.00 0.00 0.00 0.00 0.00 0.00 0.00 0.00 0.00 0.00 0.00 0.01 0.01 0.01 0.01 0.01 0.03 0.03 0.03 0.04
0.00 0.00 0.00 0.00 0.00 0.00 0.00 0.00 0.00 0.00 0.00 0.00 0.00 0.00 0.00 0.00 0.00 0.00 0.00 0.00 0.00 0.00 0.00 0.00 0.00 0.00 0.00 0.00 0.00 0.00 0.00 0.00 0.00 0.00 0.00 0.00 0.01 0.01 0.01 0.02 0.03 0.03 0.04 0.05
0.00 0.00 0.00 0.00 0.00 0.00 0.00 0.00 0.00 0.00 0.00 0.00 0.00 0.00 0.00 0.00 0.00 0.00 0.00 0.00 0.00 0.00 0.00 0.00 0.00 0.00 0.00 0.00 0.00 0.00 0.00 0.00 0.00 0.00 0.00 0.00 0.00 0.00 0.01 0.02 0.02 0.02 0.03 0.05
0.00 0.00 0.00 0.00 0.00 0.00 0.00 0.00 0.00 0.00 0.00 0.00 0.00 0.00 0.00 0.00 0.00 0.00 0.00 0.00 0.00 0.00 0.00 0.00 0.00 0.00 0.00 0.00 0.00 0.00 0.00 0.00 0.00 0.00 0.00 0.00 0.00 0.00 0.01 0.01 0.01 0.02 0.03 0.04
0.00 0.00 0.01 0.01 0.01 0.01 0.00 0.00 0.00 0.00 0.00 0.00 0.00 0.00 0.00 0.00 0.00 0.00 0.00 0.00 0.00 0.00 0.00 0.00 0.00 0.00 0.00 0.00 0.00 0.00 0.00 0.00 0.00 0.00 0.00 0.00 0.00 0.00 0.00 0.01 0.01 0.02 0.03 0.03
0.01 0.01 0.01 0.01 0.02 0.02 0.01 0.01 0.01 0.01 0.01 0.01 0.00 0.00 0.00 0.00 0.00 0.00 0.00 0.00 0.00 0.00 0.00 0.00 0.00 0.00 0.00 0.00 0.00 0.00 0.00 0.00 0.00 0.00 0.00 0.00 0.00 0.00 0.00 0.01 0.01 0.02 0.02 0.02

GEFSNGP_prec_meanprecacc_030.txt.gz
Total_Precipitation_Accumulation
0.00 0.00 0.00 0.00 0.00 0.00 0.00 0.00 0.00 0.00 0.00 0.00 0.00 0.00 0.00 0.00 0.00 0.00 0.00 0.00 0.00 0.00 0.00 0.00 0.00 0.00 0.00 0.00 0.00 0.00 0.00 0.00 0.00 0.00 0.00 0.00 0.00 0.00 0.00 0.00 0.00 0.00 0.00 0.01
0.00 0.00 0.00 0.00 0.00 0.00 0.00 0.00 0.00 0.00 0.00 0.00 0.00 0.00 0.00 0.00 0.00 0.00 0.00 0.00 0.00 0.00 0.00 0.00 0.00 0.00 0.00 0.00 0.00 0.00 0.00 0.00 0.00 0.00 0.00 0.00 0.00 0.00 0.00 0.00 0.00 0.00 0.00 0.00
0.00 0.00 0.00 0.00 0.00 0.00 0.00 0.00 0.00 0.00 0.00 0.00 0.00 0.00 0.00 0.00 0.00 0.00 0.00 0.00 0.00 0.00 0.00 0.00 0.00 0.00 0.00 0.00 0.00 0.00 0.00 0.00 0.00 0.00 0.00 0.00 0.00 0.00 0.00 0.00 0.00 0.00 0.00 0.00
0.00 0.00 0.00 0.00 0.00 0.00 0.00 0.00 0.00 0.00 0.00 0.00 0.00 0.00 0.00 0.00 0.00 0.00 0.00 0.00 0.00 0.00 0.00 0.00 0.00 0.00 0.00 0.00 0.00 0.00 0.00 0.00 0.00 0.00 0.00 0.00 0.00 0.00 0.00 0.00 0.00 0.00 0.00 0.00
0.00 0.00 0.00 0.00 0.00 0.00 0.00 0.00 0.00 0.00 0.00 0.00 0.00 0.00 0.00 0.00 0.00 0.00 0.00 0.00 0.00 0.00 0.00 0.00 0.00 0.00 0.00 0.00 0.00 0.00 0.00 0.00 0.00 0.00 0.00 0.00 0.00 0.00 0.00 0.00 0.00 0.00 0.00 0.00
0.00 0.00 0.00 0.00 0.00 0.00 0.00 0.00 0.00 0.00 0.00 0.00 0.00 0.00 0.00 0.00 0.00 0.00 0.00 0.00 0.00 0.00 0.00 0.00 0.00 0.00 0.00 0.00 0.00 0.00 0.00 0.00 0.00 0.00 0.00 0.00 0.00 0.00 0.00 0.00 0.00 0.00 0.00 0.00
0.00 0.00 0.00 0.00 0.00 0.00 0.00 0.00 0.00 0.00 0.00 0.00 0.00 0.00 0.00 0.00 0.00 0.00 0.00 0.00 0.00 0.00 0.00 0.00 0.00 0.00 0.00 0.00 0.00 0.00 0.00 0.00 0.00 0.00 0.00 0.00 0.00 0.00 0.00 0.00 0.00 0.00 0.00 0.00
0.00 0.00 0.00 0.00 0.00 0.00 0.00 0.00 0.00 0.00 0.00 0.00 0.00 0.00 0.00 0.00 0.00 0.00 0.00 0.00 0.00 0.00 0.00 0.00 0.00 0.00 0.00 0.00 0.00 0.00 0.00 0.00 0.00 0.00 0.00 0.00 0.00 0.00 0.00 0.01 0.01 0.01 0.01 0.00
0.00 0.00 0.00 0.00 0.00 0.00 0.00 0.00 0.00 0.00 0.00 0.00 0.00 0.00 0.00 0.00 0.00 0.00 0.00 0.00 0.00 0.00 0.00 0.00 0.00 0.00 0.00 0.00 0.00 0.00 0.00 0.00 0.00 0.00 0.00 0.00 0.00 0.00 0.01 0.02 0.04 0.02 0.02 0.01
0.00 0.00 0.00 0.00 0.00 0.00 0.00 0.00 0.00 0.00 0.00 0.00 0.00 0.00 0.00 0.00 0.00 0.00 0.00 0.00 0.00 0.00 0.00 0.00 0.00 0.00 0.00 0.00 0.00 0.00 0.00 0.00 0.00 0.00 0.00 0.00 0.00 0.01 0.02 0.05 0.12 0.08 0.04 0.03
0.00 0.00 0.00 0.00 0.00 0.00 0.00 0.00 0.00 0.00 0.00 0.00 0.00 0.00 0.00 0.00 0.00 0.00 0.00 0.00 0.00 0.00 0.00 0.00 0.00 0.00 0.00 0.00 0.00 0.00 0.00 0.00 0.00 0.00 0.00 0.00 0.00 0.00 0.02 0.04 0.14 0.14 0.09 0.08
0.00 0.00 0.00 0.00 0.00 0.00 0.00 0.00 0.00 0.00 0.00 0.00 0.00 0.00 0.00 0.00 0.00 0.00 0.00 0.00 0.00 0.00 0.00 0.00 0.00 0.00 0.00 0.00 0.00 0.00 0.00 0.00 0.00 0.00 0.00 0.00 0.00 0.00 0.01 0.02 0.05 0.05 0.06 0.08
0.00 0.00 0.00 0.00 0.00 0.00 0.00 0.00 0.00 0.00 0.00 0.00 0.00 0.00 0.00 0.00 0.00 0.00 0.00 0.00 0.00 0.00 0.00 0.00 0.00 0.00 0.00 0.00 0.00 0.00 0.00 0.00 0.00 0.00 0.00 0.00 0.00 0.01 0.01 0.01 0.01 0.01 0.02 0.04
0.00 0.00 0.00 0.00 0.00 0.00 0.00 0.00 0.00 0.00 0.00 0.00 0.00 0.00 0.00 0.00 0.00 0.00 0.00 0.00 0.00 0.00 0.00 0.00 0.00 0.00 0.00 0.00 0.00 0.00 0.00 0.00 0.00 0.00 0.00 0.00 0.00 0.01 0.01 0.02 0.01 0.00 0.00 0.01
0.00 0.00 0.00 0.00 0.00 0.00 0.00 0.00 0.00 0.00 0.00 0.00 0.00 0.00 0.00 0.00 0.00 0.00 0.00 0.00 0.00 0.00 0.00 0.00 0.00 0.00 0.00 0.00 0.00 0.00 0.00 0.00 0.00 0.00 0.00 0.00 0.00 0.00 0.01 0.01 0.01 0.01 0.00 0.00
0.00 0.00 0.00 0.00 0.00 0.00 0.00 0.00 0.00 0.00 0.00 0.00 0.00 0.00 0.00 0.00 0.00 0.00 0.00 0.00 0.00 0.00 0.00 0.00 0.00 0.00 0.00 0.00 0.00 0.00 0.00 0.00 0.00 0.00 0.00 0.00 0.00 0.00 0.01 0.01 0.01 0.01 0.01 0.03
0.00 0.00 0.00 0.00 0.00 0.00 0.00 0.00 0.00 0.00 0.00 0.00 0.00 0.00 0.00 0.00 0.00 0.00 0.00 0.00 0.00 0.00 0.00 0.00 0.00 0.00 0.00 0.00 0.00 0.00 0.00 0.00 0.00 0.00 0.00 0.00 0.00 0.00 0.01 0.01 0.01 0.01 0.01 0.03
0.00 0.00 0.00 0.00 0.00 0.00 0.00 0.00 0.00 0.00 0.00 0.00 0.00 0.00 0.00 0.00 0.00 0.00 0.00 0.00 0.00 0.00 0.00 0.00 0.00 0.00 0.00 0.00 0.00 0.00 0.00 0.00 0.00 0.00 0.00 0.00 0.00 0.00 0.00 0.01 0.01 0.01 0.01 0.01
0.00 0.00 0.00 0.00 0.00 0.00 0.00 0.00 0.00 0.00 0.00 0.00 0.00 0.00 0.00 0.00 0.00 0.00 0.00 0.00 0.00 0.00 0.00 0.00 0.00 0.00 0.00 0.00 0.00 0.00 0.00 0.00 0.00 0.00 0.00 0.00 0.00 0.00 0.00 0.00 0.01 0.01 0.01 0.01
0.00 0.00 0.00 0.00 0.00 0.00 0.00 0.00 0.00 0.00 0.00 0.00 0.00 0.00 0.00 0.00 0.00 0.00 0.00 0.00 0.00 0.00 0.00 0.00 0.00 0.00 0.00 0.00 0.00 0.00 0.00 0.00 0.00 0.00 0.00 0.00 0.00 0.00 0.00 0.00 0.01 0.01 0.01 0.01
0.00 0.00 0.00 0.00 0.00 0.00 0.00 0.00 0.00 0.00 0.00 0.00 0.00 0.00 0.00 0.00 0.00 0.00 0.00 0.00 0.00 0.00 0.00 0.00 0.00 0.00 0.00 0.00 0.00 0.00 0.01 0.00 0.00 0.00 0.01 0.01 0.01 0.00 0.00 0.00 0.01 0.02 0.02 0.03
0.00 0.00 0.00 0.00 0.00 0.00 0.00 0.00 0.00 0.00 0.00 0.00 0.00 0.00 0.00 0.00 0.00 0.00 0.00 0.00 0.00 0.00 0.00 0.00 0.00 0.00 0.00 0.00 0.00 0.00 0.01 0.00 0.00 0.00 0.01 0.01 0.01 0.01 0.01 0.01 0.03 0.03 0.03 0.04
0.00 0.00 0.00 0.00 0.00 0.00 0.00 0.00 0.00 0.00 0.00 0.00 0.00 0.00 0.00 0.00 0.00 0.00 0.00 0.00 0.00 0.00 0.00 0.00 0.00 0.00 0.00 0.00 0.00 0.00 0.01 0.01 0.00 0.01 0.01 0.01 0.01 0.01 0.01 0.02 0.03 0.03 0.04 0.05
0.00 0.00 0.00 0.00 0.00 0.00 0.00 0.00 0.00 0.00 0.00 0.00 0.00 0.00 0.00 0.00 0.00 0.00 0.00 0.00 0.00 0.00 0.00 0.00 0.00 0.00 0.00 0.00 0.00 0.01 0.01 0.01 0.00 0.01 0.01 0.01 0.01 0.01 0.01 0.02 0.02 0.02 0.03 0.05
0.00 0.00 0.00 0.00 0.00 0.00 0.00 0.00 0.00 0.00 0.00 0.00 0.00 0.00 0.00 0.00 0.00 0.00 0.00 0.00 0.00 0.00 0.00 0.00 0.00 0.00 0.00 0.00 0.00 0.01 0.01 0.01 0.01 0.01 0.01 0.01 0.01 0.00 0.01 0.01 0.01 0.02 0.03 0.04
0.00 0.00 0.01 0.01 0.01 0.01 0.01 0.01 0.01 0.00 0.00 0.01 0.01 0.01 0.01 0.01 0.01 0.01 0.01 0.00 0.00 0.00 0.00 0.00 0.00 0.00 0.00 0.00 0.01 0.01 0.01 0.01 0.01 0.01 0.01 0.01 0.00 0.00 0.01 0.01 0.01 0.02 0.03 0.03
0.01 0.01 0.02 0.02 0.02 0.02 0.02 0.02 0.02 0.02 0.02 0.03 0.03 0.02 0.02 0.02 0.02 0.02 0.01 0.01 0.01 0.01 0.01 0.00 0.00 0.00 0.00 0.01 0.01 0.02 0.02 0.01 0.00 0.01 0.01 0.01 0.00 0.00 0.00 0.01 0.01 0.02 0.02 0.02

GEFSNGP_prec_meanprecacc_036.txt.gz
Total_Precipitation_Accumulation
0.00 0.00 0.00 0.00 0.00 0.00 0.00 0.00 0.00 0.00 0.00 0.00 0.00 0.00 0.00 0.00 0.00 0.00 0.00 0.00 0.00 0.00 0.00 0.00 0.00 0.00 0.00 0.00 0.00 0.00 0.00 0.00 0.00 0.00 0.00 0.00 0.00 0.00 0.00 0.00 0.00 0.00 0.00 0.01
0.00 0.00 0.00 0.00 0.00 0.00 0.00 0.00 0.00 0.00 0.00 0.00 0.00 0.00 0.00 0.00 0.00 0.00 0.00 0.00 0.00 0.00 0.00 0.00 0.00 0.00 0.00 0.00 0.00 0.00 0.00 0.00 0.00 0.00 0.00 0.00 0.00 0.00 0.00 0.00 0.00 0.00 0.00 0.00
0.00 0.00 0.00 0.00 0.00 0.00 0.00 0.00 0.00 0.00 0.00 0.00 0.00 0.00 0.00 0.00 0.00 0.00 0.00 0.00 0.00 0.00 0.00 0.00 0.00 0.00 0.00 0.00 0.00 0.00 0.00 0.00 0.00 0.00 0.00 0.00 0.00 0.00 0.00 0.00 0.00 0.00 0.00 0.00
0.00 0.00 0.00 0.00 0.00 0.00 0.00 0.00 0.00 0.00 0.00 0.00 0.00 0.00 0.00 0.00 0.00 0.00 0.00 0.00 0.00 0.00 0.00 0.00 0.00 0.00 0.00 0.00 0.00 0.00 0.00 0.00 0.00 0.00 0.00 0.00 0.00 0.00 0.00 0.00 0.00 0.00 0.00 0.00
0.00 0.00 0.00 0.00 0.00 0.00 0.00 0.00 0.00 0.00 0.00 0.00 0.00 0.00 0.00 0.00 0.00 0.00 0.00 0.00 0.00 0.00 0.00 0.00 0.00 0.00 0.00 0.00 0.00 0.00 0.00 0.00 0.00 0.00 0.00 0.00 0.00 0.00 0.00 0.00 0.00 0.00 0.00 0.00
0.00 0.00 0.00 0.00 0.00 0.00 0.00 0.00 0.00 0.00 0.00 0.00 0.00 0.00 0.00 0.00 0.00 0.00 0.00 0.00 0.00 0.00 0.00 0.00 0.00 0.00 0.00 0.00 0.00 0.00 0.00 0.00 0.00 0.00 0.00 0.00 0.00 0.01 0.00 0.00 0.00 0.00 0.00 0.00
0.00 0.00 0.00 0.00 0.00 0.00 0.00 0.00 0.00 0.00 0.00 0.00 0.00 0.00 0.00 0.00 0.00 0.00 0.00 0.00 0.00 0.00 0.00 0.00 0.00 0.00 0.00 0.00 0.00 0.00 0.00 0.00 0.00 0.00 0.00 0.00 0.01 0.01 0.01 0.01 0.01 0.00 0.00 0.00
0.00 0.00 0.00 0.00 0.00 0.00 0.00 0.00 0.00 0.00 0.00 0.00 0.00 0.00 0.00 0.00 0.00 0.00 0.00 0.00 0.00 0.00 0.00 0.00 0.00 0.00 0.00 0.00 0.00 0.00 0.00 0.00 0.00 0.00 0.00 0.01 0.02 0.01 0.01 0.01 0.01 0.01 0.01 0.00
0.00 0.00 0.00 0.00 0.00 0.00 0.00 0.00 0.00 0.00 0.00 0.00 0.00 0.00 0.00 0.00 0.00 0.00 0.00 0.00 0.00 0.00 0.00 0.00 0.00 0.00 0.00 0.00 0.00 0.00 0.00 0.00 0.00 0.01 0.01 0.02 0.02 0.02 0.02 0.02 0.04 0.02 0.02 0.01
0.00 0.00 0.00 0.00 0.00 0.00 0.00 0.00 0.00 0.00 0.00 0.00 0.00 0.00 0.00 0.00 0.00 0.00 0.00 0.00 0.00 0.00 0.00 0.00 0.00 0.00 0.00 0.00 0.00 0.00 0.00 0.00 0.01 0.01 0.02 0.02 0.03 0.03 0.03 0.05 0.12 0.08 0.04 0.03
0.00 0.00 0.00 0.00 0.00 0.00 0.00 0.00 0.00 0.00 0.00 0.00 0.00 0.00 0.00 0.00 0.00 0.00 0.00 0.00 0.00 0.00 0.00 0.00 0.00 0.00 0.00 0.00 0.00 0.00 0.00 0.01 0.01 0.02 0.03 0.03 0.03 0.03 0.04 0.05 0.14 0.14 0.09 0.08
0.00 0.00 0.00 0.00 0.00 0.00 0.00 0.00 0.00 0.00 0.00 0.00 0.00 0.00 0.00 0.00 0.00 0.00 0.00 0.00 0.00 0.00 0.00 0.00 0.00 0.00 0.00 0.00 0.00 0.00 0.00 0.01 0.02 0.03 0.03 0.03 0.03 0.03 0.03 0.03 0.05 0.05 0.06 0.08
0.00 0.00 0.00 0.00 0.00 0.00 0.00 0.00 0.00 0.00 0.00 0.00 0.00 0.00 0.00 0.00 0.00 0.00 0.00 0.00 0.00 0.00 0.00 0.00 0.00 0.00 0.00 0.00 0.00 0.00 0.00 0.01 0.02 0.03 0.03 0.03 0.03 0.03 0.03 0.02 0.01 0.01 0.02 0.04
0.00 0.00 0.00 0.00 0.00 0.00 0.00 0.00 0.00 0.00 0.00 0.00 0.00 0.00 0.00 0.00 0.00 0.00 0.00 0.00 0.00 0.00 0.00 0.00 0.00 0.00 0.00 0.00 0.00 0.00 0.01 0.01 0.02 0.03 0.04 0.03 0.03 0.03 0.03 0.03 0.01 0.00 0.00 0.01
0.00 0.00 0.00 0.00 0.00 0.00 0.00 0.00 0.00 0.00 0.00 0.00 0.00 0.00 0.00 0.00 0.00 0.00 0.00 0.00 0.00 0.00 0.00 0.00 0.00 0.00 0.00 0.00 0.00 0.00 0.01 0.01 0.02 0.03 0.03 0.03 0.03 0.03 0.03 0.02 0.01 0.01 0.00 0.00
0.00 0.00 0.00 0.00 0.00 0.00 0.00 0.00 0.00 0.00 0.00 0.00 0.00 0.00 0.00 0.00 0.00 0.00 0.00 0.00 0.00 0.00 0.00 0.00 0.00 0.00 0.00 0.00 0.00 0.00 0.01 0.01 0.02 0.03 0.03 0.03 0.03 0.03 0.03 0.02 0.01 0.01 0.01 0.03
0.00 0.00 0.00 0.00 0.00 0.00 0.00 0.00 0.00 0.00 0.00 0.00 0.00 0.00 0.00 0.00 0.00 0.00 0.00 0.00 0.00 0.00 0.00 0.00 0.00 0.00 0.00 0.00 0.00 0.00 0.00 0.01 0.02 0.03 0.03 0.03 0.03 0.03 0.02 0.02 0.01 0.01 0.01 0.03
0.00 0.00 0.00 0.00 0.00 0.00 0.00 0.00 0.00 0.00 0.00 0.00 0.00 0.00 0.00 0.00 0.00 0.00 0.00 0.00 0.00 0.00 0.00 0.00 0.00 0.00 0.00 0.00 0.00 0.00 0.00 0.01 0.02 0.03 0.03 0.03 0.03 0.03 0.02 0.01 0.01 0.01 0.01 0.01
0.00 0.00 0.00 0.00 0.00 0.00 0.00 0.00 0.00 0.00 0.00 0.00 0.00 0.00 0.00 0.00 0.00 0.00 0.00 0.00 0.00 0.00 0.00 0.00 0.00 0.00 0.00 0.00 0.00 0.00 0.01 0.02 0.03 0.03 0.04 0.03 0.03 0.03 0.02 0.01 0.01 0.01 0.01 0.01
0.00 0.00 0.00 0.00 0.00 0.00 0.00 0.00 0.00 0.00 0.00 0.00 0.00 0.00 0.00 0.00 0.00 0.00 0.00 0.00 0.00 0.00 0.00 0.00 0.00 0.00 0.00 0.00 0.00 0.00 0.01 0.02 0.03 0.03 0.04 0.03 0.03 0.03 0.02 0.01 0.01 0.01 0.01 0.01
0.00 0.00 0.00 0.00 0.00 0.00 0.00 0.00 0.00 0.00 0.00 0.00 0.00 0.00 0.00 0.00 0.00 0.00 0.00 0.00 0.00 0.00 0.00 0.00 0.00 0.00 0.00 0.00 0.00 0.00 0.01 0.02 0.03 0.03 0.04 0.04 0.04 0.04 0.02 0.01 0.02 0.02 0.02 0.03
0.00 0.00 0.00 0.00 0.00 0.00 0.00 0.00 0.00 0.00 0.00 0.00 0.00 0.00 0.00 0.00 0.00 0.00 0.00 0.00 0.00 0.00 0.00 0.00 0.00 0.01 0.00 0.00 0.00 0.01 0.01 0.02 0.02 0.03 0.04 0.04 0.05 0.04 0.03 0.02 0.03 0.03 0.03 0.04
0.00 0.00 0.00 0.00 0.00 0.00 0.00 0.00 0.00 0.00 0.00 0.00 0.00 0.00 0.00 0.00 0.00 0.00 0.00 0.00 0.00 0.01 0.01 0.01 0.01 0.01 0.01 0.01 0.00 0.01 0.01 0.02 0.03 0.04 0.04 0.04 0.05 0.05 0.04 0.03 0.03 0.03 0.04 0.05
0.00 0.00 0.00 0.00 0.00 0.00 0.00 0.00 0.00 0.00 0.00 0.00 0.00 0.00 0.00 0.00 0.00 0.00 0.00 0.00 0.01 0.01 0.01 0.01 0.01 0.01 0.02 0.02 0.01 0.02 0.03 0.04 0.04 0.05 0.05 0.05 0.05 0.05 0.04 0.03 0.03 0.03 0.03 0.05
0.00 0.00 0.00 0.00 0.00 0.00 0.00 0.00 0.00 0.00 0.00 0.00 0.00 0.00 0.00 0.00 0.01 0.01 0.01 0.01 0.01 0.02 0.02 0.02 0.02 0.03 0.04 0.04 0.04 0.04 0.05 0.06 0.07 0.07 0.07 0.06 0.06 0.05 0.04 0.03 0.02 0.02 0.03 0.04
0.00 0.00 0.01 0.01 0.01 0.01 0.01 0.01 0.01 0.00 0.00 0.01 0.01 0.01 0.01 0.01 0.01 0.01 0.02 0.02 0.02 0.03 0.04 0.04 0.04 0.05 0.07 0.09 0.08 0.07 0.08 0.09 0.10 0.10 0.08 0.06 0.06 0.05 0.04 0.03 0.02 0.02 0.03 0.03
0.01 0.01 0.02 0.02 0.02 0.02 0.02 0.02 0.02 0.02 0.02 0.03 0.03 0.02 0.02 0.02 0.02 0.03 0.03 0.03 0.04 0.05 0.05 0.06 0.07 0.08 0.11 0.12 0.11 0.11 0.11 0.12 0.11 0.10 0.08 0.07 0.07 0.05 0.03 0.03 0.02 0.02 0.02 0.02

GEFSNGP_prec_meanprecacc_042.txt.gz
Total_Precipitation_Accumulation
0.00 0.00 0.00 0.00 0.00 0.00 0.00 0.00 0.00 0.00 0.00 0.00 0.00 0.00 0.00 0.00 0.00 0.00 0.00 0.00 0.00 0.00 0.00 0.00 0.00 0.00 0.00 0.00 0.00 0.00 0.00 0.00 0.00 0.00 0.00 0.00 0.00 0.00 0.00 0.01 0.01 0.01 0.01 0.01
0.00 0.00 0.00 0.00 0.00 0.00 0.00 0.00 0.00 0.00 0.00 0.00 0.00 0.00 0.00 0.00 0.00 0.00 0.00 0.00 0.00 0.00 0.00 0.00 0.00 0.00 0.00 0.00 0.00 0.00 0.00 0.00 0.00 0.00 0.00 0.00 0.00 0.00 0.01 0.01 0.01 0.01 0.01 0.01
0.00 0.00 0.00 0.00 0.00 0.00 0.00 0.00 0.00 0.00 0.00 0.00 0.00 0.00 0.00 0.00 0.00 0.00 0.00 0.00 0.00 0.00 0.00 0.00 0.00 0.00 0.00 0.00 0.00 0.00 0.00 0.00 0.00 0.00 0.00 0.00 0.00 0.01 0.01 0.01 0.01 0.01 0.01 0.01
0.00 0.00 0.00 0.00 0.00 0.00 0.00 0.00 0.00 0.00 0.00 0.00 0.00 0.00 0.00 0.00 0.00 0.00 0.00 0.00 0.00 0.00 0.00 0.00 0.00 0.00 0.00 0.00 0.00 0.00 0.00 0.00 0.00 0.00 0.00 0.00 0.00 0.01 0.01 0.02 0.02 0.02 0.01 0.01
0.00 0.00 0.00 0.00 0.00 0.00 0.00 0.00 0.00 0.00 0.00 0.00 0.00 0.00 0.00 0.00 0.00 0.00 0.00 0.00 0.00 0.00 0.00 0.00 0.00 0.00 0.00 0.00 0.00 0.00 0.00 0.00 0.00 0.00 0.00 0.00 0.01 0.01 0.02 0.02 0.02 0.02 0.01 0.01
0.00 0.00 0.00 0.00 0.00 0.00 0.00 0.00 0.00 0.00 0.00 0.00 0.00 0.00 0.00 0.00 0.00 0.00 0.00 0.00 0.00 0.00 0.00 0.00 0.00 0.00 0.00 0.00 0.00 0.00 0.00 0.00 0.00 0.00 0.00 0.01 0.01 0.02 0.02 0.02 0.02 0.02 0.01 0.01
0.00 0.00 0.00 0.00 0.00 0.00 0.00 0.00 0.00 0.00 0.00 0.00 0.00 0.00 0.00 0.00 0.00 0.00 0.00 0.00 0.00 0.00 0.00 0.00 0.00 0.00 0.00 0.00 0.00 0.00 0.00 0.00 0.00 0.00 0.00 0.01 0.02 0.02 0.02 0.02 0.02 0.02 0.01 0.01
0.00 0.00 0.00 0.00 0.00 0.00 0.00 0.00 0.00 0.00 0.00 0.00 0.00 0.00 0.00 0.00 0.00 0.00 0.00 0.00 0.00 0.00 0.00 0.00 0.00 0.00 0.00 0.00 0.00 0.00 0.00 0.00 0.00 0.00 0.01 0.02 0.03 0.03 0.03 0.03 0.03 0.02 0.02 0.01
0.00 0.00 0.00 0.00 0.00 0.00 0.00 0.00 0.00 0.00 0.00 0.00 0.00 0.00 0.00 0.00 0.00 0.00 0.00 0.00 0.00 0.00 0.00 0.00 0.00 0.00 0.00 0.00 0.00 0.00 0.00 0.00 0.00 0.01 0.01 0.03 0.03 0.04 0.03 0.04 0.06 0.04 0.03 0.02
0.00 0.00 0.00 0.00 0.00 0.00 0.00 0.00 0.00 0.00 0.00 0.00 0.00 0.00 0.00 0.00 0.00 0.00 0.00 0.00 0.00 0.00 0.00 0.00 0.00 0.00 0.00 0.00 0.00 0.00 0.00 0.00 0.01 0.01 0.02 0.03 0.04 0.04 0.05 0.07 0.14 0.09 0.05 0.03
0.00 0.00 0.00 0.00 0.00 0.00 0.00 0.00 0.00 0.00 0.00 0.00 0.00 0.00 0.00 0.00 0.00 0.00 0.00 0.00 0.00 0.00 0.00 0.00 0.00 0.00 0.00 0.00 0.00 0.00 0.00 0.01 0.01 0.02 0.03 0.04 0.04 0.04 0.05 0.07 0.15 0.15 0.09 0.08
0.00 0.00 0.00 0.00 0.00 0.00 0.00 0.00 0.00 0.00 0.00 0.00 0.00 0.00 0.00 0.00 0.00 0.00 0.00 0.00 0.00 0.00 0.00 0.00 0.00 0.00 0.00 0.00 0.00 0.00 0.00 0.01 0.02 0.03 0.04 0.04 0.04 0.04 0.04 0.05 0.06 0.06 0.07 0.08
0.00 0.00 0.00 0.00 0.00 0.00 0.00 0.00 0.00 0.00 0.00 0.00 0.00 0.00 0.00 0.00 0.00 0.00 0.00 0.00 0.00 0.00 0.00 0.00 0.00 0.00 0.00 0.00 0.00 0.00 0.00 0.01 0.02 0.03 0.04 0.04 0.04 0.04 0.04 0.03 0.02 0.02 0.03 0.04
0.00 0.00 0.00 0.00 0.00 0.00 0.00 0.00 0.00 0.00 0.00 0.00 0.00 0.00 0.00 0.00 0.00 0.00 0.00 0.00 0.00 0.00 0.00 0.00 0.00 0.00 0.00 0.00 0.00 0.00 0.01 0.01 0.03 0.03 0.04 0.04 0.04 0.04 0.04 0.04 0.03 0.01 0.01 0.02
0.00 0.00 0.00 0.00 0.00 0.00 0.00 0.00 0.00 0.00 0.00 0.00 0.00 0.00 0.00 0.00 0.00 0.00 0.00 0.00 0.00 0.00 0.00 0.00 0.00 0.00 0.00 0.00 0.00 0.00 0.01 0.01 0.02 0.03 0.04 0.04 0.03 0.04 0.04 0.03 0.02 0.02 0.01 0.01
0.00 0.00 0.00 0.00 0.00 0.00 0.00 0.00 0.00 0.00 0.00 0.00 0.00 0.00 0.00 0.00 0.00 0.00 0.00 0.00 0.00 0.00 0.00 0.00 0.00 0.00 0.00 0.00 0.00 0.00 0.01 0.01 0.02 0.03 0.04 0.04 0.04 0.04 0.04 0.03 0.02 0.02 0.02 0.03
0.00 0.00 0.00 0.00 0.00 0.00 0.00 0.00 0.00 0.00 0.00 0.00 0.00 0.00 0.00 0.00 0.00 0.00 0.00 0.00 0.00 0.00 0.00 0.00 0.00 0.00 0.00 0.00 0.00 0.00 0.00 0.01 0.02 0.03 0.03 0.04 0.04 0.04 0.03 0.03 0.02 0.02 0.02 0.04
0.00 0.00 0.00 0.00 0.00 0.00 0.00 0.00 0.00 0.00 0.00 0.00 0.00 0.00 0.00 0.00 0.00 0.00 0.00 0.00 0.00 0.00 0.00 0.00 0.00 0.00 0.00 0.00 0.00 0.00 0.00 0.01 0.02 0.03 0.04 0.04 0.04 0.04 0.03 0.03 0.02 0.02 0.02 0.02
0.00 0.00 0.00 0.00 0.00 0.00 0.00 0.00 0.00 0.00 0.00 0.00 0.00 0.00 0.00 0.00 0.00 0.00 0.00 0.00 0.00 0.00 0.00 0.00 0.00 0.00 0.00 0.00 0.00 0.00 0.01 0.02 0.03 0.04 0.04 0.04 0.05 0.05 0.04 0.03 0.03 0.03 0.03 0.03
0.00 0.00 0.00 0.00 0.00 0.00 0.00 0.00 0.00 0.00 0.00 0.00 0.00 0.00 0.00 0.00 0.00 0.00 0.00 0.00 0.00 0.00 0.00 0.00 0.00 0.00 0.00 0.00 0.00 0.00 0.01 0.02 0.03 0.04 0.05 0.05 0.06 0.06 0.05 0.04 0.04 0.04 0.04 0.03
0.00 0.00 0.00 0.00 0.00 0.00 0.00 0.00 0.00 0.00 0.00 0.00 0.00 0.00 0.00 0.00 0.00 0.00 0.00 0.00 0.00 0.00 0.00 0.00 0.00 0.01 0.00 0.00 0.00 0.01 0.02 0.03 0.04 0.05 0.06 0.07 0.08 0.08 0.06 0.05 0.05 0.05 0.05 0.05
0.00 0.00 0.00 0.00 0.00 0.00 0.00 0.00 0.00 0.00 0.00 0.00 0.00 0.00 0.00 0.00 0.00 0.00 0.00 0.00 0.00 0.00 0.00 0.00 0.00 0.01 0.01 0.01 0.01 0.01 0.02 0.04 0.05 0.07 0.08 0.09 0.10 0.10 0.08 0.07 0.07 0.07 0.06 0.06
0.00 0.00 0.00 0.00 0.00 0.00 0.00 0.00 0.00 0.00 0.00 0.00 0.00 0.00 0.00 0.00 0.00 0.00 0.00 0.00 0.00 0.01 0.01 0.01 0.01 0.01 0.02 0.02 0.02 0.02 0.04 0.06 0.08 0.10 0.11 0.11 0.10 0.10 0.09 0.08 0.08 0.08 0.08 0.08
0.00 0.00 0.00 0.00 0.00 0.00 0.00 0.00 0.00 0.00 0.00 0.00 0.00 0.00 0.00 0.00 0.00 0.00 0.00 0.00 0.01 0.01 0.01 0.01 0.02 0.02 0.04 0.04 0.04 0.05 0.08 0.10 0.12 0.13 0.14 0.13 0.12 0.11 0.10 0.09 0.08 0.07 0.07 0.08
0.00 0.00 0.00 0.00 0.00 0.00 0.00 0.00 0.00 0.00 0.00 0.00 0.00 0.00 0.00 0.00 0.01 0.01 0.01 0.01 0.01 0.02 0.02 0.02 0.03 0.05 0.06 0.08 0.08 0.10 0.12 0.14 0.16 0.17 0.16 0.14 0.13 0.12 0.11 0.09 0.08 0.07 0.07 0.07
0.00 0.00 0.01 0.01 0.01 0.01 0.01 0.01 0.01 0.00 0.00 0.01 0.01 0.01 0.01 0.01 0.01 0.01 0.02 0.02 0.02 0.04 0.04 0.05 0.05 0.07 0.10 0.13 0.14 0.15 0.17 0.19 0.20 0.19 0.15 0.14 0.13 0.12 0.10 0.08 0.07 0.06 0.06 0.06
0.01 0.01 0.02 0.02 0.02 0.02 0.02 0.02 0.02 0.02 0.02 0.03 0.03 0.02 0.02 0.02 0.02 0.03 0.03 0.04 0.04 0.05 0.06 0.07 0.08 0.11 0.14 0.17 0.19 0.21 0.22 0.22 0.21 0.19 0.16 0.15 0.13 0.11 0.09 0.08 0.07 0.06 0.06 0.05

GEFSNGP_prec_meanprecacc_048.txt.gz
Total_Precipitation_Accumulation
0.00 0.00 0.00 0.00 0.00 0.00 0.00 0.00 0.00 0.00 0.00 0.00 0.00 0.00 0.00 0.00 0.00 0.00 0.00 0.00 0.00 0.00 0.00 0.00 0.00 0.00 0.00 0.00 0.00 0.00 0.00 0.00 0.00 0.00 0.00 0.00 0.00 0.00 0.00 0.01 0.01 0.01 0.01 0.02
0.00 0.00 0.00 0.00 0.00 0.00 0.00 0.00 0.00 0.00 0.00 0.00 0.00 0.00 0.00 0.00 0.00 0.00 0.00 0.00 0.00 0.00 0.00 0.00 0.00 0.00 0.00 0.00 0.00 0.00 0.00 0.00 0.00 0.00 0.00 0.00 0.00 0.00 0.01 0.01 0.01 0.02 0.02 0.02
0.00 0.00 0.00 0.00 0.00 0.00 0.00 0.00 0.00 0.00 0.00 0.00 0.00 0.00 0.00 0.00 0.00 0.00 0.00 0.00 0.00 0.00 0.00 0.00 0.00 0.00 0.00 0.00 0.00 0.00 0.00 0.00 0.00 0.00 0.00 0.00 0.00 0.01 0.01 0.01 0.02 0.02 0.02 0.02
0.00 0.00 0.00 0.00 0.00 0.00 0.00 0.00 0.00 0.00 0.00 0.00 0.00 0.00 0.00 0.00 0.00 0.00 0.00 0.00 0.00 0.00 0.00 0.00 0.00 0.00 0.00 0.00 0.00 0.00 0.00 0.00 0.00 0.00 0.00 0.00 0.00 0.01 0.01 0.02 0.02 0.02 0.02 0.02
0.00 0.00 0.00 0.00 0.00 0.00 0.00 0.00 0.00 0.00 0.00 0.00 0.00 0.00 0.00 0.00 0.00 0.00 0.00 0.00 0.00 0.00 0.00 0.00 0.00 0.00 0.00 0.00 0.00 0.00 0.00 0.00 0.00 0.00 0.00 0.00 0.01 0.01 0.02 0.03 0.02 0.02 0.02 0.01
0.00 0.00 0.00 0.00 0.00 0.00 0.00 0.00 0.00 0.00 0.00 0.00 0.00 0.00 0.00 0.00 0.00 0.00 0.00 0.00 0.00 0.00 0.00 0.00 0.00 0.00 0.00 0.00 0.00 0.00 0.00 0.00 0.00 0.00 0.00 0.01 0.01 0.02 0.02 0.02 0.02 0.02 0.02 0.01
0.00 0.00 0.00 0.00 0.00 0.00 0.00 0.00 0.00 0.00 0.00 0.00 0.00 0.00 0.00 0.00 0.00 0.00 0.00 0.00 0.00 0.00 0.00 0.00 0.00 0.00 0.00 0.00 0.00 0.00 0.00 0.00 0.00 0.00 0.00 0.01 0.02 0.02 0.02 0.03 0.03 0.02 0.01 0.01
0.00 0.00 0.00 0.00 0.00 0.00 0.00 0.00 0.00 0.00 0.00 0.00 0.00 0.00 0.00 0.00 0.00 0.00 0.00 0.00 0.00 0.00 0.00 0.00 0.00 0.00 0.00 0.00 0.00 0.00 0.00 0.00 0.00 0.00 0.01 0.02 0.03 0.03 0.03 0.03 0.03 0.02 0.02 0.02
0.00 0.00 0.00 0.00 0.00 0.00 0.00 0.00 0.00 0.00 0.00 0.00 0.00 0.00 0.00 0.00 0.00 0.00 0.00 0.00 0.00 0.00 0.00 0.00 0.00 0.00 0.00 0.00 0.00 0.00 0.00 0.00 0.00 0.01 0.01 0.03 0.03 0.04 0.03 0.04 0.06 0.04 0.03 0.02
0.00 0.00 0.00 0.00 0.00 0.00 0.00 0.00 0.00 0.00 0.00 0.00 0.00 0.00 0.00 0.00 0.00 0.00 0.00 0.00 0.00 0.00 0.00 0.00 0.00 0.00 0.00 0.00 0.00 0.00 0.00 0.00 0.01 0.01 0.02 0.03 0.04 0.04 0.05 0.07 0.14 0.10 0.05 0.03
0.00 0.00 0.00 0.00 0.00 0.00 0.00 0.00 0.00 0.00 0.00 0.00 0.00 0.00 0.00 0.00 0.00 0.00 0.00 0.00 0.00 0.00 0.00 0.00 0.00 0.00 0.00 0.00 0.00 0.00 0.00 0.01 0.01 0.02 0.03 0.04 0.04 0.04 0.05 0.07 0.15 0.15 0.10 0.08
0.00 0.00 0.00 0.00 0.00 0.00 0.00 0.00 0.00 0.00 0.00 0.00 0.00 0.00 0.00 0.00 0.00 0.00 0.00 0.00 0.00 0.00 0.00 0.00 0.00 0.00 0.00 0.00 0.00 0.00 0.00 0.01 0.02 0.03 0.04 0.04 0.04 0.04 0.04 0.05 0.07 0.06 0.07 0.09
0.00 0.00 0.00 0.00 0.00 0.00 0.00 0.00 0.00 0.00 0.00 0.00 0.00 0.00 0.00 0.00 0.00 0.00 0.00 0.00 0.00 0.00 0.00 0.00 0.00 0.00 0.00 0.00 0.00 0.00 0.00 0.01 0.02 0.03 0.04 0.04 0.04 0.04 0.04 0.03 0.03 0.03 0.04 0.05
0.00 0.00 0.00 0.00 0.00 0.00 0.00 0.00 0.00 0.00 0.00 0.00 0.00 0.00 0.00 0.00 0.00 0.00 0.00 0.00 0.00 0.00 0.00 0.00 0.00 0.00 0.00 0.00 0.00 0.00 0.01 0.01 0.03 0.03 0.04 0.04 0.04 0.04 0.04 0.04 0.03 0.02 0.02 0.03
0.00 0.00 0.00 0.00 0.00 0.00 0.00 0.00 0.00 0.00 0.00 0.00 0.00 0.00 0.00 0.00 0.00 0.00 0.00 0.00 0.00 0.00 0.00 0.00 0.00 0.00 0.00 0.00 0.00 0.00 0.01 0.02 0.02 0.03 0.04 0.04 0.03 0.04 0.04 0.04 0.03 0.03 0.02 0.03
0.00 0.00 0.00 0.00 0.00 0.00 0.00 0.00 0.00 0.00 0.00 0.00 0.00 0.00 0.00 0.00 0.00 0.00 0.00 0.00 0.00 0.00 0.00 0.00 0.00 0.00 0.00 0.00 0.00 0.00 0.01 0.02 0.02 0.03 0.04 0.04 0.04 0.04 0.04 0.04 0.03 0.03 0.04 0.06
0.00 0.00 0.00 0.00 0.00 0.00 0.00 0.00 0.00 0.00 0.00 0.00 0.00 0.00 0.00 0.00 0.00 0.00 0.00 0.00 0.00 0.00 0.00 0.00 0.00 0.00 0.00 0.00 0.01 0.00 0.00 0.01 0.02 0.03 0.04 0.04 0.04 0.04 0.04 0.04 0.04 0.03 0.04 0.06
0.00 0.00 0.00 0.00 0.00 0.00 0.00 0.00 0.00 0.00 0.00 0.00 0.00 0.00 0.00 0.00 0.00 0.00 0.00 0.00 0.00 0.00 0.00 0.00 0.00 0.00 0.00 0.00 0.00 0.00 0.01 0.01 0.02 0.04 0.04 0.05 0.05 0.05 0.05 0.05 0.04 0.05 0.05 0.05
0.00 0.00 0.00 0.00 0.00 0.00 0.00 0.00 0.00 0.00 0.00 0.00 0.00 0.00 0.00 0.00 0.00 0.00 0.00 0.00 0.00 0.00 0.00 0.00 0.00 0.00 0.00 0.00 0.00 0.00 0.01 0.02 0.03 0.04 0.05 0.06 0.07 0.07 0.07 0.06 0.05 0.06 0.07 0.07
0.00 0.00 0.00 0.00 0.00 0.00 0.00 0.00 0.00 0.00 0.00 0.00 0.00 0.00 0.00 0.00 0.00 0.00 0.00 0.00 0.00 0.00 0.00 0.00 0.00 0.00 0.00 0.00 0.01 0.01 0.02 0.04 0.05 0.06 0.07 0.08 0.09 0.09 0.08 0.07 0.07 0.08 0.08 0.08
0.00 0.00 0.00 0.00 0.00 0.00 0.00 0.00 0.00 0.00 0.00 0.00 0.00 0.00 0.00 0.00 0.00 0.00 0.00 0.00 0.00 0.00 0.00 0.00 0.00 0.01 0.00 0.01 0.02 0.02 0.03 0.06 0.07 0.09 0.10 0.12 0.13 0.13 0.11 0.09 0.10 0.10 0.09 0.09
0.00 0.00 0.00 0.00 0.00 0.00 0.00 0.00 0.00 0.00 0.00 0.00 0.00 0.00 0.00 0.00 0.00 0.00 0.00 0.00 0.00 0.00 0.00 0.00 0.00 0.01 0.02 0.02 0.03 0.03 0.05 0.07 0.09 0.12 0.14 0.16 0.17 0.16 0.13 0.12 0.12 0.11 0.10 0.10
0.00 0.00 0.00 0.00 0.00 0.00 0.00 0.00 0.00 0.00 0.00 0.00 0.00 0.00 0.00 0.00 0.00 0.00 0.00 0.00 0.00 0.01 0.01 0.01 0.01 0.02 0.03 0.03 0.03 0.05 0.07 0.10 0.13 0.15 0.17 0.18 0.17 0.16 0.14 0.14 0.13 0.12 0.12 0.12
0.00 0.00 0.00 0.00 0.00 0.00 0.00 0.00 0.00 0.00 0.00 0.00 0.00 0.00 0.00 0.00 0.00 0.00 0.00 0.01 0.01 0.01 0.01 0.01 0.02 0.03 0.05 0.05 0.06 0.08 0.11 0.15 0.17 0.20 0.21 0.20 0.18 0.17 0.16 0.14 0.13 0.11 0.11 0.11
0.00 0.00 0.00 0.00 0.00 0.00 0.00 0.00 0.00 0.00 0.00 0.00 0.00 0.00 0.00 0.00 0.01 0.01 0.01 0.01 0.01 0.02 0.02 0.03 0.04 0.06 0.07 0.09 0.11 0.13 0.17 0.20 0.23 0.24 0.23 0.21 0.20 0.18 0.16 0.13 0.11 0.10 0.10 0.10
0.00 0.00 0.01 0.01 0.01 0.01 0.01 0.01 0.01 0.00 0.00 0.01 0.01 0.01 0.01 0.01 0.01 0.01 0.02 0.02 0.03 0.04 0.04 0.05 0.06 0.08 0.12 0.15 0.17 0.19 0.22 0.25 0.27 0.26 0.23 0.21 0.19 0.17 0.14 0.12 0.10 0.09 0.09 0.08
0.01 0.01 0.02 0.02 0.02 0.02 0.02 0.02 0.02 0.02 0.02 0.03 0.03 0.02 0.02 0.02 0.02 0.03 0.03 0.04 0.04 0.05 0.06 0.07 0.09 0.12 0.17 0.21 0.23 0.25 0.27 0.27 0.27 0.25 0.22 0.21 0.18 0.15 0.11 0.10 0.10 0.09 0.08 0.06

GEFSNGP_prec_meanprecacc_054.txt.gz
Total_Precipitation_Accumulation
0.00 0.00 0.00 0.00 0.00 0.00 0.00 0.00 0.00 0.00 0.00 0.00 0.00 0.00 0.00 0.00 0.00 0.00 0.00 0.00 0.00 0.00 0.00 0.00 0.00 0.00 0.00 0.00 0.00 0.00 0.00 0.00 0.00 0.00 0.00 0.00 0.00 0.00 0.00 0.01 0.01 0.01 0.01 0.02
0.00 0.00 0.00 0.00 0.00 0.00 0.00 0.00 0.00 0.00 0.00 0.00 0.00 0.00 0.00 0.00 0.00 0.00 0.00 0.00 0.00 0.00 0.00 0.00 0.00 0.00 0.00 0.00 0.00 0.00 0.00 0.00 0.00 0.00 0.00 0.00 0.00 0.00 0.01 0.01 0.01 0.02 0.02 0.02
0.00 0.00 0.00 0.00 0.00 0.00 0.00 0.00 0.00 0.00 0.00 0.00 0.00 0.00 0.00 0.00 0.00 0.00 0.00 0.00 0.00 0.00 0.00 0.00 0.00 0.00 0.00 0.00 0.00 0.00 0.00 0.00 0.00 0.00 0.00 0.00 0.00 0.01 0.01 0.01 0.02 0.02 0.02 0.02
0.00 0.00 0.00 0.00 0.00 0.00 0.00 0.00 0.00 0.00 0.00 0.00 0.00 0.00 0.00 0.00 0.00 0.00 0.00 0.00 0.00 0.00 0.00 0.00 0.00 0.00 0.00 0.00 0.00 0.00 0.00 0.00 0.00 0.00 0.00 0.00 0.00 0.01 0.01 0.02 0.02 0.02 0.02 0.02
0.00 0.00 0.00 0.00 0.00 0.00 0.00 0.00 0.00 0.00 0.00 0.00 0.00 0.00 0.00 0.00 0.00 0.00 0.00 0.00 0.00 0.00 0.00 0.00 0.00 0.00 0.00 0.00 0.00 0.00 0.00 0.00 0.00 0.00 0.00 0.00 0.01 0.01 0.02 0.03 0.02 0.02 0.02 0.01
0.00 0.00 0.00 0.00 0.00 0.00 0.00 0.00 0.00 0.00 0.00 0.00 0.00 0.00 0.00 0.00 0.00 0.00 0.00 0.00 0.00 0.00 0.00 0.00 0.00 0.00 0.00 0.00 0.00 0.00 0.00 0.00 0.00 0.00 0.00 0.01 0.01 0.02 0.02 0.02 0.02 0.02 0.02 0.01
0.00 0.00 0.00 0.00 0.00 0.00 0.00 0.00 0.00 0.00 0.00 0.00 0.00 0.00 0.00 0.00 0.00 0.00 0.00 0.00 0.00 0.00 0.00 0.00 0.00 0.00 0.00 0.00 0.00 0.00 0.00 0.00 0.00 0.00 0.00 0.01 0.02 0.02 0.02 0.03 0.03 0.02 0.01 0.01
0.00 0.00 0.00 0.00 0.00 0.00 0.00 0.00 0.00 0.00 0.00 0.00 0.00 0.00 0.00 0.00 0.00 0.00 0.00 0.00 0.00 0.00 0.00 0.00 0.00 0.00 0.00 0.00 0.00 0.00 0.00 0.00 0.00 0.00 0.01 0.02 0.03 0.03 0.03 0.03 0.03 0.02 0.02 0.02
0.00 0.00 0.00 0.00 0.00 0.00 0.00 0.00 0.00 0.00 0.00 0.00 0.00 0.00 0.00 0.00 0.00 0.00 0.00 0.00 0.00 0.00 0.00 0.00 0.00 0.00 0.00 0.00 0.00 0.00 0.00 0.00 0.00 0.01 0.01 0.03 0.03 0.04 0.03 0.04 0.06 0.04 0.03 0.02
0.00 0.00 0.00 0.00 0.00 0.00 0.00 0.00 0.00 0.00 0.00 0.00 0.00 0.00 0.00 0.00 0.00 0.00 0.00 0.00 0.00 0.00 0.00 0.00 0.00 0.00 0.00 0.00 0.00 0.00 0.00 0.00 0.01 0.01 0.02 0.03 0.04 0.04 0.05 0.07 0.14 0.10 0.05 0.03
0.00 0.00 0.00 0.00 0.00 0.00 0.00 0.00 0.00 0.00 0.00 0.00 0.00 0.00 0.00 0.00 0.00 0.00 0.00 0.00 0.00 0.00 0.00 0.00 0.00 0.00 0.00 0.00 0.00 0.00 0.00 0.01 0.01 0.02 0.03 0.04 0.04 0.04 0.05 0.07 0.16 0.15 0.10 0.09
0.00 0.00 0.00 0.00 0.00 0.00 0.00 0.00 0.00 0.00 0.00 0.00 0.00 0.00 0.00 0.00 0.00 0.00 0.00 0.00 0.00 0.00 0.00 0.00 0.00 0.00 0.00 0.00 0.00 0.00 0.00 0.01 0.02 0.03 0.04 0.04 0.04 0.04 0.04 0.05 0.07 0.06 0.07 0.09
0.00 0.00 0.00 0.00 0.00 0.00 0.00 0.00 0.00 0.00 0.00 0.00 0.00 0.00 0.00 0.00 0.00 0.00 0.00 0.00 0.00 0.00 0.00 0.00 0.00 0.00 0.00 0.00 0.00 0.00 0.00 0.01 0.02 0.03 0.04 0.04 0.04 0.04 0.04 0.03 0.03 0.03 0.04 0.06
0.00 0.00 0.00 0.00 0.00 0.00 0.00 0.00 0.00 0.00 0.00 0.00 0.00 0.00 0.00 0.00 0.00 0.00 0.00 0.00 0.00 0.00 0.00 0.00 0.00 0.00 0.00 0.00 0.00 0.00 0.01 0.02 0.03 0.04 0.04 0.04 0.04 0.04 0.04 0.04 0.03 0.02 0.02 0.03
0.00 0.00 0.00 0.00 0.00 0.00 0.00 0.00 0.00 0.00 0.00 0.00 0.00 0.00 0.00 0.00 0.00 0.00 0.00 0.00 0.00 0.00 0.00 0.00 0.00 0.00 0.00 0.00 0.00 0.00 0.01 0.02 0.03 0.03 0.04 0.04 0.04 0.04 0.05 0.04 0.04 0.03 0.02 0.03
0.00 0.00 0.00 0.00 0.00 0.00 0.00 0.00 0.00 0.00 0.00 0.00 0.00 0.00 0.00 0.00 0.00 0.00 0.00 0.00 0.00 0.00 0.00 0.00 0.00 0.00 0.00 0.00 0.00 0.00 0.01 0.02 0.03 0.04 0.04 0.04 0.05 0.05 0.06 0.05 0.05 0.04 0.05 0.06
0.00 0.00 0.00 0.00 0.00 0.00 0.00 0.00 0.00 0.00 0.00 0.00 0.00 0.00 0.00 0.00 0.00 0.00 0.00 0.00 0.00 0.00 0.00 0.00 0.00 0.00 0.00 0.00 0.01 0.01 0.01 0.02 0.04 0.04 0.04 0.05 0.06 0.06 0.07 0.07 0.07 0.06 0.05 0.07
0.00 0.00 0.00 0.00 0.00 0.00 0.00 0.00 0.00 0.00 0.00 0.00 0.00 0.00 0.00 0.00 0.00 0.00 0.00 0.00 0.00 0.00 0.00 0.00 0.00 0.00 0.00 0.00 0.01 0.01 0.01 0.02 0.03 0.05 0.05 0.06 0.07 0.08 0.09 0.09 0.09 0.09 0.08 0.07
0.00 0.00 0.00 0.00 0.00 0.00 0.00 0.00 0.00 0.00 0.00 0.00 0.00 0.00 0.00 0.00 0.00 0.00 0.00 0.00 0.00 0.00 0.00 0.00 0.00 0.00 0.00 0.00 0.00 0.01 0.01 0.03 0.05 0.06 0.07 0.09 0.10 0.10 0.11 0.11 0.11 0.10 0.10 0.10
0.00 0.00 0.00 0.00 0.00 0.00 0.00 0.00 0.00 0.00 0.00 0.00 0.00 0.00 0.00 0.00 0.00 0.00 0.00 0.00 0.00 0.00 0.00 0.00 0.00 0.00 0.00 0.00 0.01 0.01 0.03 0.05 0.07 0.09 0.10 0.11 0.13 0.14 0.13 0.13 0.13 0.12 0.11 0.10
0.00 0.00 0.00 0.00 0.00 0.00 0.00 0.00 0.00 0.00 0.00 0.00 0.00 0.00 0.00 0.00 0.00 0.00 0.00 0.00 0.00 0.00 0.00 0.00 0.00 0.01 0.00 0.01 0.02 0.03 0.05 0.07 0.10 0.12 0.14 0.16 0.18 0.18 0.16 0.14 0.15 0.14 0.13 0.12
0.00 0.00 0.00 0.00 0.00 0.00 0.00 0.00 0.00 0.00 0.00 0.00 0.00 0.00 0.00 0.00 0.00 0.00 0.00 0.00 0.00 0.00 0.01 0.00 0.00 0.01 0.02 0.03 0.04 0.05 0.07 0.10 0.12 0.15 0.19 0.21 0.22 0.22 0.18 0.17 0.17 0.16 0.14 0.13
0.00 0.00 0.00 0.00 0.00 0.00 0.00 0.00 0.00 0.00 0.00 0.00 0.00 0.00 0.00 0.00 0.00 0.00 0.00 0.00 0.00 0.01 0.01 0.01 0.01 0.02 0.04 0.04 0.04 0.06 0.09 0.12 0.16 0.19 0.22 0.23 0.23 0.22 0.20 0.19 0.18 0.17 0.16 0.15
0.00 0.00 0.00 0.00 0.00 0.00 0.00 0.00 0.00 0.00 0.00 0.00 0.00 0.00 0.00 0.00 0.00 0.00 0.00 0.01 0.01 0.01 0.01 0.01 0.02 0.03 0.06 0.06 0.07 0.10 0.14 0.17 0.21 0.24 0.25 0.25 0.23 0.23 0.21 0.20 0.18 0.16 0.15 0.15
0.00 0.00 0.00 0.00 0.00 0.00 0.00 0.00 0.00 0.00 0.00 0.00 0.00 0.00 0.00 0.00 0.01 0.01 0.01 0.01 0.01 0.02 0.02 0.03 0.04 0.06 0.08 0.10 0.12 0.15 0.20 0.24 0.28 0.30 0.29 0.27 0.25 0.24 0.21 0.19 0.16 0.14 0.13 0.12
0.00 0.00 0.01 0.01 0.01 0.01 0.01 0.01 0.01 0.00 0.00 0.01 0.01 0.01 0.01 0.01 0.01 0.01 0.02 0.02 0.03 0.04 0.04 0.05 0.06 0.09 0.13 0.17 0.19 0.22 0.26 0.29 0.32 0.30 0.27 0.25 0.24 0.22 0.18 0.15 0.13 0.12 0.11 0.10
0.01 0.01 0.02 0.02 0.02 0.02 0.02 0.02 0.02 0.02 0.02 0.03 0.03 0.02 0.02 0.02 0.02 0.03 0.03 0.04 0.04 0.05 0.06 0.07 0.09 0.13 0.18 0.23 0.26 0.28 0.31 0.31 0.31 0.29 0.26 0.24 0.22 0.18 0.14 0.13 0.12 0.11 0.09 0.08

GEFSNGP_prec_meanprecacc_060.txt.gz
Total_Precipitation_Accumulation
0.00 0.00 0.00 0.00 0.00 0.00 0.00 0.00 0.00 0.00 0.00 0.00 0.00 0.00 0.00 0.00 0.00 0.00 0.00 0.00 0.00 0.00 0.00 0.00 0.00 0.00 0.00 0.00 0.00 0.00 0.00 0.00 0.00 0.00 0.00 0.00 0.00 0.00 0.00 0.01 0.01 0.01 0.01 0.02
0.00 0.00 0.00 0.00 0.00 0.00 0.00 0.00 0.00 0.00 0.00 0.00 0.00 0.00 0.00 0.00 0.00 0.00 0.00 0.00 0.00 0.00 0.00 0.00 0.00 0.00 0.00 0.00 0.00 0.00 0.00 0.00 0.00 0.00 0.00 0.00 0.00 0.00 0.01 0.01 0.01 0.02 0.02 0.02
0.00 0.00 0.00 0.00 0.00 0.00 0.00 0.00 0.00 0.00 0.00 0.00 0.00 0.00 0.00 0.00 0.00 0.00 0.00 0.00 0.00 0.00 0.00 0.00 0.00 0.00 0.00 0.00 0.00 0.00 0.00 0.00 0.00 0.00 0.00 0.00 0.00 0.01 0.01 0.01 0.02 0.02 0.02 0.02
0.00 0.00 0.00 0.00 0.00 0.00 0.00 0.00 0.00 0.00 0.00 0.00 0.00 0.00 0.00 0.00 0.00 0.00 0.00 0.00 0.00 0.00 0.00 0.00 0.00 0.00 0.00 0.00 0.00 0.00 0.00 0.00 0.00 0.00 0.00 0.00 0.00 0.01 0.01 0.02 0.02 0.02 0.02 0.02
0.00 0.00 0.00 0.00 0.00 0.00 0.00 0.00 0.00 0.00 0.00 0.00 0.00 0.00 0.00 0.00 0.00 0.00 0.00 0.00 0.00 0.00 0.00 0.00 0.00 0.00 0.00 0.00 0.00 0.00 0.00 0.00 0.00 0.00 0.00 0.00 0.01 0.01 0.02 0.03 0.02 0.02 0.02 0.01
0.00 0.00 0.00 0.00 0.00 0.00 0.00 0.00 0.00 0.00 0.00 0.00 0.00 0.00 0.00 0.00 0.00 0.00 0.00 0.00 0.00 0.00 0.00 0.00 0.00 0.00 0.00 0.00 0.00 0.00 0.00 0.00 0.00 0.00 0.00 0.01 0.01 0.02 0.02 0.02 0.02 0.02 0.02 0.01
0.00 0.00 0.00 0.00 0.00 0.00 0.00 0.00 0.00 0.00 0.00 0.00 0.00 0.00 0.00 0.00 0.00 0.00 0.00 0.00 0.00 0.00 0.00 0.00 0.00 0.00 0.00 0.00 0.00 0.00 0.00 0.00 0.00 0.00 0.00 0.01 0.02 0.02 0.02 0.03 0.03 0.02 0.01 0.01
0.00 0.00 0.00 0.00 0.00 0.00 0.00 0.00 0.00 0.00 0.00 0.00 0.00 0.00 0.00 0.00 0.00 0.00 0.00 0.00 0.00 0.00 0.00 0.00 0.00 0.00 0.00 0.00 0.00 0.00 0.00 0.00 0.00 0.00 0.01 0.02 0.03 0.03 0.03 0.03 0.03 0.03 0.02 0.02
0.00 0.00 0.00 0.00 0.00 0.00 0.00 0.00 0.00 0.00 0.00 0.00 0.00 0.00 0.00 0.00 0.00 0.00 0.00 0.00 0.00 0.00 0.00 0.00 0.00 0.00 0.00 0.00 0.00 0.00 0.00 0.00 0.00 0.01 0.01 0.03 0.03 0.04 0.04 0.04 0.06 0.04 0.03 0.02
0.00 0.00 0.00 0.00 0.00 0.00 0.00 0.00 0.00 0.00 0.00 0.00 0.00 0.00 0.00 0.00 0.00 0.00 0.00 0.00 0.00 0.00 0.00 0.00 0.00 0.00 0.00 0.00 0.00 0.00 0.00 0.00 0.01 0.01 0.02 0.03 0.04 0.04 0.05 0.08 0.14 0.10 0.06 0.04
0.00 0.00 0.00 0.00 0.00 0.00 0.00 0.00 0.00 0.00 0.00 0.00 0.00 0.00 0.00 0.00 0.00 0.00 0.00 0.00 0.00 0.00 0.00 0.00 0.00 0.00 0.00 0.00 0.00 0.00 0.00 0.01 0.01 0.02 0.03 0.04 0.04 0.04 0.05 0.07 0.16 0.17 0.11 0.10
0.00 0.00 0.00 0.00 0.00 0.00 0.00 0.00 0.00 0.00 0.00 0.00 0.00 0.00 0.00 0.00 0.00 0.00 0.00 0.00 0.00 0.00 0.00 0.00 0.00 0.00 0.00 0.00 0.00 0.00 0.00 0.01 0.02 0.03 0.04 0.04 0.05 0.04 0.05 0.05 0.07 0.07 0.09 0.11
0.00 0.00 0.00 0.00 0.00 0.00 0.00 0.00 0.00 0.00 0.00 0.00 0.00 0.00 0.00 0.00 0.00 0.00 0.00 0.00 0.00 0.00 0.00 0.00 0.00 0.00 0.00 0.00 0.00 0.00 0.00 0.01 0.02 0.03 0.04 0.04 0.04 0.05 0.05 0.04 0.03 0.03 0.04 0.07
0.00 0.00 0.00 0.00 0.00 0.00 0.00 0.00 0.00 0.00 0.00 0.00 0.00 0.00 0.00 0.00 0.00 0.00 0.00 0.00 0.00 0.00 0.00 0.00 0.00 0.00 0.00 0.00 0.00 0.00 0.01 0.02 0.03 0.04 0.04 0.04 0.05 0.05 0.06 0.06 0.05 0.03 0.02 0.04
0.00 0.00 0.00 0.00 0.00 0.00 0.00 0.00 0.00 0.00 0.00 0.00 0.00 0.00 0.00 0.00 0.00 0.00 0.00 0.00 0.00 0.00 0.00 0.00 0.00 0.00 0.00 0.00 0.00 0.00 0.01 0.02 0.03 0.04 0.04 0.05 0.05 0.05 0.06 0.06 0.06 0.05 0.04 0.04
0.00 0.00 0.00 0.00 0.00 0.00 0.00 0.00 0.00 0.00 0.00 0.00 0.00 0.00 0.00 0.00 0.00 0.00 0.00 0.00 0.00 0.00 0.00 0.00 0.00 0.00 0.00 0.00 0.00 0.00 0.01 0.02 0.03 0.04 0.05 0.05 0.06 0.07 0.08 0.08 0.08 0.07 0.07 0.08
0.00 0.00 0.00 0.00 0.00 0.00 0.00 0.00 0.00 0.00 0.00 0.00 0.00 0.00 0.00 0.00 0.00 0.00 0.00 0.00 0.00 0.00 0.00 0.00 0.00 0.00 0.00 0.00 0.01 0.01 0.01 0.02 0.04 0.05 0.05 0.06 0.08 0.09 0.10 0.11 0.11 0.10 0.08 0.10
0.00 0.00 0.00 0.00 0.00 0.00 0.00 0.00 0.00 0.00 0.00 0.00 0.00 0.00 0.00 0.00 0.00 0.00 0.00 0.00 0.00 0.00 0.00 0.00 0.00 0.00 0.00 0.00 0.01 0.01 0.01 0.02 0.04 0.05 0.07 0.08 0.09 0.10 0.12 0.13 0.13 0.13 0.11 0.10
0.00 0.00 0.00 0.00 0.00 0.00 0.00 0.00 0.00 0.00 0.00 0.00 0.00 0.00 0.00 0.00 0.00 0.00 0.00 0.00 0.00 0.00 0.00 0.00 0.00 0.00 0.00 0.00 0.00 0.01 0.02 0.04 0.06 0.07 0.08 0.10 0.12 0.12 0.13 0.15 0.15 0.15 0.15 0.14
0.00 0.00 0.00 0.00 0.00 0.00 0.00 0.00 0.00 0.00 0.00 0.00 0.00 0.00 0.00 0.00 0.00 0.00 0.00 0.00 0.00 0.00 0.00 0.00 0.00 0.00 0.00 0.00 0.01 0.02 0.04 0.07 0.09 0.11 0.12 0.13 0.15 0.16 0.16 0.17 0.17 0.17 0.16 0.15
0.00 0.00 0.00 0.00 0.00 0.00 0.00 0.00 0.00 0.00 0.00 0.00 0.00 0.00 0.00 0.00 0.00 0.00 0.00 0.00 0.00 0.00 0.00 0.00 0.00 0.01 0.01 0.02 0.03 0.04 0.06 0.09 0.12 0.14 0.17 0.19 0.21 0.21 0.20 0.19 0.19 0.18 0.17 0.16
0.00 0.00 0.00 0.00 0.00 0.00 0.00 0.00 0.00 0.00 0.00 0.00 0.00 0.00 0.00 0.00 0.00 0.00 0.00 0.00 0.00 0.00 0.01 0.00 0.00 0.01 0.02 0.04 0.05 0.05 0.08 0.11 0.14 0.18 0.22 0.24 0.27 0.27 0.24 0.21 0.22 0.20 0.19 0.18
0.00 0.00 0.00 0.00 0.00 0.00 0.00 0.00 0.00 0.00 0.00 0.00 0.00 0.00 0.00 0.00 0.00 0.00 0.00 0.00 0.00 0.01 0.01 0.01 0.01 0.02 0.05 0.05 0.05 0.07 0.10 0.14 0.18 0.22 0.25 0.27 0.28 0.28 0.26 0.24 0.23 0.21 0.20 0.19
0.00 0.00 0.00 0.00 0.00 0.00 0.00 0.00 0.00 0.00 0.00 0.00 0.00 0.00 0.00 0.00 0.00 0.00 0.00 0.01 0.01 0.01 0.01 0.01 0.02 0.04 0.06 0.07 0.08 0.11 0.15 0.19 0.23 0.27 0.29 0.29 0.29 0.28 0.27 0.24 0.22 0.20 0.19 0.18
0.00 0.00 0.00 0.00 0.00 0.00 0.00 0.00 0.00 0.00 0.00 0.00 0.00 0.00 0.00 0.00 0.01 0.01 0.01 0.01 0.01 0.02 0.02 0.03 0.04 0.06 0.08 0.11 0.13 0.17 0.22 0.26 0.31 0.35 0.35 0.32 0.31 0.29 0.26 0.22 0.20 0.18 0.16 0.16
0.00 0.00 0.01 0.01 0.01 0.01 0.01 0.01 0.01 0.00 0.00 0.01 0.01 0.01 0.01 0.01 0.01 0.01 0.02 0.02 0.03 0.04 0.05 0.05 0.06 0.09 0.13 0.18 0.21 0.23 0.28 0.31 0.35 0.35 0.31 0.30 0.28 0.26 0.22 0.19 0.17 0.15 0.14 0.13
0.01 0.01 0.02 0.02 0.02 0.02 0.02 0.02 0.02 0.02 0.02 0.03 0.03 0.02 0.02 0.02 0.03 0.03 0.03 0.04 0.04 0.05 0.06 0.07 0.10 0.14 0.19 0.24 0.27 0.30 0.33 0.34 0.35 0.33 0.30 0.28 0.26 0.23 0.18 0.17 0.15 0.14 0.12 0.10

GEFSNGP_prec_meanprecacc_066.txt.gz
Total_Precipitation_Accumulation
0.00 0.00 0.00 0.00 0.00 0.00 0.00 0.00 0.00 0.00 0.00 0.00 0.00 0.00 0.00 0.00 0.00 0.00 0.00 0.00 0.00 0.00 0.00 0.00 0.00 0.00 0.00 0.00 0.00 0.00 0.00 0.00 0.00 0.00 0.00 0.00 0.00 0.00 0.00 0.01 0.01 0.01 0.01 0.02
0.00 0.00 0.00 0.00 0.00 0.00 0.00 0.00 0.00 0.00 0.00 0.00 0.00 0.00 0.00 0.00 0.00 0.00 0.00 0.00 0.00 0.00 0.00 0.00 0.00 0.00 0.00 0.00 0.00 0.00 0.00 0.00 0.00 0.00 0.00 0.00 0.00 0.00 0.01 0.01 0.01 0.02 0.02 0.02
0.00 0.00 0.00 0.00 0.00 0.00 0.00 0.00 0.00 0.00 0.00 0.00 0.00 0.00 0.00 0.00 0.00 0.00 0.00 0.00 0.00 0.00 0.00 0.00 0.00 0.00 0.00 0.00 0.00 0.00 0.00 0.00 0.00 0.00 0.00 0.00 0.00 0.01 0.01 0.01 0.02 0.02 0.02 0.02
0.00 0.00 0.00 0.00 0.00 0.00 0.00 0.00 0.00 0.00 0.00 0.00 0.00 0.00 0.00 0.00 0.00 0.00 0.00 0.00 0.00 0.00 0.00 0.00 0.00 0.00 0.00 0.00 0.00 0.00 0.00 0.00 0.00 0.00 0.00 0.00 0.00 0.01 0.01 0.02 0.02 0.02 0.02 0.02
0.00 0.00 0.00 0.00 0.00 0.00 0.00 0.00 0.00 0.00 0.00 0.00 0.00 0.00 0.00 0.00 0.00 0.00 0.00 0.00 0.00 0.00 0.00 0.00 0.00 0.00 0.00 0.00 0.00 0.00 0.00 0.00 0.00 0.00 0.00 0.00 0.01 0.01 0.02 0.03 0.02 0.02 0.02 0.01
0.00 0.00 0.00 0.00 0.00 0.00 0.00 0.00 0.00 0.00 0.00 0.00 0.00 0.00 0.00 0.00 0.00 0.00 0.00 0.00 0.00 0.00 0.00 0.00 0.00 0.00 0.00 0.00 0.00 0.00 0.00 0.00 0.00 0.00 0.00 0.01 0.01 0.02 0.02 0.02 0.02 0.02 0.02 0.01
0.00 0.00 0.00 0.00 0.00 0.00 0.00 0.00 0.00 0.00 0.00 0.00 0.00 0.00 0.00 0.00 0.00 0.00 0.00 0.00 0.00 0.00 0.00 0.00 0.00 0.00 0.00 0.00 0.00 0.00 0.00 0.00 0.00 0.00 0.00 0.01 0.02 0.02 0.02 0.03 0.03 0.02 0.02 0.01
0.00 0.00 0.00 0.00 0.00 0.00 0.00 0.00 0.00 0.00 0.00 0.00 0.00 0.00 0.00 0.00 0.00 0.00 0.00 0.00 0.00 0.00 0.00 0.00 0.00 0.00 0.00 0.00 0.00 0.00 0.00 0.00 0.00 0.00 0.01 0.02 0.03 0.03 0.03 0.03 0.03 0.03 0.02 0.02
0.00 0.00 0.00 0.00 0.00 0.00 0.00 0.00 0.00 0.00 0.00 0.00 0.00 0.00 0.00 0.00 0.00 0.00 0.00 0.00 0.00 0.00 0.00 0.00 0.00 0.00 0.00 0.00 0.00 0.00 0.00 0.00 0.00 0.01 0.01 0.03 0.03 0.04 0.04 0.04 0.06 0.04 0.04 0.03
0.00 0.00 0.00 0.00 0.00 0.00 0.00 0.00 0.00 0.00 0.00 0.00 0.00 0.00 0.00 0.00 0.00 0.00 0.00 0.00 0.00 0.00 0.00 0.00 0.00 0.00 0.00 0.00 0.00 0.00 0.00 0.00 0.01 0.01 0.02 0.03 0.04 0.04 0.05 0.08 0.15 0.11 0.07 0.05
0.00 0.00 0.00 0.00 0.00 0.00 0.00 0.00 0.00 0.00 0.00 0.00 0.00 0.00 0.00 0.00 0.00 0.00 0.00 0.00 0.00 0.00 0.00 0.00 0.00 0.00 0.00 0.00 0.00 0.00 0.00 0.01 0.01 0.02 0.03 0.04 0.04 0.04 0.06 0.07 0.16 0.18 0.13 0.13
0.00 0.00 0.00 0.00 0.00 0.00 0.00 0.00 0.00 0.00 0.00 0.00 0.00 0.00 0.00 0.00 0.00 0.00 0.00 0.00 0.00 0.00 0.00 0.00 0.00 0.00 0.00 0.00 0.00 0.00 0.00 0.01 0.02 0.03 0.04 0.04 0.05 0.04 0.05 0.05 0.08 0.08 0.10 0.13
0.00 0.00 0.00 0.00 0.00 0.00 0.00 0.00 0.00 0.00 0.00 0.00 0.00 0.00 0.00 0.00 0.00 0.00 0.00 0.00 0.00 0.00 0.00 0.00 0.00 0.00 0.00 0.00 0.00 0.00 0.00 0.01 0.02 0.03 0.04 0.04 0.04 0.05 0.06 0.04 0.03 0.04 0.05 0.08
0.00 0.00 0.00 0.00 0.00 0.00 0.00 0.00 0.00 0.00 0.00 0.00 0.00 0.00 0.00 0.00 0.00 0.00 0.00 0.00 0.00 0.00 0.00 0.00 0.00 0.00 0.00 0.00 0.00 0.00 0.01 0.02 0.03 0.04 0.04 0.05 0.05 0.06 0.07 0.08 0.07 0.04 0.03 0.04
0.00 0.00 0.00 0.00 0.00 0.00 0.00 0.00 0.00 0.00 0.00 0.00 0.00 0.00 0.00 0.00 0.00 0.00 0.00 0.00 0.00 0.00 0.00 0.00 0.00 0.00 0.00 0.00 0.00 0.00 0.01 0.02 0.03 0.04 0.05 0.05 0.05 0.06 0.07 0.08 0.07 0.06 0.04 0.04
0.00 0.00 0.00 0.00 0.00 0.00 0.00 0.00 0.00 0.00 0.00 0.00 0.00 0.00 0.00 0.00 0.00 0.00 0.00 0.00 0.00 0.00 0.00 0.00 0.00 0.00 0.00 0.00 0.00 0.00 0.01 0.02 0.03 0.04 0.05 0.05 0.06 0.08 0.10 0.10 0.09 0.08 0.08 0.09
0.00 0.00 0.00 0.00 0.00 0.00 0.00 0.00 0.00 0.00 0.00 0.00 0.00 0.00 0.00 0.00 0.00 0.00 0.00 0.00 0.00 0.00 0.00 0.00 0.00 0.00 0.00 0.00 0.01 0.01 0.01 0.02 0.04 0.05 0.06 0.07 0.09 0.11 0.12 0.13 0.13 0.12 0.10 0.11
0.00 0.00 0.00 0.00 0.00 0.00 0.00 0.00 0.00 0.00 0.00 0.00 0.00 0.00 0.00 0.00 0.00 0.00 0.00 0.00 0.00 0.00 0.00 0.00 0.00 0.00 0.00 0.00 0.01 0.01 0.01 0.02 0.04 0.06 0.08 0.09 0.11 0.12 0.14 0.16 0.15 0.15 0.13 0.12
0.00 0.00 0.00 0.00 0.00 0.00 0.00 0.00 0.00 0.00 0.00 0.00 0.00 0.00 0.00 0.00 0.00 0.00 0.00 0.00 0.00 0.00 0.00 0.00 0.00 0.00 0.00 0.00 0.01 0.01 0.02 0.04 0.07 0.08 0.09 0.11 0.13 0.13 0.15 0.17 0.18 0.17 0.17 0.16
0.00 0.00 0.00 0.00 0.00 0.00 0.00 0.00 0.00 0.00 0.00 0.00 0.00 0.00 0.00 0.00 0.00 0.00 0.00 0.00 0.00 0.00 0.00 0.00 0.00 0.00 0.00 0.00 0.01 0.02 0.05 0.08 0.10 0.11 0.12 0.14 0.16 0.17 0.17 0.19 0.20 0.20 0.19 0.17
0.00 0.00 0.00 0.00 0.00 0.00 0.00 0.00 0.00 0.00 0.00 0.00 0.00 0.00 0.00 0.00 0.00 0.00 0.00 0.00 0.00 0.00 0.00 0.00 0.00 0.01 0.01 0.02 0.04 0.05 0.07 0.10 0.12 0.15 0.18 0.20 0.22 0.23 0.22 0.21 0.21 0.21 0.20 0.19
0.00 0.00 0.00 0.00 0.00 0.00 0.00 0.00 0.00 0.00 0.00 0.00 0.00 0.00 0.00 0.00 0.00 0.00 0.00 0.00 0.00 0.00 0.01 0.01 0.01 0.01 0.03 0.05 0.05 0.06 0.08 0.11 0.15 0.19 0.23 0.26 0.29 0.30 0.26 0.23 0.24 0.23 0.21 0.20
0.00 0.00 0.00 0.00 0.00 0.00 0.00 0.00 0.00 0.00 0.00 0.00 0.00 0.00 0.00 0.00 0.00 0.00 0.00 0.00 0.00 0.01 0.01 0.01 0.01 0.03 0.05 0.05 0.05 0.07 0.10 0.14 0.18 0.23 0.26 0.29 0.31 0.32 0.29 0.27 0.26 0.24 0.23 0.22
0.00 0.00 0.00 0.00 0.00 0.00 0.00 0.00 0.00 0.00 0.00 0.00 0.00 0.00 0.00 0.00 0.00 0.00 0.00 0.01 0.01 0.02 0.01 0.01 0.02 0.04 0.06 0.07 0.08 0.11 0.16 0.20 0.24 0.28 0.31 0.31 0.31 0.31 0.30 0.28 0.26 0.23 0.21 0.21
0.00 0.00 0.00 0.00 0.00 0.00 0.00 0.00 0.00 0.00 0.00 0.00 0.00 0.00 0.00 0.01 0.01 0.01 0.01 0.01 0.01 0.02 0.02 0.03 0.04 0.06 0.08 0.11 0.13 0.17 0.22 0.27 0.32 0.37 0.37 0.35 0.33 0.32 0.28 0.25 0.23 0.21 0.20 0.18
0.00 0.00 0.01 0.01 0.01 0.01 0.01 0.01 0.01 0.01 0.00 0.01 0.01 0.01 0.01 0.01 0.01 0.01 0.02 0.02 0.03 0.04 0.05 0.05 0.06 0.09 0.13 0.18 0.21 0.24 0.28 0.32 0.36 0.36 0.33 0.32 0.31 0.29 0.25 0.22 0.20 0.19 0.17 0.15
0.01 0.01 0.02 0.02 0.02 0.02 0.02 0.02 0.02 0.02 0.03 0.03 0.04 0.03 0.02 0.02 0.03 0.03 0.03 0.04 0.04 0.05 0.06 0.07 0.10 0.14 0.19 0.24 0.27 0.30 0.33 0.35 0.36 0.34 0.32 0.31 0.29 0.26 0.22 0.20 0.19 0.17 0.15 0.12

GEFSNGP_prec_meanprecacc_072.txt.gz
Total_Precipitation_Accumulation
0.00 0.00 0.00 0.00 0.00 0.00 0.00 0.00 0.00 0.00 0.00 0.00 0.00 0.00 0.00 0.00 0.00 0.00 0.00 0.00 0.00 0.00 0.00 0.00 0.00 0.00 0.00 0.00 0.00 0.00 0.00 0.00 0.00 0.00 0.00 0.00 0.00 0.00 0.00 0.01 0.01 0.01 0.01 0.02
0.00 0.00 0.00 0.00 0.00 0.00 0.00 0.00 0.00 0.00 0.00 0.00 0.00 0.00 0.00 0.00 0.00 0.00 0.00 0.00 0.00 0.00 0.00 0.00 0.00 0.00 0.00 0.00 0.00 0.00 0.00 0.00 0.00 0.00 0.00 0.00 0.00 0.00 0.01 0.01 0.01 0.02 0.02 0.02
0.00 0.00 0.00 0.00 0.00 0.00 0.00 0.00 0.00 0.00 0.00 0.00 0.00 0.00 0.00 0.00 0.00 0.00 0.00 0.00 0.00 0.00 0.00 0.00 0.00 0.00 0.00 0.00 0.00 0.00 0.00 0.00 0.00 0.00 0.00 0.00 0.00 0.01 0.01 0.01 0.02 0.02 0.02 0.02
0.00 0.00 0.00 0.00 0.00 0.00 0.00 0.00 0.00 0.00 0.00 0.00 0.00 0.00 0.00 0.00 0.00 0.00 0.00 0.00 0.00 0.00 0.00 0.00 0.00 0.00 0.00 0.00 0.00 0.00 0.00 0.00 0.00 0.00 0.00 0.00 0.00 0.01 0.01 0.02 0.02 0.02 0.02 0.02
0.00 0.00 0.00 0.00 0.00 0.00 0.00 0.00 0.00 0.00 0.00 0.00 0.00 0.00 0.00 0.00 0.00 0.00 0.00 0.00 0.00 0.00 0.00 0.00 0.00 0.00 0.00 0.00 0.00 0.00 0.00 0.00 0.00 0.00 0.00 0.00 0.01 0.01 0.02 0.03 0.02 0.02 0.02 0.01
0.00 0.00 0.00 0.00 0.00 0.00 0.00 0.00 0.00 0.00 0.00 0.00 0.00 0.00 0.00 0.00 0.00 0.00 0.00 0.00 0.00 0.00 0.00 0.00 0.00 0.00 0.00 0.00 0.00 0.00 0.00 0.00 0.00 0.00 0.00 0.01 0.01 0.02 0.02 0.02 0.02 0.02 0.02 0.01
0.00 0.00 0.00 0.00 0.00 0.00 0.00 0.00 0.00 0.00 0.00 0.00 0.00 0.00 0.00 0.00 0.00 0.00 0.00 0.00 0.00 0.00 0.00 0.00 0.00 0.00 0.00 0.00 0.00 0.00 0.00 0.00 0.00 0.00 0.00 0.01 0.02 0.02 0.02 0.03 0.03 0.02 0.02 0.01
0.00 0.00 0.00 0.00 0.00 0.00 0.00 0.00 0.00 0.00 0.00 0.00 0.00 0.00 0.00 0.00 0.00 0.00 0.00 0.00 0.00 0.00 0.00 0.00 0.00 0.00 0.00 0.00 0.00 0.00 0.00 0.00 0.00 0.00 0.01 0.02 0.03 0.03 0.03 0.03 0.03 0.03 0.02 0.02
0.00 0.00 0.00 0.00 0.00 0.00 0.00 0.00 0.00 0.00 0.00 0.00 0.00 0.00 0.00 0.00 0.00 0.00 0.00 0.00 0.00 0.00 0.00 0.00 0.00 0.00 0.00 0.00 0.00 0.00 0.00 0.00 0.00 0.01 0.01 0.03 0.03 0.04 0.04 0.04 0.06 0.05 0.04 0.03
0.00 0.00 0.00 0.00 0.00 0.00 0.00 0.00 0.00 0.00 0.00 0.00 0.00 0.00 0.00 0.00 0.00 0.00 0.00 0.00 0.00 0.00 0.00 0.00 0.00 0.00 0.00 0.00 0.00 0.00 0.00 0.00 0.01 0.01 0.02 0.03 0.04 0.04 0.05 0.08 0.15 0.11 0.08 0.07
0.00 0.00 0.00 0.00 0.00 0.00 0.00 0.00 0.00 0.00 0.00 0.00 0.00 0.00 0.00 0.00 0.00 0.00 0.00 0.00 0.00 0.00 0.00 0.00 0.00 0.00 0.00 0.00 0.00 0.00 0.00 0.01 0.01 0.02 0.03 0.04 0.04 0.04 0.06 0.07 0.17 0.19 0.15 0.15
0.00 0.00 0.00 0.00 0.00 0.00 0.00 0.00 0.00 0.00 0.00 0.00 0.00 0.00 0.00 0.00 0.00 0.00 0.00 0.00 0.00 0.00 0.00 0.00 0.00 0.00 0.00 0.00 0.00 0.00 0.00 0.01 0.02 0.03 0.04 0.04 0.05 0.04 0.05 0.05 0.08 0.08 0.11 0.14
0.00 0.00 0.00 0.00 0.00 0.00 0.00 0.00 0.00 0.00 0.00 0.00 0.00 0.00 0.00 0.00 0.00 0.00 0.00 0.00 0.00 0.00 0.00 0.00 0.00 0.00 0.00 0.00 0.00 0.00 0.00 0.01 0.02 0.03 0.04 0.04 0.05 0.05 0.06 0.04 0.03 0.04 0.06 0.08
0.00 0.00 0.00 0.00 0.00 0.00 0.00 0.00 0.00 0.00 0.00 0.00 0.00 0.00 0.00 0.00 0.00 0.00 0.00 0.00 0.00 0.00 0.00 0.00 0.00 0.00 0.00 0.00 0.00 0.00 0.01 0.02 0.03 0.04 0.04 0.05 0.05 0.06 0.07 0.09 0.07 0.04 0.03 0.04
0.00 0.00 0.00 0.00 0.00 0.00 0.00 0.00 0.00 0.00 0.00 0.00 0.00 0.00 0.00 0.00 0.00 0.00 0.00 0.00 0.00 0.00 0.00 0.00 0.00 0.00 0.00 0.00 0.00 0.00 0.01 0.02 0.03 0.04 0.05 0.05 0.05 0.06 0.08 0.09 0.08 0.06 0.04 0.04
0.00 0.00 0.00 0.00 0.00 0.00 0.00 0.00 0.00 0.00 0.00 0.00 0.00 0.00 0.00 0.00 0.00 0.00 0.00 0.00 0.00 0.00 0.00 0.00 0.00 0.00 0.00 0.00 0.00 0.00 0.01 0.02 0.04 0.04 0.05 0.06 0.07 0.09 0.10 0.11 0.10 0.09 0.09 0.09
0.00 0.00 0.00 0.00 0.00 0.00 0.00 0.00 0.00 0.00 0.00 0.00 0.00 0.00 0.00 0.00 0.00 0.00 0.00 0.00 0.00 0.00 0.00 0.00 0.00 0.00 0.00 0.00 0.01 0.01 0.01 0.02 0.04 0.05 0.06 0.08 0.10 0.12 0.13 0.15 0.15 0.13 0.10 0.11
0.00 0.00 0.00 0.00 0.00 0.00 0.00 0.00 0.00 0.00 0.00 0.00 0.00 0.00 0.00 0.00 0.00 0.00 0.00 0.00 0.00 0.00 0.00 0.00 0.00 0.00 0.00 0.00 0.01 0.01 0.01 0.02 0.04 0.07 0.08 0.10 0.12 0.13 0.15 0.17 0.16 0.16 0.14 0.12
0.00 0.00 0.00 0.00 0.00 0.00 0.00 0.00 0.00 0.00 0.00 0.00 0.00 0.00 0.00 0.00 0.00 0.00 0.00 0.00 0.00 0.00 0.00 0.00 0.00 0.00 0.00 0.00 0.01 0.01 0.02 0.05 0.08 0.09 0.10 0.12 0.14 0.14 0.15 0.17 0.19 0.19 0.19 0.18
0.00 0.00 0.00 0.00 0.00 0.00 0.00 0.00 0.00 0.00 0.00 0.00 0.00 0.00 0.00 0.00 0.00 0.00 0.00 0.00 0.00 0.00 0.00 0.00 0.00 0.00 0.00 0.00 0.01 0.02 0.05 0.09 0.11 0.12 0.13 0.14 0.17 0.18 0.18 0.20 0.21 0.22 0.20 0.19
0.00 0.00 0.00 0.00 0.00 0.00 0.00 0.00 0.00 0.00 0.00 0.00 0.00 0.00 0.00 0.00 0.00 0.00 0.00 0.00 0.00 0.00 0.00 0.00 0.01 0.01 0.01 0.02 0.04 0.05 0.08 0.11 0.13 0.15 0.18 0.21 0.23 0.24 0.22 0.22 0.22 0.23 0.22 0.22
0.00 0.00 0.00 0.00 0.00 0.00 0.00 0.00 0.00 0.00 0.00 0.00 0.00 0.00 0.00 0.00 0.00 0.00 0.00 0.00 0.00 0.00 0.01 0.01 0.01 0.02 0.03 0.06 0.06 0.07 0.09 0.12 0.15 0.19 0.23 0.27 0.30 0.32 0.27 0.24 0.26 0.25 0.23 0.23
0.00 0.00 0.00 0.00 0.00 0.00 0.00 0.00 0.00 0.00 0.00 0.00 0.00 0.00 0.00 0.00 0.00 0.00 0.00 0.00 0.00 0.01 0.01 0.01 0.01 0.03 0.06 0.06 0.06 0.07 0.11 0.14 0.19 0.23 0.27 0.30 0.32 0.33 0.31 0.29 0.28 0.26 0.26 0.25
0.00 0.00 0.00 0.00 0.00 0.00 0.00 0.00 0.00 0.00 0.00 0.00 0.00 0.00 0.00 0.00 0.00 0.00 0.00 0.01 0.01 0.02 0.02 0.01 0.03 0.04 0.07 0.07 0.08 0.11 0.16 0.20 0.24 0.29 0.31 0.32 0.32 0.32 0.31 0.30 0.28 0.25 0.24 0.24
0.00 0.00 0.00 0.00 0.00 0.00 0.00 0.00 0.00 0.00 0.00 0.00 0.00 0.00 0.00 0.01 0.01 0.01 0.01 0.01 0.02 0.03 0.03 0.03 0.05 0.07 0.08 0.11 0.14 0.18 0.23 0.27 0.33 0.38 0.39 0.37 0.34 0.33 0.30 0.27 0.26 0.24 0.23 0.21
0.00 0.00 0.01 0.01 0.01 0.01 0.01 0.01 0.01 0.01 0.00 0.01 0.01 0.01 0.01 0.01 0.01 0.02 0.02 0.02 0.03 0.04 0.05 0.05 0.06 0.09 0.13 0.18 0.21 0.24 0.28 0.32 0.36 0.36 0.34 0.33 0.32 0.30 0.27 0.24 0.23 0.22 0.20 0.18
0.01 0.01 0.02 0.02 0.02 0.02 0.02 0.02 0.02 0.02 0.03 0.03 0.04 0.03 0.02 0.02 0.03 0.03 0.04 0.04 0.04 0.05 0.06 0.08 0.10 0.14 0.19 0.24 0.28 0.30 0.33 0.35 0.36 0.35 0.32 0.32 0.30 0.27 0.23 0.22 0.21 0.20 0.18 0.15

GEFSNGP_prec_meanprecacc_078.txt.gz
Total_Precipitation_Accumulation
0.00 0.00 0.00 0.00 0.00 0.00 0.00 0.00 0.00 0.00 0.00 0.00 0.00 0.00 0.00 0.00 0.00 0.00 0.00 0.00 0.00 0.00 0.00 0.00 0.00 0.00 0.00 0.00 0.00 0.00 0.00 0.00 0.00 0.00 0.00 0.00 0.00 0.00 0.00 0.01 0.01 0.01 0.01 0.02
0.00 0.00 0.00 0.00 0.00 0.00 0.00 0.00 0.00 0.00 0.00 0.00 0.00 0.00 0.00 0.00 0.00 0.00 0.00 0.00 0.00 0.00 0.00 0.00 0.00 0.00 0.00 0.00 0.00 0.00 0.00 0.00 0.00 0.00 0.00 0.00 0.00 0.00 0.01 0.01 0.01 0.02 0.02 0.02
0.00 0.00 0.00 0.00 0.00 0.00 0.00 0.00 0.00 0.00 0.00 0.00 0.00 0.00 0.00 0.00 0.00 0.00 0.00 0.00 0.00 0.00 0.00 0.00 0.00 0.00 0.00 0.00 0.00 0.00 0.00 0.00 0.00 0.00 0.00 0.00 0.00 0.01 0.01 0.01 0.02 0.02 0.02 0.02
0.00 0.00 0.00 0.00 0.00 0.00 0.00 0.00 0.00 0.00 0.00 0.00 0.00 0.00 0.00 0.00 0.00 0.00 0.00 0.00 0.00 0.00 0.00 0.00 0.00 0.00 0.00 0.00 0.00 0.00 0.00 0.00 0.00 0.00 0.00 0.00 0.00 0.01 0.01 0.02 0.02 0.02 0.02 0.02
0.00 0.00 0.00 0.00 0.00 0.00 0.00 0.00 0.00 0.00 0.00 0.00 0.00 0.00 0.00 0.00 0.00 0.00 0.00 0.00 0.00 0.00 0.00 0.00 0.00 0.00 0.00 0.00 0.00 0.00 0.00 0.00 0.00 0.00 0.00 0.00 0.01 0.01 0.02 0.03 0.02 0.02 0.02 0.01
0.00 0.00 0.00 0.00 0.00 0.00 0.00 0.00 0.00 0.00 0.00 0.00 0.00 0.00 0.00 0.00 0.00 0.00 0.00 0.00 0.00 0.00 0.00 0.00 0.00 0.00 0.00 0.00 0.00 0.00 0.00 0.00 0.00 0.00 0.00 0.01 0.01 0.02 0.02 0.02 0.02 0.02 0.02 0.01
0.00 0.00 0.00 0.00 0.00 0.00 0.00 0.00 0.00 0.00 0.00 0.00 0.00 0.00 0.00 0.00 0.00 0.00 0.00 0.00 0.00 0.00 0.00 0.00 0.00 0.00 0.00 0.00 0.00 0.00 0.00 0.00 0.00 0.00 0.00 0.01 0.02 0.02 0.02 0.03 0.03 0.02 0.02 0.01
0.00 0.00 0.00 0.00 0.00 0.00 0.00 0.00 0.00 0.00 0.00 0.00 0.00 0.00 0.00 0.00 0.00 0.00 0.00 0.00 0.00 0.00 0.00 0.00 0.00 0.00 0.00 0.00 0.00 0.00 0.00 0.00 0.00 0.00 0.01 0.02 0.03 0.03 0.03 0.03 0.03 0.03 0.02 0.02
0.00 0.00 0.00 0.00 0.00 0.00 0.00 0.00 0.00 0.00 0.00 0.00 0.00 0.00 0.00 0.00 0.00 0.00 0.00 0.00 0.00 0.00 0.00 0.00 0.00 0.00 0.00 0.00 0.00 0.00 0.00 0.00 0.00 0.01 0.01 0.03 0.03 0.04 0.04 0.04 0.06 0.05 0.04 0.03
0.00 0.00 0.00 0.00 0.00 0.00 0.00 0.00 0.00 0.00 0.00 0.00 0.00 0.00 0.00 0.00 0.00 0.00 0.00 0.00 0.00 0.00 0.00 0.00 0.00 0.00 0.00 0.00 0.00 0.00 0.00 0.00 0.01 0.01 0.02 0.03 0.04 0.04 0.05 0.08 0.15 0.11 0.08 0.07
0.00 0.00 0.00 0.00 0.00 0.00 0.00 0.00 0.00 0.00 0.00 0.00 0.00 0.00 0.00 0.00 0.00 0.00 0.00 0.00 0.00 0.00 0.00 0.00 0.00 0.00 0.00 0.00 0.00 0.00 0.00 0.01 0.01 0.02 0.03 0.04 0.04 0.04 0.06 0.07 0.17 0.19 0.15 0.16
0.00 0.00 0.00 0.00 0.00 0.00 0.00 0.00 0.00 0.00 0.00 0.00 0.00 0.00 0.00 0.00 0.00 0.00 0.00 0.00 0.00 0.00 0.00 0.00 0.00 0.00 0.00 0.00 0.00 0.00 0.00 0.01 0.02 0.03 0.04 0.04 0.05 0.04 0.05 0.05 0.08 0.09 0.11 0.15
0.00 0.00 0.00 0.00 0.00 0.00 0.00 0.00 0.00 0.00 0.00 0.00 0.00 0.00 0.00 0.00 0.00 0.00 0.00 0.00 0.00 0.00 0.00 0.00 0.00 0.00 0.00 0.00 0.00 0.00 0.00 0.01 0.02 0.03 0.04 0.04 0.05 0.05 0.06 0.04 0.04 0.04 0.06 0.09
0.00 0.00 0.00 0.00 0.00 0.00 0.00 0.00 0.00 0.00 0.00 0.00 0.00 0.00 0.00 0.00 0.00 0.00 0.00 0.00 0.00 0.00 0.00 0.00 0.00 0.00 0.00 0.00 0.00 0.00 0.01 0.02 0.03 0.04 0.05 0.05 0.05 0.06 0.08 0.09 0.08 0.04 0.03 0.04
0.00 0.00 0.00 0.00 0.00 0.00 0.00 0.00 0.00 0.00 0.00 0.00 0.00 0.00 0.00 0.00 0.00 0.00 0.00 0.00 0.00 0.00 0.00 0.00 0.00 0.00 0.00 0.00 0.00 0.00 0.01 0.02 0.03 0.04 0.05 0.05 0.06 0.07 0.08 0.09 0.09 0.07 0.05 0.04
0.00 0.00 0.00 0.00 0.00 0.00 0.00 0.00 0.00 0.00 0.00 0.00 0.00 0.00 0.00 0.00 0.00 0.00 0.00 0.00 0.00 0.00 0.00 0.00 0.00 0.00 0.00 0.00 0.00 0.00 0.01 0.02 0.04 0.05 0.05 0.06 0.07 0.09 0.11 0.11 0.11 0.10 0.09 0.10
0.00 0.00 0.00 0.00 0.00 0.00 0.00 0.00 0.00 0.00 0.00 0.00 0.00 0.00 0.00 0.00 0.00 0.00 0.00 0.00 0.00 0.00 0.00 0.00 0.00 0.00 0.00 0.00 0.01 0.01 0.01 0.02 0.04 0.05 0.06 0.08 0.10 0.12 0.14 0.16 0.16 0.14 0.11 0.12
0.00 0.00 0.00 0.00 0.00 0.00 0.00 0.00 0.00 0.00 0.00 0.00 0.00 0.00 0.00 0.00 0.00 0.00 0.00 0.00 0.00 0.00 0.00 0.00 0.00 0.00 0.00 0.00 0.01 0.01 0.01 0.02 0.04 0.07 0.09 0.10 0.12 0.14 0.16 0.18 0.17 0.17 0.15 0.13
0.00 0.00 0.00 0.00 0.00 0.00 0.00 0.00 0.00 0.00 0.00 0.00 0.00 0.00 0.00 0.00 0.00 0.00 0.00 0.00 0.00 0.00 0.00 0.00 0.00 0.00 0.00 0.00 0.01 0.01 0.02 0.05 0.08 0.10 0.11 0.13 0.15 0.15 0.16 0.18 0.20 0.20 0.19 0.18
0.00 0.00 0.00 0.00 0.00 0.00 0.00 0.00 0.00 0.00 0.00 0.00 0.00 0.00 0.00 0.00 0.00 0.00 0.00 0.00 0.00 0.00 0.00 0.00 0.00 0.00 0.01 0.01 0.02 0.03 0.06 0.10 0.12 0.13 0.14 0.15 0.18 0.19 0.19 0.20 0.22 0.22 0.21 0.20
0.00 0.00 0.00 0.00 0.00 0.00 0.00 0.00 0.00 0.00 0.00 0.00 0.00 0.00 0.00 0.00 0.00 0.00 0.00 0.00 0.00 0.00 0.00 0.00 0.01 0.01 0.01 0.02 0.05 0.06 0.09 0.12 0.14 0.17 0.19 0.22 0.24 0.24 0.23 0.22 0.23 0.23 0.23 0.22
0.00 0.00 0.00 0.00 0.00 0.00 0.00 0.00 0.00 0.00 0.00 0.00 0.00 0.00 0.00 0.00 0.00 0.00 0.00 0.00 0.00 0.00 0.01 0.01 0.01 0.02 0.04 0.06 0.06 0.07 0.10 0.13 0.16 0.20 0.24 0.27 0.31 0.32 0.28 0.25 0.27 0.26 0.24 0.24
0.00 0.00 0.00 0.00 0.00 0.00 0.00 0.00 0.00 0.00 0.00 0.00 0.00 0.00 0.00 0.00 0.00 0.00 0.00 0.00 0.00 0.01 0.01 0.01 0.02 0.03 0.06 0.07 0.06 0.08 0.11 0.15 0.19 0.24 0.28 0.31 0.33 0.34 0.33 0.30 0.29 0.28 0.27 0.26
0.00 0.00 0.00 0.00 0.00 0.00 0.00 0.00 0.00 0.00 0.00 0.00 0.00 0.00 0.00 0.00 0.00 0.00 0.00 0.01 0.01 0.02 0.02 0.02 0.03 0.05 0.08 0.08 0.08 0.12 0.16 0.21 0.25 0.29 0.32 0.33 0.33 0.33 0.33 0.31 0.29 0.26 0.25 0.25
0.00 0.00 0.00 0.00 0.00 0.00 0.00 0.00 0.00 0.00 0.00 0.00 0.00 0.00 0.00 0.01 0.01 0.01 0.01 0.01 0.02 0.03 0.03 0.03 0.05 0.07 0.09 0.11 0.14 0.18 0.23 0.28 0.34 0.40 0.40 0.38 0.36 0.34 0.31 0.29 0.27 0.25 0.24 0.23
0.00 0.00 0.01 0.01 0.01 0.01 0.01 0.01 0.01 0.01 0.00 0.01 0.01 0.01 0.01 0.01 0.01 0.02 0.02 0.02 0.03 0.04 0.05 0.05 0.06 0.09 0.13 0.18 0.21 0.24 0.29 0.33 0.37 0.37 0.35 0.34 0.33 0.31 0.28 0.25 0.24 0.23 0.22 0.20
0.01 0.01 0.02 0.02 0.02 0.02 0.02 0.02 0.02 0.02 0.03 0.03 0.04 0.03 0.02 0.02 0.03 0.03 0.04 0.04 0.04 0.05 0.06 0.08 0.10 0.14 0.19 0.24 0.28 0.31 0.34 0.36 0.37 0.36 0.33 0.33 0.31 0.28 0.25 0.24 0.23 0.21 0.19 0.16

GEFSNGP_prec_meanprecacc_084.txt.gz
Total_Precipitation_Accumulation
0.00 0.00 0.00 0.00 0.00 0.00 0.00 0.00 0.00 0.00 0.00 0.00 0.00 0.00 0.00 0.00 0.00 0.00 0.00 0.00 0.00 0.00 0.00 0.00 0.00 0.00 0.00 0.00 0.00 0.00 0.00 0.00 0.00 0.00 0.00 0.00 0.00 0.00 0.00 0.01 0.01 0.01 0.01 0.02
0.00 0.00 0.00 0.00 0.00 0.00 0.00 0.00 0.00 0.00 0.00 0.00 0.00 0.00 0.00 0.00 0.00 0.00 0.00 0.00 0.00 0.00 0.00 0.00 0.00 0.00 0.00 0.00 0.00 0.00 0.00 0.00 0.00 0.00 0.00 0.00 0.00 0.00 0.01 0.01 0.01 0.02 0.02 0.02
0.00 0.00 0.00 0.00 0.00 0.00 0.00 0.00 0.00 0.00 0.00 0.00 0.00 0.00 0.00 0.00 0.00 0.00 0.00 0.00 0.00 0.00 0.00 0.00 0.00 0.00 0.00 0.00 0.00 0.00 0.00 0.00 0.00 0.00 0.00 0.00 0.00 0.01 0.01 0.01 0.02 0.02 0.02 0.02
0.00 0.00 0.00 0.00 0.00 0.00 0.00 0.00 0.00 0.00 0.00 0.00 0.00 0.00 0.00 0.00 0.00 0.00 0.00 0.00 0.00 0.00 0.00 0.00 0.00 0.00 0.00 0.00 0.00 0.00 0.00 0.00 0.00 0.00 0.00 0.00 0.00 0.01 0.01 0.02 0.02 0.02 0.02 0.02
0.00 0.00 0.00 0.00 0.00 0.00 0.00 0.00 0.00 0.00 0.00 0.00 0.00 0.00 0.00 0.00 0.00 0.00 0.00 0.00 0.00 0.00 0.00 0.00 0.00 0.00 0.00 0.00 0.00 0.00 0.00 0.00 0.00 0.00 0.00 0.00 0.01 0.01 0.02 0.03 0.02 0.02 0.02 0.01
0.00 0.00 0.00 0.00 0.00 0.00 0.00 0.00 0.00 0.00 0.00 0.00 0.00 0.00 0.00 0.00 0.00 0.00 0.00 0.00 0.00 0.00 0.00 0.00 0.00 0.00 0.00 0.00 0.00 0.00 0.00 0.00 0.00 0.00 0.00 0.01 0.01 0.02 0.02 0.02 0.02 0.02 0.02 0.01
0.00 0.00 0.00 0.00 0.00 0.00 0.00 0.00 0.00 0.00 0.00 0.00 0.00 0.00 0.00 0.00 0.00 0.00 0.00 0.00 0.00 0.00 0.00 0.00 0.00 0.00 0.00 0.00 0.00 0.00 0.00 0.00 0.00 0.00 0.00 0.01 0.02 0.02 0.02 0.03 0.03 0.02 0.02 0.01
0.00 0.00 0.00 0.00 0.00 0.00 0.00 0.00 0.00 0.00 0.00 0.00 0.00 0.00 0.00 0.00 0.00 0.00 0.00 0.00 0.00 0.00 0.00 0.00 0.00 0.00 0.00 0.00 0.00 0.00 0.00 0.00 0.00 0.00 0.01 0.02 0.03 0.03 0.03 0.03 0.03 0.03 0.02 0.02
0.00 0.00 0.00 0.00 0.00 0.00 0.00 0.00 0.00 0.00 0.00 0.00 0.00 0.00 0.00 0.00 0.00 0.00 0.00 0.00 0.00 0.00 0.00 0.00 0.00 0.00 0.00 0.00 0.00 0.00 0.00 0.00 0.00 0.01 0.01 0.03 0.03 0.04 0.04 0.04 0.06 0.05 0.04 0.03
0.00 0.00 0.00 0.00 0.00 0.00 0.00 0.00 0.00 0.00 0.00 0.00 0.00 0.00 0.00 0.00 0.00 0.00 0.00 0.00 0.00 0.00 0.00 0.00 0.00 0.00 0.00 0.00 0.00 0.00 0.00 0.00 0.01 0.01 0.02 0.03 0.04 0.04 0.05 0.08 0.15 0.11 0.08 0.07
0.00 0.00 0.00 0.00 0.00 0.00 0.00 0.00 0.00 0.00 0.00 0.00 0.00 0.00 0.00 0.00 0.00 0.00 0.00 0.00 0.00 0.00 0.00 0.00 0.00 0.00 0.00 0.00 0.00 0.00 0.00 0.01 0.01 0.02 0.03 0.04 0.04 0.04 0.06 0.07 0.17 0.19 0.16 0.16
0.00 0.00 0.00 0.00 0.00 0.00 0.00 0.00 0.00 0.00 0.00 0.00 0.00 0.00 0.00 0.00 0.00 0.00 0.00 0.00 0.00 0.00 0.00 0.00 0.00 0.00 0.00 0.00 0.00 0.00 0.00 0.01 0.02 0.03 0.04 0.04 0.05 0.04 0.05 0.05 0.08 0.09 0.11 0.15
0.00 0.00 0.00 0.00 0.00 0.00 0.00 0.00 0.00 0.00 0.00 0.00 0.00 0.00 0.00 0.00 0.00 0.00 0.00 0.00 0.00 0.00 0.00 0.00 0.00 0.00 0.00 0.00 0.00 0.00 0.00 0.01 0.02 0.03 0.04 0.04 0.05 0.05 0.06 0.04 0.04 0.04 0.06 0.09
0.00 0.00 0.00 0.00 0.00 0.00 0.00 0.00 0.00 0.00 0.00 0.00 0.00 0.00 0.00 0.00 0.00 0.00 0.00 0.00 0.00 0.00 0.00 0.00 0.00 0.00 0.00 0.00 0.00 0.00 0.01 0.02 0.03 0.04 0.05 0.05 0.05 0.06 0.08 0.09 0.08 0.04 0.03 0.05
0.00 0.00 0.00 0.00 0.00 0.00 0.00 0.00 0.00 0.00 0.00 0.00 0.00 0.00 0.00 0.00 0.00 0.00 0.00 0.00 0.00 0.00 0.00 0.00 0.00 0.00 0.00 0.00 0.00 0.00 0.01 0.02 0.03 0.04 0.05 0.05 0.06 0.07 0.08 0.09 0.09 0.07 0.05 0.05
0.00 0.00 0.00 0.00 0.00 0.00 0.00 0.00 0.00 0.00 0.00 0.00 0.00 0.00 0.00 0.00 0.00 0.00 0.00 0.00 0.00 0.00 0.00 0.00 0.00 0.00 0.00 0.00 0.00 0.00 0.01 0.02 0.04 0.05 0.05 0.06 0.07 0.10 0.11 0.12 0.12 0.11 0.10 0.10
0.00 0.00 0.00 0.00 0.00 0.00 0.00 0.00 0.00 0.00 0.00 0.00 0.00 0.00 0.00 0.00 0.00 0.00 0.00 0.00 0.00 0.00 0.00 0.00 0.00 0.00 0.00 0.00 0.01 0.01 0.01 0.02 0.04 0.05 0.06 0.08 0.11 0.13 0.15 0.18 0.18 0.15 0.11 0.12
0.00 0.00 0.00 0.00 0.00 0.00 0.00 0.00 0.00 0.00 0.00 0.00 0.00 0.00 0.00 0.00 0.00 0.00 0.00 0.00 0.00 0.00 0.00 0.00 0.00 0.00 0.00 0.00 0.01 0.01 0.01 0.02 0.05 0.07 0.09 0.10 0.13 0.15 0.18 0.19 0.19 0.18 0.16 0.13
0.00 0.00 0.00 0.00 0.00 0.00 0.00 0.00 0.00 0.00 0.00 0.00 0.00 0.00 0.00 0.00 0.00 0.00 0.00 0.00 0.00 0.00 0.00 0.00 0.00 0.00 0.00 0.00 0.01 0.01 0.03 0.05 0.08 0.10 0.11 0.14 0.16 0.16 0.17 0.20 0.21 0.21 0.21 0.19
0.00 0.00 0.00 0.00 0.00 0.00 0.00 0.00 0.00 0.00 0.00 0.00 0.00 0.00 0.00 0.00 0.00 0.00 0.00 0.00 0.00 0.00 0.00 0.00 0.00 0.00 0.01 0.01 0.02 0.03 0.06 0.10 0.13 0.14 0.15 0.17 0.19 0.20 0.20 0.22 0.23 0.23 0.22 0.21
0.00 0.00 0.00 0.00 0.00 0.00 0.00 0.00 0.00 0.00 0.00 0.00 0.00 0.00 0.00 0.00 0.00 0.00 0.00 0.00 0.00 0.00 0.00 0.00 0.01 0.01 0.01 0.03 0.05 0.07 0.09 0.13 0.16 0.18 0.21 0.23 0.25 0.25 0.24 0.23 0.24 0.24 0.24 0.23
0.00 0.00 0.00 0.00 0.00 0.00 0.00 0.00 0.00 0.00 0.00 0.00 0.00 0.00 0.00 0.00 0.00 0.00 0.00 0.00 0.00 0.00 0.01 0.01 0.01 0.02 0.04 0.07 0.07 0.08 0.10 0.13 0.17 0.20 0.25 0.28 0.33 0.34 0.29 0.26 0.28 0.27 0.25 0.25
0.00 0.00 0.00 0.00 0.00 0.00 0.00 0.00 0.00 0.00 0.00 0.00 0.00 0.00 0.00 0.00 0.00 0.00 0.00 0.00 0.00 0.01 0.01 0.01 0.02 0.04 0.07 0.07 0.07 0.09 0.12 0.15 0.20 0.24 0.28 0.32 0.35 0.36 0.34 0.32 0.30 0.28 0.28 0.27
0.00 0.00 0.00 0.00 0.00 0.00 0.00 0.00 0.00 0.00 0.00 0.00 0.00 0.00 0.00 0.00 0.00 0.00 0.00 0.01 0.01 0.02 0.02 0.02 0.03 0.05 0.08 0.08 0.09 0.12 0.16 0.21 0.25 0.30 0.33 0.35 0.35 0.35 0.34 0.32 0.30 0.27 0.26 0.26
0.00 0.00 0.00 0.00 0.00 0.00 0.00 0.00 0.00 0.00 0.00 0.00 0.00 0.00 0.00 0.01 0.01 0.01 0.01 0.01 0.02 0.03 0.03 0.03 0.05 0.07 0.09 0.11 0.14 0.18 0.23 0.28 0.34 0.41 0.42 0.39 0.37 0.35 0.32 0.29 0.28 0.27 0.25 0.24
0.00 0.00 0.01 0.01 0.01 0.01 0.01 0.01 0.01 0.01 0.00 0.01 0.01 0.01 0.01 0.01 0.01 0.02 0.02 0.02 0.03 0.04 0.05 0.05 0.06 0.09 0.13 0.18 0.21 0.24 0.29 0.33 0.37 0.38 0.35 0.35 0.34 0.32 0.29 0.26 0.25 0.24 0.23 0.21
0.01 0.01 0.02 0.02 0.02 0.02 0.02 0.02 0.02 0.02 0.03 0.03 0.04 0.03 0.02 0.02 0.03 0.03 0.04 0.04 0.04 0.05 0.06 0.08 0.10 0.14 0.20 0.25 0.28 0.31 0.34 0.36 0.37 0.37 0.34 0.34 0.33 0.30 0.26 0.25 0.24 0.22 0.20 0.17

GEFSNGP_prec_meanprecacc_090.txt.gz
Total_Precipitation_Accumulation
0.00 0.00 0.00 0.00 0.00 0.00 0.00 0.00 0.00 0.00 0.00 0.00 0.00 0.00 0.00 0.00 0.00 0.00 0.00 0.00 0.00 0.00 0.00 0.00 0.00 0.00 0.00 0.00 0.00 0.00 0.00 0.00 0.00 0.00 0.00 0.00 0.00 0.00 0.00 0.01 0.01 0.01 0.01 0.02
0.00 0.00 0.00 0.00 0.00 0.00 0.00 0.00 0.00 0.00 0.00 0.00 0.00 0.00 0.00 0.00 0.00 0.00 0.00 0.00 0.00 0.00 0.00 0.00 0.00 0.00 0.00 0.00 0.00 0.00 0.00 0.00 0.00 0.00 0.00 0.00 0.00 0.00 0.01 0.01 0.01 0.02 0.02 0.02
0.00 0.00 0.00 0.00 0.00 0.00 0.00 0.00 0.00 0.00 0.00 0.00 0.00 0.00 0.00 0.00 0.00 0.00 0.00 0.00 0.00 0.00 0.00 0.00 0.00 0.00 0.00 0.00 0.00 0.00 0.00 0.00 0.00 0.00 0.00 0.00 0.00 0.01 0.01 0.01 0.02 0.02 0.02 0.02
0.00 0.00 0.00 0.00 0.00 0.00 0.00 0.00 0.00 0.00 0.00 0.00 0.00 0.00 0.00 0.00 0.00 0.00 0.00 0.00 0.00 0.00 0.00 0.00 0.00 0.00 0.00 0.00 0.00 0.00 0.00 0.00 0.00 0.00 0.00 0.00 0.00 0.01 0.01 0.02 0.02 0.02 0.02 0.02
0.00 0.00 0.00 0.00 0.00 0.00 0.00 0.00 0.00 0.00 0.00 0.00 0.00 0.00 0.00 0.00 0.00 0.00 0.00 0.00 0.00 0.00 0.00 0.00 0.00 0.00 0.00 0.00 0.00 0.00 0.00 0.00 0.00 0.00 0.00 0.00 0.01 0.01 0.02 0.03 0.02 0.02 0.02 0.01
0.00 0.00 0.00 0.00 0.00 0.00 0.00 0.00 0.00 0.00 0.00 0.00 0.00 0.00 0.00 0.00 0.00 0.00 0.00 0.00 0.00 0.00 0.00 0.00 0.00 0.00 0.00 0.00 0.00 0.00 0.00 0.00 0.00 0.00 0.00 0.01 0.01 0.02 0.02 0.02 0.02 0.02 0.02 0.01
0.00 0.00 0.00 0.00 0.00 0.00 0.00 0.00 0.00 0.00 0.00 0.00 0.00 0.00 0.00 0.00 0.00 0.00 0.00 0.00 0.00 0.00 0.00 0.00 0.00 0.00 0.00 0.00 0.00 0.00 0.00 0.00 0.00 0.00 0.00 0.01 0.02 0.02 0.02 0.03 0.03 0.02 0.02 0.01
0.00 0.00 0.00 0.00 0.00 0.00 0.00 0.00 0.00 0.00 0.00 0.00 0.00 0.00 0.00 0.00 0.00 0.00 0.00 0.00 0.00 0.00 0.00 0.00 0.00 0.00 0.00 0.00 0.00 0.00 0.00 0.00 0.00 0.00 0.01 0.02 0.03 0.03 0.03 0.03 0.03 0.03 0.02 0.02
0.00 0.00 0.00 0.00 0.00 0.00 0.00 0.00 0.00 0.00 0.00 0.00 0.00 0.00 0.00 0.00 0.00 0.00 0.00 0.00 0.00 0.00 0.00 0.00 0.00 0.00 0.00 0.00 0.00 0.00 0.00 0.00 0.00 0.01 0.01 0.03 0.03 0.04 0.04 0.04 0.06 0.05 0.04 0.03
0.00 0.00 0.00 0.00 0.00 0.00 0.00 0.00 0.00 0.00 0.00 0.00 0.00 0.00 0.00 0.00 0.00 0.00 0.00 0.00 0.00 0.00 0.00 0.00 0.00 0.00 0.00 0.00 0.00 0.00 0.00 0.00 0.01 0.01 0.02 0.03 0.04 0.04 0.05 0.08 0.15 0.11 0.08 0.07
0.00 0.00 0.00 0.00 0.00 0.00 0.00 0.00 0.00 0.00 0.00 0.00 0.00 0.00 0.00 0.00 0.00 0.00 0.00 0.00 0.00 0.00 0.00 0.00 0.00 0.00 0.00 0.00 0.00 0.00 0.00 0.01 0.01 0.02 0.03 0.04 0.04 0.04 0.06 0.07 0.17 0.19 0.16 0.16
0.00 0.00 0.00 0.00 0.00 0.00 0.00 0.00 0.00 0.00 0.00 0.00 0.00 0.00 0.00 0.00 0.00 0.00 0.00 0.00 0.00 0.00 0.00 0.00 0.00 0.00 0.00 0.00 0.00 0.00 0.00 0.01 0.02 0.03 0.04 0.04 0.05 0.04 0.05 0.05 0.08 0.09 0.11 0.16
0.00 0.00 0.00 0.00 0.00 0.00 0.00 0.00 0.00 0.00 0.00 0.00 0.00 0.00 0.00 0.00 0.00 0.00 0.00 0.00 0.00 0.00 0.00 0.00 0.00 0.00 0.00 0.00 0.00 0.00 0.00 0.01 0.02 0.03 0.04 0.04 0.05 0.05 0.06 0.04 0.04 0.04 0.06 0.09
0.00 0.00 0.00 0.00 0.00 0.00 0.00 0.00 0.00 0.00 0.00 0.00 0.00 0.00 0.00 0.00 0.00 0.00 0.00 0.00 0.00 0.00 0.00 0.00 0.00 0.00 0.00 0.00 0.00 0.00 0.01 0.02 0.03 0.04 0.05 0.05 0.05 0.06 0.08 0.09 0.08 0.04 0.03 0.05
0.00 0.00 0.00 0.00 0.00 0.00 0.00 0.00 0.00 0.00 0.00 0.00 0.00 0.00 0.00 0.00 0.00 0.00 0.00 0.00 0.00 0.00 0.00 0.00 0.00 0.00 0.00 0.00 0.00 0.00 0.01 0.02 0.03 0.04 0.05 0.05 0.06 0.07 0.08 0.10 0.09 0.07 0.05 0.05
0.00 0.00 0.00 0.00 0.00 0.00 0.00 0.00 0.00 0.00 0.00 0.00 0.00 0.00 0.00 0.00 0.00 0.00 0.00 0.00 0.00 0.00 0.00 0.00 0.00 0.00 0.00 0.00 0.00 0.00 0.01 0.02 0.04 0.05 0.05 0.06 0.07 0.10 0.12 0.12 0.12 0.12 0.11 0.10
0.00 0.00 0.00 0.00 0.00 0.00 0.00 0.00 0.00 0.00 0.00 0.00 0.00 0.00 0.00 0.00 0.00 0.00 0.00 0.00 0.00 0.00 0.00 0.00 0.00 0.00 0.00 0.00 0.01 0.01 0.01 0.02 0.04 0.05 0.06 0.08 0.11 0.13 0.16 0.18 0.19 0.16 0.12 0.13
0.00 0.00 0.00 0.00 0.00 0.00 0.00 0.00 0.00 0.00 0.00 0.00 0.00 0.00 0.00 0.00 0.00 0.00 0.00 0.00 0.00 0.00 0.00 0.00 0.00 0.00 0.00 0.00 0.01 0.01 0.01 0.02 0.05 0.07 0.09 0.11 0.14 0.16 0.19 0.21 0.20 0.19 0.16 0.14
0.00 0.00 0.00 0.00 0.00 0.00 0.00 0.00 0.00 0.00 0.00 0.00 0.00 0.00 0.00 0.00 0.00 0.00 0.00 0.00 0.00 0.00 0.00 0.00 0.00 0.00 0.00 0.00 0.01 0.01 0.03 0.05 0.09 0.10 0.11 0.14 0.17 0.16 0.18 0.20 0.22 0.22 0.21 0.20
0.00 0.00 0.00 0.00 0.00 0.00 0.00 0.00 0.00 0.00 0.00 0.00 0.00 0.00 0.00 0.00 0.00 0.00 0.00 0.00 0.00 0.00 0.00 0.00 0.00 0.00 0.01 0.01 0.02 0.03 0.06 0.11 0.14 0.14 0.15 0.17 0.20 0.21 0.21 0.22 0.24 0.24 0.23 0.22
0.00 0.00 0.00 0.00 0.00 0.00 0.00 0.00 0.00 0.00 0.00 0.00 0.00 0.00 0.00 0.00 0.00 0.00 0.00 0.00 0.00 0.00 0.00 0.00 0.01 0.01 0.01 0.03 0.05 0.07 0.10 0.13 0.16 0.18 0.21 0.23 0.26 0.26 0.24 0.24 0.25 0.25 0.25 0.24
0.00 0.00 0.00 0.00 0.00 0.00 0.00 0.00 0.00 0.00 0.00 0.00 0.00 0.00 0.00 0.00 0.00 0.00 0.00 0.00 0.00 0.00 0.01 0.01 0.01 0.02 0.04 0.07 0.07 0.08 0.11 0.14 0.17 0.21 0.25 0.29 0.33 0.35 0.30 0.27 0.29 0.27 0.26 0.25
0.00 0.00 0.00 0.00 0.00 0.00 0.00 0.00 0.00 0.00 0.00 0.00 0.00 0.00 0.00 0.00 0.00 0.00 0.00 0.00 0.00 0.01 0.01 0.01 0.02 0.04 0.07 0.07 0.07 0.09 0.12 0.16 0.20 0.24 0.29 0.32 0.35 0.36 0.35 0.33 0.31 0.29 0.29 0.28
0.00 0.00 0.00 0.00 0.00 0.00 0.00 0.00 0.00 0.00 0.00 0.00 0.00 0.00 0.00 0.00 0.00 0.00 0.00 0.01 0.01 0.02 0.02 0.02 0.03 0.05 0.08 0.08 0.09 0.12 0.16 0.21 0.25 0.30 0.34 0.35 0.35 0.36 0.35 0.34 0.31 0.28 0.27 0.27
0.00 0.00 0.00 0.00 0.00 0.00 0.00 0.00 0.00 0.00 0.00 0.00 0.00 0.00 0.00 0.01 0.01 0.01 0.01 0.01 0.02 0.03 0.03 0.03 0.05 0.07 0.09 0.11 0.14 0.18 0.23 0.28 0.35 0.41 0.43 0.40 0.37 0.36 0.33 0.30 0.29 0.27 0.26 0.24
0.00 0.00 0.01 0.01 0.01 0.01 0.01 0.01 0.01 0.01 0.00 0.01 0.01 0.01 0.01 0.01 0.01 0.02 0.02 0.02 0.03 0.04 0.05 0.05 0.06 0.09 0.13 0.18 0.21 0.25 0.29 0.34 0.38 0.38 0.36 0.35 0.35 0.33 0.30 0.27 0.26 0.25 0.24 0.21
0.01 0.01 0.02 0.02 0.02 0.02 0.02 0.02 0.02 0.02 0.03 0.03 0.04 0.03 0.02 0.02 0.03 0.03 0.04 0.04 0.04 0.05 0.06 0.08 0.10 0.14 0.20 0.25 0.28 0.31 0.35 0.37 0.38 0.37 0.35 0.35 0.34 0.31 0.27 0.26 0.25 0.23 0.21 0.18

GEFSNGP_prec_meanprecacc_096.txt.gz
Total_Precipitation_Accumulation
0.00 0.00 0.00 0.00 0.00 0.00 0.00 0.00 0.00 0.00 0.00 0.00 0.00 0.00 0.00 0.00 0.00 0.00 0.00 0.00 0.00 0.00 0.00 0.00 0.00 0.00 0.00 0.00 0.00 0.00 0.00 0.00 0.00 0.00 0.00 0.00 0.00 0.00 0.00 0.01 0.01 0.01 0.01 0.02
0.00 0.00 0.00 0.00 0.00 0.00 0.00 0.00 0.00 0.00 0.00 0.00 0.00 0.00 0.00 0.00 0.00 0.00 0.00 0.00 0.00 0.00 0.00 0.00 0.00 0.00 0.00 0.00 0.00 0.00 0.00 0.00 0.00 0.00 0.00 0.00 0.00 0.00 0.01 0.01 0.01 0.02 0.02 0.02
0.00 0.00 0.00 0.00 0.00 0.00 0.00 0.00 0.00 0.00 0.00 0.00 0.00 0.00 0.00 0.00 0.00 0.00 0.00 0.00 0.00 0.00 0.00 0.00 0.00 0.00 0.00 0.00 0.00 0.00 0.00 0.00 0.00 0.00 0.00 0.00 0.00 0.01 0.01 0.01 0.02 0.02 0.02 0.02
0.00 0.00 0.01 0.00 0.00 0.00 0.00 0.00 0.00 0.00 0.00 0.00 0.00 0.00 0.00 0.00 0.00 0.00 0.00 0.00 0.00 0.00 0.00 0.00 0.00 0.00 0.00 0.00 0.00 0.00 0.00 0.00 0.00 0.00 0.00 0.00 0.00 0.01 0.01 0.02 0.02 0.02 0.02 0.02
0.00 0.00 0.00 0.00 0.00 0.00 0.00 0.00 0.00 0.00 0.00 0.00 0.00 0.00 0.00 0.00 0.00 0.00 0.00 0.00 0.00 0.00 0.00 0.00 0.00 0.00 0.00 0.00 0.00 0.00 0.00 0.00 0.00 0.00 0.00 0.00 0.01 0.01 0.02 0.03 0.02 0.02 0.02 0.01
0.00 0.00 0.00 0.00 0.00 0.00 0.00 0.00 0.00 0.00 0.00 0.00 0.00 0.00 0.00 0.00 0.00 0.00 0.00 0.00 0.00 0.00 0.00 0.00 0.00 0.00 0.00 0.00 0.00 0.00 0.00 0.00 0.00 0.00 0.00 0.01 0.01 0.02 0.02 0.02 0.02 0.02 0.02 0.01
0.00 0.00 0.00 0.00 0.00 0.00 0.00 0.00 0.00 0.00 0.00 0.00 0.00 0.00 0.00 0.00 0.00 0.00 0.00 0.00 0.00 0.00 0.00 0.00 0.00 0.00 0.00 0.00 0.00 0.00 0.00 0.00 0.00 0.00 0.00 0.01 0.02 0.02 0.02 0.03 0.03 0.02 0.02 0.01
0.00 0.00 0.00 0.00 0.00 0.00 0.00 0.00 0.00 0.00 0.00 0.00 0.00 0.00 0.00 0.00 0.00 0.00 0.00 0.00 0.00 0.00 0.00 0.00 0.00 0.00 0.00 0.00 0.00 0.00 0.00 0.00 0.00 0.00 0.01 0.02 0.03 0.03 0.03 0.03 0.03 0.03 0.02 0.02
0.00 0.00 0.00 0.00 0.00 0.00 0.00 0.00 0.00 0.00 0.00 0.00 0.00 0.00 0.00 0.00 0.00 0.00 0.00 0.00 0.00 0.00 0.00 0.00 0.00 0.00 0.00 0.00 0.00 0.00 0.00 0.00 0.00 0.01 0.01 0.03 0.03 0.04 0.04 0.04 0.06 0.05 0.04 0.03
0.00 0.00 0.00 0.00 0.00 0.00 0.00 0.00 0.00 0.00 0.00 0.00 0.00 0.00 0.00 0.00 0.00 0.00 0.00 0.00 0.00 0.00 0.00 0.00 0.00 0.00 0.00 0.00 0.00 0.00 0.00 0.00 0.01 0.01 0.02 0.03 0.04 0.04 0.05 0.08 0.15 0.11 0.08 0.07
0.00 0.00 0.00 0.00 0.00 0.00 0.00 0.00 0.00 0.00 0.00 0.00 0.00 0.00 0.00 0.00 0.00 0.00 0.00 0.00 0.00 0.00 0.00 0.00 0.00 0.00 0.00 0.00 0.00 0.00 0.00 0.01 0.01 0.02 0.03 0.04 0.04 0.04 0.06 0.07 0.17 0.20 0.16 0.17
0.00 0.00 0.00 0.00 0.00 0.00 0.00 0.00 0.00 0.00 0.00 0.00 0.00 0.00 0.00 0.00 0.00 0.00 0.00 0.00 0.00 0.00 0.00 0.00 0.00 0.00 0.00 0.00 0.00 0.00 0.00 0.01 0.02 0.03 0.04 0.04 0.05 0.04 0.05 0.05 0.08 0.09 0.12 0.16
0.00 0.00 0.00 0.00 0.00 0.00 0.00 0.00 0.00 0.00 0.00 0.00 0.00 0.00 0.00 0.00 0.00 0.00 0.00 0.00 0.00 0.00 0.00 0.00 0.00 0.00 0.00 0.00 0.00 0.00 0.00 0.01 0.02 0.03 0.04 0.04 0.05 0.06 0.06 0.04 0.04 0.04 0.06 0.09
0.00 0.00 0.00 0.00 0.00 0.00 0.00 0.00 0.00 0.00 0.00 0.00 0.00 0.00 0.00 0.00 0.00 0.00 0.00 0.00 0.00 0.00 0.00 0.00 0.00 0.00 0.00 0.00 0.00 0.00 0.01 0.02 0.03 0.04 0.05 0.05 0.05 0.06 0.08 0.09 0.08 0.04 0.03 0.05
0.00 0.00 0.00 0.00 0.00 0.00 0.00 0.00 0.00 0.00 0.00 0.00 0.00 0.00 0.00 0.00 0.00 0.00 0.00 0.00 0.00 0.00 0.00 0.00 0.00 0.00 0.00 0.00 0.00 0.00 0.01 0.02 0.03 0.04 0.05 0.05 0.06 0.07 0.09 0.10 0.10 0.07 0.05 0.05
0.00 0.00 0.00 0.00 0.00 0.00 0.00 0.00 0.00 0.00 0.00 0.00 0.00 0.00 0.00 0.00 0.00 0.00 0.00 0.00 0.00 0.00 0.00 0.00 0.00 0.00 0.00 0.00 0.00 0.00 0.01 0.02 0.04 0.05 0.05 0.06 0.07 0.10 0.12 0.13 0.13 0.12 0.11 0.11
0.00 0.00 0.00 0.00 0.00 0.00 0.00 0.00 0.00 0.00 0.00 0.00 0.00 0.00 0.00 0.00 0.00 0.00 0.00 0.00 0.00 0.00 0.00 0.00 0.00 0.00 0.00 0.00 0.01 0.01 0.01 0.02 0.04 0.05 0.06 0.08 0.11 0.14 0.16 0.19 0.19 0.16 0.12 0.13
0.00 0.00 0.00 0.00 0.00 0.00 0.00 0.00 0.00 0.00 0.00 0.00 0.00 0.00 0.00 0.00 0.00 0.00 0.00 0.00 0.00 0.00 0.00 0.00 0.00 0.00 0.00 0.00 0.01 0.01 0.01 0.02 0.05 0.08 0.10 0.11 0.14 0.17 0.20 0.21 0.20 0.20 0.17 0.14
0.00 0.00 0.00 0.00 0.00 0.00 0.00 0.00 0.00 0.00 0.00 0.00 0.00 0.00 0.00 0.00 0.00 0.00 0.00 0.00 0.00 0.00 0.00 0.00 0.00 0.00 0.00 0.00 0.01 0.01 0.03 0.05 0.09 0.10 0.12 0.15 0.17 0.17 0.18 0.21 0.22 0.22 0.22 0.21
0.00 0.00 0.00 0.00 0.00 0.00 0.00 0.00 0.00 0.00 0.00 0.00 0.00 0.00 0.00 0.00 0.00 0.00 0.00 0.00 0.00 0.00 0.00 0.00 0.00 0.00 0.01 0.01 0.02 0.03 0.06 0.11 0.14 0.15 0.16 0.18 0.20 0.21 0.21 0.23 0.24 0.25 0.23 0.22
0.00 0.00 0.00 0.00 0.00 0.00 0.00 0.00 0.00 0.00 0.00 0.00 0.00 0.00 0.00 0.00 0.00 0.00 0.00 0.00 0.00 0.00 0.00 0.00 0.01 0.01 0.01 0.03 0.05 0.07 0.10 0.13 0.16 0.19 0.21 0.24 0.26 0.26 0.25 0.24 0.25 0.25 0.25 0.24
0.00 0.00 0.00 0.00 0.00 0.00 0.00 0.00 0.00 0.00 0.00 0.00 0.00 0.00 0.00 0.00 0.00 0.00 0.00 0.00 0.00 0.00 0.01 0.01 0.01 0.02 0.04 0.07 0.07 0.08 0.11 0.14 0.17 0.21 0.25 0.29 0.33 0.35 0.30 0.27 0.29 0.28 0.26 0.26
0.00 0.00 0.00 0.00 0.00 0.00 0.00 0.00 0.00 0.00 0.00 0.00 0.00 0.00 0.00 0.00 0.00 0.00 0.00 0.00 0.00 0.01 0.01 0.01 0.02 0.04 0.07 0.08 0.07 0.09 0.12 0.16 0.20 0.24 0.29 0.32 0.35 0.37 0.36 0.33 0.31 0.30 0.30 0.28
0.00 0.00 0.00 0.00 0.00 0.00 0.00 0.00 0.00 0.00 0.00 0.00 0.00 0.00 0.00 0.00 0.00 0.00 0.00 0.01 0.01 0.02 0.02 0.02 0.03 0.05 0.08 0.08 0.09 0.12 0.16 0.21 0.25 0.30 0.34 0.36 0.36 0.36 0.36 0.34 0.32 0.28 0.27 0.27
0.00 0.00 0.00 0.00 0.00 0.00 0.00 0.00 0.00 0.00 0.00 0.00 0.00 0.00 0.00 0.01 0.01 0.01 0.01 0.01 0.02 0.03 0.03 0.03 0.05 0.07 0.09 0.11 0.14 0.18 0.23 0.28 0.35 0.42 0.44 0.41 0.38 0.37 0.34 0.31 0.30 0.28 0.27 0.25
0.00 0.00 0.01 0.01 0.01 0.01 0.01 0.01 0.01 0.01 0.00 0.01 0.01 0.01 0.01 0.01 0.01 0.02 0.02 0.02 0.03 0.04 0.05 0.05 0.06 0.09 0.13 0.18 0.21 0.25 0.30 0.34 0.38 0.39 0.36 0.36 0.36 0.34 0.31 0.28 0.27 0.26 0.25 0.22
0.01 0.01 0.02 0.02 0.02 0.02 0.02 0.02 0.02 0.02 0.03 0.03 0.04 0.03 0.02 0.02 0.03 0.03 0.04 0.04 0.04 0.05 0.06 0.08 0.10 0.14 0.20 0.25 0.28 0.32 0.35 0.37 0.39 0.38 0.36 0.36 0.35 0.32 0.28 0.27 0.26 0.24 0.22 0.19

GEFSNGP_prec_meanprecacc_102.txt.gz
Total_Precipitation_Accumulation
0.00 0.00 0.00 0.00 0.00 0.00 0.00 0.00 0.00 0.00 0.00 0.00 0.00 0.00 0.00 0.00 0.00 0.00 0.00 0.00 0.00 0.00 0.00 0.00 0.00 0.00 0.00 0.00 0.00 0.00 0.00 0.00 0.00 0.00 0.00 0.00 0.00 0.00 0.00 0.01 0.01 0.01 0.01 0.02
0.00 0.00 0.00 0.00 0.00 0.00 0.00 0.00 0.00 0.00 0.00 0.00 0.00 0.00 0.00 0.00 0.00 0.00 0.00 0.00 0.00 0.00 0.00 0.00 0.00 0.00 0.00 0.00 0.00 0.00 0.00 0.00 0.00 0.00 0.00 0.00 0.00 0.00 0.01 0.01 0.01 0.02 0.02 0.02
0.01 0.00 0.01 0.01 0.00 0.00 0.00 0.00 0.00 0.00 0.00 0.00 0.00 0.00 0.00 0.00 0.00 0.00 0.00 0.00 0.00 0.00 0.00 0.00 0.00 0.00 0.00 0.00 0.00 0.00 0.00 0.00 0.00 0.00 0.00 0.00 0.00 0.01 0.01 0.01 0.02 0.02 0.02 0.02
0.01 0.01 0.03 0.01 0.00 0.00 0.00 0.00 0.00 0.00 0.00 0.00 0.00 0.00 0.00 0.00 0.00 0.00 0.00 0.00 0.00 0.00 0.00 0.00 0.00 0.00 0.00 0.00 0.00 0.00 0.00 0.00 0.00 0.00 0.00 0.00 0.00 0.01 0.01 0.02 0.02 0.02 0.02 0.02
0.03 0.02 0.01 0.00 0.00 0.00 0.00 0.00 0.00 0.00 0.00 0.00 0.00 0.00 0.00 0.00 0.00 0.00 0.00 0.00 0.00 0.00 0.00 0.00 0.00 0.00 0.00 0.00 0.00 0.00 0.00 0.00 0.00 0.00 0.00 0.00 0.01 0.01 0.02 0.03 0.02 0.02 0.02 0.01
0.04 0.02 0.00 0.00 0.00 0.00 0.00 0.00 0.00 0.00 0.00 0.00 0.00 0.00 0.00 0.00 0.00 0.00 0.00 0.00 0.00 0.00 0.00 0.00 0.00 0.00 0.00 0.00 0.00 0.00 0.00 0.00 0.00 0.00 0.00 0.01 0.01 0.02 0.02 0.02 0.02 0.02 0.02 0.01
0.03 0.01 0.00 0.00 0.00 0.00 0.00 0.00 0.00 0.00 0.00 0.00 0.00 0.00 0.00 0.00 0.00 0.00 0.00 0.00 0.00 0.00 0.00 0.00 0.00 0.00 0.00 0.00 0.00 0.00 0.00 0.00 0.00 0.00 0.00 0.01 0.02 0.02 0.02 0.03 0.03 0.02 0.02 0.01
0.02 0.01 0.00 0.00 0.00 0.00 0.00 0.00 0.00 0.00 0.00 0.00 0.00 0.00 0.00 0.00 0.00 0.00 0.00 0.00 0.00 0.00 0.00 0.00 0.00 0.00 0.00 0.00 0.00 0.00 0.00 0.00 0.00 0.00 0.01 0.02 0.03 0.03 0.03 0.03 0.03 0.03 0.02 0.02
0.00 0.00 0.00 0.00 0.00 0.00 0.00 0.00 0.00 0.00 0.00 0.00 0.00 0.00 0.00 0.00 0.00 0.00 0.00 0.00 0.00 0.00 0.00 0.00 0.00 0.00 0.00 0.00 0.00 0.00 0.00 0.00 0.00 0.01 0.01 0.03 0.03 0.04 0.04 0.04 0.06 0.05 0.04 0.03
0.00 0.00 0.00 0.00 0.00 0.00 0.00 0.00 0.00 0.00 0.00 0.00 0.00 0.00 0.00 0.00 0.00 0.00 0.00 0.00 0.00 0.00 0.00 0.00 0.00 0.00 0.00 0.00 0.00 0.00 0.00 0.00 0.01 0.01 0.02 0.03 0.04 0.04 0.05 0.08 0.15 0.11 0.08 0.07
0.01 0.00 0.00 0.00 0.00 0.00 0.00 0.00 0.00 0.00 0.00 0.00 0.00 0.00 0.00 0.00 0.00 0.00 0.00 0.00 0.00 0.00 0.00 0.00 0.00 0.00 0.00 0.00 0.00 0.00 0.00 0.01 0.01 0.02 0.03 0.04 0.04 0.04 0.06 0.07 0.17 0.20 0.16 0.17
0.00 0.00 0.00 0.00 0.00 0.00 0.00 0.00 0.00 0.00 0.00 0.00 0.00 0.00 0.00 0.00 0.00 0.00 0.00 0.00 0.00 0.00 0.00 0.00 0.00 0.00 0.00 0.00 0.00 0.00 0.00 0.01 0.02 0.03 0.04 0.04 0.05 0.04 0.05 0.05 0.08 0.09 0.12 0.16
0.00 0.00 0.00 0.00 0.00 0.00 0.00 0.00 0.00 0.00 0.00 0.00 0.00 0.00 0.00 0.00 0.00 0.00 0.00 0.00 0.00 0.00 0.00 0.00 0.00 0.00 0.00 0.00 0.00 0.00 0.00 0.01 0.02 0.03 0.04 0.04 0.05 0.06 0.06 0.04 0.04 0.04 0.06 0.09
0.00 0.00 0.00 0.00 0.00 0.00 0.00 0.00 0.00 0.00 0.00 0.00 0.00 0.00 0.00 0.00 0.00 0.00 0.00 0.00 0.00 0.00 0.00 0.00 0.00 0.00 0.00 0.00 0.00 0.00 0.01 0.02 0.03 0.04 0.05 0.05 0.05 0.06 0.08 0.09 0.08 0.04 0.03 0.05
0.00 0.00 0.00 0.00 0.00 0.00 0.00 0.00 0.00 0.00 0.00 0.00 0.00 0.00 0.00 0.00 0.00 0.00 0.00 0.00 0.00 0.00 0.00 0.00 0.00 0.00 0.00 0.00 0.00 0.00 0.01 0.02 0.03 0.04 0.05 0.05 0.06 0.07 0.09 0.10 0.10 0.07 0.05 0.05
0.00 0.00 0.00 0.00 0.00 0.00 0.00 0.00 0.00 0.00 0.00 0.00 0.00 0.00 0.00 0.00 0.00 0.00 0.00 0.00 0.00 0.00 0.00 0.00 0.00 0.00 0.00 0.00 0.00 0.00 0.01 0.02 0.04 0.05 0.05 0.06 0.07 0.10 0.12 0.13 0.13 0.12 0.11 0.11
0.00 0.00 0.00 0.00 0.00 0.00 0.00 0.00 0.00 0.00 0.00 0.00 0.00 0.00 0.00 0.00 0.00 0.00 0.00 0.00 0.00 0.00 0.00 0.00 0.00 0.00 0.00 0.00 0.01 0.01 0.01 0.02 0.04 0.05 0.06 0.08 0.11 0.14 0.16 0.19 0.20 0.17 0.13 0.13
0.00 0.00 0.00 0.00 0.00 0.00 0.00 0.00 0.00 0.00 0.00 0.00 0.00 0.00 0.00 0.00 0.00 0.00 0.00 0.00 0.00 0.00 0.00 0.00 0.00 0.00 0.00 0.00 0.01 0.01 0.01 0.02 0.05 0.08 0.10 0.11 0.14 0.17 0.20 0.22 0.21 0.20 0.17 0.14
0.00 0.00 0.00 0.00 0.00 0.00 0.00 0.00 0.00 0.00 0.00 0.00 0.00 0.00 0.00 0.00 0.00 0.00 0.00 0.00 0.00 0.00 0.00 0.00 0.00 0.00 0.00 0.00 0.01 0.01 0.03 0.05 0.09 0.10 0.12 0.15 0.17 0.17 0.18 0.21 0.23 0.22 0.22 0.21
0.00 0.00 0.00 0.00 0.00 0.00 0.00 0.00 0.00 0.00 0.00 0.00 0.00 0.00 0.00 0.00 0.00 0.00 0.00 0.00 0.00 0.00 0.00 0.00 0.00 0.00 0.01 0.01 0.02 0.03 0.06 0.11 0.14 0.15 0.16 0.18 0.21 0.21 0.21 0.23 0.24 0.25 0.23 0.22
0.00 0.00 0.00 0.00 0.00 0.00 0.00 0.00 0.00 0.00 0.00 0.00 0.00 0.00 0.00 0.00 0.00 0.00 0.00 0.00 0.00 0.00 0.00 0.00 0.01 0.01 0.01 0.03 0.05 0.07 0.10 0.13 0.16 0.19 0.22 0.24 0.26 0.26 0.25 0.24 0.25 0.26 0.25 0.25
0.00 0.00 0.00 0.00 0.00 0.00 0.00 0.00 0.00 0.00 0.00 0.00 0.00 0.00 0.00 0.00 0.00 0.00 0.00 0.00 0.00 0.00 0.01 0.01 0.01 0.02 0.04 0.07 0.08 0.09 0.11 0.14 0.17 0.21 0.25 0.29 0.33 0.35 0.31 0.28 0.29 0.28 0.27 0.26
0.00 0.00 0.00 0.00 0.00 0.00 0.00 0.00 0.00 0.00 0.00 0.00 0.00 0.00 0.00 0.00 0.00 0.00 0.00 0.00 0.00 0.01 0.01 0.01 0.02 0.04 0.07 0.08 0.07 0.09 0.12 0.16 0.20 0.24 0.29 0.32 0.36 0.37 0.36 0.34 0.32 0.30 0.30 0.29
0.00 0.00 0.00 0.00 0.01 0.01 0.01 0.01 0.01 0.01 0.00 0.00 0.00 0.00 0.00 0.00 0.00 0.00 0.00 0.01 0.01 0.02 0.02 0.02 0.03 0.05 0.08 0.08 0.09 0.12 0.16 0.21 0.25 0.30 0.34 0.36 0.37 0.37 0.36 0.35 0.33 0.29 0.28 0.28
0.01 0.01 0.01 0.01 0.01 0.02 0.02 0.02 0.01 0.01 0.00 0.00 0.00 0.00 0.00 0.01 0.01 0.01 0.01 0.01 0.02 0.03 0.03 0.03 0.05 0.07 0.09 0.11 0.14 0.18 0.23 0.28 0.35 0.43 0.44 0.42 0.39 0.37 0.34 0.31 0.30 0.29 0.27 0.26
0.02 0.02 0.03 0.03 0.03 0.03 0.02 0.01 0.01 0.01 0.01 0.01 0.01 0.01 0.01 0.01 0.01 0.02 0.02 0.02 0.03 0.04 0.05 0.05 0.06 0.09 0.13 0.18 0.21 0.25 0.30 0.34 0.38 0.39 0.37 0.36 0.36 0.35 0.31 0.29 0.27 0.26 0.25 0.23
0.03 0.04 0.04 0.04 0.04 0.03 0.03 0.03 0.03 0.03 0.03 0.04 0.04 0.03 0.02 0.02 0.03 0.03 0.04 0.04 0.04 0.05 0.06 0.08 0.10 0.14 0.20 0.25 0.28 0.32 0.35 0.37 0.39 0.38 0.36 0.36 0.35 0.32 0.28 0.27 0.26 0.24 0.22 0.19

GEFSNGP_prec_meanprecacc_108.txt.gz
Total_Precipitation_Accumulation
0.03 0.01 0.01 0.01 0.01 0.01 0.01 0.01 0.01 0.00 0.00 0.00 0.00 0.00 0.00 0.00 0.00 0.00 0.00 0.00 0.00 0.00 0.00 0.00 0.00 0.00 0.00 0.00 0.00 0.00 0.00 0.00 0.00 0.00 0.00 0.00 0.00 0.00 0.00 0.01 0.01 0.01 0.02 0.02
0.03 0.02 0.01 0.01 0.00 0.01 0.01 0.01 0.00 0.00 0.00 0.00 0.00 0.00 0.00 0.00 0.00 0.00 0.00 0.00 0.00 0.00 0.00 0.00 0.00 0.00 0.00 0.00 0.00 0.00 0.00 0.00 0.00 0.00 0.00 0.00 0.00 0.00 0.01 0.01 0.01 0.02 0.02 0.02
0.04 0.02 0.04 0.04 0.01 0.00 0.01 0.01 0.00 0.00 0.00 0.00 0.00 0.00 0.00 0.00 0.00 0.00 0.00 0.00 0.00 0.00 0.00 0.00 0.00 0.00 0.00 0.00 0.00 0.00 0.00 0.00 0.00 0.00 0.00 0.00 0.00 0.01 0.01 0.01 0.02 0.02 0.02 0.02
0.08 0.06 0.13 0.04 0.00 0.00 0.00 0.00 0.00 0.00 0.00 0.00 0.00 0.00 0.00 0.00 0.00 0.00 0.00 0.00 0.00 0.00 0.00 0.00 0.00 0.00 0.00 0.00 0.00 0.00 0.00 0.00 0.00 0.00 0.00 0.00 0.00 0.01 0.01 0.02 0.02 0.02 0.02 0.02
0.14 0.10 0.06 0.01 0.00 0.00 0.00 0.00 0.00 0.00 0.00 0.00 0.00 0.00 0.00 0.00 0.00 0.00 0.00 0.00 0.00 0.00 0.00 0.00 0.00 0.00 0.00 0.00 0.00 0.00 0.00 0.00 0.00 0.00 0.00 0.00 0.01 0.01 0.02 0.03 0.02 0.02 0.02 0.01
0.14 0.10 0.03 0.00 0.00 0.00 0.00 0.00 0.00 0.00 0.00 0.00 0.00 0.00 0.00 0.00 0.00 0.00 0.00 0.00 0.00 0.00 0.00 0.00 0.00 0.00 0.00 0.00 0.00 0.00 0.00 0.00 0.00 0.00 0.00 0.01 0.01 0.02 0.02 0.02 0.02 0.02 0.02 0.01
0.11 0.06 0.01 0.00 0.00 0.00 0.00 0.00 0.00 0.00 0.00 0.00 0.00 0.00 0.00 0.00 0.00 0.00 0.00 0.00 0.00 0.00 0.00 0.00 0.00 0.00 0.00 0.00 0.00 0.00 0.00 0.00 0.00 0.00 0.00 0.01 0.02 0.02 0.02 0.03 0.03 0.02 0.02 0.01
0.08 0.05 0.01 0.00 0.00 0.00 0.00 0.00 0.00 0.00 0.00 0.00 0.00 0.00 0.00 0.00 0.00 0.00 0.00 0.00 0.00 0.00 0.00 0.00 0.00 0.00 0.00 0.00 0.00 0.00 0.00 0.00 0.00 0.00 0.01 0.02 0.03 0.03 0.03 0.03 0.03 0.03 0.02 0.02
0.04 0.02 0.00 0.00 0.01 0.01 0.01 0.00 0.00 0.00 0.00 0.00 0.00 0.00 0.00 0.00 0.00 0.00 0.00 0.00 0.00 0.00 0.00 0.00 0.00 0.00 0.00 0.00 0.00 0.00 0.00 0.00 0.00 0.01 0.01 0.03 0.03 0.04 0.04 0.04 0.06 0.05 0.04 0.03
0.03 0.01 0.01 0.01 0.01 0.01 0.01 0.00 0.00 0.00 0.00 0.00 0.00 0.00 0.00 0.00 0.00 0.00 0.00 0.00 0.00 0.00 0.00 0.00 0.00 0.00 0.00 0.00 0.00 0.00 0.00 0.00 0.01 0.01 0.02 0.03 0.04 0.04 0.05 0.08 0.15 0.11 0.08 0.07
0.03 0.01 0.01 0.01 0.01 0.00 0.00 0.00 0.00 0.00 0.00 0.00 0.00 0.00 0.00 0.00 0.00 0.00 0.00 0.00 0.00 0.00 0.00 0.00 0.00 0.00 0.00 0.00 0.00 0.00 0.00 0.01 0.01 0.02 0.03 0.04 0.04 0.04 0.06 0.07 0.17 0.20 0.16 0.17
0.02 0.00 0.01 0.01 0.00 0.00 0.00 0.00 0.00 0.00 0.00 0.00 0.00 0.00 0.00 0.00 0.00 0.00 0.00 0.00 0.00 0.00 0.00 0.00 0.00 0.00 0.00 0.00 0.00 0.00 0.00 0.01 0.02 0.03 0.04 0.04 0.05 0.04 0.05 0.05 0.08 0.09 0.12 0.16
0.01 0.01 0.01 0.01 0.00 0.00 0.00 0.00 0.00 0.00 0.00 0.00 0.00 0.00 0.00 0.00 0.00 0.00 0.00 0.00 0.00 0.00 0.00 0.00 0.00 0.00 0.00 0.00 0.00 0.00 0.00 0.01 0.02 0.03 0.04 0.04 0.05 0.06 0.06 0.04 0.04 0.04 0.06 0.09
0.01 0.01 0.01 0.00 0.00 0.00 0.00 0.00 0.00 0.00 0.00 0.00 0.00 0.00 0.00 0.00 0.00 0.00 0.00 0.00 0.00 0.00 0.00 0.00 0.00 0.00 0.00 0.00 0.00 0.00 0.01 0.02 0.03 0.04 0.05 0.05 0.05 0.06 0.08 0.09 0.08 0.04 0.03 0.05
0.01 0.01 0.00 0.00 0.00 0.00 0.00 0.00 0.01 0.00 0.00 0.00 0.00 0.00 0.00 0.00 0.00 0.00 0.00 0.00 0.00 0.00 0.00 0.00 0.00 0.00 0.00 0.00 0.00 0.00 0.01 0.02 0.03 0.04 0.05 0.05 0.06 0.07 0.09 0.10 0.10 0.07 0.05 0.05
0.01 0.01 0.00 0.00 0.00 0.00 0.00 0.00 0.00 0.00 0.00 0.00 0.00 0.00 0.00 0.00 0.00 0.00 0.00 0.00 0.00 0.00 0.00 0.00 0.00 0.00 0.00 0.00 0.00 0.00 0.01 0.02 0.04 0.05 0.05 0.06 0.07 0.10 0.12 0.13 0.13 0.12 0.11 0.11
0.02 0.01 0.00 0.00 0.00 0.00 0.00 0.00 0.00 0.00 0.00 0.00 0.00 0.00 0.00 0.00 0.00 0.00 0.00 0.00 0.00 0.00 0.00 0.00 0.00 0.00 0.00 0.00 0.01 0.01 0.01 0.02 0.04 0.05 0.06 0.08 0.11 0.14 0.16 0.19 0.20 0.17 0.13 0.13
0.02 0.01 0.00 0.00 0.00 0.00 0.00 0.00 0.00 0.00 0.00 0.00 0.00 0.00 0.00 0.00 0.00 0.00 0.00 0.00 0.00 0.00 0.00 0.00 0.00 0.00 0.00 0.00 0.01 0.01 0.01 0.02 0.05 0.08 0.10 0.11 0.14 0.17 0.20 0.22 0.21 0.20 0.17 0.14
0.01 0.01 0.01 0.00 0.00 0.00 0.00 0.00 0.00 0.00 0.00 0.00 0.00 0.00 0.00 0.00 0.00 0.00 0.00 0.00 0.00 0.00 0.00 0.00 0.00 0.00 0.00 0.00 0.01 0.01 0.03 0.05 0.09 0.10 0.12 0.15 0.17 0.17 0.18 0.21 0.23 0.23 0.22 0.21
0.00 0.00 0.00 0.00 0.00 0.00 0.00 0.00 0.00 0.00 0.00 0.00 0.00 0.00 0.00 0.00 0.00 0.00 0.00 0.00 0.00 0.00 0.00 0.00 0.00 0.00 0.01 0.01 0.02 0.03 0.06 0.11 0.14 0.15 0.16 0.18 0.21 0.21 0.21 0.23 0.24 0.25 0.23 0.23
0.00 0.00 0.00 0.00 0.00 0.00 0.00 0.00 0.00 0.00 0.00 0.00 0.00 0.00 0.00 0.00 0.00 0.00 0.00 0.00 0.00 0.00 0.00 0.01 0.01 0.01 0.01 0.03 0.05 0.07 0.10 0.13 0.16 0.19 0.22 0.24 0.26 0.26 0.25 0.24 0.25 0.26 0.25 0.25
0.00 0.00 0.00 0.00 0.00 0.00 0.00 0.00 0.00 0.00 0.00 0.00 0.00 0.00 0.00 0.00 0.00 0.00 0.00 0.00 0.00 0.01 0.01 0.01 0.01 0.02 0.04 0.07 0.08 0.09 0.11 0.14 0.17 0.21 0.25 0.29 0.33 0.35 0.31 0.28 0.29 0.28 0.27 0.26
0.00 0.00 0.00 0.00 0.00 0.01 0.01 0.01 0.00 0.00 0.00 0.01 0.01 0.01 0.01 0.01 0.01 0.01 0.01 0.01 0.01 0.01 0.02 0.01 0.02 0.04 0.07 0.08 0.07 0.09 0.12 0.16 0.20 0.24 0.29 0.32 0.36 0.37 0.36 0.34 0.32 0.31 0.30 0.29
0.01 0.00 0.00 0.01 0.01 0.01 0.01 0.02 0.01 0.01 0.01 0.01 0.01 0.01 0.01 0.01 0.01 0.01 0.01 0.01 0.02 0.02 0.02 0.02 0.03 0.05 0.08 0.08 0.09 0.12 0.16 0.21 0.25 0.30 0.34 0.36 0.37 0.37 0.37 0.35 0.33 0.29 0.28 0.28
0.01 0.01 0.01 0.01 0.02 0.02 0.03 0.03 0.02 0.02 0.02 0.02 0.02 0.02 0.02 0.02 0.02 0.02 0.01 0.01 0.02 0.03 0.03 0.03 0.05 0.07 0.09 0.11 0.14 0.18 0.23 0.28 0.35 0.43 0.44 0.42 0.39 0.37 0.34 0.32 0.30 0.29 0.27 0.26
0.03 0.03 0.04 0.04 0.04 0.04 0.03 0.03 0.03 0.03 0.02 0.03 0.03 0.03 0.02 0.02 0.02 0.02 0.03 0.03 0.03 0.04 0.05 0.05 0.06 0.09 0.13 0.18 0.21 0.25 0.30 0.34 0.38 0.39 0.37 0.36 0.36 0.35 0.31 0.29 0.27 0.27 0.25 0.23
0.05 0.05 0.06 0.06 0.07 0.06 0.05 0.05 0.05 0.05 0.05 0.05 0.06 0.04 0.04 0.03 0.03 0.04 0.04 0.04 0.05 0.05 0.06 0.08 0.10 0.14 0.20 0.25 0.28 0.32 0.35 0.37 0.39 0.38 0.36 0.36 0.35 0.32 0.28 0.27 0.26 0.24 0.22 0.20

GEFSNGP_prec_meanprecacc_114.txt.gz
Total_Precipitation_Accumulation
0.08 0.04 0.04 0.04 0.03 0.03 0.05 0.04 0.02 0.00 0.00 0.00 0.00 0.00 0.00 0.00 0.00 0.00 0.00 0.00 0.00 0.00 0.00 0.00 0.00 0.00 0.00 0.00 0.00 0.00 0.00 0.00 0.00 0.00 0.00 0.00 0.00 0.00 0.00 0.01 0.01 0.01 0.02 0.02
0.06 0.03 0.03 0.03 0.02 0.01 0.02 0.02 0.01 0.00 0.00 0.00 0.00 0.00 0.00 0.00 0.00 0.00 0.00 0.00 0.00 0.00 0.00 0.00 0.00 0.00 0.00 0.00 0.00 0.00 0.00 0.00 0.00 0.00 0.00 0.00 0.00 0.00 0.01 0.01 0.01 0.02 0.02 0.02
0.10 0.04 0.08 0.07 0.02 0.01 0.01 0.01 0.00 0.00 0.00 0.00 0.00 0.00 0.00 0.00 0.00 0.00 0.00 0.00 0.00 0.00 0.00 0.00 0.00 0.00 0.00 0.00 0.00 0.00 0.00 0.00 0.00 0.00 0.00 0.00 0.00 0.01 0.01 0.01 0.02 0.02 0.02 0.02
0.17 0.14 0.25 0.08 0.00 0.00 0.00 0.00 0.00 0.00 0.00 0.00 0.00 0.00 0.00 0.00 0.00 0.00 0.00 0.00 0.00 0.00 0.00 0.00 0.00 0.00 0.00 0.00 0.00 0.00 0.00 0.00 0.00 0.00 0.00 0.00 0.00 0.01 0.01 0.02 0.02 0.02 0.02 0.02
0.27 0.23 0.14 0.02 0.00 0.00 0.00 0.00 0.00 0.00 0.00 0.00 0.00 0.00 0.00 0.00 0.00 0.00 0.00 0.00 0.00 0.00 0.00 0.00 0.00 0.00 0.00 0.00 0.00 0.00 0.00 0.00 0.00 0.00 0.00 0.00 0.01 0.01 0.02 0.03 0.02 0.02 0.02 0.01
0.28 0.23 0.09 0.02 0.01 0.01 0.00 0.01 0.00 0.00 0.00 0.00 0.00 0.00 0.00 0.00 0.00 0.00 0.00 0.00 0.00 0.00 0.00 0.00 0.00 0.00 0.00 0.00 0.00 0.00 0.00 0.00 0.00 0.00 0.00 0.01 0.01 0.02 0.02 0.02 0.02 0.02 0.02 0.01
0.24 0.14 0.04 0.01 0.01 0.01 0.03 0.02 0.01 0.00 0.00 0.00 0.00 0.00 0.00 0.00 0.00 0.00 0.00 0.00 0.00 0.00 0.00 0.00 0.00 0.00 0.00 0.00 0.00 0.00 0.00 0.00 0.00 0.00 0.00 0.01 0.02 0.02 0.02 0.03 0.03 0.02 0.02 0.01
0.17 0.11 0.03 0.01 0.01 0.03 0.04 0.02 0.01 0.00 0.00 0.00 0.00 0.00 0.00 0.00 0.00 0.00 0.00 0.00 0.00 0.00 0.00 0.00 0.00 0.00 0.00 0.00 0.00 0.00 0.00 0.00 0.00 0.00 0.01 0.02 0.03 0.03 0.03 0.03 0.03 0.03 0.02 0.02
0.11 0.05 0.02 0.02 0.03 0.03 0.03 0.02 0.01 0.01 0.00 0.00 0.00 0.00 0.00 0.00 0.00 0.00 0.00 0.00 0.00 0.00 0.00 0.00 0.00 0.00 0.00 0.00 0.00 0.00 0.00 0.00 0.00 0.01 0.01 0.03 0.03 0.04 0.04 0.04 0.06 0.05 0.04 0.03
0.08 0.03 0.02 0.02 0.02 0.03 0.02 0.01 0.01 0.01 0.00 0.00 0.00 0.00 0.00 0.00 0.00 0.00 0.00 0.00 0.00 0.00 0.00 0.00 0.00 0.00 0.00 0.00 0.00 0.00 0.00 0.00 0.01 0.01 0.02 0.03 0.04 0.04 0.05 0.08 0.15 0.11 0.08 0.07
0.06 0.01 0.01 0.01 0.01 0.02 0.01 0.01 0.01 0.01 0.00 0.00 0.00 0.00 0.00 0.00 0.00 0.00 0.00 0.00 0.00 0.00 0.00 0.00 0.00 0.00 0.00 0.00 0.00 0.00 0.00 0.01 0.01 0.02 0.03 0.04 0.04 0.04 0.06 0.07 0.17 0.20 0.16 0.17
0.03 0.01 0.01 0.01 0.01 0.01 0.01 0.01 0.01 0.01 0.01 0.00 0.00 0.00 0.00 0.00 0.00 0.00 0.00 0.00 0.00 0.00 0.00 0.00 0.00 0.00 0.00 0.00 0.00 0.00 0.00 0.01 0.02 0.03 0.04 0.04 0.05 0.04 0.05 0.05 0.08 0.09 0.12 0.16
0.01 0.01 0.01 0.01 0.01 0.01 0.01 0.00 0.01 0.01 0.01 0.01 0.00 0.00 0.00 0.00 0.00 0.00 0.00 0.00 0.00 0.00 0.00 0.00 0.00 0.00 0.00 0.00 0.00 0.00 0.00 0.01 0.02 0.03 0.04 0.04 0.05 0.06 0.06 0.04 0.04 0.04 0.06 0.09
0.01 0.01 0.01 0.01 0.01 0.00 0.00 0.00 0.01 0.01 0.01 0.01 0.01 0.00 0.00 0.00 0.00 0.00 0.00 0.00 0.00 0.00 0.00 0.00 0.00 0.00 0.00 0.00 0.00 0.00 0.01 0.02 0.03 0.04 0.05 0.05 0.05 0.06 0.08 0.09 0.08 0.04 0.03 0.05
0.01 0.01 0.01 0.00 0.00 0.00 0.00 0.01 0.01 0.01 0.01 0.01 0.01 0.00 0.00 0.00 0.00 0.00 0.00 0.00 0.00 0.00 0.00 0.00 0.00 0.00 0.00 0.00 0.00 0.00 0.01 0.02 0.03 0.04 0.05 0.05 0.06 0.07 0.09 0.10 0.10 0.07 0.05 0.05
0.01 0.01 0.01 0.00 0.01 0.01 0.01 0.01 0.01 0.01 0.01 0.01 0.00 0.00 0.00 0.00 0.00 0.00 0.00 0.00 0.00 0.00 0.00 0.00 0.00 0.00 0.00 0.00 0.00 0.00 0.01 0.02 0.04 0.05 0.05 0.06 0.07 0.10 0.12 0.13 0.13 0.12 0.11 0.11
0.03 0.02 0.01 0.01 0.00 0.00 0.00 0.00 0.01 0.01 0.01 0.01 0.00 0.00 0.00 0.00 0.00 0.00 0.00 0.00 0.00 0.00 0.00 0.00 0.00 0.00 0.00 0.00 0.01 0.01 0.01 0.02 0.04 0.05 0.06 0.08 0.11 0.14 0.16 0.19 0.20 0.17 0.13 0.13
0.03 0.02 0.01 0.01 0.00 0.00 0.00 0.00 0.00 0.01 0.01 0.01 0.00 0.00 0.00 0.00 0.00 0.00 0.00 0.00 0.00 0.00 0.00 0.00 0.00 0.00 0.00 0.00 0.01 0.01 0.01 0.02 0.05 0.08 0.10 0.11 0.14 0.17 0.20 0.22 0.21 0.20 0.17 0.14
0.03 0.03 0.01 0.00 0.00 0.00 0.00 0.00 0.00 0.01 0.01 0.01 0.00 0.00 0.00 0.00 0.00 0.00 0.00 0.00 0.00 0.00 0.00 0.00 0.00 0.00 0.00 0.00 0.01 0.01 0.03 0.05 0.09 0.10 0.12 0.15 0.17 0.17 0.18 0.21 0.23 0.23 0.22 0.21
0.03 0.02 0.01 0.00 0.00 0.00 0.00 0.01 0.00 0.00 0.00 0.00 0.00 0.00 0.00 0.00 0.00 0.00 0.00 0.00 0.00 0.00 0.00 0.00 0.00 0.00 0.01 0.01 0.02 0.03 0.06 0.11 0.14 0.15 0.16 0.18 0.21 0.21 0.21 0.23 0.24 0.25 0.23 0.23
0.03 0.02 0.01 0.01 0.00 0.00 0.00 0.01 0.01 0.01 0.00 0.00 0.00 0.00 0.00 0.00 0.00 0.00 0.00 0.00 0.00 0.00 0.00 0.01 0.01 0.01 0.01 0.03 0.05 0.07 0.10 0.13 0.16 0.19 0.22 0.24 0.26 0.26 0.25 0.24 0.25 0.26 0.25 0.25
0.02 0.02 0.02 0.01 0.00 0.00 0.01 0.01 0.01 0.01 0.00 0.00 0.00 0.00 0.00 0.00 0.00 0.00 0.00 0.00 0.00 0.01 0.01 0.01 0.01 0.02 0.04 0.07 0.08 0.09 0.11 0.14 0.17 0.21 0.25 0.29 0.33 0.35 0.31 0.28 0.29 0.28 0.27 0.26
0.02 0.02 0.01 0.01 0.01 0.01 0.01 0.01 0.01 0.01 0.01 0.01 0.01 0.01 0.01 0.01 0.01 0.01 0.01 0.01 0.01 0.01 0.02 0.02 0.02 0.04 0.07 0.08 0.07 0.09 0.12 0.16 0.20 0.24 0.29 0.32 0.36 0.37 0.36 0.34 0.32 0.31 0.30 0.29
0.02 0.01 0.01 0.01 0.01 0.01 0.01 0.02 0.02 0.02 0.02 0.02 0.01 0.01 0.01 0.01 0.01 0.01 0.01 0.02 0.02 0.03 0.02 0.02 0.04 0.06 0.09 0.08 0.09 0.12 0.17 0.21 0.26 0.30 0.34 0.36 0.37 0.37 0.37 0.35 0.33 0.29 0.28 0.28
0.03 0.02 0.02 0.02 0.02 0.02 0.03 0.03 0.03 0.03 0.02 0.03 0.02 0.02 0.02 0.02 0.03 0.02 0.02 0.02 0.03 0.04 0.04 0.04 0.06 0.08 0.10 0.12 0.14 0.19 0.24 0.28 0.35 0.43 0.44 0.42 0.39 0.37 0.34 0.32 0.30 0.29 0.27 0.26
0.04 0.04 0.04 0.04 0.04 0.04 0.03 0.03 0.03 0.03 0.03 0.03 0.03 0.03 0.03 0.03 0.04 0.04 0.04 0.04 0.04 0.06 0.06 0.07 0.08 0.10 0.14 0.19 0.22 0.25 0.30 0.34 0.38 0.39 0.37 0.36 0.36 0.35 0.31 0.29 0.27 0.27 0.26 0.23
0.07 0.06 0.06 0.07 0.07 0.07 0.06 0.06 0.06 0.06 0.06 0.06 0.07 0.06 0.05 0.05 0.05 0.05 0.06 0.06 0.07 0.07 0.08 0.09 0.11 0.15 0.20 0.25 0.29 0.32 0.35 0.38 0.39 0.38 0.36 0.36 0.36 0.32 0.29 0.27 0.27 0.24 0.22 0.20

GEFSNGP_prec_meanprecacc_120.txt.gz
Total_Precipitation_Accumulation
0.13 0.07 0.08 0.09 0.08 0.09 0.13 0.11 0.05 0.01 0.00 0.00 0.00 0.00 0.00 0.00 0.00 0.00 0.00 0.00 0.00 0.00 0.00 0.00 0.00 0.00 0.00 0.00 0.00 0.00 0.00 0.00 0.00 0.00 0.00 0.00 0.00 0.00 0.00 0.01 0.01 0.02 0.02 0.02
0.09 0.05 0.05 0.06 0.04 0.04 0.05 0.04 0.02 0.01 0.00 0.00 0.00 0.00 0.00 0.00 0.00 0.00 0.00 0.00 0.00 0.00 0.00 0.00 0.00 0.00 0.00 0.00 0.00 0.00 0.00 0.00 0.00 0.00 0.00 0.00 0.00 0.00 0.01 0.01 0.01 0.02 0.02 0.02
0.15 0.07 0.12 0.11 0.03 0.02 0.02 0.01 0.01 0.00 0.00 0.00 0.00 0.00 0.00 0.00 0.00 0.00 0.00 0.00 0.00 0.00 0.00 0.00 0.00 0.00 0.00 0.00 0.00 0.00 0.00 0.00 0.00 0.00 0.00 0.00 0.00 0.01 0.01 0.01 0.02 0.02 0.02 0.02
0.24 0.19 0.33 0.11 0.01 0.01 0.01 0.01 0.01 0.01 0.01 0.00 0.00 0.00 0.00 0.00 0.00 0.00 0.00 0.00 0.00 0.00 0.00 0.00 0.00 0.00 0.00 0.00 0.00 0.00 0.00 0.00 0.00 0.00 0.00 0.00 0.01 0.01 0.01 0.02 0.02 0.02 0.02 0.02
0.38 0.31 0.19 0.04 0.01 0.01 0.02 0.02 0.02 0.01 0.01 0.01 0.00 0.00 0.00 0.00 0.00 0.00 0.00 0.00 0.00 0.00 0.00 0.00 0.00 0.00 0.00 0.00 0.00 0.00 0.00 0.00 0.00 0.00 0.00 0.00 0.01 0.01 0.02 0.03 0.03 0.02 0.02 0.02
0.39 0.31 0.12 0.03 0.02 0.01 0.02 0.04 0.03 0.02 0.01 0.01 0.01 0.00 0.00 0.00 0.00 0.00 0.00 0.00 0.00 0.00 0.00 0.00 0.00 0.00 0.00 0.00 0.00 0.00 0.00 0.00 0.00 0.00 0.00 0.01 0.01 0.02 0.02 0.02 0.03 0.02 0.02 0.01
0.33 0.20 0.06 0.02 0.02 0.03 0.06 0.07 0.03 0.02 0.01 0.01 0.01 0.00 0.00 0.00 0.00 0.00 0.00 0.00 0.00 0.00 0.00 0.00 0.00 0.00 0.00 0.00 0.00 0.00 0.00 0.00 0.00 0.00 0.00 0.01 0.02 0.03 0.03 0.03 0.03 0.02 0.02 0.01
0.23 0.17 0.05 0.02 0.04 0.08 0.09 0.04 0.03 0.01 0.01 0.01 0.01 0.00 0.00 0.00 0.00 0.00 0.00 0.00 0.00 0.00 0.00 0.00 0.00 0.00 0.00 0.00 0.00 0.00 0.00 0.00 0.00 0.00 0.01 0.02 0.03 0.03 0.03 0.03 0.03 0.03 0.02 0.02
0.16 0.08 0.03 0.03 0.05 0.06 0.05 0.03 0.02 0.01 0.01 0.00 0.00 0.00 0.00 0.00 0.00 0.00 0.00 0.00 0.00 0.00 0.00 0.00 0.00 0.00 0.00 0.00 0.00 0.00 0.00 0.00 0.00 0.01 0.01 0.03 0.04 0.04 0.04 0.05 0.06 0.05 0.04 0.03
0.11 0.04 0.02 0.02 0.03 0.04 0.03 0.02 0.02 0.01 0.01 0.01 0.00 0.00 0.00 0.00 0.00 0.00 0.00 0.00 0.00 0.00 0.00 0.00 0.00 0.00 0.00 0.00 0.00 0.00 0.00 0.00 0.01 0.01 0.02 0.03 0.04 0.04 0.05 0.08 0.15 0.11 0.08 0.07
0.10 0.03 0.02 0.02 0.02 0.03 0.03 0.02 0.02 0.02 0.01 0.01 0.00 0.00 0.00 0.00 0.00 0.00 0.00 0.00 0.00 0.00 0.00 0.00 0.00 0.00 0.00 0.00 0.00 0.00 0.00 0.01 0.01 0.02 0.03 0.04 0.04 0.04 0.06 0.07 0.17 0.20 0.16 0.17
0.06 0.04 0.03 0.03 0.02 0.02 0.02 0.02 0.02 0.02 0.01 0.01 0.00 0.00 0.00 0.00 0.00 0.00 0.00 0.00 0.00 0.00 0.00 0.00 0.00 0.00 0.00 0.00 0.00 0.00 0.00 0.01 0.02 0.03 0.04 0.05 0.05 0.04 0.05 0.05 0.08 0.09 0.12 0.16
0.02 0.03 0.03 0.03 0.02 0.02 0.02 0.02 0.02 0.02 0.02 0.01 0.01 0.00 0.00 0.00 0.00 0.00 0.00 0.00 0.00 0.00 0.00 0.00 0.00 0.00 0.00 0.00 0.00 0.00 0.00 0.01 0.02 0.03 0.04 0.04 0.05 0.06 0.06 0.04 0.04 0.04 0.06 0.09
0.02 0.03 0.03 0.02 0.02 0.01 0.01 0.02 0.02 0.02 0.02 0.02 0.01 0.01 0.01 0.00 0.00 0.00 0.00 0.00 0.00 0.00 0.00 0.00 0.00 0.00 0.00 0.00 0.00 0.00 0.01 0.02 0.03 0.04 0.05 0.05 0.05 0.06 0.08 0.09 0.08 0.04 0.03 0.05
0.02 0.03 0.03 0.02 0.01 0.01 0.01 0.02 0.02 0.02 0.02 0.02 0.01 0.01 0.00 0.00 0.00 0.00 0.00 0.00 0.00 0.00 0.00 0.00 0.00 0.00 0.00 0.00 0.00 0.00 0.01 0.02 0.03 0.04 0.05 0.05 0.06 0.07 0.09 0.10 0.10 0.07 0.05 0.05
0.03 0.04 0.04 0.03 0.01 0.01 0.02 0.02 0.02 0.02 0.02 0.02 0.01 0.01 0.01 0.00 0.00 0.00 0.00 0.00 0.00 0.00 0.00 0.00 0.00 0.00 0.00 0.00 0.00 0.00 0.01 0.02 0.04 0.05 0.05 0.06 0.07 0.10 0.12 0.13 0.13 0.12 0.11 0.11
0.04 0.04 0.04 0.03 0.02 0.01 0.02 0.01 0.01 0.02 0.02 0.02 0.01 0.01 0.01 0.00 0.00 0.00 0.00 0.00 0.00 0.00 0.00 0.00 0.00 0.00 0.00 0.00 0.01 0.01 0.01 0.02 0.04 0.06 0.06 0.08 0.11 0.14 0.16 0.19 0.20 0.17 0.13 0.13
0.04 0.04 0.03 0.03 0.02 0.02 0.01 0.01 0.01 0.01 0.02 0.02 0.01 0.01 0.01 0.01 0.00 0.00 0.00 0.00 0.00 0.00 0.00 0.00 0.00 0.00 0.00 0.00 0.01 0.01 0.01 0.02 0.05 0.08 0.10 0.11 0.14 0.17 0.20 0.22 0.21 0.20 0.17 0.14
0.04 0.04 0.02 0.02 0.02 0.01 0.01 0.01 0.01 0.01 0.01 0.01 0.01 0.01 0.01 0.01 0.01 0.00 0.00 0.00 0.00 0.00 0.00 0.00 0.00 0.00 0.00 0.00 0.01 0.01 0.03 0.05 0.09 0.10 0.12 0.15 0.17 0.17 0.18 0.21 0.23 0.23 0.22 0.21
0.04 0.03 0.02 0.01 0.01 0.01 0.01 0.01 0.01 0.01 0.01 0.01 0.02 0.01 0.01 0.01 0.01 0.01 0.00 0.00 0.00 0.00 0.00 0.00 0.00 0.00 0.01 0.01 0.02 0.03 0.06 0.11 0.14 0.15 0.16 0.18 0.21 0.21 0.21 0.23 0.24 0.25 0.23 0.23
0.04 0.04 0.03 0.02 0.01 0.01 0.01 0.02 0.01 0.01 0.01 0.01 0.02 0.02 0.01 0.01 0.01 0.01 0.00 0.00 0.00 0.00 0.00 0.01 0.01 0.01 0.01 0.03 0.05 0.07 0.10 0.13 0.16 0.19 0.22 0.24 0.26 0.26 0.25 0.24 0.25 0.26 0.25 0.25
0.04 0.05 0.04 0.03 0.01 0.01 0.01 0.02 0.02 0.02 0.02 0.02 0.02 0.02 0.02 0.01 0.01 0.01 0.01 0.01 0.00 0.01 0.01 0.01 0.01 0.02 0.04 0.07 0.08 0.09 0.11 0.14 0.17 0.21 0.26 0.29 0.33 0.35 0.31 0.28 0.29 0.28 0.27 0.26
0.04 0.05 0.05 0.04 0.03 0.02 0.02 0.02 0.02 0.02 0.02 0.03 0.03 0.02 0.02 0.02 0.02 0.01 0.02 0.01 0.01 0.01 0.02 0.02 0.02 0.04 0.07 0.08 0.07 0.09 0.12 0.16 0.20 0.25 0.29 0.33 0.36 0.38 0.36 0.34 0.32 0.31 0.30 0.29
0.05 0.04 0.04 0.04 0.04 0.04 0.03 0.03 0.03 0.03 0.04 0.04 0.03 0.03 0.03 0.03 0.03 0.02 0.02 0.02 0.02 0.03 0.03 0.03 0.04 0.06 0.09 0.08 0.09 0.12 0.17 0.21 0.26 0.31 0.35 0.37 0.37 0.37 0.37 0.35 0.33 0.29 0.28 0.28
0.06 0.05 0.04 0.04 0.04 0.06 0.07 0.05 0.04 0.04 0.04 0.04 0.04 0.04 0.03 0.03 0.04 0.03 0.03 0.03 0.03 0.04 0.05 0.05 0.07 0.08 0.10 0.12 0.15 0.19 0.24 0.29 0.36 0.43 0.45 0.42 0.39 0.37 0.34 0.32 0.30 0.29 0.27 0.26
0.09 0.08 0.07 0.06 0.07 0.07 0.07 0.06 0.05 0.05 0.04 0.05 0.06 0.06 0.05 0.05 0.05 0.05 0.05 0.05 0.06 0.07 0.08 0.08 0.08 0.11 0.15 0.19 0.23 0.26 0.31 0.35 0.39 0.39 0.37 0.37 0.36 0.35 0.31 0.29 0.27 0.27 0.26 0.23
0.12 0.11 0.09 0.10 0.10 0.09 0.08 0.07 0.08 0.08 0.08 0.08 0.09 0.08 0.07 0.07 0.07 0.07 0.08 0.08 0.09 0.09 0.10 0.10 0.12 0.16 0.21 0.26 0.30 0.33 0.36 0.39 0.40 0.39 0.37 0.37 0.36 0.33 0.29 0.28 0.27 0.24 0.22 0.20

GEFSNGP_prec_meanprecacc_126.txt.gz
Total_Precipitation_Accumulation
0.18 0.13 0.11 0.12 0.11 0.13 0.19 0.17 0.08 0.02 0.01 0.01 0.01 0.01 0.01 0.01 0.00 0.00 0.00 0.00 0.00 0.00 0.00 0.00 0.00 0.00 0.00 0.00 0.00 0.00 0.00 0.00 0.00 0.00 0.00 0.00 0.00 0.00 0.01 0.01 0.01 0.02 0.02 0.03
0.13 0.09 0.09 0.08 0.06 0.06 0.07 0.06 0.04 0.02 0.01 0.01 0.01 0.01 0.01 0.01 0.01 0.00 0.00 0.00 0.00 0.00 0.00 0.00 0.00 0.00 0.00 0.00 0.00 0.00 0.00 0.00 0.00 0.00 0.00 0.00 0.01 0.01 0.01 0.01 0.01 0.02 0.02 0.02
0.20 0.10 0.16 0.15 0.05 0.04 0.04 0.03 0.03 0.02 0.01 0.01 0.01 0.01 0.02 0.01 0.01 0.00 0.00 0.00 0.00 0.00 0.00 0.00 0.00 0.00 0.00 0.00 0.00 0.00 0.00 0.00 0.00 0.00 0.00 0.00 0.01 0.01 0.01 0.02 0.02 0.02 0.02 0.02
0.30 0.24 0.38 0.14 0.03 0.02 0.03 0.03 0.03 0.03 0.02 0.01 0.00 0.00 0.01 0.02 0.01 0.00 0.00 0.00 0.00 0.00 0.00 0.00 0.00 0.00 0.00 0.00 0.00 0.00 0.00 0.00 0.00 0.00 0.00 0.01 0.01 0.01 0.02 0.02 0.02 0.02 0.02 0.02
0.45 0.36 0.21 0.05 0.03 0.03 0.05 0.06 0.05 0.04 0.03 0.01 0.00 0.00 0.01 0.01 0.01 0.01 0.01 0.00 0.00 0.00 0.00 0.00 0.00 0.00 0.00 0.00 0.00 0.00 0.00 0.00 0.00 0.00 0.00 0.01 0.01 0.01 0.02 0.03 0.03 0.02 0.02 0.02
0.46 0.36 0.15 0.06 0.03 0.03 0.06 0.10 0.06 0.04 0.04 0.02 0.01 0.01 0.01 0.00 0.00 0.00 0.01 0.01 0.00 0.00 0.00 0.00 0.00 0.00 0.00 0.00 0.00 0.00 0.00 0.00 0.00 0.00 0.00 0.01 0.01 0.02 0.02 0.02 0.03 0.02 0.02 0.01
0.38 0.25 0.08 0.04 0.04 0.06 0.12 0.13 0.06 0.04 0.04 0.03 0.02 0.01 0.01 0.00 0.00 0.00 0.00 0.01 0.01 0.00 0.00 0.00 0.00 0.00 0.00 0.00 0.00 0.00 0.00 0.00 0.00 0.00 0.01 0.01 0.02 0.03 0.03 0.03 0.03 0.02 0.02 0.01
0.27 0.21 0.08 0.05 0.07 0.13 0.14 0.07 0.04 0.03 0.03 0.03 0.02 0.01 0.00 0.00 0.00 0.00 0.00 0.01 0.01 0.00 0.00 0.00 0.00 0.00 0.00 0.00 0.00 0.00 0.00 0.00 0.00 0.00 0.01 0.02 0.03 0.03 0.03 0.03 0.03 0.03 0.02 0.02
0.21 0.12 0.06 0.06 0.09 0.10 0.07 0.04 0.03 0.02 0.02 0.02 0.02 0.01 0.00 0.00 0.00 0.00 0.00 0.00 0.00 0.01 0.01 0.00 0.00 0.00 0.00 0.00 0.00 0.00 0.00 0.00 0.00 0.01 0.02 0.03 0.04 0.04 0.04 0.05 0.06 0.05 0.04 0.04
0.15 0.07 0.04 0.05 0.07 0.08 0.05 0.03 0.03 0.02 0.02 0.02 0.02 0.01 0.00 0.00 0.00 0.00 0.00 0.00 0.00 0.01 0.01 0.01 0.00 0.00 0.00 0.00 0.00 0.00 0.00 0.01 0.01 0.02 0.03 0.03 0.04 0.04 0.05 0.08 0.15 0.12 0.08 0.07
0.12 0.05 0.04 0.04 0.04 0.05 0.04 0.03 0.03 0.02 0.02 0.02 0.01 0.01 0.01 0.00 0.00 0.00 0.00 0.00 0.00 0.00 0.01 0.01 0.00 0.00 0.00 0.00 0.00 0.01 0.01 0.01 0.01 0.02 0.03 0.04 0.05 0.04 0.06 0.07 0.17 0.20 0.16 0.17
0.07 0.04 0.04 0.04 0.03 0.03 0.03 0.03 0.03 0.03 0.02 0.02 0.01 0.01 0.01 0.00 0.00 0.00 0.00 0.01 0.00 0.00 0.01 0.01 0.01 0.00 0.00 0.00 0.00 0.01 0.01 0.01 0.02 0.03 0.04 0.05 0.05 0.05 0.05 0.06 0.08 0.09 0.12 0.16
0.03 0.03 0.04 0.04 0.03 0.02 0.02 0.03 0.03 0.02 0.02 0.02 0.02 0.01 0.01 0.01 0.00 0.00 0.00 0.00 0.00 0.00 0.00 0.01 0.01 0.00 0.00 0.00 0.00 0.01 0.01 0.01 0.02 0.04 0.04 0.04 0.05 0.06 0.06 0.05 0.04 0.04 0.06 0.10
0.02 0.03 0.03 0.03 0.03 0.02 0.02 0.02 0.02 0.03 0.03 0.02 0.02 0.02 0.01 0.01 0.00 0.00 0.00 0.00 0.00 0.00 0.00 0.01 0.01 0.00 0.00 0.00 0.00 0.01 0.01 0.02 0.03 0.04 0.05 0.05 0.06 0.06 0.08 0.10 0.08 0.04 0.03 0.05
0.02 0.03 0.03 0.02 0.02 0.02 0.01 0.02 0.03 0.03 0.03 0.03 0.02 0.01 0.01 0.00 0.00 0.00 0.00 0.00 0.00 0.00 0.00 0.00 0.01 0.00 0.00 0.00 0.00 0.01 0.01 0.02 0.03 0.04 0.05 0.05 0.06 0.07 0.09 0.10 0.10 0.08 0.05 0.05
0.04 0.04 0.05 0.03 0.03 0.02 0.02 0.02 0.02 0.02 0.03 0.03 0.02 0.01 0.01 0.00 0.00 0.00 0.00 0.00 0.00 0.00 0.00 0.00 0.00 0.00 0.00 0.00 0.01 0.01 0.01 0.03 0.04 0.05 0.05 0.06 0.08 0.10 0.12 0.13 0.13 0.12 0.11 0.11
0.06 0.06 0.05 0.05 0.04 0.03 0.02 0.02 0.02 0.02 0.02 0.02 0.02 0.01 0.01 0.01 0.00 0.00 0.00 0.00 0.00 0.00 0.00 0.00 0.00 0.00 0.00 0.00 0.01 0.01 0.01 0.02 0.05 0.06 0.07 0.08 0.11 0.14 0.16 0.19 0.20 0.17 0.13 0.13
0.06 0.06 0.05 0.05 0.04 0.04 0.03 0.02 0.01 0.02 0.02 0.02 0.02 0.01 0.01 0.01 0.01 0.00 0.00 0.00 0.00 0.00 0.00 0.00 0.00 0.00 0.00 0.00 0.01 0.01 0.01 0.03 0.05 0.08 0.10 0.11 0.14 0.17 0.20 0.22 0.21 0.20 0.17 0.15
0.05 0.05 0.04 0.04 0.04 0.03 0.03 0.02 0.01 0.02 0.02 0.02 0.02 0.01 0.01 0.01 0.01 0.01 0.01 0.00 0.00 0.00 0.00 0.00 0.00 0.00 0.00 0.01 0.01 0.01 0.03 0.06 0.09 0.11 0.12 0.15 0.17 0.17 0.19 0.21 0.23 0.23 0.22 0.21
0.05 0.05 0.04 0.04 0.04 0.03 0.03 0.02 0.02 0.02 0.02 0.02 0.02 0.01 0.01 0.01 0.01 0.01 0.01 0.01 0.01 0.01 0.00 0.01 0.01 0.01 0.01 0.01 0.02 0.03 0.07 0.11 0.14 0.15 0.16 0.18 0.21 0.21 0.21 0.23 0.24 0.25 0.23 0.23
0.06 0.05 0.05 0.04 0.04 0.03 0.03 0.03 0.03 0.02 0.02 0.02 0.02 0.02 0.02 0.01 0.02 0.02 0.01 0.01 0.01 0.01 0.01 0.01 0.01 0.01 0.01 0.03 0.06 0.07 0.10 0.13 0.16 0.19 0.22 0.24 0.26 0.26 0.25 0.24 0.25 0.26 0.25 0.25
0.06 0.06 0.06 0.05 0.04 0.03 0.03 0.03 0.03 0.03 0.02 0.02 0.03 0.03 0.03 0.02 0.02 0.03 0.02 0.01 0.01 0.02 0.02 0.02 0.02 0.03 0.05 0.07 0.08 0.09 0.11 0.14 0.17 0.21 0.26 0.29 0.33 0.35 0.31 0.28 0.29 0.28 0.27 0.26
0.06 0.06 0.07 0.06 0.05 0.04 0.03 0.04 0.04 0.04 0.03 0.04 0.04 0.04 0.04 0.04 0.03 0.04 0.04 0.03 0.02 0.03 0.04 0.03 0.04 0.05 0.08 0.08 0.07 0.09 0.12 0.16 0.20 0.25 0.29 0.33 0.36 0.38 0.36 0.34 0.32 0.31 0.30 0.29
0.06 0.06 0.06 0.07 0.07 0.07 0.06 0.05 0.05 0.06 0.05 0.06 0.06 0.05 0.05 0.05 0.05 0.05 0.04 0.04 0.04 0.05 0.05 0.05 0.06 0.08 0.10 0.09 0.09 0.12 0.17 0.22 0.26 0.31 0.35 0.37 0.37 0.38 0.37 0.35 0.33 0.29 0.28 0.28
0.08 0.07 0.06 0.07 0.08 0.09 0.09 0.07 0.07 0.08 0.07 0.08 0.08 0.07 0.06 0.06 0.07 0.07 0.07 0.06 0.06 0.07 0.07 0.08 0.09 0.10 0.11 0.13 0.15 0.19 0.25 0.29 0.36 0.44 0.45 0.42 0.39 0.38 0.35 0.32 0.31 0.29 0.28 0.26
0.11 0.11 0.09 0.09 0.10 0.10 0.10 0.09 0.09 0.09 0.08 0.09 0.09 0.09 0.09 0.10 0.10 0.10 0.10 0.09 0.09 0.10 0.11 0.11 0.11 0.13 0.16 0.20 0.23 0.26 0.32 0.36 0.40 0.40 0.38 0.38 0.37 0.35 0.32 0.29 0.28 0.27 0.26 0.23
0.15 0.14 0.13 0.14 0.14 0.13 0.12 0.12 0.13 0.13 0.11 0.11 0.12 0.12 0.11 0.12 0.13 0.13 0.13 0.13 0.13 0.13 0.13 0.14 0.15 0.18 0.23 0.27 0.31 0.34 0.37 0.39 0.41 0.40 0.38 0.38 0.37 0.33 0.29 0.28 0.27 0.24 0.22 0.20

GEFSNGP_prec_meanprecacc_132.txt.gz
Total_Precipitation_Accumulation
0.21 0.15 0.15 0.17 0.16 0.16 0.23 0.22 0.12 0.04 0.03 0.03 0.04 0.03 0.03 0.03 0.02 0.01 0.00 0.00 0.00 0.00 0.00 0.00 0.00 0.00 0.00 0.00 0.00 0.00 0.00 0.01 0.01 0.01 0.00 0.00 0.01 0.01 0.01 0.01 0.01 0.02 0.02 0.03
0.15 0.12 0.11 0.11 0.09 0.09 0.10 0.08 0.07 0.04 0.03 0.03 0.04 0.03 0.04 0.04 0.04 0.02 0.02 0.01 0.00 0.00 0.00 0.00 0.00 0.00 0.00 0.00 0.00 0.00 0.00 0.00 0.01 0.01 0.01 0.01 0.01 0.01 0.01 0.01 0.02 0.02 0.02 0.02
0.22 0.12 0.19 0.18 0.07 0.06 0.06 0.05 0.06 0.05 0.04 0.03 0.04 0.03 0.04 0.05 0.04 0.03 0.02 0.02 0.01 0.00 0.00 0.00 0.00 0.00 0.00 0.00 0.00 0.00 0.00 0.00 0.00 0.01 0.01 0.01 0.01 0.01 0.01 0.02 0.02 0.02 0.02 0.02
0.33 0.27 0.43 0.16 0.03 0.03 0.04 0.05 0.05 0.05 0.04 0.04 0.04 0.04 0.04 0.06 0.05 0.03 0.02 0.02 0.01 0.01 0.00 0.00 0.00 0.00 0.00 0.00 0.00 0.00 0.00 0.00 0.00 0.00 0.01 0.01 0.01 0.02 0.02 0.02 0.03 0.03 0.02 0.02
0.50 0.40 0.24 0.09 0.06 0.05 0.07 0.09 0.06 0.06 0.05 0.04 0.03 0.03 0.04 0.04 0.04 0.03 0.02 0.02 0.01 0.01 0.01 0.00 0.00 0.00 0.00 0.00 0.00 0.00 0.00 0.00 0.00 0.00 0.01 0.01 0.01 0.02 0.02 0.03 0.03 0.03 0.02 0.02
0.51 0.41 0.19 0.11 0.07 0.04 0.08 0.15 0.08 0.07 0.07 0.06 0.04 0.04 0.04 0.02 0.02 0.02 0.02 0.02 0.01 0.01 0.01 0.01 0.00 0.00 0.00 0.00 0.00 0.00 0.00 0.00 0.00 0.00 0.00 0.01 0.01 0.02 0.03 0.03 0.03 0.03 0.02 0.02
0.42 0.30 0.11 0.09 0.08 0.08 0.16 0.20 0.10 0.07 0.07 0.07 0.06 0.05 0.03 0.02 0.01 0.01 0.02 0.02 0.01 0.01 0.01 0.01 0.01 0.00 0.00 0.00 0.00 0.00 0.00 0.00 0.00 0.00 0.01 0.01 0.02 0.03 0.03 0.03 0.03 0.03 0.02 0.02
0.30 0.26 0.12 0.09 0.12 0.20 0.21 0.12 0.07 0.06 0.06 0.05 0.05 0.03 0.03 0.02 0.02 0.01 0.01 0.01 0.01 0.01 0.01 0.01 0.01 0.01 0.00 0.00 0.01 0.00 0.00 0.00 0.01 0.01 0.01 0.02 0.03 0.04 0.03 0.04 0.04 0.03 0.03 0.03
0.23 0.14 0.09 0.09 0.13 0.16 0.11 0.07 0.05 0.05 0.05 0.04 0.04 0.04 0.03 0.02 0.01 0.01 0.01 0.01 0.01 0.01 0.01 0.01 0.01 0.01 0.00 0.01 0.01 0.01 0.01 0.01 0.01 0.01 0.02 0.03 0.04 0.04 0.04 0.05 0.07 0.05 0.05 0.04
0.16 0.08 0.07 0.07 0.09 0.10 0.07 0.05 0.04 0.03 0.03 0.04 0.04 0.04 0.03 0.03 0.01 0.01 0.01 0.01 0.01 0.01 0.01 0.01 0.01 0.00 0.01 0.01 0.01 0.01 0.01 0.01 0.01 0.02 0.03 0.04 0.04 0.05 0.06 0.08 0.15 0.12 0.09 0.08
0.13 0.06 0.06 0.06 0.05 0.06 0.05 0.04 0.03 0.03 0.02 0.03 0.03 0.03 0.03 0.03 0.02 0.01 0.01 0.01 0.01 0.01 0.01 0.02 0.01 0.01 0.01 0.01 0.01 0.01 0.01 0.01 0.02 0.03 0.04 0.05 0.05 0.05 0.06 0.07 0.17 0.20 0.16 0.17
0.08 0.05 0.06 0.06 0.04 0.03 0.03 0.04 0.04 0.03 0.02 0.02 0.02 0.03 0.03 0.02 0.02 0.01 0.01 0.01 0.01 0.01 0.01 0.01 0.01 0.01 0.01 0.01 0.01 0.02 0.01 0.02 0.03 0.04 0.05 0.05 0.05 0.05 0.05 0.06 0.09 0.09 0.12 0.16
0.03 0.03 0.04 0.04 0.04 0.03 0.02 0.03 0.03 0.03 0.03 0.02 0.02 0.03 0.03 0.02 0.01 0.01 0.01 0.01 0.01 0.00 0.01 0.01 0.01 0.01 0.01 0.01 0.01 0.01 0.01 0.02 0.03 0.04 0.05 0.05 0.05 0.06 0.07 0.05 0.04 0.05 0.06 0.10
0.02 0.03 0.04 0.03 0.03 0.03 0.02 0.02 0.03 0.03 0.03 0.03 0.03 0.02 0.03 0.02 0.01 0.01 0.01 0.00 0.00 0.00 0.01 0.01 0.01 0.01 0.01 0.01 0.01 0.02 0.01 0.02 0.03 0.04 0.05 0.05 0.06 0.07 0.08 0.10 0.09 0.05 0.04 0.05
0.02 0.03 0.04 0.03 0.03 0.02 0.02 0.02 0.03 0.04 0.04 0.03 0.03 0.02 0.02 0.02 0.01 0.00 0.00 0.00 0.00 0.01 0.01 0.01 0.01 0.01 0.01 0.01 0.01 0.02 0.02 0.02 0.03 0.04 0.05 0.06 0.06 0.07 0.09 0.10 0.10 0.08 0.06 0.06
0.04 0.05 0.05 0.04 0.04 0.03 0.03 0.03 0.03 0.03 0.03 0.03 0.03 0.02 0.02 0.01 0.01 0.00 0.00 0.00 0.00 0.01 0.01 0.01 0.01 0.01 0.01 0.01 0.01 0.02 0.02 0.04 0.05 0.05 0.06 0.07 0.08 0.10 0.12 0.13 0.13 0.12 0.12 0.11
0.07 0.07 0.07 0.06 0.05 0.03 0.03 0.02 0.02 0.02 0.03 0.03 0.03 0.02 0.01 0.02 0.01 0.00 0.00 0.00 0.00 0.01 0.00 0.01 0.01 0.01 0.01 0.01 0.02 0.02 0.03 0.03 0.05 0.06 0.07 0.09 0.11 0.14 0.16 0.19 0.20 0.17 0.13 0.13
0.09 0.08 0.06 0.06 0.05 0.04 0.04 0.03 0.02 0.02 0.02 0.02 0.02 0.02 0.01 0.02 0.01 0.00 0.00 0.00 0.00 0.00 0.00 0.01 0.01 0.01 0.01 0.01 0.02 0.02 0.04 0.04 0.06 0.08 0.10 0.12 0.15 0.17 0.20 0.22 0.21 0.20 0.17 0.15
0.06 0.06 0.05 0.05 0.05 0.04 0.04 0.03 0.02 0.02 0.02 0.02 0.02 0.02 0.01 0.02 0.02 0.01 0.01 0.01 0.01 0.01 0.01 0.01 0.01 0.02 0.02 0.02 0.02 0.03 0.05 0.07 0.10 0.11 0.12 0.16 0.18 0.17 0.19 0.21 0.23 0.23 0.22 0.21
0.06 0.05 0.05 0.05 0.05 0.05 0.05 0.04 0.02 0.02 0.02 0.02 0.02 0.02 0.01 0.01 0.02 0.01 0.01 0.01 0.01 0.01 0.01 0.01 0.01 0.02 0.02 0.03 0.04 0.05 0.08 0.13 0.15 0.16 0.17 0.18 0.21 0.22 0.21 0.23 0.25 0.25 0.24 0.23
0.06 0.06 0.05 0.05 0.05 0.05 0.05 0.05 0.04 0.02 0.02 0.02 0.02 0.02 0.02 0.02 0.02 0.02 0.02 0.02 0.02 0.02 0.02 0.02 0.02 0.02 0.02 0.05 0.08 0.09 0.12 0.15 0.18 0.20 0.22 0.24 0.26 0.26 0.25 0.25 0.26 0.26 0.26 0.25
0.06 0.06 0.06 0.05 0.05 0.05 0.05 0.05 0.05 0.04 0.03 0.03 0.03 0.03 0.03 0.03 0.03 0.03 0.03 0.02 0.02 0.03 0.03 0.03 0.02 0.03 0.06 0.09 0.09 0.10 0.12 0.16 0.18 0.22 0.26 0.30 0.34 0.36 0.31 0.28 0.30 0.29 0.27 0.27
0.06 0.06 0.07 0.07 0.07 0.06 0.05 0.05 0.05 0.06 0.05 0.04 0.04 0.04 0.04 0.04 0.04 0.04 0.05 0.04 0.04 0.05 0.05 0.04 0.05 0.07 0.11 0.11 0.09 0.10 0.14 0.17 0.21 0.26 0.30 0.34 0.36 0.38 0.37 0.34 0.32 0.31 0.31 0.29
0.07 0.06 0.07 0.08 0.09 0.09 0.08 0.06 0.07 0.07 0.08 0.08 0.07 0.06 0.06 0.06 0.06 0.05 0.06 0.07 0.07 0.08 0.07 0.07 0.09 0.11 0.13 0.12 0.12 0.14 0.19 0.23 0.27 0.33 0.36 0.38 0.38 0.38 0.37 0.36 0.33 0.29 0.28 0.28
0.09 0.08 0.08 0.09 0.11 0.12 0.12 0.09 0.09 0.10 0.10 0.11 0.10 0.08 0.07 0.07 0.08 0.09 0.09 0.09 0.09 0.10 0.11 0.12 0.13 0.14 0.14 0.16 0.18 0.22 0.27 0.31 0.38 0.45 0.47 0.44 0.40 0.38 0.35 0.32 0.31 0.30 0.28 0.26
0.13 0.13 0.12 0.12 0.14 0.14 0.13 0.12 0.11 0.11 0.11 0.11 0.12 0.12 0.11 0.12 0.12 0.13 0.13 0.13 0.13 0.14 0.15 0.15 0.15 0.17 0.20 0.24 0.27 0.30 0.34 0.38 0.42 0.42 0.40 0.39 0.38 0.36 0.32 0.30 0.28 0.27 0.26 0.23
0.18 0.17 0.16 0.17 0.18 0.17 0.16 0.15 0.16 0.16 0.14 0.14 0.15 0.15 0.15 0.16 0.17 0.17 0.17 0.18 0.18 0.18 0.18 0.18 0.19 0.22 0.27 0.32 0.35 0.38 0.40 0.42 0.43 0.42 0.40 0.39 0.38 0.34 0.30 0.28 0.27 0.25 0.23 0.20

GEFSNGP_prec_meanprecacc_138.txt.gz
Total_Precipitation_Accumulation
0.21 0.16 0.16 0.18 0.17 0.17 0.26 0.25 0.15 0.06 0.06 0.06 0.06 0.05 0.05 0.06 0.04 0.02 0.02 0.01 0.01 0.00 0.00 0.00 0.00 0.00 0.01 0.00 0.01 0.01 0.01 0.01 0.01 0.02 0.02 0.02 0.02 0.02 0.03 0.03 0.02 0.03 0.03 0.03
0.16 0.12 0.12 0.12 0.10 0.11 0.12 0.10 0.08 0.05 0.05 0.05 0.06 0.06 0.06 0.07 0.06 0.04 0.04 0.02 0.01 0.01 0.01 0.00 0.00 0.00 0.01 0.01 0.01 0.01 0.01 0.01 0.01 0.02 0.02 0.02 0.02 0.02 0.02 0.03 0.03 0.03 0.03 0.03
0.23 0.13 0.21 0.21 0.10 0.09 0.08 0.07 0.08 0.08 0.05 0.05 0.06 0.06 0.07 0.09 0.06 0.05 0.04 0.03 0.02 0.01 0.01 0.01 0.01 0.00 0.01 0.01 0.01 0.00 0.00 0.01 0.01 0.01 0.02 0.02 0.03 0.03 0.03 0.03 0.03 0.03 0.03 0.03
0.36 0.29 0.45 0.18 0.06 0.06 0.07 0.07 0.08 0.07 0.06 0.05 0.06 0.06 0.07 0.09 0.07 0.04 0.03 0.03 0.03 0.02 0.01 0.01 0.01 0.01 0.01 0.01 0.01 0.01 0.00 0.01 0.01 0.01 0.02 0.03 0.03 0.03 0.03 0.03 0.04 0.03 0.03 0.03
0.54 0.44 0.26 0.10 0.08 0.08 0.09 0.12 0.09 0.07 0.06 0.05 0.04 0.05 0.06 0.05 0.05 0.04 0.04 0.03 0.03 0.02 0.02 0.01 0.01 0.02 0.02 0.02 0.02 0.01 0.00 0.00 0.00 0.01 0.02 0.03 0.03 0.03 0.04 0.04 0.04 0.04 0.03 0.02
0.57 0.45 0.21 0.13 0.09 0.07 0.09 0.19 0.10 0.08 0.08 0.07 0.06 0.06 0.06 0.04 0.03 0.03 0.03 0.03 0.02 0.02 0.02 0.02 0.02 0.02 0.02 0.02 0.02 0.01 0.00 0.01 0.01 0.01 0.01 0.01 0.02 0.03 0.04 0.04 0.04 0.04 0.03 0.02
0.47 0.34 0.13 0.12 0.12 0.11 0.19 0.23 0.12 0.08 0.08 0.08 0.08 0.08 0.06 0.04 0.03 0.03 0.03 0.03 0.03 0.03 0.03 0.02 0.02 0.02 0.02 0.02 0.02 0.01 0.01 0.01 0.01 0.01 0.01 0.01 0.03 0.04 0.04 0.04 0.05 0.04 0.03 0.03
0.35 0.32 0.16 0.14 0.17 0.24 0.24 0.13 0.09 0.07 0.07 0.06 0.06 0.05 0.05 0.04 0.03 0.03 0.02 0.02 0.03 0.03 0.03 0.02 0.02 0.02 0.02 0.03 0.02 0.02 0.01 0.01 0.01 0.01 0.01 0.02 0.04 0.05 0.05 0.05 0.05 0.05 0.04 0.04
0.26 0.17 0.12 0.13 0.19 0.20 0.13 0.08 0.05 0.05 0.05 0.05 0.05 0.05 0.05 0.04 0.03 0.03 0.03 0.03 0.03 0.03 0.04 0.03 0.02 0.02 0.02 0.03 0.03 0.03 0.02 0.02 0.02 0.02 0.03 0.04 0.04 0.05 0.05 0.06 0.08 0.06 0.06 0.06
0.17 0.09 0.08 0.10 0.13 0.13 0.09 0.05 0.04 0.04 0.04 0.04 0.04 0.05 0.05 0.05 0.04 0.03 0.03 0.03 0.03 0.03 0.04 0.04 0.03 0.02 0.02 0.02 0.03 0.03 0.03 0.02 0.02 0.03 0.04 0.05 0.05 0.05 0.06 0.09 0.16 0.13 0.10 0.09
0.14 0.07 0.08 0.08 0.08 0.08 0.06 0.04 0.04 0.03 0.02 0.03 0.03 0.04 0.05 0.05 0.04 0.03 0.04 0.04 0.03 0.03 0.04 0.04 0.03 0.02 0.02 0.03 0.03 0.03 0.03 0.03 0.04 0.04 0.06 0.07 0.07 0.06 0.07 0.09 0.18 0.21 0.17 0.17
0.09 0.05 0.06 0.07 0.06 0.05 0.04 0.04 0.04 0.03 0.02 0.02 0.03 0.04 0.04 0.04 0.03 0.03 0.04 0.04 0.03 0.03 0.04 0.04 0.03 0.03 0.03 0.03 0.03 0.04 0.04 0.04 0.05 0.06 0.06 0.07 0.07 0.07 0.08 0.08 0.10 0.11 0.13 0.17
0.03 0.04 0.05 0.05 0.04 0.04 0.03 0.03 0.03 0.03 0.03 0.02 0.02 0.03 0.04 0.04 0.03 0.03 0.03 0.04 0.03 0.02 0.03 0.04 0.04 0.03 0.03 0.03 0.03 0.04 0.03 0.04 0.05 0.06 0.06 0.07 0.07 0.07 0.08 0.07 0.07 0.07 0.08 0.11
0.03 0.03 0.04 0.03 0.03 0.03 0.03 0.03 0.03 0.03 0.03 0.03 0.03 0.03 0.04 0.04 0.03 0.03 0.03 0.03 0.03 0.02 0.03 0.03 0.04 0.04 0.04 0.04 0.04 0.04 0.03 0.04 0.06 0.06 0.07 0.07 0.07 0.08 0.09 0.11 0.10 0.06 0.05 0.07
0.03 0.04 0.04 0.03 0.03 0.03 0.02 0.03 0.03 0.04 0.04 0.03 0.03 0.02 0.03 0.03 0.03 0.03 0.03 0.03 0.02 0.02 0.02 0.03 0.04 0.04 0.05 0.04 0.05 0.05 0.04 0.04 0.05 0.06 0.07 0.07 0.08 0.09 0.10 0.11 0.11 0.09 0.07 0.07
0.04 0.05 0.05 0.04 0.04 0.03 0.03 0.03 0.03 0.03 0.04 0.03 0.03 0.02 0.02 0.03 0.02 0.03 0.03 0.03 0.03 0.02 0.02 0.03 0.04 0.04 0.05 0.04 0.05 0.06 0.05 0.06 0.06 0.07 0.07 0.08 0.09 0.12 0.13 0.14 0.14 0.13 0.13 0.12
0.08 0.08 0.07 0.07 0.05 0.04 0.03 0.03 0.02 0.03 0.03 0.03 0.03 0.02 0.02 0.03 0.02 0.03 0.03 0.03 0.03 0.03 0.02 0.03 0.03 0.04 0.05 0.04 0.05 0.06 0.06 0.06 0.08 0.08 0.08 0.10 0.13 0.16 0.18 0.20 0.21 0.18 0.14 0.15
0.09 0.09 0.07 0.07 0.06 0.05 0.04 0.03 0.02 0.03 0.03 0.03 0.02 0.02 0.02 0.03 0.03 0.03 0.03 0.04 0.04 0.04 0.04 0.03 0.03 0.04 0.04 0.04 0.05 0.06 0.07 0.06 0.07 0.09 0.11 0.13 0.16 0.19 0.22 0.23 0.22 0.21 0.18 0.16
0.06 0.07 0.05 0.05 0.06 0.05 0.05 0.05 0.03 0.03 0.03 0.02 0.02 0.02 0.02 0.02 0.03 0.03 0.03 0.04 0.04 0.04 0.04 0.03 0.03 0.04 0.04 0.05 0.05 0.06 0.08 0.10 0.12 0.13 0.13 0.17 0.19 0.18 0.20 0.22 0.24 0.24 0.23 0.22
0.06 0.06 0.05 0.05 0.05 0.05 0.06 0.06 0.04 0.03 0.02 0.02 0.03 0.02 0.02 0.02 0.03 0.04 0.04 0.04 0.04 0.04 0.04 0.03 0.03 0.03 0.04 0.05 0.07 0.07 0.11 0.15 0.18 0.17 0.18 0.20 0.22 0.22 0.22 0.24 0.26 0.26 0.24 0.24
0.06 0.06 0.05 0.05 0.05 0.06 0.07 0.07 0.05 0.04 0.03 0.03 0.03 0.03 0.03 0.02 0.03 0.05 0.04 0.04 0.04 0.05 0.04 0.03 0.03 0.04 0.04 0.08 0.11 0.11 0.14 0.18 0.20 0.21 0.24 0.26 0.27 0.27 0.26 0.26 0.27 0.27 0.27 0.26
0.06 0.07 0.06 0.05 0.06 0.07 0.07 0.07 0.07 0.06 0.05 0.04 0.04 0.04 0.04 0.04 0.04 0.05 0.05 0.04 0.04 0.05 0.05 0.04 0.03 0.05 0.09 0.13 0.12 0.12 0.15 0.18 0.21 0.25 0.29 0.31 0.35 0.36 0.32 0.29 0.31 0.30 0.28 0.27
0.07 0.07 0.07 0.08 0.08 0.08 0.07 0.07 0.07 0.07 0.06 0.06 0.06 0.06 0.06 0.06 0.05 0.06 0.07 0.06 0.06 0.07 0.06 0.05 0.06 0.09 0.14 0.14 0.12 0.13 0.16 0.20 0.25 0.30 0.33 0.36 0.38 0.39 0.38 0.35 0.33 0.32 0.32 0.30
0.08 0.07 0.08 0.09 0.10 0.11 0.09 0.08 0.08 0.09 0.09 0.10 0.08 0.07 0.07 0.07 0.07 0.07 0.08 0.09 0.09 0.09 0.08 0.09 0.11 0.13 0.16 0.16 0.16 0.18 0.22 0.27 0.31 0.37 0.41 0.42 0.41 0.40 0.38 0.37 0.34 0.31 0.29 0.29
0.10 0.09 0.09 0.10 0.12 0.13 0.13 0.11 0.10 0.11 0.11 0.12 0.11 0.09 0.09 0.09 0.10 0.10 0.10 0.11 0.11 0.11 0.12 0.14 0.15 0.17 0.17 0.20 0.23 0.27 0.31 0.35 0.42 0.50 0.52 0.48 0.44 0.41 0.37 0.34 0.33 0.31 0.30 0.28
0.14 0.14 0.13 0.14 0.15 0.15 0.15 0.14 0.13 0.12 0.12 0.12 0.13 0.13 0.14 0.14 0.14 0.14 0.14 0.15 0.15 0.16 0.16 0.17 0.17 0.20 0.23 0.28 0.33 0.36 0.40 0.43 0.47 0.47 0.44 0.43 0.42 0.40 0.35 0.32 0.30 0.30 0.28 0.25
0.18 0.18 0.18 0.19 0.19 0.19 0.18 0.18 0.19 0.18 0.16 0.16 0.17 0.17 0.18 0.18 0.19 0.19 0.19 0.20 0.20 0.20 0.21 0.20 0.21 0.25 0.31 0.37 0.41 0.44 0.46 0.48 0.48 0.47 0.44 0.43 0.42 0.39 0.34 0.32 0.31 0.28 0.26 0.22

GEFSNGP_prec_meanprecacc_144.txt.gz
Total_Precipitation_Accumulation
0.22 0.16 0.17 0.19 0.17 0.18 0.28 0.28 0.17 0.07 0.06 0.07 0.06 0.06 0.06 0.07 0.06 0.04 0.03 0.02 0.01 0.01 0.01 0.00 0.00 0.01 0.02 0.01 0.01 0.03 0.07 0.08 0.06 0.07 0.07 0.08 0.10 0.13 0.12 0.10 0.06 0.05 0.05 0.05
0.17 0.12 0.12 0.13 0.11 0.12 0.13 0.11 0.09 0.06 0.05 0.06 0.07 0.07 0.07 0.08 0.08 0.06 0.06 0.03 0.02 0.01 0.01 0.01 0.00 0.01 0.02 0.01 0.01 0.02 0.06 0.07 0.05 0.06 0.07 0.07 0.08 0.08 0.09 0.11 0.10 0.07 0.05 0.05
0.24 0.13 0.22 0.23 0.13 0.11 0.10 0.08 0.09 0.10 0.07 0.06 0.07 0.07 0.09 0.11 0.09 0.07 0.07 0.05 0.03 0.02 0.01 0.01 0.01 0.01 0.01 0.01 0.01 0.02 0.05 0.07 0.04 0.04 0.06 0.06 0.08 0.08 0.08 0.08 0.09 0.09 0.07 0.05
0.39 0.30 0.47 0.20 0.07 0.07 0.08 0.09 0.10 0.09 0.08 0.07 0.07 0.08 0.09 0.12 0.11 0.08 0.07 0.06 0.04 0.02 0.01 0.01 0.01 0.02 0.02 0.02 0.02 0.03 0.05 0.06 0.04 0.04 0.06 0.07 0.08 0.09 0.08 0.07 0.07 0.07 0.07 0.06
0.59 0.46 0.27 0.11 0.10 0.10 0.13 0.15 0.10 0.08 0.08 0.06 0.06 0.06 0.07 0.06 0.08 0.08 0.07 0.05 0.04 0.04 0.03 0.02 0.01 0.03 0.03 0.03 0.03 0.04 0.05 0.04 0.03 0.03 0.05 0.07 0.08 0.09 0.09 0.08 0.07 0.06 0.06 0.05
0.63 0.49 0.23 0.14 0.11 0.09 0.11 0.23 0.12 0.09 0.10 0.09 0.07 0.09 0.07 0.05 0.06 0.06 0.05 0.05 0.05 0.05 0.04 0.03 0.03 0.03 0.03 0.03 0.04 0.04 0.04 0.03 0.02 0.03 0.03 0.05 0.06 0.08 0.10 0.10 0.08 0.07 0.05 0.05
0.51 0.38 0.15 0.13 0.13 0.12 0.21 0.27 0.13 0.10 0.11 0.10 0.10 0.10 0.09 0.08 0.07 0.06 0.04 0.05 0.06 0.06 0.05 0.03 0.03 0.02 0.03 0.04 0.04 0.03 0.03 0.03 0.03 0.03 0.03 0.04 0.06 0.09 0.09 0.10 0.10 0.09 0.06 0.05
0.37 0.37 0.18 0.15 0.19 0.26 0.27 0.15 0.10 0.08 0.08 0.08 0.07 0.06 0.07 0.08 0.08 0.06 0.05 0.05 0.04 0.05 0.05 0.04 0.03 0.03 0.03 0.04 0.05 0.04 0.04 0.04 0.04 0.04 0.04 0.05 0.07 0.09 0.09 0.10 0.11 0.11 0.09 0.08
0.27 0.19 0.13 0.14 0.20 0.21 0.15 0.09 0.06 0.06 0.06 0.06 0.06 0.06 0.07 0.08 0.08 0.08 0.08 0.07 0.06 0.05 0.05 0.04 0.04 0.04 0.04 0.05 0.05 0.05 0.06 0.06 0.05 0.05 0.06 0.07 0.07 0.08 0.10 0.11 0.13 0.12 0.11 0.09
0.18 0.09 0.09 0.11 0.13 0.14 0.09 0.06 0.05 0.04 0.04 0.05 0.05 0.06 0.07 0.08 0.08 0.08 0.10 0.09 0.07 0.06 0.06 0.06 0.05 0.05 0.05 0.05 0.05 0.06 0.06 0.07 0.07 0.07 0.09 0.09 0.08 0.08 0.10 0.14 0.20 0.16 0.13 0.12
0.15 0.08 0.08 0.08 0.08 0.08 0.06 0.05 0.04 0.04 0.03 0.03 0.04 0.05 0.06 0.08 0.08 0.08 0.11 0.11 0.08 0.07 0.07 0.07 0.06 0.06 0.06 0.06 0.06 0.06 0.07 0.08 0.10 0.09 0.10 0.11 0.11 0.09 0.10 0.12 0.22 0.23 0.18 0.19
0.10 0.06 0.07 0.07 0.06 0.05 0.05 0.04 0.04 0.04 0.03 0.02 0.03 0.04 0.05 0.06 0.07 0.08 0.10 0.11 0.09 0.08 0.07 0.07 0.07 0.07 0.07 0.06 0.06 0.06 0.07 0.08 0.11 0.12 0.12 0.12 0.12 0.12 0.13 0.12 0.14 0.15 0.15 0.18
0.04 0.04 0.05 0.05 0.04 0.04 0.03 0.03 0.03 0.04 0.04 0.03 0.03 0.03 0.05 0.05 0.06 0.06 0.08 0.09 0.09 0.08 0.07 0.07 0.06 0.07 0.07 0.07 0.06 0.06 0.05 0.07 0.09 0.12 0.13 0.12 0.11 0.12 0.13 0.13 0.12 0.12 0.13 0.14
0.03 0.04 0.04 0.03 0.03 0.03 0.03 0.03 0.03 0.04 0.04 0.04 0.04 0.03 0.04 0.05 0.05 0.05 0.07 0.08 0.09 0.07 0.06 0.06 0.06 0.07 0.08 0.07 0.07 0.07 0.05 0.07 0.09 0.11 0.14 0.13 0.12 0.12 0.14 0.15 0.14 0.11 0.11 0.12
0.03 0.04 0.05 0.03 0.03 0.03 0.02 0.03 0.04 0.04 0.05 0.05 0.04 0.03 0.03 0.04 0.04 0.05 0.06 0.08 0.08 0.07 0.06 0.06 0.07 0.08 0.09 0.08 0.08 0.08 0.07 0.07 0.08 0.11 0.14 0.15 0.14 0.14 0.15 0.16 0.14 0.12 0.11 0.12
0.04 0.05 0.06 0.05 0.04 0.03 0.03 0.03 0.03 0.04 0.04 0.04 0.04 0.03 0.03 0.04 0.04 0.06 0.07 0.08 0.08 0.07 0.06 0.06 0.07 0.09 0.11 0.10 0.09 0.09 0.09 0.10 0.10 0.11 0.14 0.16 0.17 0.19 0.20 0.20 0.19 0.17 0.16 0.16
0.08 0.08 0.08 0.07 0.06 0.04 0.04 0.03 0.02 0.03 0.03 0.04 0.04 0.03 0.03 0.03 0.04 0.05 0.06 0.07 0.07 0.06 0.06 0.06 0.07 0.09 0.12 0.12 0.10 0.10 0.10 0.10 0.13 0.14 0.15 0.17 0.20 0.23 0.24 0.26 0.26 0.22 0.17 0.18
0.10 0.09 0.07 0.07 0.06 0.05 0.04 0.03 0.02 0.03 0.03 0.03 0.03 0.03 0.03 0.04 0.05 0.06 0.06 0.07 0.08 0.08 0.08 0.07 0.07 0.08 0.12 0.13 0.11 0.10 0.11 0.10 0.12 0.15 0.18 0.20 0.24 0.26 0.29 0.30 0.28 0.26 0.23 0.20
0.07 0.07 0.06 0.06 0.06 0.05 0.05 0.05 0.03 0.03 0.03 0.02 0.03 0.03 0.03 0.04 0.05 0.05 0.06 0.07 0.07 0.08 0.09 0.08 0.09 0.09 0.11 0.14 0.13 0.10 0.12 0.14 0.16 0.17 0.20 0.26 0.28 0.27 0.28 0.30 0.30 0.29 0.28 0.26
0.06 0.06 0.05 0.05 0.05 0.05 0.06 0.06 0.04 0.03 0.03 0.03 0.03 0.03 0.03 0.04 0.05 0.05 0.06 0.06 0.07 0.08 0.08 0.08 0.09 0.09 0.11 0.14 0.15 0.12 0.15 0.20 0.22 0.22 0.23 0.27 0.29 0.30 0.29 0.31 0.32 0.31 0.29 0.28
0.06 0.06 0.06 0.05 0.06 0.06 0.07 0.07 0.06 0.04 0.03 0.03 0.04 0.04 0.04 0.05 0.06 0.06 0.06 0.06 0.07 0.09 0.09 0.09 0.09 0.10 0.11 0.16 0.19 0.17 0.20 0.23 0.25 0.25 0.28 0.30 0.33 0.33 0.32 0.31 0.32 0.32 0.30 0.29
0.06 0.07 0.07 0.05 0.06 0.08 0.08 0.08 0.07 0.06 0.05 0.05 0.05 0.06 0.07 0.07 0.06 0.07 0.07 0.07 0.07 0.10 0.10 0.09 0.09 0.12 0.16 0.20 0.19 0.19 0.21 0.23 0.25 0.28 0.32 0.35 0.39 0.41 0.37 0.34 0.35 0.34 0.32 0.30
0.07 0.07 0.08 0.08 0.08 0.09 0.08 0.08 0.08 0.08 0.07 0.07 0.08 0.08 0.08 0.09 0.08 0.08 0.09 0.09 0.09 0.11 0.11 0.10 0.11 0.16 0.21 0.21 0.19 0.19 0.21 0.25 0.29 0.33 0.37 0.40 0.42 0.43 0.42 0.39 0.37 0.35 0.35 0.33
0.08 0.07 0.08 0.09 0.11 0.12 0.10 0.09 0.09 0.11 0.11 0.11 0.10 0.09 0.10 0.11 0.11 0.10 0.10 0.13 0.13 0.14 0.13 0.14 0.16 0.18 0.22 0.22 0.22 0.23 0.27 0.32 0.35 0.41 0.46 0.47 0.46 0.45 0.43 0.40 0.37 0.33 0.32 0.32
0.10 0.10 0.10 0.11 0.12 0.14 0.15 0.13 0.12 0.12 0.13 0.14 0.13 0.11 0.11 0.12 0.14 0.14 0.14 0.15 0.15 0.16 0.16 0.19 0.21 0.21 0.22 0.26 0.29 0.32 0.37 0.41 0.47 0.56 0.58 0.54 0.50 0.47 0.41 0.37 0.35 0.34 0.33 0.31
0.14 0.14 0.14 0.14 0.16 0.16 0.16 0.15 0.14 0.13 0.13 0.14 0.15 0.15 0.16 0.16 0.17 0.17 0.18 0.19 0.19 0.20 0.20 0.21 0.22 0.24 0.28 0.34 0.39 0.42 0.46 0.50 0.55 0.55 0.51 0.49 0.47 0.45 0.40 0.36 0.33 0.33 0.31 0.28
0.19 0.18 0.18 0.19 0.20 0.19 0.19 0.19 0.20 0.19 0.17 0.18 0.19 0.19 0.20 0.20 0.22 0.22 0.22 0.23 0.24 0.24 0.24 0.25 0.26 0.30 0.36 0.42 0.47 0.50 0.53 0.54 0.55 0.54 0.51 0.49 0.47 0.43 0.38 0.36 0.34 0.32 0.29 0.25

GEFSNGP_prec_meanprecacc_150.txt.gz
Total_Precipitation_Accumulation
0.22 0.17 0.17 0.20 0.18 0.18 0.29 0.29 0.19 0.07 0.06 0.07 0.07 0.06 0.07 0.08 0.07 0.05 0.04 0.04 0.03 0.03 0.03 0.04 0.03 0.05 0.06 0.05 0.05 0.06 0.12 0.17 0.18 0.18 0.17 0.19 0.23 0.30 0.38 0.35 0.24 0.16 0.13 0.12
0.17 0.13 0.13 0.14 0.11 0.13 0.14 0.12 0.10 0.06 0.06 0.06 0.07 0.07 0.08 0.09 0.09 0.08 0.07 0.05 0.03 0.03 0.03 0.04 0.03 0.03 0.05 0.04 0.04 0.05 0.08 0.12 0.14 0.17 0.18 0.19 0.21 0.21 0.26 0.32 0.30 0.20 0.13 0.12
0.26 0.13 0.23 0.24 0.14 0.12 0.11 0.09 0.11 0.12 0.08 0.06 0.07 0.07 0.10 0.12 0.10 0.08 0.08 0.07 0.04 0.03 0.03 0.04 0.03 0.02 0.03 0.04 0.04 0.05 0.07 0.11 0.12 0.13 0.16 0.18 0.18 0.20 0.22 0.23 0.26 0.25 0.17 0.11
0.41 0.31 0.48 0.20 0.08 0.08 0.09 0.10 0.11 0.10 0.08 0.07 0.08 0.08 0.10 0.14 0.13 0.11 0.09 0.08 0.05 0.04 0.04 0.03 0.03 0.03 0.03 0.04 0.05 0.06 0.07 0.11 0.11 0.10 0.14 0.16 0.18 0.19 0.22 0.21 0.19 0.22 0.21 0.15
0.63 0.49 0.28 0.12 0.10 0.11 0.13 0.16 0.11 0.09 0.08 0.07 0.06 0.07 0.08 0.07 0.09 0.10 0.10 0.08 0.06 0.05 0.04 0.03 0.03 0.04 0.05 0.04 0.06 0.06 0.07 0.10 0.09 0.08 0.10 0.14 0.17 0.18 0.21 0.20 0.18 0.19 0.18 0.16
0.67 0.53 0.24 0.14 0.11 0.09 0.12 0.24 0.12 0.10 0.11 0.09 0.09 0.12 0.09 0.06 0.07 0.08 0.08 0.08 0.07 0.06 0.05 0.05 0.04 0.04 0.05 0.05 0.06 0.06 0.08 0.11 0.08 0.06 0.07 0.09 0.13 0.17 0.20 0.21 0.18 0.17 0.17 0.16
0.54 0.42 0.16 0.13 0.13 0.12 0.23 0.28 0.14 0.11 0.11 0.11 0.12 0.14 0.11 0.10 0.10 0.08 0.07 0.08 0.08 0.08 0.06 0.05 0.04 0.04 0.05 0.05 0.06 0.06 0.09 0.10 0.07 0.06 0.06 0.07 0.10 0.16 0.19 0.20 0.20 0.18 0.16 0.16
0.40 0.40 0.20 0.15 0.19 0.27 0.28 0.15 0.10 0.09 0.09 0.09 0.08 0.08 0.09 0.10 0.10 0.09 0.09 0.08 0.06 0.08 0.07 0.05 0.04 0.04 0.05 0.06 0.07 0.09 0.11 0.09 0.07 0.07 0.07 0.08 0.11 0.15 0.19 0.20 0.21 0.21 0.18 0.17
0.29 0.20 0.14 0.14 0.21 0.22 0.16 0.10 0.07 0.07 0.07 0.07 0.07 0.08 0.09 0.11 0.11 0.11 0.12 0.10 0.08 0.07 0.07 0.05 0.05 0.05 0.06 0.07 0.08 0.11 0.11 0.09 0.08 0.09 0.10 0.10 0.12 0.16 0.18 0.22 0.23 0.23 0.21 0.18
0.18 0.10 0.09 0.11 0.13 0.14 0.10 0.07 0.05 0.05 0.05 0.06 0.07 0.08 0.10 0.10 0.11 0.11 0.13 0.12 0.09 0.08 0.07 0.07 0.06 0.07 0.08 0.09 0.10 0.11 0.10 0.10 0.09 0.11 0.13 0.13 0.14 0.16 0.17 0.23 0.31 0.26 0.22 0.19
0.16 0.08 0.08 0.08 0.08 0.08 0.06 0.05 0.04 0.04 0.04 0.05 0.06 0.08 0.10 0.11 0.11 0.12 0.15 0.14 0.11 0.09 0.08 0.09 0.09 0.10 0.13 0.12 0.10 0.10 0.10 0.11 0.13 0.14 0.16 0.18 0.17 0.16 0.17 0.18 0.31 0.30 0.25 0.25
0.11 0.06 0.07 0.07 0.06 0.05 0.05 0.04 0.04 0.04 0.04 0.04 0.06 0.09 0.09 0.10 0.10 0.11 0.13 0.14 0.12 0.10 0.10 0.11 0.12 0.15 0.15 0.11 0.10 0.09 0.10 0.12 0.16 0.18 0.19 0.19 0.18 0.18 0.21 0.19 0.23 0.24 0.23 0.25
0.04 0.04 0.05 0.05 0.05 0.04 0.03 0.03 0.03 0.04 0.04 0.04 0.05 0.08 0.11 0.11 0.10 0.10 0.12 0.14 0.14 0.13 0.12 0.12 0.15 0.16 0.14 0.11 0.10 0.10 0.10 0.12 0.16 0.19 0.19 0.19 0.18 0.18 0.20 0.21 0.22 0.23 0.24 0.24
0.03 0.04 0.04 0.03 0.03 0.03 0.03 0.03 0.03 0.04 0.05 0.05 0.05 0.06 0.10 0.10 0.09 0.09 0.11 0.13 0.14 0.14 0.12 0.12 0.15 0.15 0.14 0.13 0.11 0.11 0.11 0.15 0.16 0.18 0.20 0.21 0.20 0.19 0.19 0.22 0.24 0.24 0.25 0.26
0.03 0.04 0.05 0.03 0.03 0.03 0.02 0.03 0.04 0.04 0.05 0.05 0.05 0.05 0.06 0.08 0.08 0.09 0.11 0.13 0.15 0.14 0.13 0.13 0.14 0.16 0.16 0.13 0.12 0.12 0.13 0.15 0.16 0.18 0.21 0.24 0.23 0.23 0.22 0.22 0.23 0.22 0.23 0.28
0.04 0.05 0.06 0.05 0.04 0.03 0.03 0.03 0.04 0.04 0.04 0.04 0.05 0.04 0.04 0.06 0.08 0.10 0.12 0.13 0.14 0.13 0.12 0.13 0.15 0.18 0.18 0.14 0.13 0.14 0.14 0.18 0.18 0.19 0.23 0.25 0.25 0.27 0.28 0.28 0.27 0.26 0.25 0.27
0.08 0.08 0.08 0.07 0.06 0.04 0.04 0.03 0.03 0.03 0.04 0.04 0.04 0.04 0.04 0.06 0.07 0.09 0.10 0.12 0.13 0.12 0.11 0.11 0.14 0.16 0.19 0.18 0.15 0.15 0.16 0.17 0.21 0.22 0.23 0.25 0.29 0.31 0.33 0.35 0.34 0.30 0.25 0.26
0.10 0.09 0.07 0.07 0.06 0.05 0.04 0.03 0.02 0.03 0.03 0.03 0.03 0.04 0.04 0.06 0.07 0.09 0.10 0.11 0.12 0.13 0.13 0.13 0.14 0.16 0.19 0.22 0.18 0.16 0.16 0.17 0.19 0.22 0.26 0.30 0.33 0.35 0.38 0.39 0.37 0.35 0.31 0.29
0.07 0.07 0.06 0.06 0.06 0.05 0.05 0.05 0.04 0.03 0.03 0.03 0.03 0.04 0.04 0.06 0.07 0.08 0.10 0.11 0.11 0.13 0.14 0.15 0.19 0.18 0.19 0.23 0.23 0.18 0.18 0.20 0.24 0.25 0.28 0.37 0.38 0.36 0.37 0.40 0.40 0.39 0.38 0.36
0.06 0.06 0.05 0.05 0.05 0.05 0.06 0.06 0.05 0.04 0.03 0.03 0.04 0.04 0.04 0.05 0.07 0.08 0.09 0.10 0.11 0.13 0.15 0.18 0.19 0.19 0.19 0.24 0.27 0.21 0.23 0.27 0.29 0.29 0.31 0.36 0.40 0.40 0.39 0.40 0.41 0.41 0.40 0.39
0.06 0.06 0.06 0.05 0.06 0.06 0.07 0.08 0.06 0.05 0.04 0.04 0.05 0.05 0.06 0.07 0.08 0.09 0.09 0.10 0.11 0.13 0.16 0.18 0.19 0.18 0.19 0.26 0.32 0.27 0.28 0.30 0.32 0.32 0.34 0.37 0.41 0.42 0.41 0.41 0.42 0.42 0.41 0.40
0.06 0.07 0.07 0.05 0.06 0.08 0.08 0.08 0.08 0.07 0.06 0.05 0.06 0.07 0.08 0.09 0.09 0.10 0.10 0.10 0.11 0.15 0.16 0.16 0.16 0.19 0.24 0.30 0.30 0.28 0.28 0.30 0.32 0.34 0.37 0.40 0.45 0.48 0.45 0.42 0.45 0.44 0.42 0.41
0.07 0.07 0.08 0.08 0.09 0.09 0.09 0.08 0.08 0.09 0.08 0.08 0.08 0.09 0.11 0.12 0.11 0.12 0.13 0.13 0.14 0.17 0.17 0.17 0.18 0.23 0.30 0.29 0.28 0.29 0.29 0.31 0.33 0.38 0.41 0.44 0.47 0.49 0.48 0.46 0.45 0.44 0.44 0.42
0.08 0.07 0.08 0.09 0.11 0.12 0.11 0.09 0.10 0.11 0.12 0.12 0.11 0.10 0.12 0.13 0.13 0.13 0.14 0.18 0.19 0.21 0.20 0.22 0.23 0.26 0.31 0.29 0.29 0.31 0.34 0.37 0.40 0.45 0.49 0.51 0.51 0.51 0.49 0.46 0.44 0.41 0.40 0.40
0.10 0.10 0.10 0.11 0.13 0.15 0.15 0.13 0.12 0.13 0.13 0.14 0.14 0.12 0.13 0.15 0.17 0.16 0.18 0.21 0.22 0.23 0.23 0.26 0.28 0.30 0.31 0.33 0.36 0.38 0.43 0.46 0.51 0.59 0.61 0.58 0.55 0.53 0.48 0.42 0.41 0.40 0.38 0.37
0.14 0.14 0.14 0.14 0.16 0.17 0.16 0.16 0.15 0.14 0.13 0.15 0.16 0.16 0.17 0.19 0.20 0.20 0.21 0.23 0.25 0.27 0.27 0.27 0.28 0.32 0.35 0.41 0.45 0.48 0.52 0.56 0.59 0.59 0.55 0.53 0.52 0.50 0.45 0.40 0.38 0.38 0.36 0.33
0.19 0.19 0.19 0.20 0.20 0.20 0.20 0.20 0.21 0.20 0.18 0.19 0.21 0.21 0.21 0.23 0.25 0.26 0.26 0.27 0.29 0.30 0.30 0.30 0.32 0.37 0.43 0.49 0.54 0.57 0.59 0.60 0.61 0.60 0.56 0.54 0.52 0.48 0.43 0.40 0.38 0.36 0.34 0.30

GEFSNGP_prec_meanprecacc_156.txt.gz
Total_Precipitation_Accumulation
0.22 0.17 0.17 0.20 0.18 0.19 0.30 0.30 0.20 0.08 0.07 0.07 0.07 0.06 0.07 0.08 0.07 0.06 0.05 0.06 0.09 0.08 0.06 0.08 0.11 0.16 0.18 0.15 0.13 0.13 0.19 0.26 0.27 0.28 0.28 0.31 0.35 0.45 0.55 0.53 0.41 0.34 0.30 0.29
0.18 0.13 0.13 0.14 0.11 0.13 0.14 0.12 0.10 0.07 0.06 0.06 0.07 0.07 0.08 0.10 0.09 0.09 0.08 0.07 0.08 0.08 0.06 0.08 0.10 0.14 0.18 0.15 0.13 0.11 0.15 0.18 0.21 0.26 0.29 0.32 0.33 0.34 0.40 0.48 0.47 0.38 0.31 0.28
0.27 0.13 0.23 0.24 0.14 0.13 0.11 0.09 0.11 0.12 0.08 0.06 0.07 0.07 0.10 0.13 0.12 0.11 0.10 0.08 0.08 0.08 0.08 0.08 0.10 0.13 0.16 0.13 0.11 0.10 0.12 0.15 0.17 0.19 0.26 0.30 0.32 0.32 0.34 0.36 0.40 0.41 0.33 0.27
0.44 0.32 0.49 0.20 0.08 0.08 0.09 0.10 0.11 0.10 0.08 0.07 0.08 0.08 0.10 0.14 0.15 0.13 0.11 0.09 0.08 0.07 0.08 0.07 0.10 0.12 0.14 0.11 0.09 0.10 0.11 0.15 0.16 0.15 0.20 0.27 0.32 0.31 0.32 0.31 0.31 0.36 0.35 0.28
0.67 0.50 0.28 0.12 0.10 0.11 0.13 0.16 0.11 0.09 0.08 0.07 0.07 0.07 0.08 0.07 0.10 0.12 0.11 0.10 0.08 0.07 0.07 0.08 0.10 0.11 0.14 0.12 0.09 0.10 0.12 0.15 0.15 0.13 0.14 0.22 0.29 0.32 0.33 0.31 0.28 0.30 0.32 0.30
0.71 0.56 0.25 0.14 0.11 0.09 0.12 0.24 0.12 0.10 0.11 0.10 0.09 0.13 0.10 0.06 0.09 0.11 0.10 0.09 0.08 0.08 0.07 0.09 0.11 0.10 0.12 0.12 0.10 0.10 0.13 0.16 0.14 0.11 0.11 0.13 0.21 0.30 0.34 0.33 0.29 0.27 0.29 0.29
0.57 0.45 0.17 0.13 0.13 0.13 0.23 0.28 0.14 0.11 0.12 0.12 0.13 0.15 0.12 0.11 0.12 0.12 0.09 0.08 0.09 0.09 0.08 0.10 0.11 0.09 0.11 0.12 0.10 0.10 0.15 0.17 0.11 0.09 0.10 0.10 0.15 0.26 0.32 0.34 0.32 0.28 0.25 0.26
0.41 0.44 0.21 0.15 0.19 0.27 0.28 0.16 0.10 0.09 0.09 0.09 0.09 0.08 0.09 0.11 0.14 0.14 0.10 0.08 0.06 0.09 0.09 0.09 0.10 0.09 0.11 0.13 0.12 0.14 0.17 0.14 0.11 0.10 0.09 0.11 0.14 0.23 0.32 0.32 0.33 0.31 0.27 0.25
0.29 0.20 0.14 0.14 0.21 0.22 0.16 0.10 0.07 0.07 0.07 0.07 0.07 0.08 0.10 0.12 0.14 0.16 0.13 0.10 0.08 0.08 0.08 0.09 0.10 0.10 0.13 0.16 0.16 0.18 0.16 0.15 0.12 0.11 0.11 0.12 0.15 0.22 0.29 0.34 0.33 0.33 0.30 0.25
0.18 0.10 0.09 0.11 0.14 0.14 0.10 0.07 0.05 0.05 0.06 0.07 0.07 0.09 0.11 0.12 0.12 0.15 0.15 0.12 0.10 0.09 0.09 0.11 0.11 0.11 0.16 0.19 0.18 0.17 0.15 0.15 0.13 0.14 0.16 0.16 0.17 0.21 0.25 0.33 0.40 0.34 0.30 0.27
0.16 0.08 0.08 0.08 0.08 0.08 0.06 0.05 0.04 0.04 0.04 0.05 0.07 0.09 0.11 0.12 0.12 0.14 0.17 0.16 0.12 0.11 0.10 0.12 0.14 0.16 0.20 0.19 0.17 0.16 0.15 0.16 0.19 0.19 0.21 0.23 0.22 0.21 0.23 0.24 0.37 0.37 0.30 0.32
0.11 0.06 0.07 0.07 0.06 0.05 0.05 0.04 0.04 0.04 0.04 0.04 0.06 0.10 0.10 0.11 0.12 0.13 0.16 0.17 0.14 0.13 0.13 0.15 0.18 0.23 0.24 0.18 0.15 0.14 0.16 0.18 0.22 0.24 0.25 0.25 0.23 0.23 0.26 0.26 0.31 0.32 0.30 0.31
0.04 0.04 0.05 0.05 0.05 0.04 0.03 0.03 0.03 0.04 0.05 0.04 0.05 0.09 0.12 0.11 0.11 0.12 0.15 0.17 0.18 0.17 0.16 0.18 0.22 0.25 0.22 0.17 0.13 0.13 0.16 0.18 0.21 0.25 0.24 0.22 0.21 0.21 0.24 0.30 0.35 0.35 0.33 0.32
0.03 0.04 0.04 0.03 0.03 0.03 0.03 0.03 0.03 0.04 0.05 0.05 0.06 0.08 0.11 0.11 0.10 0.11 0.14 0.16 0.18 0.18 0.16 0.18 0.21 0.23 0.22 0.17 0.15 0.16 0.18 0.20 0.21 0.22 0.24 0.24 0.23 0.21 0.22 0.26 0.32 0.34 0.36 0.35
0.03 0.04 0.05 0.03 0.03 0.03 0.02 0.03 0.04 0.04 0.05 0.05 0.06 0.06 0.08 0.10 0.11 0.12 0.14 0.17 0.20 0.19 0.17 0.19 0.23 0.26 0.24 0.18 0.16 0.18 0.22 0.21 0.19 0.21 0.24 0.27 0.26 0.26 0.25 0.27 0.28 0.28 0.33 0.40
0.04 0.05 0.06 0.05 0.04 0.03 0.03 0.03 0.04 0.04 0.04 0.05 0.06 0.06 0.06 0.08 0.10 0.13 0.14 0.17 0.19 0.20 0.20 0.22 0.26 0.30 0.27 0.20 0.19 0.20 0.24 0.26 0.22 0.23 0.26 0.28 0.29 0.31 0.32 0.32 0.33 0.32 0.34 0.39
0.08 0.08 0.08 0.07 0.06 0.04 0.04 0.03 0.03 0.03 0.04 0.05 0.05 0.05 0.05 0.07 0.09 0.11 0.13 0.15 0.16 0.17 0.18 0.20 0.24 0.28 0.28 0.25 0.22 0.23 0.25 0.26 0.28 0.26 0.27 0.29 0.33 0.35 0.37 0.39 0.40 0.37 0.33 0.36
0.10 0.09 0.07 0.07 0.06 0.05 0.04 0.03 0.02 0.03 0.03 0.04 0.04 0.05 0.05 0.07 0.09 0.11 0.13 0.14 0.15 0.18 0.20 0.20 0.24 0.27 0.29 0.31 0.26 0.24 0.25 0.25 0.25 0.27 0.30 0.34 0.38 0.39 0.42 0.44 0.41 0.40 0.39 0.40
0.07 0.07 0.06 0.06 0.06 0.05 0.05 0.05 0.04 0.03 0.03 0.03 0.04 0.05 0.05 0.07 0.09 0.10 0.13 0.13 0.15 0.17 0.20 0.22 0.28 0.28 0.30 0.33 0.32 0.27 0.26 0.27 0.30 0.30 0.33 0.43 0.45 0.42 0.43 0.45 0.45 0.45 0.45 0.45
0.06 0.06 0.05 0.05 0.05 0.05 0.06 0.06 0.05 0.04 0.03 0.03 0.05 0.05 0.05 0.07 0.08 0.09 0.11 0.12 0.14 0.17 0.20 0.24 0.26 0.27 0.28 0.34 0.37 0.31 0.33 0.36 0.36 0.35 0.36 0.42 0.47 0.48 0.48 0.47 0.48 0.48 0.47 0.46
0.06 0.06 0.06 0.05 0.06 0.06 0.07 0.08 0.06 0.05 0.04 0.04 0.05 0.06 0.07 0.08 0.09 0.11 0.11 0.12 0.13 0.17 0.20 0.24 0.25 0.25 0.26 0.35 0.42 0.37 0.37 0.39 0.40 0.40 0.41 0.43 0.48 0.51 0.51 0.50 0.50 0.49 0.48 0.47
0.06 0.07 0.07 0.05 0.06 0.08 0.08 0.08 0.08 0.07 0.06 0.06 0.06 0.08 0.10 0.11 0.10 0.12 0.12 0.13 0.14 0.19 0.20 0.20 0.21 0.26 0.31 0.39 0.40 0.38 0.36 0.38 0.40 0.42 0.44 0.46 0.51 0.55 0.53 0.51 0.53 0.51 0.48 0.47
0.07 0.07 0.08 0.08 0.09 0.10 0.09 0.08 0.09 0.09 0.08 0.09 0.09 0.10 0.12 0.13 0.13 0.14 0.15 0.15 0.17 0.21 0.21 0.21 0.23 0.30 0.39 0.38 0.37 0.38 0.38 0.39 0.41 0.44 0.48 0.50 0.52 0.55 0.55 0.54 0.53 0.51 0.50 0.49
0.08 0.07 0.09 0.09 0.11 0.12 0.11 0.10 0.10 0.11 0.12 0.12 0.11 0.11 0.13 0.14 0.15 0.14 0.17 0.21 0.23 0.25 0.24 0.27 0.31 0.35 0.41 0.37 0.37 0.40 0.43 0.46 0.47 0.51 0.54 0.56 0.56 0.57 0.55 0.53 0.52 0.48 0.46 0.46
0.11 0.10 0.10 0.11 0.13 0.15 0.15 0.13 0.12 0.13 0.14 0.15 0.14 0.13 0.14 0.17 0.19 0.18 0.20 0.23 0.26 0.28 0.28 0.32 0.36 0.39 0.40 0.41 0.43 0.46 0.51 0.54 0.58 0.65 0.67 0.63 0.60 0.59 0.53 0.48 0.47 0.47 0.45 0.43
0.14 0.14 0.14 0.14 0.16 0.17 0.17 0.16 0.15 0.14 0.14 0.15 0.16 0.17 0.18 0.20 0.22 0.23 0.24 0.27 0.28 0.32 0.32 0.33 0.36 0.40 0.43 0.48 0.52 0.55 0.60 0.64 0.67 0.66 0.61 0.59 0.57 0.56 0.51 0.46 0.45 0.44 0.43 0.39
0.20 0.19 0.19 0.20 0.20 0.20 0.20 0.20 0.21 0.21 0.19 0.20 0.22 0.22 0.23 0.24 0.26 0.28 0.29 0.31 0.33 0.34 0.35 0.36 0.39 0.44 0.51 0.56 0.60 0.63 0.66 0.67 0.68 0.66 0.62 0.60 0.58 0.53 0.49 0.46 0.45 0.43 0.40 0.36

GEFSNGP_prec_meanprecacc_162.txt.gz
Total_Precipitation_Accumulation
0.22 0.17 0.17 0.20 0.18 0.19 0.30 0.31 0.21 0.08 0.07 0.07 0.07 0.06 0.07 0.08 0.08 0.07 0.06 0.07 0.12 0.13 0.12 0.15 0.20 0.28 0.28 0.25 0.25 0.23 0.29 0.35 0.38 0.37 0.39 0.41 0.44 0.55 0.68 0.66 0.56 0.49 0.46 0.46
0.18 0.13 0.13 0.14 0.11 0.13 0.14 0.12 0.10 0.07 0.06 0.06 0.08 0.07 0.08 0.10 0.10 0.10 0.09 0.09 0.10 0.13 0.11 0.14 0.19 0.26 0.30 0.25 0.24 0.21 0.25 0.28 0.31 0.36 0.41 0.45 0.46 0.49 0.54 0.61 0.59 0.51 0.47 0.46
0.29 0.13 0.23 0.25 0.14 0.13 0.11 0.09 0.11 0.12 0.08 0.06 0.07 0.07 0.10 0.13 0.14 0.13 0.11 0.10 0.10 0.12 0.13 0.13 0.15 0.22 0.27 0.23 0.22 0.19 0.21 0.26 0.27 0.29 0.37 0.42 0.46 0.50 0.49 0.50 0.54 0.55 0.48 0.43
0.46 0.33 0.50 0.21 0.08 0.08 0.09 0.10 0.11 0.10 0.08 0.07 0.08 0.08 0.10 0.14 0.17 0.15 0.12 0.11 0.10 0.11 0.13 0.12 0.14 0.18 0.22 0.20 0.18 0.18 0.20 0.25 0.27 0.25 0.28 0.36 0.43 0.45 0.47 0.46 0.44 0.48 0.49 0.43
0.71 0.52 0.28 0.12 0.10 0.11 0.13 0.16 0.11 0.09 0.08 0.07 0.07 0.07 0.08 0.07 0.10 0.14 0.13 0.11 0.09 0.10 0.10 0.11 0.14 0.17 0.21 0.19 0.16 0.18 0.22 0.25 0.24 0.21 0.22 0.28 0.37 0.44 0.46 0.47 0.40 0.40 0.44 0.44
0.75 0.58 0.25 0.14 0.11 0.09 0.12 0.24 0.12 0.10 0.11 0.10 0.10 0.15 0.11 0.07 0.10 0.15 0.10 0.09 0.09 0.09 0.09 0.11 0.14 0.15 0.19 0.20 0.15 0.16 0.20 0.25 0.22 0.18 0.16 0.18 0.26 0.38 0.43 0.45 0.42 0.39 0.41 0.42
0.60 0.48 0.17 0.13 0.13 0.13 0.23 0.29 0.14 0.11 0.12 0.12 0.13 0.17 0.14 0.11 0.15 0.15 0.09 0.08 0.09 0.10 0.09 0.11 0.13 0.13 0.17 0.20 0.16 0.16 0.22 0.24 0.18 0.14 0.14 0.15 0.20 0.33 0.41 0.46 0.48 0.43 0.39 0.38
0.43 0.47 0.22 0.15 0.19 0.27 0.28 0.16 0.10 0.09 0.09 0.09 0.09 0.08 0.09 0.12 0.16 0.16 0.11 0.08 0.07 0.09 0.09 0.11 0.13 0.13 0.18 0.21 0.19 0.20 0.23 0.19 0.16 0.14 0.14 0.16 0.20 0.30 0.41 0.46 0.49 0.46 0.40 0.36
0.29 0.21 0.14 0.14 0.21 0.22 0.16 0.10 0.07 0.07 0.07 0.07 0.08 0.09 0.11 0.13 0.16 0.17 0.13 0.11 0.09 0.09 0.10 0.12 0.14 0.14 0.19 0.22 0.21 0.23 0.22 0.19 0.16 0.16 0.17 0.17 0.23 0.32 0.40 0.46 0.46 0.45 0.40 0.36
0.19 0.10 0.09 0.11 0.14 0.14 0.10 0.07 0.05 0.05 0.06 0.07 0.08 0.09 0.12 0.13 0.14 0.16 0.16 0.14 0.12 0.11 0.12 0.16 0.16 0.15 0.19 0.23 0.22 0.20 0.19 0.20 0.19 0.20 0.23 0.24 0.26 0.31 0.36 0.43 0.49 0.43 0.38 0.35
0.16 0.08 0.08 0.08 0.08 0.08 0.06 0.05 0.04 0.04 0.04 0.06 0.08 0.10 0.12 0.14 0.14 0.15 0.19 0.17 0.14 0.13 0.14 0.18 0.19 0.20 0.23 0.22 0.20 0.19 0.18 0.21 0.26 0.27 0.29 0.33 0.32 0.31 0.33 0.34 0.46 0.44 0.36 0.37
0.11 0.06 0.08 0.07 0.06 0.05 0.05 0.04 0.04 0.04 0.04 0.04 0.07 0.11 0.11 0.12 0.13 0.15 0.18 0.20 0.16 0.15 0.17 0.21 0.23 0.28 0.28 0.21 0.17 0.19 0.22 0.24 0.28 0.32 0.32 0.33 0.31 0.31 0.34 0.33 0.38 0.37 0.34 0.36
0.04 0.04 0.05 0.05 0.05 0.04 0.03 0.03 0.03 0.04 0.05 0.05 0.06 0.10 0.13 0.13 0.12 0.14 0.17 0.19 0.21 0.20 0.22 0.24 0.27 0.30 0.27 0.20 0.17 0.18 0.22 0.24 0.27 0.31 0.30 0.27 0.25 0.25 0.29 0.36 0.43 0.41 0.39 0.36
0.03 0.04 0.04 0.03 0.03 0.03 0.03 0.03 0.03 0.04 0.05 0.06 0.07 0.09 0.12 0.13 0.12 0.13 0.16 0.20 0.22 0.21 0.22 0.24 0.27 0.29 0.28 0.22 0.20 0.20 0.23 0.25 0.26 0.28 0.28 0.27 0.26 0.24 0.25 0.30 0.38 0.41 0.44 0.42
0.03 0.04 0.05 0.03 0.03 0.03 0.02 0.03 0.04 0.04 0.05 0.06 0.06 0.07 0.09 0.12 0.12 0.13 0.17 0.20 0.23 0.23 0.22 0.25 0.28 0.33 0.31 0.24 0.22 0.22 0.26 0.25 0.23 0.25 0.28 0.30 0.30 0.29 0.28 0.30 0.32 0.34 0.40 0.48
0.04 0.05 0.06 0.05 0.04 0.03 0.03 0.03 0.04 0.04 0.05 0.06 0.06 0.06 0.07 0.10 0.12 0.15 0.17 0.20 0.22 0.24 0.24 0.27 0.31 0.35 0.32 0.26 0.25 0.24 0.27 0.30 0.26 0.26 0.30 0.33 0.33 0.35 0.35 0.36 0.38 0.38 0.39 0.44
0.08 0.08 0.08 0.07 0.06 0.04 0.04 0.03 0.03 0.04 0.04 0.05 0.06 0.06 0.06 0.08 0.10 0.13 0.16 0.19 0.20 0.21 0.22 0.24 0.28 0.33 0.33 0.31 0.28 0.27 0.29 0.32 0.34 0.30 0.31 0.33 0.36 0.39 0.40 0.42 0.44 0.43 0.37 0.41
0.10 0.10 0.08 0.07 0.06 0.05 0.04 0.03 0.02 0.03 0.04 0.05 0.05 0.06 0.06 0.08 0.10 0.13 0.16 0.17 0.18 0.21 0.24 0.24 0.28 0.32 0.34 0.36 0.32 0.30 0.31 0.32 0.32 0.31 0.33 0.37 0.41 0.42 0.44 0.46 0.45 0.46 0.44 0.47
0.07 0.08 0.06 0.06 0.06 0.05 0.05 0.05 0.04 0.04 0.04 0.04 0.05 0.06 0.06 0.08 0.10 0.13 0.16 0.16 0.18 0.21 0.25 0.27 0.33 0.33 0.35 0.39 0.38 0.33 0.33 0.34 0.36 0.34 0.35 0.45 0.48 0.44 0.45 0.48 0.49 0.49 0.50 0.51
0.06 0.06 0.05 0.05 0.05 0.05 0.06 0.06 0.05 0.04 0.04 0.04 0.06 0.06 0.06 0.08 0.10 0.12 0.14 0.15 0.18 0.21 0.25 0.29 0.31 0.32 0.34 0.40 0.43 0.37 0.39 0.41 0.41 0.39 0.39 0.45 0.49 0.50 0.50 0.51 0.52 0.53 0.52 0.52
0.06 0.06 0.06 0.05 0.06 0.06 0.07 0.08 0.06 0.05 0.05 0.05 0.07 0.08 0.08 0.10 0.12 0.13 0.14 0.15 0.16 0.21 0.24 0.29 0.29 0.29 0.30 0.40 0.47 0.42 0.42 0.42 0.44 0.43 0.44 0.46 0.51 0.54 0.55 0.54 0.55 0.54 0.53 0.53
0.06 0.07 0.07 0.05 0.06 0.08 0.08 0.08 0.08 0.07 0.06 0.06 0.07 0.09 0.11 0.12 0.12 0.14 0.15 0.15 0.17 0.23 0.25 0.25 0.25 0.29 0.35 0.42 0.44 0.42 0.41 0.41 0.43 0.46 0.48 0.49 0.54 0.59 0.57 0.55 0.59 0.57 0.54 0.53
0.07 0.07 0.08 0.08 0.09 0.10 0.09 0.08 0.09 0.10 0.09 0.09 0.09 0.11 0.13 0.15 0.15 0.16 0.17 0.18 0.21 0.26 0.26 0.25 0.28 0.35 0.43 0.41 0.40 0.42 0.42 0.43 0.44 0.48 0.51 0.53 0.55 0.58 0.58 0.58 0.59 0.58 0.58 0.56
0.08 0.08 0.09 0.10 0.11 0.13 0.11 0.10 0.10 0.12 0.13 0.13 0.12 0.13 0.14 0.16 0.16 0.16 0.18 0.24 0.27 0.29 0.28 0.31 0.35 0.39 0.45 0.41 0.41 0.44 0.47 0.49 0.50 0.54 0.58 0.59 0.60 0.61 0.59 0.57 0.58 0.56 0.54 0.53
0.11 0.10 0.10 0.11 0.13 0.15 0.15 0.14 0.13 0.14 0.14 0.15 0.15 0.14 0.16 0.18 0.21 0.20 0.22 0.26 0.29 0.31 0.32 0.36 0.41 0.43 0.44 0.45 0.47 0.50 0.55 0.58 0.61 0.69 0.70 0.66 0.63 0.62 0.58 0.53 0.54 0.55 0.54 0.51
0.15 0.15 0.15 0.15 0.17 0.18 0.17 0.17 0.16 0.15 0.14 0.16 0.17 0.18 0.20 0.22 0.24 0.25 0.27 0.29 0.31 0.35 0.35 0.36 0.40 0.45 0.47 0.52 0.56 0.59 0.64 0.68 0.70 0.69 0.65 0.62 0.61 0.60 0.56 0.52 0.51 0.52 0.52 0.48
0.20 0.19 0.19 0.20 0.21 0.20 0.20 0.20 0.22 0.21 0.20 0.21 0.23 0.23 0.24 0.26 0.29 0.31 0.32 0.34 0.36 0.37 0.38 0.40 0.43 0.49 0.55 0.59 0.63 0.67 0.69 0.70 0.71 0.69 0.65 0.63 0.62 0.58 0.54 0.52 0.51 0.50 0.49 0.44

GEFSNGP_prec_meanprecacc_168.txt.gz
Total_Precipitation_Accumulation
0.23 0.17 0.17 0.20 0.19 0.19 0.31 0.31 0.22 0.09 0.07 0.07 0.07 0.07 0.07 0.09 0.09 0.08 0.07 0.09 0.14 0.16 0.14 0.19 0.25 0.34 0.34 0.28 0.29 0.29 0.34 0.42 0.43 0.44 0.47 0.50 0.53 0.65 0.77 0.74 0.62 0.56 0.54 0.55
0.19 0.13 0.13 0.14 0.12 0.13 0.14 0.12 0.10 0.07 0.06 0.07 0.08 0.08 0.08 0.11 0.11 0.11 0.10 0.10 0.12 0.15 0.14 0.17 0.23 0.32 0.37 0.30 0.28 0.25 0.29 0.34 0.37 0.43 0.50 0.53 0.52 0.58 0.64 0.70 0.68 0.61 0.57 0.54
0.30 0.13 0.24 0.25 0.14 0.13 0.12 0.10 0.12 0.13 0.09 0.07 0.08 0.07 0.10 0.14 0.14 0.14 0.13 0.12 0.12 0.14 0.15 0.17 0.20 0.28 0.34 0.32 0.29 0.26 0.27 0.32 0.34 0.35 0.45 0.50 0.53 0.59 0.60 0.62 0.68 0.68 0.58 0.50
0.49 0.34 0.51 0.21 0.08 0.08 0.10 0.11 0.12 0.11 0.08 0.07 0.08 0.08 0.10 0.15 0.17 0.16 0.14 0.13 0.12 0.14 0.15 0.15 0.19 0.23 0.28 0.29 0.28 0.27 0.28 0.33 0.35 0.33 0.37 0.44 0.53 0.55 0.56 0.58 0.57 0.59 0.58 0.52
0.77 0.55 0.29 0.12 0.10 0.11 0.13 0.16 0.11 0.09 0.08 0.07 0.07 0.07 0.08 0.07 0.10 0.15 0.14 0.12 0.12 0.13 0.13 0.15 0.19 0.21 0.27 0.29 0.26 0.27 0.32 0.35 0.34 0.31 0.32 0.38 0.45 0.50 0.53 0.54 0.49 0.49 0.53 0.54
0.83 0.63 0.26 0.14 0.11 0.09 0.12 0.24 0.12 0.10 0.11 0.10 0.10 0.16 0.12 0.07 0.11 0.16 0.11 0.11 0.11 0.12 0.11 0.16 0.20 0.20 0.25 0.26 0.21 0.24 0.29 0.34 0.31 0.27 0.25 0.25 0.32 0.45 0.50 0.52 0.49 0.47 0.50 0.52
0.66 0.52 0.18 0.13 0.13 0.13 0.23 0.29 0.14 0.11 0.12 0.12 0.14 0.18 0.14 0.11 0.15 0.16 0.10 0.10 0.11 0.12 0.12 0.17 0.20 0.18 0.23 0.25 0.21 0.22 0.29 0.32 0.26 0.23 0.23 0.23 0.28 0.40 0.49 0.54 0.56 0.51 0.48 0.47
0.46 0.52 0.24 0.15 0.19 0.27 0.28 0.16 0.10 0.09 0.09 0.09 0.09 0.08 0.09 0.12 0.17 0.17 0.11 0.10 0.08 0.11 0.12 0.16 0.19 0.18 0.24 0.27 0.24 0.25 0.28 0.25 0.22 0.21 0.22 0.23 0.28 0.37 0.49 0.55 0.58 0.54 0.48 0.45
0.30 0.21 0.14 0.14 0.21 0.22 0.16 0.10 0.07 0.07 0.07 0.07 0.08 0.09 0.11 0.14 0.16 0.18 0.14 0.12 0.10 0.10 0.12 0.16 0.18 0.19 0.25 0.29 0.26 0.27 0.26 0.23 0.21 0.21 0.21 0.23 0.29 0.39 0.49 0.54 0.54 0.52 0.48 0.44
0.19 0.10 0.09 0.11 0.14 0.14 0.10 0.07 0.05 0.05 0.06 0.07 0.08 0.10 0.12 0.14 0.15 0.16 0.16 0.15 0.13 0.12 0.14 0.19 0.20 0.20 0.25 0.29 0.26 0.24 0.22 0.24 0.23 0.25 0.28 0.30 0.33 0.39 0.45 0.53 0.58 0.50 0.44 0.43
0.17 0.08 0.09 0.09 0.09 0.09 0.07 0.05 0.04 0.04 0.04 0.06 0.08 0.10 0.12 0.14 0.15 0.16 0.20 0.18 0.16 0.15 0.16 0.22 0.24 0.25 0.28 0.25 0.23 0.23 0.22 0.26 0.30 0.31 0.34 0.37 0.37 0.38 0.41 0.42 0.54 0.51 0.43 0.44
0.12 0.07 0.08 0.08 0.06 0.05 0.05 0.04 0.04 0.04 0.04 0.04 0.07 0.11 0.12 0.13 0.14 0.16 0.19 0.20 0.18 0.17 0.19 0.24 0.27 0.32 0.31 0.23 0.20 0.22 0.26 0.28 0.33 0.36 0.37 0.37 0.35 0.37 0.43 0.44 0.47 0.44 0.40 0.42
0.05 0.05 0.06 0.06 0.05 0.04 0.04 0.03 0.04 0.04 0.05 0.05 0.06 0.11 0.13 0.13 0.13 0.15 0.18 0.21 0.22 0.22 0.24 0.27 0.29 0.34 0.32 0.24 0.20 0.21 0.26 0.28 0.31 0.36 0.35 0.32 0.31 0.31 0.36 0.46 0.53 0.49 0.44 0.41
0.03 0.04 0.05 0.04 0.03 0.04 0.03 0.03 0.03 0.04 0.05 0.07 0.07 0.09 0.12 0.13 0.12 0.13 0.17 0.21 0.24 0.23 0.23 0.26 0.28 0.32 0.32 0.26 0.23 0.22 0.25 0.28 0.29 0.31 0.32 0.32 0.31 0.30 0.31 0.37 0.45 0.48 0.50 0.47
0.03 0.04 0.05 0.03 0.03 0.03 0.03 0.03 0.04 0.04 0.05 0.06 0.07 0.08 0.10 0.12 0.13 0.14 0.18 0.22 0.25 0.24 0.23 0.26 0.30 0.35 0.33 0.27 0.24 0.24 0.28 0.27 0.25 0.28 0.31 0.34 0.34 0.36 0.35 0.36 0.38 0.41 0.47 0.56
0.05 0.05 0.06 0.05 0.04 0.04 0.03 0.03 0.04 0.04 0.05 0.06 0.07 0.07 0.08 0.11 0.13 0.16 0.19 0.21 0.24 0.25 0.26 0.29 0.33 0.37 0.35 0.28 0.26 0.26 0.30 0.34 0.29 0.30 0.33 0.36 0.38 0.40 0.42 0.44 0.46 0.46 0.46 0.51
0.08 0.08 0.08 0.07 0.06 0.04 0.04 0.03 0.03 0.04 0.05 0.05 0.07 0.07 0.06 0.08 0.11 0.15 0.18 0.20 0.21 0.23 0.24 0.27 0.31 0.35 0.35 0.33 0.30 0.29 0.31 0.35 0.38 0.34 0.33 0.36 0.40 0.43 0.45 0.48 0.50 0.49 0.44 0.47
0.10 0.10 0.08 0.08 0.07 0.05 0.04 0.03 0.02 0.03 0.04 0.05 0.06 0.06 0.06 0.08 0.11 0.15 0.18 0.19 0.20 0.23 0.26 0.27 0.31 0.35 0.36 0.38 0.35 0.32 0.33 0.35 0.35 0.34 0.36 0.40 0.44 0.46 0.49 0.51 0.51 0.51 0.51 0.54
0.07 0.08 0.06 0.06 0.06 0.05 0.05 0.05 0.04 0.04 0.04 0.05 0.06 0.07 0.07 0.09 0.12 0.15 0.18 0.18 0.20 0.23 0.27 0.30 0.36 0.36 0.37 0.42 0.41 0.36 0.36 0.37 0.39 0.37 0.38 0.49 0.52 0.48 0.50 0.52 0.54 0.55 0.56 0.58
0.06 0.06 0.05 0.05 0.05 0.05 0.06 0.06 0.05 0.04 0.04 0.05 0.07 0.07 0.06 0.09 0.12 0.14 0.16 0.17 0.20 0.24 0.27 0.31 0.34 0.35 0.36 0.43 0.45 0.40 0.42 0.44 0.44 0.41 0.41 0.48 0.53 0.54 0.54 0.55 0.57 0.58 0.58 0.58
0.06 0.06 0.06 0.05 0.06 0.06 0.07 0.08 0.07 0.05 0.05 0.06 0.08 0.09 0.09 0.11 0.13 0.15 0.16 0.17 0.19 0.23 0.26 0.31 0.32 0.32 0.33 0.43 0.50 0.45 0.45 0.46 0.46 0.45 0.46 0.48 0.53 0.58 0.59 0.58 0.59 0.60 0.60 0.59
0.06 0.07 0.07 0.06 0.06 0.08 0.09 0.09 0.09 0.08 0.07 0.07 0.08 0.10 0.11 0.13 0.13 0.15 0.16 0.17 0.19 0.25 0.27 0.27 0.27 0.32 0.38 0.45 0.46 0.45 0.45 0.45 0.46 0.48 0.50 0.51 0.56 0.61 0.60 0.58 0.62 0.62 0.61 0.60
0.07 0.07 0.08 0.08 0.09 0.10 0.09 0.08 0.09 0.10 0.09 0.10 0.10 0.12 0.14 0.15 0.16 0.18 0.18 0.19 0.23 0.29 0.28 0.28 0.31 0.38 0.46 0.44 0.43 0.45 0.45 0.46 0.47 0.50 0.54 0.56 0.58 0.60 0.61 0.61 0.62 0.63 0.65 0.64
0.09 0.08 0.09 0.10 0.12 0.13 0.11 0.10 0.11 0.13 0.14 0.14 0.14 0.14 0.16 0.17 0.17 0.17 0.20 0.26 0.30 0.33 0.31 0.35 0.39 0.42 0.48 0.44 0.43 0.47 0.50 0.52 0.53 0.57 0.60 0.61 0.62 0.63 0.62 0.61 0.62 0.62 0.62 0.62
0.11 0.10 0.10 0.11 0.13 0.15 0.16 0.14 0.13 0.14 0.15 0.17 0.16 0.15 0.17 0.20 0.22 0.22 0.23 0.28 0.32 0.35 0.35 0.40 0.44 0.46 0.46 0.48 0.49 0.52 0.57 0.59 0.64 0.71 0.72 0.67 0.65 0.65 0.61 0.57 0.60 0.63 0.62 0.60
0.15 0.15 0.15 0.15 0.17 0.18 0.18 0.17 0.16 0.16 0.15 0.17 0.18 0.19 0.21 0.24 0.26 0.26 0.28 0.31 0.34 0.38 0.38 0.39 0.43 0.48 0.50 0.55 0.58 0.61 0.66 0.69 0.72 0.71 0.67 0.64 0.63 0.62 0.59 0.57 0.57 0.60 0.60 0.57
0.20 0.19 0.19 0.20 0.21 0.21 0.21 0.21 0.23 0.22 0.21 0.23 0.25 0.24 0.26 0.28 0.31 0.33 0.35 0.36 0.38 0.39 0.40 0.43 0.47 0.52 0.58 0.62 0.66 0.69 0.71 0.72 0.73 0.72 0.68 0.66 0.65 0.62 0.58 0.57 0.57 0.58 0.56 0.52

GEFSNGP_prec_meanprecacc_174.txt.gz
Total_Precipitation_Accumulation
0.23 0.17 0.17 0.20 0.19 0.20 0.32 0.32 0.24 0.11 0.09 0.09 0.09 0.08 0.09 0.11 0.11 0.11 0.10 0.13 0.19 0.21 0.19 0.24 0.30 0.38 0.39 0.34 0.35 0.34 0.38 0.45 0.48 0.49 0.55 0.59 0.61 0.75 0.86 0.82 0.70 0.63 0.60 0.60
0.19 0.13 0.13 0.14 0.12 0.13 0.15 0.14 0.12 0.08 0.08 0.09 0.10 0.09 0.10 0.12 0.13 0.13 0.13 0.14 0.17 0.21 0.19 0.21 0.27 0.35 0.41 0.34 0.34 0.30 0.33 0.38 0.42 0.49 0.59 0.62 0.59 0.65 0.72 0.80 0.76 0.66 0.61 0.58
0.31 0.13 0.25 0.26 0.14 0.14 0.13 0.11 0.14 0.15 0.12 0.09 0.09 0.09 0.12 0.15 0.16 0.16 0.16 0.16 0.17 0.20 0.20 0.21 0.25 0.31 0.38 0.36 0.34 0.30 0.31 0.37 0.40 0.42 0.55 0.60 0.60 0.67 0.68 0.70 0.74 0.74 0.63 0.55
0.51 0.36 0.53 0.21 0.08 0.09 0.11 0.12 0.14 0.14 0.11 0.09 0.09 0.09 0.11 0.16 0.18 0.18 0.17 0.17 0.16 0.18 0.20 0.19 0.23 0.26 0.31 0.33 0.33 0.31 0.32 0.39 0.41 0.40 0.45 0.55 0.63 0.64 0.63 0.64 0.63 0.66 0.64 0.58
0.80 0.57 0.30 0.12 0.10 0.11 0.14 0.16 0.11 0.10 0.09 0.08 0.07 0.08 0.09 0.08 0.12 0.17 0.17 0.15 0.15 0.15 0.16 0.19 0.23 0.24 0.30 0.32 0.29 0.32 0.38 0.42 0.41 0.37 0.38 0.46 0.54 0.60 0.61 0.61 0.55 0.54 0.58 0.58
0.89 0.66 0.27 0.14 0.11 0.09 0.12 0.24 0.12 0.10 0.11 0.10 0.10 0.16 0.12 0.08 0.11 0.17 0.13 0.13 0.13 0.13 0.14 0.19 0.23 0.24 0.28 0.29 0.25 0.28 0.34 0.41 0.38 0.33 0.30 0.31 0.41 0.54 0.58 0.59 0.54 0.51 0.54 0.56
0.72 0.56 0.19 0.13 0.13 0.13 0.23 0.29 0.14 0.11 0.12 0.12 0.14 0.18 0.14 0.12 0.16 0.17 0.11 0.11 0.12 0.14 0.15 0.20 0.22 0.21 0.25 0.29 0.25 0.26 0.33 0.38 0.33 0.30 0.30 0.30 0.35 0.47 0.54 0.60 0.62 0.55 0.52 0.51
0.49 0.56 0.25 0.15 0.19 0.27 0.28 0.16 0.10 0.09 0.09 0.09 0.09 0.08 0.09 0.12 0.17 0.18 0.12 0.10 0.09 0.12 0.15 0.18 0.21 0.20 0.26 0.31 0.28 0.29 0.32 0.29 0.29 0.28 0.29 0.30 0.34 0.42 0.54 0.60 0.64 0.59 0.52 0.49
0.31 0.22 0.14 0.14 0.21 0.22 0.16 0.10 0.07 0.07 0.07 0.07 0.08 0.09 0.11 0.14 0.16 0.18 0.15 0.13 0.11 0.12 0.14 0.19 0.21 0.21 0.27 0.32 0.30 0.30 0.29 0.27 0.26 0.27 0.28 0.29 0.36 0.46 0.55 0.60 0.61 0.59 0.54 0.50
0.20 0.10 0.09 0.11 0.14 0.14 0.10 0.07 0.05 0.05 0.06 0.07 0.08 0.10 0.12 0.14 0.15 0.17 0.17 0.16 0.14 0.13 0.16 0.22 0.23 0.22 0.27 0.30 0.28 0.26 0.25 0.27 0.26 0.29 0.33 0.35 0.38 0.45 0.51 0.59 0.65 0.57 0.52 0.49
0.19 0.09 0.09 0.09 0.09 0.09 0.07 0.05 0.05 0.04 0.04 0.06 0.08 0.10 0.12 0.14 0.15 0.16 0.20 0.19 0.17 0.17 0.18 0.24 0.26 0.27 0.29 0.27 0.24 0.24 0.23 0.28 0.33 0.34 0.38 0.42 0.42 0.43 0.47 0.49 0.60 0.59 0.50 0.50
0.14 0.08 0.10 0.10 0.08 0.07 0.06 0.05 0.05 0.04 0.04 0.04 0.07 0.11 0.12 0.13 0.14 0.16 0.20 0.21 0.19 0.19 0.20 0.25 0.28 0.34 0.33 0.25 0.21 0.23 0.27 0.30 0.35 0.39 0.40 0.41 0.40 0.41 0.48 0.49 0.53 0.50 0.47 0.48
0.07 0.07 0.08 0.07 0.06 0.05 0.04 0.04 0.04 0.04 0.05 0.05 0.06 0.11 0.14 0.14 0.13 0.15 0.18 0.21 0.23 0.23 0.25 0.27 0.30 0.35 0.33 0.26 0.22 0.22 0.27 0.30 0.34 0.38 0.37 0.35 0.35 0.36 0.40 0.50 0.58 0.55 0.50 0.48
0.05 0.06 0.07 0.05 0.04 0.04 0.03 0.03 0.03 0.04 0.05 0.07 0.07 0.09 0.13 0.13 0.12 0.13 0.18 0.22 0.25 0.23 0.24 0.27 0.29 0.33 0.33 0.27 0.24 0.24 0.26 0.31 0.32 0.35 0.35 0.35 0.35 0.34 0.35 0.40 0.49 0.53 0.55 0.54
0.04 0.05 0.05 0.04 0.03 0.03 0.03 0.03 0.04 0.05 0.06 0.06 0.07 0.08 0.10 0.13 0.13 0.15 0.19 0.23 0.26 0.24 0.24 0.27 0.31 0.36 0.34 0.27 0.25 0.26 0.29 0.28 0.27 0.31 0.35 0.37 0.38 0.40 0.39 0.40 0.42 0.45 0.51 0.62
0.05 0.06 0.06 0.05 0.04 0.04 0.04 0.04 0.04 0.05 0.05 0.06 0.07 0.07 0.08 0.11 0.13 0.17 0.20 0.22 0.24 0.26 0.27 0.29 0.33 0.38 0.35 0.29 0.27 0.27 0.32 0.36 0.31 0.32 0.36 0.39 0.41 0.44 0.47 0.48 0.50 0.50 0.51 0.57
0.09 0.09 0.08 0.08 0.06 0.05 0.04 0.03 0.03 0.04 0.05 0.06 0.07 0.07 0.06 0.08 0.11 0.15 0.18 0.21 0.23 0.24 0.25 0.27 0.32 0.36 0.36 0.34 0.31 0.30 0.33 0.36 0.40 0.36 0.35 0.38 0.43 0.47 0.49 0.53 0.55 0.53 0.47 0.52
0.11 0.10 0.08 0.08 0.07 0.06 0.05 0.03 0.03 0.03 0.04 0.05 0.06 0.07 0.07 0.09 0.11 0.15 0.19 0.20 0.21 0.25 0.28 0.28 0.31 0.35 0.37 0.39 0.36 0.34 0.35 0.37 0.37 0.36 0.38 0.41 0.46 0.48 0.53 0.56 0.55 0.55 0.54 0.59
0.08 0.08 0.07 0.06 0.06 0.05 0.05 0.05 0.04 0.04 0.04 0.05 0.07 0.07 0.08 0.10 0.12 0.15 0.19 0.19 0.21 0.24 0.29 0.31 0.37 0.37 0.37 0.42 0.41 0.37 0.37 0.39 0.41 0.39 0.40 0.50 0.53 0.50 0.53 0.57 0.59 0.60 0.61 0.63
0.07 0.06 0.06 0.05 0.05 0.05 0.06 0.06 0.05 0.04 0.04 0.05 0.07 0.07 0.07 0.09 0.12 0.15 0.17 0.19 0.21 0.25 0.28 0.33 0.35 0.35 0.37 0.43 0.46 0.41 0.43 0.45 0.45 0.43 0.43 0.49 0.54 0.56 0.57 0.59 0.62 0.64 0.64 0.64
0.07 0.06 0.06 0.05 0.06 0.06 0.07 0.08 0.07 0.06 0.05 0.06 0.09 0.10 0.10 0.12 0.14 0.16 0.17 0.18 0.20 0.24 0.27 0.32 0.33 0.33 0.34 0.43 0.51 0.46 0.46 0.47 0.48 0.47 0.47 0.50 0.55 0.59 0.60 0.61 0.63 0.64 0.65 0.65
0.06 0.07 0.07 0.06 0.06 0.08 0.09 0.09 0.09 0.08 0.07 0.08 0.09 0.11 0.12 0.14 0.14 0.16 0.17 0.19 0.21 0.27 0.28 0.28 0.28 0.33 0.39 0.47 0.47 0.46 0.46 0.46 0.48 0.49 0.51 0.53 0.58 0.63 0.62 0.61 0.65 0.66 0.65 0.65
0.07 0.07 0.08 0.09 0.09 0.10 0.09 0.09 0.10 0.11 0.10 0.11 0.12 0.14 0.15 0.17 0.17 0.19 0.20 0.21 0.24 0.30 0.29 0.29 0.32 0.39 0.47 0.45 0.44 0.46 0.46 0.48 0.49 0.52 0.55 0.57 0.59 0.62 0.63 0.63 0.65 0.66 0.69 0.69
0.09 0.09 0.10 0.11 0.13 0.14 0.12 0.11 0.12 0.14 0.15 0.16 0.15 0.16 0.18 0.18 0.18 0.18 0.21 0.27 0.31 0.34 0.32 0.36 0.40 0.44 0.49 0.45 0.44 0.47 0.51 0.53 0.54 0.58 0.61 0.63 0.63 0.65 0.64 0.63 0.65 0.65 0.67 0.68
0.13 0.12 0.12 0.13 0.15 0.17 0.17 0.15 0.15 0.16 0.17 0.18 0.18 0.17 0.19 0.21 0.23 0.23 0.25 0.29 0.34 0.36 0.36 0.41 0.45 0.48 0.47 0.49 0.50 0.53 0.58 0.61 0.65 0.72 0.74 0.69 0.67 0.67 0.63 0.60 0.63 0.67 0.67 0.65
0.17 0.17 0.16 0.17 0.19 0.19 0.19 0.18 0.18 0.17 0.17 0.18 0.20 0.20 0.23 0.25 0.27 0.28 0.30 0.33 0.35 0.39 0.39 0.40 0.44 0.49 0.51 0.56 0.59 0.62 0.67 0.71 0.73 0.73 0.68 0.66 0.65 0.64 0.61 0.59 0.61 0.65 0.65 0.63
0.21 0.21 0.20 0.21 0.22 0.22 0.22 0.22 0.24 0.23 0.22 0.24 0.26 0.26 0.27 0.30 0.33 0.35 0.36 0.37 0.39 0.40 0.42 0.45 0.49 0.54 0.60 0.64 0.67 0.70 0.73 0.74 0.74 0.73 0.69 0.68 0.67 0.64 0.61 0.61 0.62 0.63 0.62 0.58

GEFSNGP_prec_meanprecacc_180.txt.gz
Total_Precipitation_Accumulation
0.24 0.17 0.17 0.21 0.19 0.20 0.32 0.33 0.24 0.12 0.10 0.10 0.10 0.11 0.12 0.13 0.14 0.13 0.12 0.15 0.22 0.25 0.25 0.31 0.40 0.49 0.51 0.47 0.43 0.41 0.45 0.52 0.54 0.55 0.62 0.65 0.66 0.79 0.96 0.90 0.77 0.70 0.66 0.67
0.20 0.13 0.13 0.14 0.12 0.13 0.15 0.14 0.12 0.08 0.09 0.11 0.11 0.10 0.11 0.13 0.15 0.15 0.16 0.17 0.21 0.25 0.25 0.31 0.38 0.47 0.56 0.49 0.44 0.37 0.39 0.44 0.47 0.53 0.65 0.67 0.64 0.69 0.79 0.86 0.81 0.72 0.67 0.64
0.32 0.14 0.25 0.27 0.14 0.14 0.14 0.11 0.14 0.16 0.13 0.11 0.12 0.11 0.13 0.16 0.16 0.17 0.19 0.21 0.22 0.25 0.29 0.34 0.37 0.45 0.53 0.50 0.46 0.38 0.36 0.41 0.43 0.46 0.59 0.66 0.66 0.71 0.73 0.76 0.82 0.81 0.69 0.61
0.54 0.37 0.55 0.22 0.08 0.09 0.11 0.12 0.14 0.14 0.12 0.11 0.12 0.12 0.13 0.17 0.20 0.21 0.22 0.22 0.23 0.26 0.32 0.32 0.34 0.36 0.42 0.44 0.42 0.39 0.37 0.42 0.44 0.44 0.48 0.59 0.68 0.68 0.67 0.68 0.69 0.73 0.71 0.64
0.86 0.60 0.31 0.12 0.10 0.11 0.14 0.16 0.11 0.10 0.09 0.09 0.10 0.09 0.10 0.10 0.14 0.21 0.22 0.22 0.22 0.25 0.29 0.28 0.29 0.29 0.35 0.38 0.35 0.36 0.42 0.46 0.45 0.41 0.42 0.50 0.58 0.62 0.64 0.65 0.59 0.59 0.64 0.63
0.97 0.71 0.28 0.14 0.11 0.09 0.12 0.24 0.12 0.10 0.11 0.10 0.11 0.17 0.13 0.09 0.13 0.20 0.17 0.18 0.20 0.22 0.21 0.24 0.27 0.28 0.32 0.33 0.28 0.31 0.38 0.45 0.41 0.37 0.34 0.34 0.43 0.56 0.61 0.62 0.58 0.55 0.58 0.59
0.80 0.61 0.21 0.13 0.13 0.13 0.24 0.29 0.14 0.11 0.12 0.12 0.14 0.19 0.15 0.14 0.16 0.18 0.13 0.13 0.16 0.18 0.19 0.24 0.26 0.24 0.28 0.31 0.29 0.29 0.36 0.41 0.37 0.33 0.32 0.32 0.37 0.50 0.58 0.64 0.65 0.58 0.54 0.55
0.56 0.63 0.28 0.16 0.20 0.28 0.29 0.16 0.10 0.09 0.09 0.09 0.09 0.09 0.10 0.13 0.18 0.18 0.13 0.11 0.11 0.14 0.17 0.21 0.23 0.23 0.28 0.33 0.31 0.32 0.34 0.31 0.31 0.31 0.32 0.34 0.37 0.46 0.57 0.64 0.68 0.63 0.56 0.53
0.38 0.28 0.17 0.16 0.22 0.23 0.16 0.10 0.07 0.07 0.07 0.07 0.08 0.09 0.11 0.14 0.17 0.19 0.15 0.14 0.12 0.13 0.16 0.20 0.23 0.23 0.28 0.33 0.31 0.32 0.31 0.29 0.27 0.29 0.31 0.32 0.40 0.49 0.58 0.64 0.66 0.64 0.59 0.55
0.26 0.14 0.11 0.12 0.15 0.15 0.10 0.07 0.05 0.05 0.06 0.07 0.08 0.10 0.12 0.14 0.16 0.17 0.17 0.16 0.15 0.15 0.17 0.23 0.24 0.23 0.27 0.31 0.29 0.27 0.26 0.28 0.28 0.31 0.35 0.37 0.41 0.48 0.55 0.63 0.68 0.61 0.56 0.54
0.24 0.12 0.11 0.11 0.10 0.10 0.08 0.06 0.05 0.05 0.05 0.06 0.08 0.10 0.12 0.14 0.15 0.17 0.20 0.19 0.18 0.17 0.18 0.24 0.27 0.28 0.30 0.27 0.25 0.24 0.24 0.29 0.35 0.36 0.40 0.44 0.45 0.46 0.50 0.52 0.64 0.62 0.53 0.54
0.20 0.12 0.13 0.12 0.10 0.09 0.08 0.07 0.07 0.06 0.06 0.05 0.08 0.12 0.12 0.13 0.14 0.16 0.20 0.21 0.19 0.19 0.21 0.26 0.29 0.34 0.33 0.25 0.21 0.24 0.27 0.31 0.37 0.41 0.42 0.44 0.43 0.44 0.50 0.52 0.56 0.55 0.50 0.52
0.11 0.10 0.11 0.10 0.09 0.08 0.08 0.07 0.06 0.06 0.06 0.06 0.07 0.11 0.14 0.14 0.14 0.15 0.18 0.22 0.24 0.23 0.25 0.28 0.31 0.36 0.34 0.27 0.22 0.23 0.28 0.31 0.35 0.40 0.39 0.38 0.37 0.38 0.43 0.52 0.61 0.59 0.54 0.51
0.08 0.09 0.09 0.08 0.07 0.07 0.06 0.06 0.05 0.05 0.06 0.07 0.08 0.09 0.13 0.14 0.13 0.14 0.18 0.22 0.25 0.24 0.25 0.27 0.30 0.34 0.33 0.27 0.25 0.24 0.27 0.31 0.33 0.36 0.38 0.37 0.37 0.37 0.38 0.43 0.52 0.57 0.59 0.57
0.05 0.06 0.07 0.05 0.04 0.04 0.04 0.05 0.05 0.05 0.06 0.06 0.07 0.08 0.10 0.13 0.13 0.15 0.19 0.24 0.26 0.25 0.24 0.27 0.31 0.37 0.35 0.28 0.25 0.26 0.30 0.29 0.28 0.32 0.37 0.40 0.40 0.42 0.42 0.43 0.46 0.50 0.55 0.65
0.06 0.06 0.06 0.05 0.05 0.05 0.05 0.05 0.05 0.06 0.06 0.06 0.07 0.07 0.08 0.11 0.14 0.17 0.20 0.23 0.25 0.27 0.28 0.30 0.34 0.38 0.36 0.29 0.28 0.27 0.32 0.36 0.32 0.32 0.38 0.41 0.43 0.47 0.50 0.52 0.54 0.54 0.55 0.60
0.10 0.09 0.09 0.08 0.07 0.05 0.05 0.04 0.04 0.05 0.05 0.06 0.07 0.07 0.07 0.09 0.12 0.16 0.19 0.22 0.23 0.25 0.26 0.28 0.32 0.36 0.36 0.34 0.31 0.31 0.33 0.37 0.40 0.36 0.36 0.39 0.44 0.49 0.52 0.57 0.59 0.57 0.51 0.56
0.12 0.11 0.09 0.08 0.07 0.06 0.05 0.04 0.03 0.04 0.05 0.06 0.06 0.07 0.07 0.09 0.12 0.17 0.20 0.22 0.23 0.26 0.29 0.29 0.32 0.36 0.37 0.39 0.36 0.34 0.35 0.37 0.37 0.37 0.38 0.42 0.47 0.50 0.55 0.59 0.59 0.59 0.58 0.63
0.08 0.09 0.07 0.07 0.07 0.05 0.05 0.05 0.04 0.05 0.05 0.06 0.07 0.08 0.08 0.10 0.13 0.17 0.20 0.22 0.23 0.26 0.30 0.32 0.38 0.37 0.38 0.42 0.42 0.37 0.37 0.39 0.41 0.39 0.40 0.51 0.54 0.51 0.55 0.60 0.62 0.63 0.65 0.67
0.08 0.08 0.07 0.06 0.06 0.06 0.07 0.07 0.06 0.05 0.05 0.05 0.08 0.08 0.08 0.10 0.13 0.16 0.19 0.20 0.23 0.26 0.29 0.33 0.36 0.35 0.37 0.44 0.47 0.41 0.43 0.46 0.46 0.43 0.44 0.50 0.55 0.57 0.58 0.61 0.65 0.67 0.67 0.67
0.07 0.07 0.06 0.06 0.06 0.07 0.08 0.08 0.07 0.06 0.06 0.07 0.09 0.10 0.11 0.13 0.15 0.17 0.18 0.19 0.21 0.25 0.28 0.33 0.33 0.33 0.34 0.44 0.51 0.47 0.47 0.47 0.48 0.47 0.48 0.51 0.56 0.60 0.62 0.63 0.65 0.67 0.68 0.68
0.07 0.07 0.07 0.06 0.07 0.08 0.09 0.09 0.09 0.09 0.08 0.08 0.10 0.12 0.13 0.14 0.15 0.17 0.18 0.20 0.22 0.28 0.29 0.29 0.29 0.33 0.40 0.47 0.48 0.47 0.46 0.47 0.48 0.50 0.52 0.53 0.59 0.64 0.63 0.63 0.67 0.68 0.67 0.68
0.08 0.08 0.10 0.10 0.11 0.12 0.11 0.10 0.11 0.12 0.11 0.11 0.12 0.14 0.16 0.18 0.18 0.20 0.21 0.22 0.26 0.32 0.31 0.30 0.33 0.40 0.48 0.46 0.45 0.47 0.47 0.48 0.49 0.52 0.55 0.57 0.60 0.64 0.65 0.65 0.67 0.68 0.71 0.72
0.12 0.11 0.12 0.13 0.14 0.15 0.13 0.12 0.13 0.14 0.15 0.16 0.16 0.17 0.19 0.20 0.20 0.20 0.23 0.29 0.33 0.36 0.34 0.37 0.41 0.45 0.50 0.46 0.45 0.48 0.52 0.54 0.55 0.58 0.62 0.63 0.64 0.66 0.66 0.65 0.67 0.66 0.69 0.71
0.14 0.13 0.13 0.14 0.16 0.18 0.18 0.16 0.15 0.16 0.17 0.19 0.18 0.18 0.21 0.23 0.25 0.25 0.26 0.31 0.35 0.38 0.38 0.42 0.46 0.48 0.48 0.49 0.51 0.54 0.59 0.61 0.66 0.73 0.75 0.70 0.68 0.68 0.65 0.62 0.65 0.69 0.69 0.68
0.18 0.18 0.18 0.18 0.20 0.21 0.20 0.19 0.18 0.18 0.18 0.19 0.21 0.22 0.25 0.27 0.29 0.30 0.32 0.34 0.37 0.40 0.41 0.42 0.45 0.49 0.52 0.57 0.60 0.62 0.68 0.71 0.74 0.74 0.69 0.67 0.66 0.65 0.63 0.61 0.63 0.67 0.68 0.67
0.23 0.22 0.22 0.23 0.24 0.23 0.23 0.24 0.25 0.25 0.24 0.26 0.28 0.28 0.29 0.32 0.35 0.37 0.38 0.39 0.40 0.41 0.43 0.46 0.50 0.55 0.61 0.64 0.68 0.71 0.74 0.75 0.75 0.74 0.70 0.69 0.68 0.65 0.63 0.63 0.65 0.66 0.66 0.62

GEFSNGP_prec_meanprecacc_186.txt.gz
Total_Precipitation_Accumulation
0.26 0.18 0.19 0.22 0.20 0.21 0.33 0.34 0.25 0.12 0.10 0.11 0.12 0.14 0.15 0.17 0.17 0.15 0.13 0.16 0.22 0.26 0.27 0.32 0.41 0.50 0.52 0.49 0.45 0.42 0.46 0.55 0.58 0.62 0.69 0.71 0.71 0.83 1.01 0.98 0.85 0.75 0.70 0.72
0.22 0.14 0.14 0.16 0.13 0.14 0.15 0.14 0.12 0.08 0.09 0.11 0.12 0.11 0.13 0.16 0.18 0.19 0.18 0.19 0.22 0.26 0.27 0.33 0.41 0.50 0.59 0.52 0.46 0.40 0.42 0.49 0.53 0.61 0.72 0.74 0.70 0.74 0.84 0.92 0.88 0.77 0.71 0.68
0.34 0.14 0.27 0.29 0.15 0.14 0.14 0.12 0.14 0.16 0.13 0.11 0.12 0.12 0.15 0.18 0.20 0.21 0.22 0.23 0.24 0.27 0.31 0.37 0.40 0.48 0.56 0.54 0.50 0.42 0.42 0.47 0.51 0.53 0.66 0.73 0.72 0.77 0.79 0.82 0.87 0.87 0.74 0.65
0.58 0.39 0.59 0.23 0.08 0.09 0.11 0.13 0.15 0.14 0.12 0.11 0.12 0.13 0.14 0.19 0.23 0.24 0.24 0.24 0.25 0.28 0.35 0.35 0.38 0.40 0.46 0.49 0.47 0.44 0.44 0.49 0.53 0.50 0.54 0.66 0.75 0.75 0.75 0.74 0.75 0.80 0.76 0.68
0.91 0.64 0.32 0.12 0.10 0.11 0.14 0.16 0.12 0.10 0.10 0.09 0.10 0.09 0.10 0.11 0.16 0.23 0.24 0.23 0.25 0.29 0.33 0.34 0.35 0.34 0.40 0.44 0.41 0.44 0.50 0.52 0.51 0.47 0.47 0.56 0.65 0.69 0.71 0.70 0.64 0.65 0.69 0.68
1.05 0.76 0.31 0.16 0.12 0.09 0.12 0.25 0.13 0.10 0.11 0.10 0.11 0.17 0.14 0.10 0.15 0.22 0.20 0.20 0.23 0.26 0.26 0.30 0.33 0.33 0.37 0.40 0.36 0.39 0.45 0.51 0.47 0.42 0.39 0.40 0.49 0.62 0.67 0.68 0.63 0.60 0.62 0.63
0.89 0.67 0.25 0.16 0.14 0.13 0.25 0.31 0.15 0.11 0.12 0.12 0.14 0.19 0.16 0.14 0.18 0.21 0.16 0.17 0.20 0.23 0.24 0.29 0.32 0.30 0.34 0.38 0.36 0.36 0.41 0.46 0.42 0.39 0.39 0.38 0.43 0.55 0.63 0.69 0.70 0.62 0.58 0.59
0.64 0.71 0.35 0.18 0.21 0.30 0.33 0.18 0.11 0.09 0.09 0.10 0.09 0.09 0.10 0.13 0.18 0.19 0.15 0.14 0.14 0.17 0.20 0.25 0.28 0.27 0.33 0.38 0.37 0.38 0.39 0.37 0.36 0.37 0.38 0.39 0.42 0.50 0.61 0.68 0.72 0.66 0.59 0.57
0.43 0.34 0.21 0.18 0.25 0.26 0.19 0.12 0.08 0.08 0.08 0.08 0.09 0.09 0.12 0.15 0.17 0.19 0.17 0.16 0.15 0.16 0.18 0.23 0.26 0.26 0.32 0.37 0.35 0.36 0.36 0.34 0.32 0.34 0.36 0.37 0.43 0.52 0.61 0.67 0.68 0.67 0.62 0.58
0.28 0.16 0.13 0.14 0.17 0.17 0.13 0.09 0.07 0.07 0.07 0.08 0.09 0.10 0.13 0.15 0.16 0.17 0.18 0.17 0.16 0.16 0.18 0.24 0.26 0.26 0.30 0.33 0.31 0.29 0.29 0.32 0.31 0.34 0.38 0.41 0.44 0.50 0.57 0.65 0.71 0.64 0.59 0.56
0.25 0.13 0.12 0.12 0.12 0.13 0.10 0.08 0.07 0.07 0.07 0.07 0.09 0.11 0.13 0.15 0.16 0.18 0.21 0.20 0.18 0.18 0.19 0.25 0.28 0.30 0.32 0.29 0.27 0.26 0.26 0.32 0.37 0.38 0.42 0.46 0.47 0.49 0.53 0.55 0.67 0.66 0.56 0.57
0.22 0.14 0.15 0.15 0.13 0.12 0.11 0.11 0.10 0.09 0.09 0.08 0.10 0.13 0.13 0.14 0.15 0.17 0.21 0.22 0.20 0.20 0.21 0.26 0.30 0.35 0.34 0.27 0.23 0.25 0.29 0.33 0.39 0.42 0.44 0.45 0.44 0.46 0.52 0.55 0.59 0.58 0.54 0.55
0.13 0.12 0.13 0.13 0.11 0.11 0.11 0.11 0.10 0.09 0.10 0.09 0.09 0.12 0.15 0.15 0.15 0.17 0.19 0.23 0.25 0.24 0.26 0.29 0.32 0.36 0.35 0.28 0.23 0.23 0.28 0.32 0.36 0.42 0.41 0.39 0.39 0.40 0.44 0.54 0.63 0.62 0.58 0.55
0.08 0.10 0.11 0.09 0.09 0.09 0.08 0.09 0.08 0.07 0.09 0.09 0.09 0.10 0.14 0.14 0.13 0.15 0.19 0.24 0.26 0.25 0.26 0.28 0.30 0.34 0.34 0.28 0.25 0.25 0.27 0.31 0.34 0.37 0.38 0.38 0.38 0.39 0.40 0.45 0.55 0.60 0.61 0.59
0.05 0.06 0.08 0.06 0.05 0.05 0.05 0.06 0.07 0.07 0.07 0.07 0.08 0.09 0.11 0.14 0.14 0.16 0.20 0.24 0.27 0.26 0.25 0.28 0.32 0.37 0.35 0.28 0.26 0.26 0.30 0.29 0.28 0.32 0.37 0.40 0.41 0.43 0.44 0.45 0.48 0.52 0.57 0.67
0.06 0.06 0.07 0.06 0.05 0.05 0.06 0.06 0.06 0.07 0.07 0.07 0.07 0.08 0.09 0.12 0.14 0.18 0.20 0.23 0.25 0.27 0.28 0.30 0.34 0.38 0.36 0.30 0.28 0.27 0.32 0.36 0.32 0.33 0.38 0.42 0.44 0.48 0.52 0.54 0.56 0.56 0.57 0.63
0.10 0.10 0.09 0.08 0.07 0.06 0.06 0.05 0.05 0.06 0.07 0.07 0.07 0.08 0.07 0.09 0.12 0.16 0.20 0.23 0.24 0.25 0.27 0.29 0.33 0.36 0.36 0.34 0.32 0.31 0.33 0.37 0.40 0.37 0.36 0.40 0.45 0.50 0.54 0.59 0.61 0.58 0.54 0.60
0.13 0.12 0.09 0.09 0.08 0.07 0.06 0.05 0.04 0.05 0.06 0.07 0.07 0.08 0.08 0.10 0.13 0.18 0.22 0.23 0.24 0.27 0.30 0.30 0.33 0.36 0.37 0.40 0.36 0.34 0.35 0.37 0.38 0.37 0.39 0.42 0.47 0.51 0.57 0.60 0.61 0.61 0.60 0.66
0.09 0.10 0.08 0.08 0.08 0.07 0.07 0.06 0.06 0.06 0.06 0.07 0.08 0.08 0.09 0.12 0.14 0.18 0.22 0.23 0.24 0.27 0.31 0.33 0.39 0.37 0.38 0.43 0.42 0.37 0.38 0.39 0.41 0.40 0.41 0.51 0.54 0.52 0.56 0.61 0.64 0.65 0.67 0.69
0.09 0.09 0.08 0.07 0.07 0.07 0.08 0.08 0.07 0.06 0.06 0.06 0.08 0.09 0.09 0.12 0.15 0.17 0.21 0.22 0.24 0.28 0.30 0.34 0.36 0.36 0.37 0.44 0.47 0.41 0.43 0.46 0.46 0.43 0.44 0.50 0.55 0.58 0.59 0.62 0.66 0.68 0.69 0.70
0.09 0.08 0.07 0.06 0.06 0.07 0.08 0.08 0.08 0.07 0.07 0.07 0.10 0.12 0.13 0.15 0.17 0.19 0.20 0.20 0.22 0.26 0.29 0.34 0.34 0.33 0.35 0.44 0.51 0.47 0.47 0.47 0.48 0.47 0.48 0.51 0.57 0.61 0.62 0.63 0.65 0.68 0.69 0.70
0.08 0.08 0.08 0.07 0.07 0.09 0.10 0.10 0.10 0.10 0.10 0.10 0.12 0.14 0.15 0.16 0.16 0.18 0.19 0.21 0.23 0.29 0.30 0.29 0.29 0.34 0.41 0.48 0.48 0.47 0.46 0.47 0.49 0.50 0.52 0.54 0.59 0.65 0.64 0.63 0.68 0.68 0.68 0.70
0.10 0.10 0.11 0.11 0.12 0.13 0.12 0.11 0.12 0.13 0.13 0.13 0.14 0.16 0.18 0.19 0.19 0.21 0.22 0.23 0.26 0.33 0.32 0.31 0.34 0.40 0.49 0.47 0.46 0.47 0.47 0.49 0.50 0.53 0.56 0.58 0.61 0.64 0.66 0.66 0.67 0.69 0.72 0.73
0.13 0.12 0.14 0.14 0.15 0.16 0.14 0.13 0.14 0.16 0.17 0.17 0.17 0.18 0.20 0.21 0.20 0.21 0.24 0.30 0.34 0.37 0.35 0.38 0.42 0.46 0.51 0.47 0.46 0.49 0.52 0.54 0.55 0.59 0.62 0.64 0.65 0.67 0.67 0.66 0.68 0.68 0.70 0.72
0.16 0.15 0.14 0.15 0.17 0.18 0.18 0.17 0.16 0.17 0.18 0.20 0.19 0.19 0.22 0.25 0.27 0.26 0.28 0.32 0.37 0.40 0.39 0.44 0.47 0.49 0.49 0.50 0.51 0.54 0.60 0.62 0.66 0.74 0.75 0.71 0.69 0.69 0.66 0.63 0.67 0.70 0.71 0.70
0.19 0.19 0.19 0.19 0.21 0.21 0.21 0.20 0.19 0.19 0.18 0.20 0.21 0.22 0.25 0.28 0.30 0.31 0.32 0.35 0.38 0.42 0.42 0.43 0.46 0.50 0.52 0.57 0.60 0.63 0.68 0.72 0.75 0.74 0.70 0.68 0.67 0.67 0.64 0.63 0.65 0.69 0.70 0.69
0.23 0.23 0.23 0.24 0.24 0.24 0.24 0.25 0.26 0.26 0.24 0.26 0.29 0.28 0.30 0.33 0.36 0.38 0.39 0.40 0.42 0.43 0.45 0.47 0.51 0.56 0.61 0.65 0.69 0.72 0.74 0.75 0.75 0.74 0.70 0.69 0.68 0.66 0.64 0.65 0.67 0.68 0.68 0.65

GEFSNGP_prec_meanprecacc_192.txt.gz
Total_Precipitation_Accumulation
0.29 0.20 0.21 0.24 0.21 0.22 0.35 0.35 0.27 0.12 0.10 0.11 0.12 0.14 0.16 0.17 0.18 0.16 0.14 0.16 0.23 0.27 0.27 0.33 0.41 0.50 0.52 0.49 0.45 0.42 0.47 0.55 0.60 0.64 0.72 0.75 0.75 0.86 1.03 1.00 0.87 0.78 0.74 0.77
0.24 0.16 0.17 0.18 0.14 0.15 0.17 0.15 0.13 0.09 0.09 0.11 0.12 0.11 0.14 0.16 0.18 0.20 0.19 0.19 0.23 0.28 0.28 0.34 0.41 0.50 0.59 0.52 0.47 0.40 0.42 0.49 0.55 0.64 0.77 0.79 0.74 0.78 0.87 0.95 0.91 0.81 0.74 0.72
0.37 0.16 0.31 0.33 0.18 0.17 0.16 0.13 0.15 0.17 0.14 0.11 0.13 0.13 0.16 0.19 0.20 0.22 0.23 0.24 0.25 0.29 0.32 0.38 0.41 0.48 0.57 0.54 0.50 0.42 0.42 0.48 0.53 0.56 0.71 0.77 0.77 0.82 0.83 0.86 0.92 0.92 0.79 0.69
0.61 0.43 0.64 0.27 0.12 0.12 0.13 0.15 0.17 0.16 0.12 0.11 0.13 0.13 0.15 0.20 0.24 0.25 0.25 0.25 0.26 0.30 0.37 0.37 0.39 0.41 0.48 0.50 0.48 0.45 0.45 0.51 0.56 0.53 0.58 0.71 0.80 0.80 0.79 0.79 0.80 0.85 0.81 0.72
0.96 0.67 0.36 0.15 0.12 0.14 0.17 0.19 0.14 0.12 0.10 0.09 0.10 0.10 0.11 0.12 0.17 0.24 0.25 0.25 0.27 0.31 0.35 0.36 0.36 0.35 0.42 0.47 0.46 0.47 0.52 0.55 0.55 0.51 0.51 0.61 0.69 0.76 0.77 0.76 0.70 0.71 0.74 0.73
1.10 0.81 0.35 0.20 0.14 0.11 0.15 0.29 0.15 0.12 0.13 0.11 0.12 0.17 0.14 0.11 0.16 0.23 0.21 0.22 0.25 0.29 0.29 0.32 0.35 0.34 0.40 0.44 0.40 0.44 0.48 0.54 0.51 0.46 0.43 0.44 0.54 0.68 0.74 0.74 0.69 0.67 0.68 0.69
0.92 0.71 0.28 0.19 0.15 0.15 0.29 0.35 0.16 0.13 0.13 0.13 0.15 0.20 0.16 0.14 0.18 0.21 0.17 0.18 0.21 0.24 0.26 0.32 0.35 0.32 0.36 0.42 0.41 0.43 0.46 0.51 0.46 0.43 0.44 0.43 0.49 0.61 0.70 0.77 0.77 0.70 0.66 0.66
0.67 0.75 0.37 0.20 0.22 0.33 0.36 0.20 0.13 0.11 0.11 0.11 0.10 0.09 0.11 0.14 0.18 0.20 0.16 0.15 0.16 0.19 0.22 0.27 0.29 0.29 0.36 0.41 0.42 0.45 0.46 0.43 0.42 0.44 0.46 0.47 0.50 0.57 0.68 0.76 0.80 0.74 0.66 0.63
0.46 0.37 0.24 0.20 0.27 0.28 0.22 0.15 0.10 0.09 0.09 0.09 0.09 0.09 0.12 0.15 0.17 0.20 0.18 0.17 0.17 0.18 0.20 0.24 0.27 0.28 0.34 0.40 0.39 0.42 0.42 0.40 0.39 0.42 0.44 0.46 0.52 0.59 0.68 0.74 0.75 0.72 0.66 0.62
0.30 0.17 0.14 0.15 0.18 0.19 0.15 0.12 0.10 0.10 0.09 0.09 0.10 0.11 0.13 0.16 0.17 0.18 0.18 0.18 0.17 0.19 0.21 0.26 0.28 0.28 0.32 0.37 0.35 0.34 0.35 0.38 0.37 0.40 0.45 0.48 0.53 0.57 0.63 0.71 0.76 0.68 0.62 0.59
0.27 0.14 0.13 0.13 0.14 0.15 0.13 0.11 0.10 0.11 0.10 0.09 0.10 0.12 0.13 0.16 0.17 0.18 0.21 0.20 0.19 0.20 0.21 0.27 0.30 0.32 0.34 0.32 0.31 0.31 0.31 0.37 0.42 0.44 0.48 0.52 0.54 0.55 0.59 0.60 0.72 0.70 0.60 0.59
0.24 0.16 0.18 0.17 0.15 0.14 0.13 0.13 0.13 0.12 0.12 0.10 0.12 0.15 0.14 0.15 0.16 0.18 0.22 0.23 0.21 0.21 0.23 0.28 0.31 0.37 0.37 0.30 0.27 0.29 0.34 0.38 0.45 0.49 0.49 0.50 0.49 0.51 0.57 0.59 0.63 0.62 0.57 0.58
0.14 0.14 0.15 0.15 0.12 0.12 0.12 0.12 0.12 0.12 0.12 0.12 0.12 0.14 0.17 0.17 0.17 0.18 0.21 0.25 0.27 0.26 0.28 0.30 0.33 0.39 0.37 0.30 0.25 0.26 0.32 0.37 0.42 0.49 0.47 0.43 0.42 0.43 0.48 0.58 0.66 0.65 0.61 0.58
0.09 0.11 0.12 0.10 0.09 0.09 0.09 0.10 0.09 0.09 0.10 0.11 0.11 0.12 0.16 0.16 0.15 0.16 0.20 0.25 0.29 0.28 0.28 0.31 0.32 0.36 0.35 0.29 0.26 0.26 0.30 0.35 0.38 0.41 0.43 0.42 0.41 0.42 0.42 0.48 0.58 0.62 0.64 0.62
0.06 0.07 0.08 0.06 0.05 0.05 0.06 0.06 0.07 0.07 0.08 0.08 0.09 0.10 0.13 0.16 0.16 0.18 0.21 0.26 0.29 0.28 0.27 0.30 0.34 0.39 0.37 0.29 0.27 0.27 0.31 0.31 0.30 0.34 0.39 0.42 0.43 0.45 0.46 0.47 0.50 0.54 0.59 0.70
0.07 0.07 0.07 0.06 0.05 0.05 0.06 0.06 0.07 0.07 0.07 0.07 0.08 0.09 0.11 0.14 0.17 0.20 0.23 0.25 0.28 0.29 0.30 0.32 0.36 0.40 0.38 0.31 0.29 0.29 0.33 0.38 0.33 0.34 0.39 0.43 0.45 0.49 0.53 0.55 0.57 0.57 0.59 0.65
0.11 0.11 0.10 0.09 0.07 0.06 0.06 0.06 0.06 0.06 0.07 0.07 0.08 0.08 0.09 0.11 0.14 0.18 0.21 0.24 0.26 0.27 0.28 0.30 0.34 0.38 0.38 0.36 0.33 0.32 0.34 0.38 0.41 0.37 0.37 0.41 0.46 0.50 0.55 0.60 0.62 0.59 0.55 0.62
0.14 0.13 0.10 0.10 0.09 0.07 0.06 0.05 0.05 0.06 0.08 0.08 0.09 0.10 0.10 0.13 0.16 0.20 0.23 0.25 0.25 0.29 0.32 0.32 0.34 0.37 0.39 0.41 0.38 0.35 0.36 0.38 0.38 0.37 0.39 0.43 0.48 0.51 0.57 0.61 0.61 0.62 0.61 0.67
0.11 0.11 0.09 0.09 0.09 0.07 0.07 0.07 0.07 0.07 0.08 0.08 0.09 0.10 0.11 0.14 0.17 0.20 0.24 0.25 0.26 0.28 0.33 0.35 0.40 0.38 0.39 0.43 0.43 0.38 0.39 0.40 0.42 0.40 0.41 0.52 0.55 0.52 0.56 0.61 0.64 0.66 0.67 0.70
0.11 0.10 0.08 0.08 0.08 0.08 0.09 0.09 0.08 0.07 0.07 0.08 0.10 0.10 0.11 0.14 0.17 0.20 0.23 0.25 0.26 0.29 0.32 0.36 0.38 0.37 0.38 0.44 0.48 0.42 0.44 0.47 0.47 0.44 0.45 0.51 0.56 0.58 0.59 0.62 0.66 0.69 0.69 0.70
0.10 0.09 0.08 0.07 0.07 0.08 0.09 0.10 0.09 0.08 0.08 0.09 0.12 0.14 0.15 0.17 0.19 0.21 0.22 0.22 0.24 0.28 0.31 0.35 0.35 0.35 0.36 0.45 0.53 0.48 0.48 0.48 0.49 0.48 0.49 0.51 0.57 0.61 0.63 0.63 0.66 0.68 0.69 0.71
0.10 0.10 0.09 0.08 0.08 0.10 0.11 0.12 0.12 0.11 0.11 0.11 0.13 0.15 0.16 0.18 0.18 0.20 0.21 0.22 0.24 0.30 0.31 0.31 0.30 0.35 0.41 0.48 0.49 0.48 0.47 0.48 0.49 0.51 0.53 0.54 0.60 0.66 0.64 0.63 0.68 0.68 0.69 0.70
0.11 0.11 0.12 0.13 0.14 0.15 0.14 0.13 0.13 0.14 0.14 0.14 0.16 0.18 0.19 0.21 0.21 0.22 0.24 0.25 0.28 0.34 0.33 0.32 0.35 0.41 0.49 0.48 0.46 0.48 0.48 0.49 0.50 0.53 0.56 0.58 0.61 0.65 0.66 0.66 0.68 0.69 0.73 0.74
0.14 0.13 0.14 0.15 0.16 0.17 0.15 0.14 0.15 0.17 0.18 0.19 0.19 0.20 0.22 0.23 0.22 0.23 0.26 0.32 0.36 0.38 0.36 0.39 0.43 0.46 0.52 0.48 0.47 0.49 0.53 0.55 0.56 0.60 0.63 0.64 0.66 0.68 0.67 0.67 0.68 0.68 0.71 0.73
0.17 0.16 0.15 0.16 0.18 0.20 0.20 0.18 0.17 0.18 0.19 0.21 0.21 0.21 0.24 0.27 0.29 0.29 0.30 0.34 0.38 0.41 0.40 0.45 0.48 0.50 0.50 0.51 0.52 0.55 0.60 0.62 0.67 0.75 0.76 0.72 0.70 0.70 0.67 0.64 0.68 0.71 0.72 0.71
0.21 0.21 0.21 0.21 0.23 0.23 0.22 0.21 0.20 0.20 0.19 0.21 0.23 0.25 0.28 0.30 0.32 0.33 0.34 0.37 0.39 0.43 0.43 0.44 0.47 0.51 0.53 0.58 0.61 0.63 0.68 0.72 0.75 0.74 0.70 0.68 0.67 0.67 0.65 0.64 0.66 0.70 0.71 0.70
0.25 0.24 0.24 0.25 0.26 0.26 0.27 0.27 0.28 0.28 0.27 0.29 0.31 0.31 0.32 0.34 0.37 0.39 0.40 0.41 0.42 0.44 0.46 0.48 0.51 0.57 0.62 0.65 0.69 0.72 0.75 0.75 0.76 0.75 0.71 0.70 0.69 0.67 0.65 0.66 0.68 0.69 0.69 0.66

GEFSNGP_prec_meanprecacc_198.txt.gz
Total_Precipitation_Accumulation
0.30 0.22 0.24 0.26 0.22 0.23 0.36 0.37 0.28 0.13 0.11 0.12 0.12 0.14 0.16 0.17 0.18 0.16 0.14 0.16 0.23 0.27 0.27 0.33 0.41 0.50 0.53 0.49 0.45 0.42 0.47 0.55 0.61 0.65 0.72 0.75 0.76 0.87 1.05 1.02 0.88 0.79 0.76 0.79
0.25 0.17 0.18 0.19 0.15 0.16 0.18 0.17 0.15 0.10 0.10 0.13 0.13 0.11 0.14 0.17 0.18 0.20 0.19 0.19 0.23 0.28 0.28 0.34 0.41 0.51 0.60 0.53 0.47 0.40 0.43 0.50 0.56 0.65 0.78 0.80 0.75 0.79 0.89 0.97 0.92 0.83 0.77 0.75
0.38 0.18 0.33 0.35 0.21 0.19 0.18 0.15 0.18 0.20 0.16 0.12 0.13 0.13 0.16 0.19 0.21 0.22 0.23 0.25 0.26 0.29 0.32 0.38 0.41 0.49 0.57 0.55 0.51 0.43 0.44 0.49 0.54 0.58 0.72 0.79 0.78 0.83 0.84 0.87 0.94 0.95 0.83 0.73
0.64 0.46 0.69 0.31 0.15 0.15 0.16 0.17 0.19 0.18 0.14 0.12 0.13 0.13 0.15 0.20 0.24 0.26 0.26 0.26 0.27 0.31 0.37 0.37 0.40 0.42 0.48 0.51 0.49 0.46 0.47 0.53 0.57 0.55 0.60 0.72 0.81 0.82 0.81 0.81 0.83 0.89 0.88 0.79
1.00 0.72 0.40 0.17 0.15 0.17 0.21 0.23 0.17 0.13 0.11 0.10 0.10 0.10 0.11 0.12 0.18 0.25 0.26 0.25 0.27 0.31 0.36 0.37 0.36 0.36 0.42 0.48 0.46 0.48 0.53 0.56 0.57 0.52 0.53 0.62 0.71 0.78 0.79 0.79 0.74 0.75 0.80 0.79
1.14 0.85 0.39 0.23 0.16 0.13 0.17 0.33 0.17 0.13 0.14 0.12 0.13 0.19 0.15 0.11 0.16 0.24 0.22 0.22 0.26 0.29 0.30 0.33 0.36 0.35 0.40 0.45 0.41 0.45 0.49 0.55 0.52 0.47 0.44 0.45 0.55 0.70 0.77 0.77 0.73 0.71 0.74 0.75
0.97 0.75 0.31 0.21 0.17 0.16 0.31 0.38 0.18 0.15 0.15 0.14 0.16 0.22 0.17 0.15 0.19 0.22 0.17 0.19 0.22 0.25 0.27 0.33 0.36 0.33 0.37 0.42 0.41 0.43 0.47 0.52 0.47 0.44 0.44 0.44 0.50 0.63 0.71 0.79 0.81 0.75 0.71 0.72
0.70 0.79 0.41 0.21 0.23 0.35 0.39 0.22 0.15 0.13 0.12 0.12 0.11 0.10 0.11 0.14 0.19 0.20 0.16 0.16 0.16 0.19 0.23 0.28 0.31 0.31 0.37 0.43 0.43 0.46 0.47 0.44 0.43 0.45 0.47 0.48 0.51 0.59 0.69 0.78 0.85 0.79 0.71 0.70
0.49 0.41 0.27 0.22 0.30 0.31 0.24 0.17 0.12 0.11 0.11 0.10 0.10 0.10 0.12 0.15 0.17 0.20 0.18 0.17 0.17 0.19 0.21 0.26 0.29 0.30 0.37 0.43 0.40 0.43 0.43 0.41 0.40 0.44 0.46 0.48 0.53 0.61 0.69 0.77 0.80 0.79 0.71 0.66
0.33 0.20 0.16 0.17 0.20 0.21 0.16 0.13 0.11 0.11 0.11 0.10 0.10 0.11 0.13 0.16 0.17 0.18 0.19 0.18 0.18 0.20 0.22 0.27 0.29 0.29 0.35 0.40 0.37 0.36 0.36 0.40 0.38 0.42 0.47 0.51 0.56 0.61 0.66 0.75 0.81 0.73 0.67 0.63
0.31 0.17 0.14 0.14 0.15 0.16 0.14 0.12 0.11 0.12 0.11 0.11 0.11 0.13 0.14 0.17 0.18 0.19 0.22 0.21 0.20 0.21 0.22 0.28 0.31 0.33 0.36 0.35 0.33 0.33 0.33 0.39 0.44 0.46 0.51 0.56 0.59 0.61 0.64 0.66 0.79 0.77 0.66 0.65
0.28 0.19 0.19 0.18 0.16 0.15 0.14 0.14 0.14 0.14 0.13 0.12 0.13 0.17 0.16 0.16 0.18 0.20 0.23 0.24 0.22 0.23 0.24 0.29 0.33 0.39 0.38 0.32 0.30 0.32 0.36 0.40 0.47 0.52 0.53 0.54 0.54 0.57 0.64 0.66 0.70 0.69 0.64 0.64
0.16 0.16 0.18 0.17 0.14 0.13 0.13 0.13 0.13 0.13 0.14 0.13 0.13 0.16 0.19 0.19 0.19 0.20 0.23 0.26 0.28 0.27 0.29 0.32 0.34 0.40 0.38 0.31 0.28 0.30 0.36 0.40 0.45 0.51 0.49 0.47 0.47 0.47 0.52 0.63 0.72 0.70 0.66 0.63
0.10 0.12 0.14 0.12 0.11 0.09 0.09 0.10 0.10 0.10 0.11 0.12 0.12 0.13 0.17 0.18 0.17 0.18 0.22 0.27 0.31 0.30 0.30 0.32 0.34 0.37 0.36 0.30 0.27 0.28 0.32 0.39 0.41 0.45 0.46 0.46 0.45 0.45 0.46 0.51 0.61 0.66 0.68 0.66
0.06 0.08 0.09 0.07 0.06 0.06 0.06 0.07 0.07 0.08 0.08 0.08 0.09 0.11 0.14 0.17 0.18 0.20 0.23 0.28 0.31 0.29 0.29 0.32 0.36 0.41 0.38 0.30 0.27 0.28 0.33 0.34 0.34 0.38 0.43 0.45 0.46 0.48 0.48 0.49 0.53 0.57 0.62 0.73
0.07 0.07 0.07 0.06 0.06 0.06 0.06 0.06 0.07 0.07 0.07 0.08 0.08 0.09 0.11 0.15 0.19 0.22 0.25 0.28 0.31 0.31 0.32 0.35 0.38 0.42 0.39 0.32 0.30 0.29 0.35 0.40 0.37 0.38 0.43 0.46 0.48 0.52 0.55 0.57 0.59 0.59 0.61 0.67
0.13 0.11 0.10 0.09 0.07 0.06 0.06 0.06 0.06 0.07 0.07 0.08 0.08 0.09 0.09 0.12 0.16 0.20 0.24 0.28 0.30 0.32 0.33 0.34 0.38 0.41 0.40 0.37 0.34 0.33 0.35 0.39 0.43 0.40 0.40 0.43 0.48 0.52 0.56 0.61 0.63 0.60 0.56 0.63
0.16 0.15 0.11 0.11 0.09 0.08 0.07 0.05 0.05 0.06 0.08 0.09 0.09 0.10 0.11 0.14 0.17 0.22 0.26 0.28 0.29 0.33 0.36 0.36 0.38 0.41 0.41 0.43 0.39 0.37 0.37 0.38 0.39 0.39 0.41 0.44 0.49 0.53 0.58 0.62 0.62 0.63 0.62 0.68
0.12 0.12 0.10 0.10 0.09 0.08 0.08 0.08 0.07 0.08 0.08 0.09 0.10 0.12 0.13 0.16 0.19 0.23 0.27 0.28 0.28 0.31 0.36 0.38 0.43 0.41 0.41 0.45 0.45 0.40 0.40 0.41 0.43 0.41 0.42 0.53 0.56 0.54 0.58 0.62 0.65 0.67 0.69 0.71
0.12 0.11 0.09 0.09 0.08 0.08 0.10 0.10 0.09 0.08 0.08 0.09 0.12 0.12 0.13 0.16 0.20 0.23 0.26 0.27 0.29 0.32 0.34 0.38 0.40 0.39 0.40 0.47 0.50 0.43 0.45 0.48 0.48 0.45 0.46 0.52 0.57 0.59 0.60 0.63 0.67 0.70 0.70 0.71
0.12 0.10 0.09 0.08 0.08 0.09 0.10 0.11 0.10 0.09 0.09 0.10 0.14 0.16 0.17 0.20 0.22 0.24 0.24 0.24 0.25 0.29 0.32 0.37 0.37 0.36 0.38 0.48 0.55 0.50 0.50 0.50 0.51 0.50 0.50 0.53 0.59 0.63 0.64 0.64 0.67 0.69 0.71 0.72
0.11 0.11 0.10 0.09 0.09 0.11 0.12 0.12 0.13 0.13 0.12 0.12 0.15 0.17 0.18 0.20 0.20 0.21 0.22 0.23 0.26 0.32 0.32 0.32 0.31 0.36 0.43 0.50 0.52 0.51 0.50 0.51 0.52 0.54 0.55 0.57 0.62 0.68 0.67 0.65 0.70 0.70 0.70 0.72
0.12 0.12 0.13 0.14 0.14 0.16 0.14 0.13 0.14 0.15 0.15 0.15 0.17 0.19 0.21 0.22 0.22 0.23 0.24 0.25 0.28 0.35 0.34 0.33 0.36 0.42 0.51 0.49 0.48 0.50 0.50 0.51 0.53 0.55 0.58 0.60 0.63 0.67 0.69 0.69 0.70 0.71 0.75 0.76
0.16 0.14 0.15 0.16 0.17 0.18 0.16 0.15 0.16 0.18 0.19 0.20 0.19 0.21 0.23 0.24 0.24 0.24 0.27 0.33 0.36 0.39 0.37 0.40 0.44 0.48 0.53 0.49 0.48 0.51 0.55 0.57 0.58 0.61 0.64 0.66 0.67 0.70 0.69 0.69 0.71 0.70 0.73 0.74
0.19 0.17 0.17 0.17 0.19 0.20 0.20 0.19 0.18 0.19 0.20 0.22 0.22 0.22 0.25 0.28 0.31 0.30 0.31 0.35 0.39 0.42 0.42 0.46 0.50 0.51 0.51 0.52 0.53 0.55 0.61 0.63 0.68 0.76 0.77 0.73 0.71 0.72 0.69 0.66 0.70 0.74 0.74 0.73
0.23 0.23 0.23 0.23 0.24 0.24 0.24 0.22 0.21 0.21 0.20 0.23 0.24 0.25 0.29 0.32 0.34 0.35 0.36 0.38 0.41 0.45 0.45 0.45 0.48 0.52 0.54 0.59 0.62 0.64 0.69 0.72 0.75 0.75 0.70 0.68 0.68 0.69 0.67 0.65 0.68 0.72 0.73 0.72
0.27 0.27 0.27 0.28 0.29 0.28 0.28 0.29 0.30 0.30 0.28 0.30 0.32 0.32 0.33 0.36 0.39 0.41 0.42 0.43 0.45 0.46 0.48 0.50 0.53 0.58 0.63 0.66 0.70 0.73 0.75 0.76 0.76 0.75 0.71 0.70 0.70 0.68 0.66 0.67 0.69 0.70 0.70 0.67

GEFSNGP_prec_meanprecacc_204.txt.gz
Total_Precipitation_Accumulation
0.31 0.23 0.26 0.28 0.24 0.24 0.38 0.39 0.30 0.15 0.13 0.14 0.13 0.15 0.17 0.18 0.18 0.16 0.14 0.17 0.23 0.27 0.27 0.33 0.41 0.50 0.53 0.49 0.45 0.42 0.47 0.55 0.61 0.65 0.72 0.75 0.76 0.87 1.05 1.02 0.89 0.81 0.77 0.80
0.25 0.18 0.20 0.21 0.18 0.19 0.21 0.20 0.18 0.13 0.14 0.15 0.14 0.12 0.14 0.17 0.19 0.20 0.20 0.20 0.23 0.28 0.28 0.34 0.41 0.51 0.60 0.53 0.47 0.40 0.43 0.50 0.56 0.65 0.78 0.80 0.75 0.79 0.89 0.97 0.94 0.85 0.79 0.77
0.39 0.18 0.34 0.37 0.24 0.22 0.21 0.18 0.21 0.23 0.19 0.14 0.15 0.15 0.17 0.20 0.21 0.23 0.23 0.25 0.26 0.30 0.33 0.38 0.41 0.49 0.57 0.55 0.51 0.44 0.44 0.49 0.54 0.58 0.72 0.79 0.79 0.83 0.85 0.89 0.97 0.98 0.87 0.77
0.65 0.47 0.71 0.33 0.16 0.17 0.19 0.21 0.22 0.20 0.16 0.14 0.15 0.15 0.16 0.21 0.24 0.26 0.26 0.26 0.27 0.32 0.38 0.38 0.40 0.42 0.48 0.51 0.49 0.47 0.47 0.53 0.57 0.55 0.60 0.73 0.83 0.84 0.83 0.84 0.87 0.94 0.92 0.83
1.03 0.74 0.42 0.18 0.16 0.20 0.25 0.26 0.20 0.15 0.13 0.11 0.11 0.11 0.12 0.13 0.18 0.25 0.26 0.26 0.28 0.32 0.37 0.37 0.37 0.36 0.43 0.48 0.47 0.48 0.54 0.57 0.58 0.53 0.54 0.64 0.73 0.80 0.82 0.82 0.78 0.80 0.84 0.82
1.18 0.88 0.41 0.25 0.17 0.14 0.19 0.35 0.19 0.15 0.16 0.13 0.14 0.20 0.16 0.12 0.17 0.24 0.22 0.23 0.26 0.30 0.31 0.34 0.37 0.36 0.41 0.45 0.41 0.46 0.49 0.56 0.53 0.47 0.44 0.45 0.55 0.71 0.78 0.79 0.75 0.73 0.75 0.76
1.01 0.79 0.34 0.23 0.18 0.17 0.33 0.41 0.20 0.16 0.17 0.15 0.18 0.24 0.19 0.16 0.20 0.23 0.18 0.19 0.22 0.26 0.28 0.35 0.38 0.34 0.38 0.43 0.42 0.44 0.48 0.53 0.48 0.44 0.45 0.44 0.50 0.63 0.72 0.80 0.82 0.75 0.72 0.74
0.74 0.82 0.44 0.23 0.25 0.36 0.42 0.24 0.16 0.14 0.14 0.13 0.12 0.11 0.12 0.14 0.19 0.21 0.17 0.16 0.16 0.20 0.24 0.30 0.33 0.32 0.38 0.44 0.44 0.46 0.48 0.44 0.44 0.46 0.47 0.48 0.51 0.59 0.70 0.79 0.85 0.80 0.72 0.71
0.53 0.46 0.31 0.25 0.32 0.33 0.26 0.18 0.13 0.13 0.12 0.11 0.11 0.10 0.12 0.16 0.18 0.20 0.18 0.18 0.17 0.19 0.21 0.27 0.30 0.32 0.39 0.44 0.42 0.44 0.44 0.42 0.40 0.44 0.46 0.48 0.54 0.61 0.70 0.77 0.81 0.80 0.72 0.68
0.38 0.25 0.20 0.21 0.23 0.23 0.18 0.15 0.13 0.13 0.12 0.12 0.11 0.12 0.14 0.16 0.17 0.18 0.19 0.18 0.18 0.20 0.22 0.28 0.31 0.31 0.37 0.42 0.38 0.36 0.37 0.40 0.39 0.43 0.49 0.52 0.57 0.61 0.66 0.76 0.83 0.75 0.69 0.65
0.35 0.21 0.17 0.17 0.18 0.18 0.16 0.14 0.13 0.14 0.13 0.12 0.12 0.13 0.15 0.17 0.18 0.19 0.22 0.21 0.20 0.22 0.23 0.29 0.32 0.35 0.38 0.37 0.35 0.34 0.34 0.40 0.45 0.48 0.52 0.57 0.60 0.62 0.65 0.68 0.82 0.79 0.68 0.67
0.31 0.22 0.22 0.21 0.18 0.17 0.16 0.16 0.16 0.16 0.15 0.13 0.14 0.18 0.16 0.17 0.19 0.21 0.24 0.25 0.23 0.23 0.25 0.30 0.34 0.40 0.40 0.35 0.32 0.34 0.38 0.41 0.48 0.52 0.54 0.55 0.55 0.58 0.66 0.68 0.73 0.71 0.67 0.67
0.19 0.18 0.20 0.19 0.16 0.16 0.16 0.16 0.15 0.15 0.16 0.15 0.14 0.17 0.20 0.20 0.20 0.21 0.24 0.27 0.30 0.29 0.31 0.33 0.36 0.41 0.39 0.33 0.30 0.32 0.38 0.42 0.46 0.53 0.50 0.48 0.48 0.48 0.53 0.64 0.73 0.73 0.69 0.66
0.11 0.14 0.16 0.14 0.13 0.12 0.11 0.12 0.12 0.11 0.12 0.12 0.13 0.14 0.18 0.19 0.18 0.19 0.24 0.29 0.33 0.32 0.32 0.34 0.35 0.39 0.38 0.31 0.29 0.31 0.35 0.42 0.44 0.47 0.48 0.47 0.46 0.46 0.47 0.53 0.63 0.68 0.71 0.69
0.07 0.08 0.10 0.09 0.08 0.07 0.08 0.08 0.08 0.09 0.09 0.09 0.10 0.12 0.15 0.18 0.20 0.21 0.25 0.30 0.33 0.32 0.31 0.34 0.38 0.43 0.39 0.31 0.29 0.30 0.35 0.37 0.37 0.41 0.46 0.48 0.48 0.49 0.50 0.51 0.55 0.60 0.65 0.76
0.07 0.07 0.08 0.07 0.07 0.07 0.07 0.08 0.08 0.08 0.08 0.08 0.09 0.10 0.12 0.17 0.20 0.25 0.28 0.31 0.33 0.34 0.34 0.37 0.41 0.44 0.41 0.33 0.31 0.31 0.37 0.43 0.40 0.41 0.46 0.49 0.50 0.54 0.58 0.60 0.62 0.62 0.64 0.71
0.13 0.12 0.10 0.09 0.08 0.07 0.07 0.07 0.07 0.07 0.08 0.08 0.09 0.10 0.10 0.14 0.18 0.22 0.26 0.30 0.33 0.34 0.35 0.37 0.40 0.43 0.42 0.39 0.36 0.34 0.37 0.41 0.46 0.44 0.43 0.46 0.50 0.55 0.59 0.65 0.66 0.63 0.58 0.65
0.17 0.15 0.12 0.11 0.10 0.08 0.07 0.06 0.06 0.08 0.09 0.09 0.10 0.11 0.12 0.16 0.19 0.24 0.29 0.30 0.31 0.35 0.39 0.39 0.42 0.44 0.44 0.45 0.42 0.39 0.39 0.41 0.42 0.42 0.43 0.46 0.51 0.55 0.61 0.65 0.65 0.65 0.64 0.70
0.13 0.13 0.11 0.10 0.10 0.09 0.09 0.08 0.08 0.09 0.09 0.10 0.11 0.12 0.14 0.17 0.20 0.25 0.30 0.30 0.30 0.33 0.39 0.41 0.47 0.45 0.44 0.49 0.48 0.43 0.43 0.44 0.46 0.44 0.44 0.55 0.58 0.55 0.60 0.65 0.68 0.68 0.70 0.72
0.13 0.12 0.10 0.09 0.09 0.09 0.10 0.10 0.09 0.09 0.09 0.10 0.13 0.13 0.14 0.17 0.21 0.24 0.28 0.29 0.31 0.34 0.37 0.41 0.43 0.43 0.44 0.51 0.54 0.47 0.49 0.51 0.50 0.47 0.48 0.54 0.59 0.61 0.63 0.66 0.69 0.71 0.71 0.72
0.13 0.11 0.10 0.09 0.09 0.09 0.10 0.11 0.11 0.10 0.10 0.12 0.15 0.18 0.19 0.22 0.23 0.25 0.26 0.26 0.27 0.31 0.34 0.39 0.39 0.39 0.41 0.51 0.59 0.54 0.53 0.53 0.53 0.52 0.52 0.55 0.60 0.64 0.65 0.66 0.68 0.70 0.72 0.73
0.13 0.12 0.12 0.10 0.10 0.12 0.13 0.13 0.14 0.14 0.13 0.13 0.16 0.19 0.21 0.22 0.22 0.23 0.24 0.25 0.27 0.33 0.34 0.33 0.33 0.39 0.46 0.53 0.54 0.54 0.53 0.53 0.54 0.56 0.58 0.58 0.64 0.69 0.67 0.66 0.71 0.71 0.72 0.74
0.15 0.14 0.14 0.15 0.15 0.16 0.15 0.14 0.15 0.16 0.16 0.16 0.18 0.20 0.23 0.24 0.24 0.25 0.26 0.27 0.30 0.36 0.35 0.34 0.37 0.44 0.52 0.51 0.50 0.52 0.52 0.53 0.55 0.57 0.61 0.63 0.66 0.69 0.71 0.71 0.72 0.73 0.76 0.78
0.18 0.16 0.17 0.17 0.18 0.18 0.17 0.16 0.17 0.19 0.20 0.21 0.20 0.22 0.24 0.25 0.25 0.25 0.28 0.34 0.37 0.40 0.38 0.41 0.46 0.49 0.54 0.50 0.49 0.52 0.56 0.59 0.60 0.63 0.67 0.69 0.70 0.72 0.72 0.71 0.73 0.72 0.74 0.76
0.21 0.19 0.19 0.19 0.20 0.21 0.21 0.19 0.18 0.20 0.21 0.23 0.23 0.23 0.26 0.29 0.32 0.32 0.32 0.36 0.40 0.43 0.43 0.47 0.51 0.52 0.52 0.53 0.54 0.57 0.62 0.65 0.70 0.78 0.80 0.75 0.73 0.74 0.70 0.68 0.72 0.76 0.76 0.75
0.24 0.25 0.25 0.25 0.26 0.25 0.25 0.23 0.22 0.22 0.21 0.24 0.26 0.28 0.31 0.34 0.35 0.36 0.38 0.40 0.42 0.46 0.46 0.46 0.49 0.53 0.55 0.60 0.63 0.66 0.71 0.74 0.77 0.76 0.72 0.70 0.69 0.70 0.68 0.67 0.70 0.74 0.75 0.74
0.29 0.28 0.29 0.30 0.30 0.30 0.30 0.30 0.31 0.31 0.29 0.32 0.35 0.34 0.36 0.38 0.41 0.43 0.44 0.46 0.47 0.48 0.50 0.52 0.55 0.59 0.65 0.68 0.71 0.75 0.77 0.77 0.77 0.76 0.72 0.71 0.71 0.69 0.68 0.68 0.71 0.72 0.72 0.68

GEFSNGP_prec_meanprecacc_210.txt.gz
Total_Precipitation_Accumulation
0.33 0.24 0.26 0.29 0.26 0.25 0.39 0.41 0.31 0.16 0.14 0.15 0.14 0.15 0.17 0.18 0.18 0.17 0.14 0.17 0.24 0.27 0.28 0.33 0.41 0.50 0.53 0.49 0.45 0.42 0.47 0.55 0.61 0.65 0.72 0.75 0.76 0.87 1.05 1.02 0.89 0.81 0.78 0.81
0.27 0.19 0.21 0.22 0.19 0.20 0.22 0.22 0.19 0.13 0.14 0.16 0.15 0.13 0.14 0.17 0.19 0.21 0.20 0.20 0.24 0.29 0.28 0.34 0.41 0.51 0.60 0.53 0.47 0.40 0.43 0.50 0.56 0.65 0.78 0.80 0.75 0.79 0.89 0.98 0.94 0.85 0.80 0.78
0.40 0.19 0.34 0.39 0.26 0.24 0.23 0.20 0.23 0.25 0.20 0.16 0.16 0.16 0.18 0.21 0.21 0.23 0.23 0.25 0.27 0.30 0.34 0.39 0.42 0.49 0.58 0.55 0.51 0.44 0.44 0.50 0.55 0.58 0.72 0.79 0.79 0.83 0.86 0.90 0.97 0.98 0.87 0.78
0.67 0.47 0.72 0.35 0.18 0.19 0.22 0.24 0.26 0.24 0.18 0.16 0.18 0.18 0.18 0.22 0.25 0.27 0.26 0.26 0.28 0.32 0.38 0.38 0.41 0.43 0.49 0.51 0.49 0.47 0.47 0.53 0.57 0.55 0.60 0.73 0.83 0.84 0.85 0.85 0.87 0.94 0.93 0.84
1.04 0.75 0.43 0.20 0.17 0.22 0.27 0.30 0.23 0.18 0.16 0.14 0.13 0.12 0.13 0.13 0.19 0.26 0.27 0.26 0.28 0.32 0.37 0.38 0.37 0.37 0.43 0.49 0.47 0.49 0.54 0.57 0.58 0.53 0.54 0.64 0.73 0.80 0.83 0.84 0.79 0.81 0.85 0.84
1.20 0.90 0.43 0.27 0.18 0.15 0.21 0.38 0.22 0.17 0.18 0.16 0.15 0.21 0.17 0.13 0.18 0.25 0.23 0.23 0.27 0.30 0.31 0.34 0.37 0.36 0.42 0.46 0.42 0.46 0.50 0.56 0.53 0.48 0.45 0.45 0.56 0.71 0.78 0.80 0.76 0.75 0.77 0.79
1.04 0.81 0.36 0.25 0.19 0.17 0.34 0.43 0.21 0.18 0.18 0.17 0.20 0.25 0.20 0.17 0.21 0.23 0.18 0.19 0.23 0.26 0.29 0.36 0.38 0.35 0.39 0.44 0.43 0.46 0.49 0.54 0.49 0.45 0.45 0.44 0.50 0.64 0.73 0.80 0.82 0.76 0.73 0.75
0.77 0.86 0.47 0.26 0.26 0.39 0.44 0.25 0.17 0.15 0.15 0.15 0.14 0.12 0.13 0.15 0.20 0.21 0.17 0.16 0.16 0.20 0.25 0.31 0.34 0.34 0.39 0.45 0.46 0.48 0.50 0.47 0.46 0.47 0.48 0.49 0.51 0.59 0.70 0.80 0.86 0.80 0.72 0.71
0.56 0.50 0.35 0.29 0.36 0.36 0.28 0.19 0.14 0.14 0.13 0.12 0.12 0.11 0.13 0.16 0.18 0.20 0.19 0.18 0.17 0.19 0.22 0.28 0.31 0.33 0.40 0.46 0.43 0.46 0.46 0.44 0.43 0.46 0.47 0.49 0.54 0.61 0.70 0.78 0.82 0.80 0.73 0.68
0.40 0.28 0.23 0.24 0.26 0.25 0.20 0.16 0.14 0.14 0.13 0.13 0.12 0.12 0.14 0.17 0.18 0.19 0.19 0.18 0.18 0.20 0.23 0.29 0.32 0.33 0.38 0.43 0.39 0.38 0.39 0.42 0.40 0.44 0.49 0.53 0.57 0.62 0.67 0.76 0.84 0.76 0.69 0.65
0.36 0.22 0.19 0.19 0.20 0.20 0.17 0.15 0.14 0.15 0.15 0.13 0.13 0.14 0.15 0.17 0.18 0.19 0.22 0.21 0.20 0.22 0.23 0.30 0.34 0.36 0.40 0.38 0.36 0.35 0.35 0.42 0.47 0.49 0.54 0.58 0.61 0.63 0.66 0.68 0.83 0.80 0.69 0.68
0.33 0.23 0.24 0.23 0.20 0.19 0.18 0.17 0.18 0.18 0.17 0.14 0.15 0.18 0.17 0.17 0.19 0.21 0.24 0.25 0.23 0.24 0.26 0.31 0.35 0.42 0.42 0.36 0.34 0.36 0.39 0.42 0.49 0.54 0.55 0.56 0.56 0.59 0.67 0.69 0.73 0.72 0.68 0.68
0.20 0.19 0.21 0.20 0.18 0.17 0.17 0.17 0.17 0.17 0.18 0.16 0.15 0.18 0.21 0.21 0.20 0.21 0.24 0.28 0.30 0.29 0.31 0.34 0.37 0.42 0.41 0.35 0.32 0.33 0.39 0.43 0.48 0.54 0.52 0.50 0.49 0.49 0.54 0.65 0.74 0.74 0.71 0.68
0.11 0.14 0.16 0.15 0.14 0.13 0.13 0.13 0.13 0.13 0.13 0.14 0.15 0.16 0.19 0.20 0.18 0.20 0.24 0.30 0.34 0.33 0.33 0.35 0.36 0.39 0.39 0.33 0.31 0.32 0.37 0.44 0.46 0.49 0.50 0.48 0.47 0.47 0.48 0.54 0.64 0.69 0.72 0.71
0.07 0.09 0.11 0.09 0.08 0.08 0.09 0.10 0.10 0.10 0.10 0.10 0.11 0.13 0.16 0.20 0.21 0.22 0.27 0.32 0.35 0.34 0.33 0.36 0.39 0.44 0.41 0.33 0.31 0.33 0.38 0.39 0.39 0.43 0.48 0.49 0.49 0.50 0.51 0.53 0.56 0.61 0.66 0.77
0.07 0.07 0.08 0.07 0.08 0.08 0.09 0.10 0.10 0.09 0.09 0.09 0.10 0.11 0.14 0.19 0.23 0.28 0.31 0.34 0.36 0.37 0.37 0.39 0.42 0.46 0.43 0.35 0.33 0.33 0.39 0.46 0.43 0.44 0.48 0.51 0.52 0.55 0.59 0.61 0.63 0.63 0.66 0.73
0.13 0.12 0.10 0.09 0.08 0.08 0.09 0.09 0.09 0.09 0.09 0.09 0.10 0.11 0.12 0.16 0.20 0.25 0.29 0.34 0.36 0.37 0.37 0.39 0.43 0.46 0.44 0.41 0.38 0.36 0.38 0.43 0.49 0.47 0.46 0.48 0.53 0.57 0.61 0.66 0.68 0.64 0.60 0.67
0.17 0.15 0.12 0.11 0.10 0.09 0.08 0.07 0.07 0.09 0.10 0.10 0.11 0.12 0.13 0.17 0.21 0.26 0.31 0.33 0.33 0.37 0.41 0.41 0.44 0.47 0.46 0.47 0.44 0.41 0.41 0.43 0.44 0.45 0.46 0.50 0.54 0.57 0.63 0.68 0.67 0.67 0.66 0.71
0.13 0.13 0.11 0.10 0.10 0.09 0.09 0.09 0.09 0.10 0.10 0.11 0.12 0.13 0.15 0.18 0.22 0.26 0.31 0.32 0.32 0.35 0.40 0.43 0.48 0.46 0.46 0.50 0.50 0.44 0.45 0.46 0.47 0.46 0.46 0.57 0.60 0.58 0.62 0.67 0.70 0.70 0.71 0.73
0.13 0.12 0.10 0.09 0.09 0.09 0.10 0.11 0.10 0.10 0.10 0.11 0.13 0.14 0.15 0.18 0.22 0.25 0.29 0.31 0.32 0.36 0.38 0.42 0.44 0.44 0.45 0.52 0.55 0.49 0.50 0.52 0.52 0.49 0.50 0.55 0.61 0.63 0.65 0.68 0.71 0.73 0.73 0.73
0.13 0.11 0.10 0.09 0.09 0.09 0.11 0.12 0.11 0.11 0.11 0.12 0.16 0.19 0.20 0.23 0.24 0.26 0.27 0.27 0.28 0.32 0.35 0.40 0.40 0.41 0.43 0.53 0.61 0.56 0.55 0.55 0.55 0.54 0.54 0.57 0.62 0.66 0.68 0.69 0.71 0.73 0.74 0.75
0.14 0.13 0.12 0.10 0.10 0.12 0.14 0.14 0.15 0.14 0.13 0.14 0.17 0.20 0.22 0.24 0.24 0.25 0.25 0.26 0.28 0.34 0.35 0.35 0.35 0.40 0.48 0.55 0.57 0.56 0.55 0.55 0.56 0.58 0.60 0.61 0.66 0.71 0.70 0.69 0.74 0.74 0.74 0.76
0.16 0.15 0.16 0.16 0.16 0.18 0.16 0.15 0.17 0.17 0.16 0.17 0.18 0.22 0.24 0.26 0.26 0.27 0.28 0.28 0.30 0.37 0.36 0.36 0.39 0.46 0.55 0.53 0.52 0.54 0.54 0.56 0.57 0.60 0.64 0.66 0.69 0.72 0.74 0.73 0.74 0.76 0.79 0.80
0.19 0.18 0.19 0.20 0.20 0.20 0.18 0.17 0.18 0.20 0.21 0.21 0.21 0.23 0.26 0.27 0.26 0.27 0.30 0.35 0.39 0.42 0.39 0.43 0.48 0.51 0.56 0.52 0.51 0.54 0.58 0.61 0.62 0.66 0.70 0.72 0.74 0.76 0.76 0.75 0.76 0.75 0.77 0.79
0.22 0.21 0.21 0.21 0.21 0.23 0.23 0.21 0.20 0.21 0.22 0.24 0.24 0.24 0.28 0.31 0.34 0.33 0.34 0.38 0.42 0.45 0.44 0.49 0.52 0.54 0.53 0.54 0.55 0.58 0.64 0.67 0.72 0.81 0.83 0.79 0.77 0.78 0.74 0.71 0.75 0.79 0.79 0.77
0.26 0.26 0.26 0.26 0.27 0.27 0.26 0.25 0.24 0.24 0.23 0.25 0.27 0.29 0.33 0.36 0.37 0.38 0.39 0.41 0.44 0.47 0.48 0.48 0.50 0.54 0.57 0.62 0.65 0.67 0.73 0.76 0.79 0.78 0.74 0.72 0.72 0.72 0.71 0.69 0.72 0.76 0.77 0.76
0.30 0.30 0.30 0.31 0.32 0.31 0.31 0.32 0.33 0.33 0.32 0.34 0.37 0.36 0.38 0.41 0.44 0.46 0.46 0.47 0.48 0.50 0.52 0.53 0.56 0.61 0.66 0.70 0.73 0.76 0.79 0.79 0.79 0.77 0.74 0.73 0.72 0.71 0.69 0.70 0.72 0.74 0.73 0.70

GEFSNGP_prec_meanprecacc_216.txt.gz
Total_Precipitation_Accumulation
0.34 0.25 0.27 0.31 0.27 0.26 0.40 0.42 0.33 0.17 0.15 0.16 0.15 0.16 0.18 0.19 0.19 0.17 0.15 0.17 0.24 0.27 0.28 0.33 0.42 0.50 0.53 0.49 0.45 0.42 0.47 0.55 0.61 0.65 0.72 0.75 0.76 0.87 1.05 1.03 0.90 0.81 0.78 0.81
0.28 0.20 0.21 0.23 0.20 0.21 0.24 0.23 0.21 0.14 0.15 0.17 0.15 0.13 0.15 0.18 0.19 0.21 0.20 0.21 0.24 0.29 0.28 0.34 0.42 0.51 0.60 0.53 0.47 0.40 0.43 0.50 0.56 0.65 0.78 0.80 0.75 0.79 0.89 0.98 0.94 0.86 0.80 0.78
0.41 0.21 0.36 0.40 0.27 0.25 0.24 0.22 0.25 0.26 0.22 0.17 0.17 0.17 0.19 0.21 0.22 0.24 0.24 0.26 0.27 0.30 0.34 0.39 0.42 0.49 0.58 0.56 0.51 0.44 0.44 0.50 0.55 0.58 0.72 0.79 0.79 0.83 0.86 0.90 0.97 0.99 0.87 0.78
0.68 0.49 0.74 0.37 0.19 0.20 0.23 0.26 0.27 0.25 0.20 0.19 0.20 0.20 0.20 0.23 0.26 0.28 0.27 0.27 0.28 0.32 0.38 0.39 0.41 0.43 0.49 0.52 0.50 0.48 0.48 0.53 0.58 0.55 0.60 0.73 0.83 0.84 0.85 0.86 0.88 0.94 0.93 0.84
1.07 0.77 0.44 0.21 0.18 0.22 0.28 0.31 0.24 0.20 0.17 0.16 0.15 0.14 0.14 0.15 0.19 0.26 0.27 0.27 0.29 0.32 0.37 0.38 0.38 0.37 0.44 0.50 0.48 0.50 0.55 0.58 0.58 0.53 0.54 0.64 0.73 0.81 0.83 0.84 0.80 0.81 0.85 0.84
1.22 0.92 0.44 0.28 0.18 0.15 0.21 0.39 0.23 0.18 0.19 0.17 0.17 0.22 0.18 0.14 0.18 0.25 0.23 0.23 0.27 0.30 0.31 0.34 0.37 0.37 0.42 0.47 0.43 0.47 0.51 0.57 0.54 0.48 0.45 0.46 0.56 0.71 0.78 0.80 0.77 0.75 0.77 0.79
1.07 0.84 0.38 0.26 0.20 0.18 0.36 0.45 0.23 0.19 0.20 0.18 0.21 0.26 0.21 0.18 0.21 0.24 0.19 0.20 0.23 0.26 0.29 0.36 0.39 0.35 0.39 0.45 0.45 0.46 0.50 0.55 0.50 0.46 0.46 0.45 0.51 0.64 0.73 0.81 0.83 0.76 0.73 0.75
0.80 0.88 0.49 0.26 0.27 0.40 0.46 0.26 0.18 0.16 0.16 0.16 0.15 0.14 0.14 0.16 0.21 0.22 0.18 0.17 0.16 0.20 0.25 0.31 0.34 0.34 0.40 0.46 0.47 0.49 0.50 0.47 0.47 0.48 0.48 0.49 0.52 0.60 0.71 0.80 0.86 0.81 0.72 0.72
0.58 0.52 0.37 0.31 0.38 0.38 0.29 0.20 0.15 0.15 0.14 0.13 0.13 0.13 0.15 0.17 0.19 0.21 0.19 0.18 0.17 0.19 0.22 0.28 0.31 0.34 0.41 0.47 0.44 0.47 0.47 0.45 0.43 0.46 0.48 0.49 0.55 0.62 0.71 0.78 0.82 0.81 0.73 0.69
0.42 0.29 0.24 0.25 0.27 0.26 0.21 0.17 0.14 0.15 0.14 0.13 0.13 0.13 0.15 0.17 0.18 0.20 0.20 0.19 0.18 0.20 0.23 0.29 0.32 0.33 0.39 0.43 0.40 0.38 0.39 0.42 0.40 0.44 0.49 0.53 0.58 0.62 0.67 0.77 0.84 0.77 0.70 0.66
0.38 0.24 0.20 0.20 0.21 0.21 0.18 0.16 0.15 0.15 0.15 0.14 0.14 0.15 0.16 0.18 0.19 0.20 0.23 0.22 0.21 0.22 0.24 0.30 0.34 0.37 0.40 0.39 0.37 0.36 0.36 0.42 0.48 0.50 0.54 0.58 0.61 0.63 0.67 0.69 0.83 0.81 0.70 0.69
0.35 0.24 0.25 0.24 0.21 0.20 0.19 0.18 0.19 0.19 0.18 0.15 0.16 0.19 0.18 0.18 0.19 0.21 0.24 0.26 0.24 0.24 0.26 0.31 0.36 0.42 0.43 0.37 0.34 0.36 0.40 0.43 0.50 0.54 0.56 0.57 0.56 0.59 0.68 0.70 0.74 0.73 0.69 0.70
0.20 0.20 0.21 0.21 0.18 0.18 0.18 0.18 0.18 0.19 0.19 0.17 0.16 0.19 0.22 0.22 0.21 0.21 0.24 0.28 0.30 0.29 0.32 0.34 0.37 0.43 0.42 0.36 0.33 0.34 0.40 0.44 0.48 0.55 0.53 0.50 0.49 0.50 0.55 0.66 0.75 0.75 0.72 0.70
0.12 0.14 0.17 0.15 0.14 0.14 0.13 0.14 0.15 0.15 0.15 0.15 0.16 0.17 0.20 0.21 0.19 0.21 0.25 0.30 0.34 0.33 0.33 0.35 0.37 0.40 0.40 0.33 0.31 0.33 0.37 0.45 0.47 0.50 0.51 0.50 0.49 0.48 0.49 0.55 0.65 0.70 0.73 0.72
0.07 0.09 0.11 0.09 0.09 0.09 0.10 0.11 0.12 0.12 0.12 0.11 0.12 0.15 0.18 0.21 0.22 0.24 0.28 0.32 0.35 0.34 0.34 0.37 0.41 0.45 0.42 0.34 0.32 0.33 0.39 0.41 0.41 0.45 0.50 0.52 0.51 0.53 0.53 0.54 0.58 0.62 0.67 0.78
0.08 0.08 0.08 0.08 0.08 0.09 0.10 0.11 0.11 0.11 0.11 0.11 0.11 0.13 0.15 0.21 0.25 0.30 0.33 0.35 0.37 0.38 0.39 0.41 0.44 0.47 0.44 0.36 0.34 0.34 0.41 0.48 0.45 0.46 0.51 0.53 0.54 0.57 0.61 0.63 0.64 0.65 0.67 0.74
0.14 0.12 0.11 0.10 0.09 0.09 0.10 0.11 0.10 0.10 0.10 0.10 0.12 0.12 0.13 0.17 0.22 0.27 0.32 0.36 0.39 0.40 0.40 0.41 0.44 0.46 0.45 0.42 0.39 0.38 0.40 0.45 0.52 0.50 0.48 0.50 0.54 0.58 0.63 0.68 0.70 0.66 0.62 0.70
0.17 0.16 0.12 0.11 0.10 0.10 0.09 0.08 0.08 0.10 0.11 0.12 0.12 0.13 0.15 0.19 0.23 0.28 0.33 0.35 0.36 0.39 0.43 0.43 0.45 0.48 0.47 0.49 0.45 0.43 0.43 0.45 0.46 0.47 0.49 0.52 0.57 0.59 0.65 0.70 0.70 0.69 0.68 0.73
0.13 0.13 0.11 0.10 0.10 0.09 0.10 0.10 0.10 0.11 0.11 0.12 0.13 0.14 0.16 0.19 0.23 0.28 0.33 0.33 0.33 0.36 0.42 0.44 0.50 0.47 0.47 0.52 0.52 0.46 0.47 0.48 0.50 0.48 0.49 0.59 0.63 0.61 0.64 0.69 0.72 0.72 0.73 0.75
0.13 0.12 0.11 0.09 0.09 0.09 0.11 0.11 0.11 0.11 0.11 0.12 0.14 0.15 0.16 0.20 0.23 0.27 0.31 0.32 0.34 0.37 0.40 0.44 0.46 0.45 0.46 0.53 0.57 0.50 0.52 0.55 0.54 0.51 0.51 0.57 0.63 0.65 0.67 0.70 0.73 0.75 0.75 0.75
0.14 0.11 0.10 0.10 0.09 0.09 0.11 0.12 0.12 0.12 0.12 0.13 0.17 0.20 0.22 0.25 0.26 0.28 0.29 0.28 0.30 0.33 0.36 0.41 0.41 0.42 0.44 0.54 0.62 0.57 0.57 0.57 0.57 0.56 0.56 0.58 0.63 0.67 0.69 0.70 0.72 0.74 0.75 0.76
0.14 0.14 0.13 0.11 0.11 0.13 0.14 0.15 0.16 0.15 0.14 0.15 0.18 0.22 0.24 0.26 0.26 0.27 0.27 0.27 0.29 0.35 0.36 0.35 0.35 0.41 0.49 0.56 0.58 0.57 0.56 0.57 0.58 0.60 0.61 0.62 0.67 0.73 0.71 0.70 0.75 0.75 0.75 0.77
0.16 0.16 0.16 0.17 0.18 0.19 0.17 0.16 0.18 0.19 0.18 0.18 0.20 0.23 0.26 0.27 0.27 0.28 0.29 0.29 0.31 0.38 0.38 0.37 0.40 0.48 0.56 0.54 0.53 0.55 0.55 0.57 0.58 0.61 0.65 0.68 0.70 0.74 0.75 0.75 0.76 0.77 0.81 0.82
0.19 0.18 0.19 0.20 0.21 0.22 0.20 0.18 0.19 0.22 0.23 0.23 0.23 0.25 0.28 0.29 0.28 0.27 0.31 0.36 0.40 0.43 0.41 0.44 0.49 0.53 0.57 0.53 0.52 0.55 0.59 0.62 0.63 0.67 0.71 0.74 0.76 0.78 0.78 0.77 0.79 0.78 0.79 0.81
0.22 0.21 0.21 0.21 0.23 0.25 0.25 0.23 0.22 0.23 0.24 0.26 0.26 0.26 0.30 0.33 0.36 0.35 0.35 0.39 0.44 0.46 0.46 0.50 0.54 0.56 0.55 0.55 0.56 0.59 0.65 0.68 0.74 0.82 0.85 0.81 0.80 0.81 0.77 0.74 0.78 0.82 0.81 0.80
0.27 0.27 0.27 0.27 0.29 0.29 0.29 0.27 0.26 0.25 0.25 0.27 0.29 0.31 0.35 0.38 0.39 0.39 0.41 0.43 0.46 0.50 0.50 0.50 0.53 0.57 0.59 0.64 0.67 0.69 0.74 0.78 0.81 0.80 0.76 0.74 0.74 0.75 0.73 0.72 0.75 0.79 0.79 0.78
0.31 0.31 0.31 0.32 0.33 0.33 0.33 0.34 0.35 0.35 0.33 0.36 0.38 0.38 0.40 0.43 0.46 0.47 0.48 0.49 0.50 0.52 0.54 0.56 0.59 0.64 0.69 0.73 0.76 0.79 0.81 0.81 0.81 0.80 0.76 0.75 0.74 0.73 0.71 0.72 0.74 0.76 0.75 0.72

GEFSNGP_prec_meanprecacc_222.txt.gz
Total_Precipitation_Accumulation
0.36 0.27 0.29 0.32 0.29 0.28 0.42 0.44 0.34 0.18 0.16 0.18 0.16 0.17 0.19 0.20 0.20 0.18 0.16 0.18 0.25 0.29 0.30 0.34 0.42 0.51 0.53 0.49 0.45 0.43 0.47 0.55 0.61 0.65 0.72 0.75 0.76 0.88 1.06 1.03 0.90 0.82 0.78 0.81
0.29 0.21 0.23 0.24 0.21 0.23 0.25 0.26 0.23 0.15 0.16 0.18 0.16 0.14 0.16 0.19 0.20 0.22 0.21 0.21 0.24 0.29 0.30 0.36 0.42 0.52 0.61 0.53 0.48 0.41 0.43 0.50 0.56 0.65 0.78 0.80 0.75 0.79 0.90 0.98 0.95 0.86 0.81 0.78
0.43 0.22 0.38 0.42 0.29 0.27 0.26 0.25 0.27 0.28 0.23 0.17 0.17 0.17 0.20 0.22 0.23 0.25 0.25 0.26 0.27 0.30 0.34 0.40 0.43 0.50 0.59 0.56 0.52 0.44 0.44 0.50 0.55 0.58 0.73 0.79 0.79 0.84 0.86 0.90 0.98 0.99 0.88 0.79
0.70 0.51 0.77 0.39 0.20 0.22 0.25 0.27 0.29 0.27 0.21 0.20 0.22 0.21 0.21 0.24 0.28 0.29 0.28 0.27 0.28 0.32 0.38 0.39 0.42 0.44 0.50 0.52 0.51 0.48 0.48 0.54 0.58 0.55 0.61 0.73 0.83 0.85 0.85 0.86 0.88 0.94 0.93 0.84
1.09 0.79 0.46 0.21 0.18 0.23 0.29 0.33 0.25 0.21 0.19 0.17 0.16 0.15 0.16 0.16 0.21 0.27 0.28 0.27 0.29 0.33 0.37 0.38 0.38 0.38 0.45 0.50 0.48 0.50 0.56 0.58 0.58 0.54 0.55 0.65 0.73 0.81 0.83 0.84 0.80 0.82 0.85 0.84
1.25 0.94 0.46 0.28 0.19 0.16 0.23 0.41 0.24 0.19 0.20 0.18 0.18 0.23 0.19 0.15 0.19 0.26 0.24 0.24 0.27 0.31 0.32 0.35 0.37 0.37 0.43 0.48 0.44 0.48 0.51 0.58 0.55 0.49 0.46 0.47 0.57 0.72 0.79 0.80 0.77 0.75 0.77 0.79
1.09 0.86 0.39 0.27 0.20 0.18 0.38 0.47 0.24 0.20 0.20 0.19 0.21 0.27 0.22 0.19 0.22 0.25 0.19 0.20 0.23 0.27 0.29 0.36 0.39 0.36 0.40 0.47 0.46 0.48 0.51 0.56 0.51 0.48 0.48 0.47 0.53 0.65 0.74 0.82 0.83 0.77 0.73 0.75
0.81 0.91 0.51 0.27 0.27 0.41 0.47 0.26 0.19 0.16 0.16 0.16 0.15 0.14 0.14 0.17 0.21 0.23 0.19 0.17 0.17 0.21 0.25 0.31 0.35 0.34 0.40 0.47 0.49 0.51 0.52 0.49 0.49 0.51 0.50 0.51 0.54 0.62 0.73 0.82 0.88 0.82 0.73 0.72
0.60 0.54 0.39 0.32 0.39 0.39 0.30 0.21 0.15 0.15 0.14 0.13 0.13 0.13 0.15 0.18 0.20 0.22 0.20 0.19 0.18 0.20 0.23 0.28 0.32 0.34 0.42 0.47 0.45 0.48 0.49 0.47 0.46 0.49 0.50 0.51 0.57 0.64 0.72 0.80 0.84 0.82 0.74 0.70
0.43 0.30 0.25 0.26 0.28 0.27 0.21 0.18 0.15 0.15 0.14 0.13 0.13 0.14 0.16 0.18 0.19 0.20 0.21 0.20 0.19 0.21 0.24 0.30 0.33 0.34 0.39 0.44 0.40 0.39 0.41 0.45 0.43 0.47 0.52 0.55 0.60 0.64 0.69 0.78 0.86 0.78 0.71 0.67
0.38 0.24 0.21 0.20 0.21 0.22 0.18 0.16 0.15 0.16 0.15 0.14 0.14 0.15 0.16 0.18 0.19 0.21 0.24 0.23 0.22 0.23 0.25 0.31 0.35 0.37 0.41 0.39 0.37 0.37 0.36 0.43 0.49 0.51 0.56 0.60 0.63 0.65 0.68 0.70 0.84 0.82 0.71 0.69
0.35 0.25 0.26 0.24 0.21 0.20 0.19 0.18 0.19 0.19 0.18 0.15 0.16 0.19 0.18 0.18 0.20 0.22 0.25 0.26 0.24 0.25 0.27 0.32 0.37 0.43 0.44 0.38 0.35 0.37 0.40 0.43 0.50 0.55 0.56 0.57 0.57 0.60 0.69 0.71 0.75 0.74 0.70 0.71
0.21 0.20 0.22 0.21 0.19 0.18 0.18 0.18 0.18 0.19 0.19 0.17 0.16 0.19 0.22 0.22 0.21 0.22 0.25 0.29 0.31 0.30 0.33 0.35 0.38 0.44 0.43 0.37 0.34 0.35 0.41 0.44 0.49 0.55 0.53 0.51 0.50 0.51 0.56 0.67 0.76 0.75 0.73 0.71
0.12 0.15 0.17 0.15 0.15 0.14 0.14 0.15 0.15 0.15 0.15 0.16 0.16 0.17 0.21 0.21 0.20 0.22 0.26 0.31 0.35 0.34 0.34 0.37 0.39 0.43 0.42 0.35 0.32 0.34 0.38 0.45 0.48 0.51 0.52 0.50 0.49 0.49 0.50 0.56 0.66 0.71 0.74 0.73
0.07 0.09 0.11 0.10 0.09 0.09 0.10 0.11 0.12 0.13 0.12 0.12 0.13 0.15 0.18 0.22 0.23 0.25 0.29 0.33 0.36 0.35 0.35 0.39 0.42 0.47 0.44 0.36 0.33 0.35 0.40 0.41 0.42 0.46 0.51 0.52 0.52 0.54 0.54 0.55 0.59 0.63 0.68 0.80
0.08 0.08 0.08 0.08 0.08 0.09 0.10 0.11 0.12 0.12 0.11 0.11 0.12 0.13 0.16 0.21 0.26 0.31 0.34 0.36 0.39 0.40 0.40 0.42 0.46 0.49 0.45 0.37 0.36 0.36 0.42 0.49 0.46 0.47 0.51 0.54 0.55 0.58 0.62 0.64 0.66 0.66 0.68 0.76
0.14 0.12 0.11 0.10 0.09 0.09 0.10 0.11 0.11 0.11 0.11 0.11 0.12 0.13 0.14 0.18 0.22 0.28 0.33 0.38 0.41 0.41 0.41 0.42 0.46 0.47 0.46 0.42 0.40 0.39 0.41 0.46 0.53 0.51 0.49 0.51 0.55 0.59 0.64 0.69 0.71 0.67 0.63 0.71
0.17 0.16 0.12 0.11 0.10 0.10 0.09 0.09 0.09 0.11 0.12 0.13 0.13 0.14 0.15 0.19 0.23 0.29 0.34 0.36 0.37 0.41 0.45 0.45 0.47 0.48 0.48 0.49 0.46 0.43 0.44 0.45 0.47 0.48 0.50 0.53 0.58 0.61 0.66 0.71 0.71 0.70 0.69 0.75
0.13 0.13 0.11 0.10 0.10 0.09 0.10 0.10 0.11 0.12 0.13 0.13 0.14 0.16 0.17 0.20 0.24 0.29 0.34 0.34 0.34 0.38 0.44 0.46 0.51 0.48 0.48 0.53 0.52 0.47 0.48 0.49 0.51 0.49 0.50 0.61 0.65 0.62 0.66 0.71 0.74 0.74 0.75 0.77
0.13 0.12 0.11 0.09 0.09 0.09 0.11 0.12 0.11 0.11 0.12 0.13 0.16 0.16 0.17 0.21 0.24 0.28 0.32 0.33 0.36 0.39 0.41 0.45 0.47 0.46 0.47 0.54 0.58 0.52 0.54 0.56 0.56 0.53 0.53 0.59 0.64 0.67 0.69 0.72 0.75 0.77 0.77 0.77
0.14 0.11 0.10 0.10 0.09 0.09 0.11 0.13 0.13 0.12 0.13 0.14 0.18 0.21 0.23 0.26 0.28 0.30 0.31 0.31 0.32 0.35 0.38 0.43 0.43 0.43 0.45 0.56 0.63 0.58 0.58 0.58 0.59 0.57 0.58 0.60 0.65 0.69 0.71 0.72 0.74 0.76 0.77 0.78
0.14 0.14 0.13 0.11 0.11 0.13 0.14 0.15 0.16 0.16 0.15 0.16 0.19 0.23 0.25 0.28 0.28 0.29 0.29 0.30 0.31 0.36 0.37 0.37 0.37 0.43 0.50 0.57 0.59 0.58 0.57 0.58 0.59 0.61 0.63 0.64 0.69 0.74 0.73 0.72 0.76 0.76 0.77 0.79
0.16 0.16 0.16 0.17 0.18 0.19 0.17 0.17 0.18 0.19 0.18 0.19 0.21 0.25 0.28 0.29 0.29 0.30 0.31 0.30 0.33 0.40 0.39 0.38 0.42 0.49 0.57 0.55 0.54 0.56 0.56 0.58 0.60 0.63 0.67 0.69 0.72 0.75 0.77 0.76 0.77 0.78 0.82 0.83
0.19 0.18 0.20 0.21 0.21 0.22 0.20 0.19 0.20 0.22 0.24 0.24 0.24 0.27 0.30 0.31 0.30 0.29 0.32 0.38 0.41 0.44 0.42 0.46 0.51 0.54 0.59 0.54 0.53 0.56 0.60 0.63 0.65 0.69 0.72 0.75 0.77 0.79 0.79 0.79 0.80 0.79 0.81 0.82
0.22 0.22 0.21 0.22 0.23 0.25 0.26 0.24 0.23 0.24 0.25 0.27 0.27 0.28 0.31 0.34 0.37 0.36 0.36 0.40 0.45 0.48 0.47 0.52 0.56 0.58 0.56 0.56 0.57 0.60 0.66 0.69 0.75 0.84 0.86 0.82 0.81 0.82 0.79 0.76 0.80 0.83 0.83 0.81
0.27 0.27 0.28 0.28 0.29 0.30 0.30 0.28 0.27 0.26 0.26 0.28 0.30 0.33 0.37 0.39 0.40 0.41 0.42 0.44 0.47 0.51 0.51 0.51 0.54 0.59 0.61 0.65 0.68 0.70 0.76 0.79 0.82 0.82 0.78 0.76 0.76 0.77 0.75 0.74 0.76 0.80 0.81 0.80
0.31 0.31 0.32 0.33 0.34 0.34 0.34 0.35 0.36 0.36 0.35 0.37 0.40 0.40 0.41 0.44 0.47 0.48 0.49 0.50 0.52 0.53 0.55 0.57 0.60 0.65 0.71 0.74 0.78 0.81 0.83 0.83 0.82 0.81 0.77 0.76 0.76 0.75 0.73 0.74 0.76 0.77 0.76 0.73

GEFSNGP_prec_meanprecacc_228.txt.gz
Total_Precipitation_Accumulation
0.37 0.29 0.31 0.34 0.31 0.31 0.45 0.47 0.37 0.20 0.18 0.20 0.18 0.19 0.21 0.21 0.20 0.19 0.16 0.19 0.25 0.30 0.31 0.35 0.43 0.52 0.54 0.50 0.46 0.44 0.48 0.56 0.62 0.66 0.73 0.76 0.77 0.88 1.06 1.04 0.91 0.82 0.79 0.82
0.30 0.23 0.24 0.25 0.22 0.25 0.28 0.28 0.24 0.16 0.18 0.19 0.17 0.15 0.17 0.20 0.21 0.23 0.22 0.22 0.25 0.30 0.31 0.38 0.44 0.53 0.62 0.55 0.49 0.41 0.44 0.51 0.57 0.66 0.78 0.80 0.76 0.79 0.90 0.99 0.95 0.87 0.81 0.79
0.44 0.23 0.39 0.43 0.31 0.29 0.29 0.27 0.28 0.29 0.24 0.19 0.19 0.19 0.21 0.23 0.24 0.26 0.26 0.27 0.28 0.31 0.35 0.42 0.45 0.51 0.60 0.57 0.53 0.45 0.45 0.51 0.56 0.59 0.73 0.80 0.79 0.84 0.86 0.91 0.98 1.00 0.89 0.80
0.71 0.52 0.78 0.41 0.22 0.23 0.26 0.29 0.31 0.28 0.23 0.21 0.23 0.23 0.22 0.25 0.29 0.31 0.30 0.29 0.29 0.33 0.39 0.40 0.44 0.46 0.51 0.54 0.52 0.49 0.49 0.55 0.59 0.56 0.61 0.74 0.84 0.85 0.86 0.87 0.89 0.95 0.94 0.85
1.10 0.80 0.47 0.23 0.20 0.25 0.31 0.34 0.28 0.22 0.20 0.19 0.18 0.16 0.17 0.17 0.22 0.29 0.29 0.28 0.30 0.34 0.38 0.39 0.39 0.40 0.47 0.51 0.50 0.52 0.57 0.59 0.59 0.54 0.55 0.66 0.74 0.81 0.84 0.85 0.82 0.84 0.86 0.85
1.27 0.96 0.47 0.30 0.20 0.17 0.24 0.43 0.26 0.20 0.21 0.19 0.19 0.26 0.21 0.16 0.20 0.27 0.24 0.25 0.28 0.32 0.32 0.35 0.38 0.38 0.45 0.51 0.46 0.50 0.54 0.59 0.56 0.50 0.46 0.47 0.58 0.73 0.80 0.82 0.78 0.78 0.79 0.80
1.11 0.88 0.40 0.28 0.20 0.19 0.40 0.49 0.24 0.20 0.21 0.20 0.23 0.29 0.23 0.19 0.22 0.25 0.20 0.21 0.24 0.27 0.30 0.36 0.39 0.36 0.41 0.49 0.49 0.49 0.53 0.58 0.53 0.49 0.48 0.48 0.53 0.66 0.75 0.83 0.84 0.78 0.75 0.76
0.83 0.92 0.52 0.28 0.28 0.42 0.48 0.27 0.19 0.17 0.16 0.17 0.16 0.15 0.15 0.17 0.21 0.23 0.19 0.18 0.18 0.21 0.26 0.32 0.35 0.35 0.41 0.48 0.50 0.53 0.55 0.52 0.52 0.53 0.52 0.52 0.55 0.63 0.74 0.83 0.89 0.83 0.75 0.73
0.62 0.56 0.40 0.32 0.39 0.40 0.30 0.21 0.15 0.15 0.14 0.14 0.14 0.14 0.16 0.18 0.20 0.22 0.20 0.19 0.19 0.20 0.23 0.29 0.32 0.35 0.42 0.48 0.46 0.50 0.50 0.49 0.49 0.52 0.52 0.52 0.58 0.65 0.74 0.82 0.86 0.84 0.76 0.71
0.46 0.32 0.26 0.27 0.28 0.27 0.22 0.18 0.15 0.15 0.15 0.14 0.14 0.14 0.16 0.18 0.19 0.20 0.21 0.20 0.20 0.22 0.24 0.30 0.33 0.34 0.40 0.45 0.41 0.40 0.42 0.46 0.45 0.50 0.54 0.57 0.61 0.66 0.71 0.80 0.88 0.80 0.73 0.68
0.41 0.26 0.22 0.21 0.22 0.22 0.18 0.16 0.15 0.16 0.16 0.15 0.15 0.15 0.16 0.19 0.19 0.21 0.24 0.23 0.22 0.24 0.25 0.31 0.36 0.38 0.41 0.40 0.38 0.37 0.37 0.45 0.51 0.53 0.58 0.62 0.64 0.67 0.70 0.73 0.87 0.85 0.73 0.71
0.37 0.26 0.27 0.25 0.22 0.20 0.19 0.19 0.19 0.19 0.18 0.15 0.17 0.20 0.18 0.19 0.20 0.22 0.25 0.27 0.25 0.25 0.28 0.33 0.37 0.44 0.44 0.39 0.36 0.38 0.41 0.45 0.52 0.57 0.58 0.59 0.59 0.62 0.70 0.73 0.78 0.76 0.73 0.73
0.21 0.21 0.22 0.21 0.19 0.19 0.18 0.18 0.19 0.19 0.19 0.18 0.17 0.19 0.22 0.22 0.22 0.23 0.26 0.29 0.31 0.31 0.33 0.36 0.39 0.45 0.44 0.38 0.35 0.36 0.43 0.46 0.50 0.57 0.55 0.52 0.52 0.52 0.57 0.68 0.78 0.77 0.74 0.73
0.12 0.15 0.17 0.16 0.15 0.14 0.14 0.15 0.15 0.15 0.16 0.16 0.16 0.17 0.21 0.22 0.20 0.22 0.26 0.32 0.36 0.34 0.35 0.37 0.40 0.43 0.43 0.36 0.33 0.35 0.40 0.47 0.49 0.52 0.53 0.52 0.51 0.51 0.52 0.57 0.67 0.72 0.75 0.74
0.07 0.09 0.12 0.10 0.09 0.09 0.10 0.11 0.12 0.13 0.12 0.12 0.13 0.15 0.18 0.22 0.24 0.26 0.29 0.34 0.37 0.36 0.36 0.39 0.43 0.48 0.45 0.37 0.35 0.36 0.41 0.43 0.43 0.47 0.52 0.54 0.53 0.55 0.56 0.57 0.61 0.65 0.70 0.81
0.08 0.08 0.08 0.08 0.08 0.09 0.10 0.11 0.12 0.12 0.11 0.11 0.12 0.13 0.16 0.21 0.26 0.31 0.35 0.37 0.39 0.40 0.41 0.43 0.46 0.50 0.46 0.38 0.37 0.37 0.43 0.50 0.48 0.49 0.53 0.55 0.56 0.59 0.63 0.66 0.68 0.68 0.70 0.78
0.14 0.12 0.11 0.10 0.09 0.09 0.10 0.11 0.11 0.11 0.11 0.12 0.13 0.13 0.14 0.18 0.22 0.28 0.33 0.38 0.41 0.42 0.42 0.43 0.46 0.48 0.46 0.43 0.41 0.39 0.42 0.47 0.54 0.52 0.51 0.53 0.57 0.60 0.65 0.70 0.72 0.69 0.65 0.73
0.17 0.16 0.12 0.11 0.10 0.10 0.09 0.09 0.09 0.11 0.13 0.13 0.13 0.14 0.16 0.20 0.24 0.29 0.34 0.36 0.37 0.42 0.45 0.46 0.48 0.50 0.48 0.50 0.46 0.44 0.44 0.46 0.48 0.49 0.51 0.55 0.59 0.62 0.67 0.72 0.72 0.71 0.70 0.76
0.13 0.13 0.11 0.10 0.10 0.09 0.10 0.10 0.11 0.12 0.13 0.13 0.14 0.16 0.18 0.21 0.25 0.29 0.34 0.35 0.35 0.39 0.45 0.47 0.52 0.49 0.49 0.53 0.53 0.48 0.49 0.51 0.52 0.50 0.51 0.62 0.66 0.63 0.67 0.72 0.75 0.75 0.76 0.78
0.13 0.12 0.11 0.09 0.09 0.09 0.11 0.12 0.11 0.11 0.12 0.13 0.16 0.17 0.18 0.22 0.25 0.29 0.33 0.34 0.37 0.40 0.42 0.47 0.48 0.46 0.47 0.55 0.59 0.53 0.55 0.57 0.57 0.54 0.54 0.59 0.65 0.68 0.69 0.72 0.76 0.78 0.78 0.78
0.14 0.11 0.10 0.10 0.09 0.09 0.11 0.13 0.13 0.12 0.13 0.15 0.19 0.22 0.24 0.27 0.29 0.31 0.32 0.32 0.33 0.37 0.39 0.44 0.44 0.44 0.46 0.57 0.64 0.59 0.59 0.60 0.60 0.59 0.59 0.61 0.66 0.70 0.72 0.73 0.75 0.77 0.78 0.79
0.14 0.14 0.13 0.11 0.11 0.13 0.14 0.15 0.16 0.16 0.15 0.16 0.20 0.24 0.26 0.29 0.29 0.30 0.31 0.31 0.32 0.38 0.39 0.38 0.38 0.44 0.52 0.59 0.60 0.59 0.59 0.59 0.61 0.63 0.65 0.65 0.71 0.76 0.74 0.73 0.77 0.77 0.78 0.80
0.16 0.16 0.16 0.17 0.18 0.19 0.17 0.17 0.18 0.19 0.19 0.19 0.21 0.25 0.28 0.30 0.30 0.31 0.32 0.32 0.34 0.41 0.41 0.40 0.44 0.51 0.59 0.56 0.55 0.57 0.58 0.59 0.61 0.64 0.68 0.71 0.73 0.77 0.78 0.77 0.78 0.79 0.83 0.85
0.19 0.18 0.20 0.21 0.21 0.22 0.20 0.19 0.20 0.22 0.24 0.25 0.25 0.27 0.31 0.32 0.31 0.30 0.33 0.39 0.43 0.46 0.44 0.47 0.53 0.56 0.60 0.55 0.54 0.57 0.62 0.65 0.66 0.70 0.74 0.77 0.79 0.81 0.81 0.80 0.81 0.80 0.82 0.84
0.23 0.22 0.22 0.22 0.23 0.25 0.26 0.24 0.23 0.24 0.25 0.27 0.28 0.28 0.32 0.35 0.38 0.37 0.38 0.41 0.46 0.50 0.49 0.53 0.58 0.59 0.57 0.58 0.59 0.62 0.68 0.71 0.77 0.86 0.88 0.84 0.83 0.84 0.80 0.77 0.81 0.84 0.84 0.82
0.27 0.27 0.28 0.28 0.29 0.30 0.30 0.29 0.28 0.27 0.26 0.29 0.31 0.33 0.37 0.40 0.41 0.42 0.43 0.45 0.48 0.53 0.53 0.53 0.55 0.60 0.62 0.67 0.70 0.72 0.78 0.81 0.84 0.84 0.80 0.78 0.78 0.78 0.76 0.75 0.77 0.81 0.82 0.81
0.31 0.31 0.32 0.33 0.34 0.34 0.35 0.36 0.37 0.37 0.35 0.38 0.41 0.41 0.42 0.45 0.48 0.50 0.50 0.52 0.53 0.55 0.57 0.58 0.61 0.66 0.72 0.75 0.79 0.82 0.84 0.85 0.84 0.83 0.79 0.78 0.78 0.76 0.75 0.75 0.77 0.78 0.77 0.74

GEFSNGP_prec_meanprecacc_234.txt.gz
Total_Precipitation_Accumulation
0.38 0.29 0.31 0.35 0.32 0.33 0.48 0.50 0.39 0.21 0.19 0.21 0.19 0.19 0.22 0.23 0.22 0.20 0.17 0.19 0.26 0.30 0.32 0.36 0.44 0.52 0.55 0.51 0.47 0.45 0.49 0.57 0.63 0.69 0.77 0.80 0.80 0.91 1.09 1.06 0.93 0.84 0.80 0.83
0.31 0.24 0.25 0.26 0.23 0.27 0.30 0.30 0.26 0.18 0.19 0.21 0.18 0.15 0.17 0.21 0.22 0.24 0.23 0.23 0.26 0.31 0.32 0.39 0.45 0.53 0.62 0.55 0.49 0.42 0.45 0.52 0.58 0.67 0.81 0.84 0.79 0.82 0.93 1.01 0.97 0.88 0.83 0.81
0.45 0.24 0.40 0.44 0.32 0.31 0.31 0.29 0.29 0.30 0.26 0.21 0.20 0.20 0.23 0.25 0.26 0.27 0.28 0.29 0.29 0.31 0.35 0.43 0.46 0.52 0.61 0.58 0.53 0.46 0.46 0.51 0.56 0.60 0.75 0.83 0.83 0.87 0.90 0.94 1.01 1.02 0.90 0.81
0.74 0.55 0.80 0.42 0.23 0.25 0.28 0.31 0.32 0.29 0.24 0.24 0.25 0.25 0.24 0.27 0.30 0.32 0.31 0.30 0.30 0.34 0.40 0.41 0.46 0.48 0.52 0.55 0.53 0.50 0.50 0.55 0.59 0.57 0.62 0.76 0.87 0.87 0.87 0.89 0.91 0.97 0.96 0.87
1.14 0.82 0.49 0.23 0.20 0.26 0.32 0.36 0.29 0.24 0.22 0.20 0.20 0.18 0.18 0.18 0.23 0.30 0.30 0.29 0.31 0.35 0.39 0.39 0.40 0.42 0.48 0.53 0.51 0.53 0.58 0.60 0.60 0.55 0.56 0.67 0.77 0.85 0.86 0.86 0.83 0.85 0.88 0.86
1.30 0.98 0.48 0.31 0.20 0.17 0.25 0.45 0.27 0.21 0.23 0.21 0.20 0.27 0.22 0.16 0.20 0.27 0.25 0.25 0.29 0.32 0.32 0.35 0.38 0.39 0.46 0.52 0.46 0.50 0.54 0.60 0.57 0.51 0.47 0.48 0.59 0.75 0.83 0.83 0.79 0.79 0.80 0.82
1.14 0.91 0.41 0.28 0.21 0.19 0.41 0.51 0.25 0.21 0.23 0.21 0.24 0.30 0.24 0.20 0.23 0.26 0.20 0.21 0.24 0.27 0.30 0.37 0.40 0.37 0.42 0.50 0.50 0.50 0.54 0.59 0.54 0.50 0.49 0.48 0.54 0.68 0.77 0.84 0.85 0.79 0.76 0.78
0.85 0.95 0.53 0.28 0.28 0.42 0.49 0.28 0.19 0.17 0.17 0.18 0.17 0.16 0.16 0.18 0.22 0.23 0.19 0.18 0.18 0.21 0.26 0.32 0.35 0.35 0.42 0.49 0.52 0.55 0.56 0.53 0.53 0.54 0.53 0.53 0.56 0.65 0.76 0.84 0.90 0.84 0.76 0.75
0.63 0.57 0.40 0.33 0.40 0.40 0.31 0.21 0.16 0.16 0.15 0.14 0.14 0.14 0.16 0.19 0.21 0.23 0.20 0.20 0.19 0.20 0.23 0.29 0.33 0.35 0.43 0.48 0.47 0.51 0.52 0.50 0.50 0.53 0.54 0.54 0.59 0.66 0.75 0.83 0.87 0.85 0.76 0.72
0.47 0.33 0.26 0.28 0.29 0.27 0.22 0.19 0.15 0.16 0.15 0.14 0.14 0.14 0.16 0.19 0.20 0.21 0.21 0.20 0.20 0.22 0.24 0.31 0.34 0.35 0.41 0.45 0.42 0.41 0.43 0.47 0.47 0.52 0.56 0.59 0.64 0.68 0.72 0.82 0.89 0.82 0.74 0.69
0.42 0.27 0.23 0.22 0.23 0.23 0.19 0.17 0.16 0.16 0.16 0.15 0.15 0.15 0.17 0.19 0.20 0.21 0.25 0.24 0.23 0.24 0.25 0.32 0.36 0.39 0.42 0.41 0.38 0.38 0.38 0.46 0.53 0.56 0.60 0.64 0.67 0.69 0.73 0.75 0.89 0.87 0.75 0.73
0.38 0.26 0.28 0.26 0.23 0.21 0.20 0.19 0.20 0.19 0.18 0.16 0.17 0.20 0.19 0.19 0.21 0.22 0.26 0.27 0.25 0.26 0.28 0.33 0.38 0.45 0.45 0.39 0.37 0.39 0.42 0.46 0.54 0.59 0.60 0.62 0.61 0.64 0.73 0.76 0.81 0.80 0.75 0.76
0.22 0.21 0.23 0.22 0.20 0.19 0.19 0.19 0.19 0.19 0.20 0.18 0.17 0.19 0.22 0.22 0.22 0.23 0.26 0.29 0.32 0.31 0.34 0.37 0.40 0.46 0.45 0.39 0.35 0.37 0.44 0.47 0.52 0.59 0.57 0.54 0.54 0.54 0.59 0.70 0.80 0.80 0.77 0.76
0.13 0.16 0.18 0.16 0.15 0.15 0.14 0.15 0.15 0.15 0.16 0.16 0.17 0.17 0.21 0.22 0.21 0.22 0.27 0.33 0.36 0.35 0.36 0.38 0.41 0.44 0.44 0.37 0.34 0.36 0.41 0.48 0.51 0.54 0.55 0.54 0.53 0.52 0.53 0.59 0.69 0.74 0.78 0.77
0.08 0.10 0.12 0.10 0.10 0.10 0.11 0.12 0.13 0.13 0.13 0.12 0.13 0.15 0.18 0.22 0.24 0.26 0.30 0.34 0.37 0.36 0.37 0.40 0.44 0.49 0.46 0.38 0.36 0.37 0.42 0.44 0.44 0.49 0.53 0.55 0.55 0.56 0.57 0.59 0.62 0.67 0.72 0.84
0.09 0.08 0.09 0.08 0.09 0.09 0.11 0.12 0.12 0.12 0.12 0.12 0.12 0.13 0.16 0.21 0.26 0.32 0.35 0.37 0.40 0.41 0.41 0.43 0.47 0.50 0.47 0.39 0.38 0.38 0.44 0.51 0.49 0.50 0.54 0.56 0.57 0.61 0.64 0.67 0.69 0.69 0.71 0.80
0.14 0.13 0.11 0.10 0.09 0.09 0.10 0.11 0.11 0.11 0.11 0.12 0.13 0.13 0.14 0.18 0.23 0.28 0.33 0.39 0.42 0.42 0.43 0.44 0.47 0.49 0.47 0.44 0.42 0.41 0.43 0.49 0.55 0.53 0.52 0.54 0.58 0.62 0.66 0.71 0.73 0.70 0.66 0.74
0.17 0.16 0.12 0.12 0.11 0.10 0.09 0.09 0.09 0.11 0.13 0.13 0.13 0.14 0.16 0.20 0.24 0.29 0.35 0.37 0.38 0.42 0.46 0.46 0.49 0.50 0.49 0.51 0.48 0.45 0.46 0.48 0.49 0.50 0.53 0.56 0.61 0.63 0.69 0.73 0.73 0.72 0.71 0.77
0.14 0.14 0.11 0.10 0.10 0.09 0.10 0.10 0.11 0.12 0.13 0.13 0.14 0.16 0.18 0.21 0.25 0.30 0.35 0.35 0.35 0.39 0.45 0.47 0.52 0.50 0.49 0.54 0.54 0.49 0.50 0.52 0.53 0.52 0.53 0.64 0.67 0.65 0.68 0.73 0.76 0.76 0.77 0.79
0.14 0.12 0.11 0.10 0.09 0.09 0.11 0.12 0.11 0.11 0.12 0.13 0.16 0.17 0.18 0.22 0.26 0.29 0.33 0.35 0.37 0.41 0.43 0.47 0.48 0.46 0.48 0.55 0.60 0.54 0.56 0.58 0.58 0.55 0.55 0.61 0.66 0.69 0.71 0.74 0.77 0.79 0.79 0.79
0.14 0.12 0.10 0.10 0.09 0.09 0.11 0.13 0.13 0.12 0.13 0.15 0.19 0.22 0.24 0.28 0.29 0.31 0.32 0.32 0.34 0.37 0.40 0.44 0.44 0.44 0.46 0.57 0.65 0.60 0.60 0.60 0.61 0.60 0.60 0.62 0.67 0.72 0.73 0.74 0.76 0.78 0.79 0.80
0.15 0.14 0.13 0.11 0.11 0.13 0.14 0.15 0.16 0.16 0.16 0.17 0.20 0.24 0.26 0.29 0.29 0.31 0.31 0.32 0.33 0.39 0.40 0.38 0.39 0.45 0.53 0.60 0.61 0.60 0.60 0.60 0.62 0.64 0.66 0.67 0.72 0.77 0.75 0.74 0.78 0.78 0.79 0.81
0.16 0.16 0.16 0.17 0.18 0.19 0.17 0.17 0.19 0.20 0.19 0.19 0.22 0.26 0.29 0.31 0.31 0.32 0.33 0.33 0.36 0.43 0.42 0.41 0.45 0.53 0.60 0.57 0.56 0.58 0.59 0.61 0.62 0.66 0.70 0.72 0.75 0.78 0.80 0.79 0.79 0.81 0.84 0.86
0.19 0.18 0.20 0.21 0.22 0.22 0.20 0.19 0.20 0.23 0.24 0.25 0.25 0.27 0.31 0.32 0.31 0.31 0.34 0.40 0.44 0.47 0.45 0.49 0.54 0.58 0.62 0.57 0.55 0.58 0.63 0.66 0.68 0.72 0.75 0.78 0.80 0.83 0.82 0.81 0.82 0.81 0.83 0.85
0.23 0.22 0.22 0.22 0.23 0.26 0.26 0.24 0.23 0.24 0.25 0.27 0.28 0.29 0.32 0.36 0.39 0.38 0.38 0.42 0.47 0.51 0.50 0.55 0.59 0.61 0.59 0.59 0.60 0.63 0.69 0.73 0.79 0.88 0.90 0.86 0.84 0.85 0.81 0.78 0.82 0.85 0.85 0.83
0.27 0.27 0.28 0.28 0.29 0.30 0.30 0.29 0.28 0.27 0.26 0.29 0.32 0.34 0.38 0.41 0.42 0.43 0.44 0.46 0.49 0.54 0.54 0.54 0.57 0.61 0.63 0.68 0.71 0.73 0.79 0.83 0.85 0.85 0.81 0.80 0.80 0.80 0.77 0.76 0.78 0.82 0.83 0.81
0.32 0.31 0.32 0.33 0.34 0.34 0.35 0.36 0.37 0.37 0.36 0.38 0.42 0.41 0.43 0.46 0.49 0.51 0.51 0.52 0.54 0.56 0.58 0.60 0.63 0.68 0.73 0.76 0.80 0.83 0.86 0.86 0.86 0.85 0.81 0.80 0.79 0.77 0.75 0.76 0.78 0.79 0.78 0.75

GEFSNGP_prec_meanprecacc_240.txt.gz
Total_Precipitation_Accumulation
0.39 0.31 0.33 0.36 0.33 0.34 0.49 0.51 0.40 0.23 0.21 0.22 0.20 0.21 0.23 0.23 0.23 0.21 0.18 0.20 0.26 0.31 0.32 0.37 0.44 0.53 0.56 0.53 0.49 0.46 0.50 0.58 0.64 0.70 0.78 0.81 0.81 0.94 1.13 1.09 0.95 0.87 0.84 0.87
0.32 0.25 0.27 0.27 0.24 0.27 0.31 0.31 0.27 0.19 0.20 0.22 0.20 0.16 0.18 0.21 0.23 0.25 0.25 0.24 0.27 0.31 0.32 0.39 0.45 0.54 0.63 0.57 0.51 0.44 0.46 0.52 0.59 0.69 0.82 0.85 0.81 0.85 0.97 1.05 1.00 0.91 0.86 0.84
0.46 0.25 0.40 0.45 0.33 0.32 0.32 0.30 0.30 0.32 0.27 0.22 0.21 0.21 0.24 0.26 0.26 0.28 0.29 0.31 0.30 0.32 0.36 0.43 0.47 0.53 0.62 0.60 0.56 0.48 0.47 0.52 0.58 0.62 0.77 0.84 0.84 0.89 0.93 0.98 1.05 1.05 0.93 0.84
0.75 0.56 0.81 0.42 0.24 0.26 0.28 0.32 0.33 0.31 0.26 0.24 0.26 0.25 0.25 0.28 0.31 0.32 0.32 0.32 0.32 0.35 0.40 0.42 0.46 0.48 0.53 0.56 0.55 0.52 0.52 0.57 0.61 0.59 0.65 0.78 0.89 0.89 0.90 0.92 0.95 1.01 0.98 0.90
1.16 0.84 0.49 0.24 0.21 0.27 0.33 0.37 0.30 0.25 0.23 0.21 0.20 0.19 0.19 0.19 0.24 0.31 0.31 0.31 0.33 0.36 0.39 0.40 0.40 0.42 0.49 0.54 0.52 0.55 0.60 0.62 0.62 0.57 0.59 0.69 0.79 0.87 0.89 0.89 0.86 0.88 0.90 0.89
1.32 1.00 0.49 0.31 0.20 0.18 0.26 0.46 0.27 0.22 0.24 0.22 0.21 0.28 0.23 0.17 0.21 0.28 0.26 0.27 0.30 0.33 0.33 0.35 0.38 0.39 0.47 0.53 0.47 0.52 0.57 0.63 0.58 0.52 0.50 0.52 0.62 0.78 0.85 0.86 0.83 0.82 0.83 0.84
1.16 0.92 0.42 0.29 0.21 0.20 0.42 0.51 0.26 0.22 0.23 0.22 0.25 0.32 0.25 0.21 0.24 0.27 0.21 0.22 0.25 0.29 0.31 0.37 0.40 0.37 0.43 0.50 0.51 0.51 0.55 0.61 0.56 0.51 0.51 0.51 0.58 0.71 0.80 0.88 0.89 0.83 0.79 0.80
0.87 0.97 0.54 0.28 0.29 0.44 0.50 0.28 0.20 0.18 0.18 0.19 0.18 0.17 0.17 0.19 0.23 0.24 0.20 0.18 0.18 0.22 0.27 0.32 0.36 0.36 0.42 0.50 0.52 0.56 0.57 0.55 0.55 0.56 0.54 0.55 0.59 0.68 0.79 0.88 0.94 0.88 0.80 0.78
0.64 0.58 0.41 0.34 0.41 0.41 0.32 0.22 0.16 0.17 0.15 0.15 0.15 0.15 0.17 0.20 0.22 0.23 0.21 0.20 0.19 0.21 0.24 0.29 0.33 0.36 0.44 0.49 0.48 0.53 0.53 0.51 0.52 0.55 0.55 0.56 0.62 0.69 0.78 0.87 0.91 0.89 0.80 0.75
0.48 0.33 0.27 0.29 0.30 0.28 0.23 0.19 0.16 0.17 0.16 0.15 0.15 0.15 0.17 0.20 0.20 0.22 0.22 0.21 0.20 0.22 0.24 0.31 0.34 0.35 0.41 0.46 0.43 0.43 0.45 0.48 0.48 0.54 0.58 0.60 0.66 0.70 0.75 0.85 0.93 0.85 0.77 0.72
0.43 0.27 0.23 0.23 0.23 0.23 0.20 0.17 0.16 0.17 0.17 0.16 0.16 0.16 0.18 0.20 0.21 0.22 0.25 0.24 0.23 0.24 0.25 0.32 0.36 0.39 0.43 0.42 0.40 0.39 0.39 0.47 0.54 0.58 0.62 0.65 0.68 0.72 0.76 0.78 0.93 0.91 0.78 0.76
0.39 0.27 0.29 0.27 0.23 0.22 0.20 0.20 0.20 0.19 0.19 0.16 0.17 0.20 0.19 0.20 0.21 0.23 0.27 0.28 0.26 0.27 0.28 0.34 0.38 0.46 0.46 0.41 0.38 0.40 0.43 0.47 0.55 0.61 0.62 0.63 0.62 0.66 0.76 0.79 0.84 0.83 0.79 0.79
0.22 0.22 0.23 0.23 0.20 0.20 0.19 0.19 0.19 0.20 0.20 0.18 0.17 0.20 0.22 0.23 0.23 0.24 0.27 0.30 0.33 0.32 0.35 0.37 0.41 0.47 0.46 0.40 0.36 0.38 0.45 0.49 0.54 0.61 0.59 0.56 0.55 0.56 0.61 0.72 0.83 0.82 0.80 0.79
0.13 0.16 0.18 0.17 0.16 0.15 0.15 0.15 0.16 0.16 0.16 0.16 0.17 0.18 0.21 0.22 0.21 0.23 0.27 0.33 0.37 0.36 0.37 0.39 0.41 0.45 0.45 0.38 0.35 0.37 0.42 0.50 0.52 0.56 0.57 0.56 0.54 0.54 0.55 0.61 0.71 0.77 0.80 0.80
0.08 0.10 0.13 0.11 0.10 0.10 0.11 0.12 0.13 0.13 0.13 0.12 0.13 0.15 0.19 0.22 0.24 0.26 0.30 0.35 0.38 0.37 0.38 0.41 0.44 0.50 0.47 0.39 0.37 0.38 0.43 0.45 0.46 0.51 0.56 0.57 0.57 0.59 0.59 0.61 0.64 0.69 0.74 0.86
0.09 0.10 0.11 0.10 0.10 0.10 0.11 0.12 0.12 0.12 0.12 0.12 0.12 0.13 0.16 0.21 0.26 0.32 0.35 0.38 0.40 0.41 0.42 0.44 0.47 0.51 0.48 0.40 0.39 0.39 0.45 0.53 0.51 0.52 0.57 0.59 0.60 0.63 0.67 0.69 0.71 0.71 0.74 0.82
0.15 0.13 0.12 0.11 0.10 0.10 0.12 0.12 0.12 0.12 0.12 0.12 0.13 0.13 0.14 0.18 0.23 0.28 0.34 0.39 0.42 0.43 0.43 0.44 0.48 0.49 0.48 0.45 0.43 0.42 0.45 0.50 0.57 0.55 0.54 0.57 0.61 0.65 0.69 0.74 0.76 0.72 0.68 0.76
0.18 0.16 0.13 0.12 0.11 0.11 0.10 0.10 0.10 0.12 0.13 0.13 0.14 0.15 0.16 0.20 0.24 0.29 0.35 0.37 0.38 0.42 0.46 0.47 0.49 0.51 0.50 0.51 0.48 0.46 0.47 0.49 0.51 0.52 0.55 0.58 0.63 0.66 0.71 0.76 0.76 0.74 0.73 0.79
0.14 0.14 0.12 0.11 0.11 0.10 0.10 0.11 0.11 0.12 0.13 0.14 0.15 0.16 0.18 0.21 0.25 0.30 0.35 0.35 0.36 0.39 0.46 0.48 0.53 0.50 0.50 0.55 0.55 0.50 0.51 0.53 0.55 0.53 0.54 0.66 0.70 0.67 0.71 0.75 0.78 0.78 0.79 0.80
0.14 0.13 0.11 0.10 0.09 0.10 0.11 0.12 0.12 0.12 0.12 0.13 0.16 0.17 0.18 0.22 0.26 0.30 0.34 0.36 0.38 0.42 0.44 0.48 0.49 0.47 0.48 0.56 0.60 0.55 0.57 0.59 0.59 0.56 0.56 0.62 0.68 0.71 0.72 0.75 0.78 0.81 0.81 0.81
0.14 0.12 0.10 0.10 0.10 0.10 0.11 0.13 0.13 0.12 0.13 0.15 0.19 0.22 0.25 0.28 0.30 0.32 0.33 0.33 0.34 0.38 0.40 0.45 0.45 0.45 0.47 0.58 0.66 0.62 0.61 0.62 0.62 0.61 0.61 0.64 0.69 0.73 0.74 0.75 0.78 0.79 0.81 0.82
0.15 0.14 0.13 0.11 0.11 0.13 0.14 0.15 0.17 0.16 0.16 0.17 0.20 0.24 0.27 0.29 0.30 0.32 0.32 0.33 0.34 0.40 0.40 0.39 0.39 0.46 0.54 0.61 0.62 0.62 0.61 0.62 0.63 0.65 0.67 0.68 0.73 0.78 0.77 0.75 0.80 0.80 0.80 0.83
0.16 0.16 0.17 0.17 0.18 0.19 0.17 0.17 0.19 0.20 0.19 0.20 0.22 0.26 0.29 0.31 0.31 0.32 0.33 0.33 0.36 0.43 0.42 0.41 0.46 0.54 0.62 0.59 0.57 0.59 0.60 0.62 0.64 0.67 0.71 0.73 0.76 0.79 0.81 0.80 0.81 0.82 0.86 0.87
0.19 0.18 0.20 0.21 0.22 0.22 0.21 0.19 0.21 0.23 0.24 0.25 0.25 0.28 0.31 0.33 0.32 0.31 0.35 0.41 0.45 0.48 0.46 0.50 0.55 0.59 0.64 0.58 0.56 0.59 0.64 0.67 0.69 0.73 0.77 0.79 0.81 0.84 0.83 0.83 0.84 0.82 0.84 0.86
0.23 0.22 0.22 0.22 0.24 0.26 0.26 0.24 0.23 0.24 0.25 0.27 0.28 0.29 0.33 0.37 0.40 0.39 0.39 0.43 0.48 0.52 0.51 0.56 0.60 0.62 0.60 0.60 0.61 0.64 0.70 0.74 0.80 0.89 0.91 0.87 0.86 0.86 0.82 0.79 0.83 0.86 0.86 0.84
0.27 0.28 0.28 0.28 0.30 0.30 0.30 0.29 0.28 0.27 0.27 0.29 0.32 0.34 0.39 0.42 0.43 0.44 0.45 0.47 0.50 0.55 0.55 0.55 0.58 0.62 0.64 0.69 0.72 0.74 0.80 0.84 0.87 0.87 0.83 0.81 0.81 0.81 0.78 0.77 0.79 0.83 0.84 0.82
0.33 0.32 0.33 0.34 0.35 0.35 0.36 0.37 0.38 0.37 0.36 0.39 0.42 0.42 0.44 0.47 0.50 0.52 0.53 0.54 0.55 0.57 0.59 0.61 0.63 0.69 0.74 0.78 0.81 0.85 0.87 0.87 0.87 0.86 0.82 0.81 0.81 0.79 0.76 0.77 0.79 0.80 0.79 0.76